<?xml version="1.0" encoding="UTF-8" standalone="no" ?>
<gpx xmlns="http://www.topografix.com/GPX/1/1" xmlns:xsi="http://www.w3.org/2001/XMLSchema-instance" xsi:schemaLocation="http://www.topografix.com/GPX/1/1 http://www.topografix.com/GPX/1/1/gpx.xsd" version="1.1" creator="VisuGPX - https://www.visugpx.com">
  <metadata>
    <name>Montagne noire J2</name>
    <desc><![CDATA[A refaire pour voir si aucuns interdit]]></desc>
  </metadata>
  <trk>
    <name><![CDATA[2016-03-28-01]]></name>
    <extensions>
      <line xmlns="http://www.topografix.com/GPX/gpx_style/0/2">
        <color>ff00dd</color>
        <width>4</width>
      </line>
    </extensions>
    <trkseg>
      <trkpt lat="43.36086" lon="2.24034">
        <ele>540.8</ele>
        <time>2016-03-28T07:11:44Z</time>
      </trkpt>
      <trkpt lat="43.36086" lon="2.24032">
        <ele>540.8</ele>
        <time>2016-03-28T07:11:45Z</time>
      </trkpt>
      <trkpt lat="43.36086" lon="2.24017">
        <ele>541.1</ele>
        <time>2016-03-28T07:11:49Z</time>
      </trkpt>
      <trkpt lat="43.36085" lon="2.24005">
        <ele>541.4</ele>
        <time>2016-03-28T07:11:55Z</time>
      </trkpt>
      <trkpt lat="43.36074" lon="2.24003">
        <ele>540.9</ele>
        <time>2016-03-28T07:12:01Z</time>
      </trkpt>
      <trkpt lat="43.36064" lon="2.24">
        <ele>540.3</ele>
        <time>2016-03-28T07:12:05Z</time>
      </trkpt>
      <trkpt lat="43.36055" lon="2.23997">
        <ele>539.8</ele>
        <time>2016-03-28T07:12:08Z</time>
      </trkpt>
      <trkpt lat="43.36045" lon="2.23992">
        <ele>539.4</ele>
        <time>2016-03-28T07:12:12Z</time>
      </trkpt>
      <trkpt lat="43.36036" lon="2.23985">
        <ele>538.9</ele>
        <time>2016-03-28T07:12:16Z</time>
      </trkpt>
      <trkpt lat="43.36027" lon="2.23976">
        <ele>535.9</ele>
        <time>2016-03-28T07:12:34Z</time>
      </trkpt>
      <trkpt lat="43.36016" lon="2.23968">
        <ele>535.3</ele>
        <time>2016-03-28T07:12:37Z</time>
      </trkpt>
      <trkpt lat="43.36008" lon="2.23958">
        <ele>535</ele>
        <time>2016-03-28T07:12:41Z</time>
      </trkpt>
      <trkpt lat="43.36002" lon="2.23946">
        <ele>535.1</ele>
        <time>2016-03-28T07:12:48Z</time>
      </trkpt>
      <trkpt lat="43.35996" lon="2.23935">
        <ele>535.2</ele>
        <time>2016-03-28T07:12:55Z</time>
      </trkpt>
      <trkpt lat="43.35989" lon="2.23923">
        <ele>535.7</ele>
        <time>2016-03-28T07:13:00Z</time>
      </trkpt>
      <trkpt lat="43.35984" lon="2.23912">
        <ele>536</ele>
        <time>2016-03-28T07:13:05Z</time>
      </trkpt>
      <trkpt lat="43.35977" lon="2.23903">
        <ele>535.6</ele>
        <time>2016-03-28T07:13:10Z</time>
      </trkpt>
      <trkpt lat="43.3597" lon="2.23892">
        <ele>535.3</ele>
        <time>2016-03-28T07:13:14Z</time>
      </trkpt>
      <trkpt lat="43.35961" lon="2.23881">
        <ele>534.8</ele>
        <time>2016-03-28T07:13:18Z</time>
      </trkpt>
      <trkpt lat="43.35953" lon="2.23871">
        <ele>534.5</ele>
        <time>2016-03-28T07:13:21Z</time>
      </trkpt>
      <trkpt lat="43.35947" lon="2.23862">
        <ele>534.3</ele>
        <time>2016-03-28T07:13:24Z</time>
      </trkpt>
      <trkpt lat="43.35942" lon="2.23848">
        <ele>533.8</ele>
        <time>2016-03-28T07:13:28Z</time>
      </trkpt>
      <trkpt lat="43.35939" lon="2.23836">
        <ele>533.3</ele>
        <time>2016-03-28T07:13:32Z</time>
      </trkpt>
      <trkpt lat="43.35937" lon="2.23821">
        <ele>532.5</ele>
        <time>2016-03-28T07:13:36Z</time>
      </trkpt>
      <trkpt lat="43.35934" lon="2.23806">
        <ele>531.9</ele>
        <time>2016-03-28T07:13:40Z</time>
      </trkpt>
      <trkpt lat="43.3593" lon="2.23795">
        <ele>531.1</ele>
        <time>2016-03-28T07:13:44Z</time>
      </trkpt>
      <trkpt lat="43.3592" lon="2.23786">
        <ele>530.2</ele>
        <time>2016-03-28T07:13:48Z</time>
      </trkpt>
      <trkpt lat="43.35911" lon="2.23778">
        <ele>529.6</ele>
        <time>2016-03-28T07:13:51Z</time>
      </trkpt>
      <trkpt lat="43.35904" lon="2.23769">
        <ele>527.9</ele>
        <time>2016-03-28T07:13:58Z</time>
      </trkpt>
      <trkpt lat="43.35893" lon="2.23765">
        <ele>526.6</ele>
        <time>2016-03-28T07:14:03Z</time>
      </trkpt>
      <trkpt lat="43.35883" lon="2.23761">
        <ele>525.4</ele>
        <time>2016-03-28T07:14:08Z</time>
      </trkpt>
      <trkpt lat="43.35872" lon="2.23755">
        <ele>524.3</ele>
        <time>2016-03-28T07:14:13Z</time>
      </trkpt>
      <trkpt lat="43.35863" lon="2.2375">
        <ele>523.4</ele>
        <time>2016-03-28T07:14:17Z</time>
      </trkpt>
      <trkpt lat="43.35855" lon="2.23745">
        <ele>522.7</ele>
        <time>2016-03-28T07:14:21Z</time>
      </trkpt>
      <trkpt lat="43.35844" lon="2.23741">
        <ele>522.1</ele>
        <time>2016-03-28T07:14:25Z</time>
      </trkpt>
      <trkpt lat="43.35834" lon="2.23739">
        <ele>521.8</ele>
        <time>2016-03-28T07:14:29Z</time>
      </trkpt>
      <trkpt lat="43.35824" lon="2.23735">
        <ele>521.6</ele>
        <time>2016-03-28T07:14:33Z</time>
      </trkpt>
      <trkpt lat="43.35814" lon="2.2373">
        <ele>520.9</ele>
        <time>2016-03-28T07:14:38Z</time>
      </trkpt>
      <trkpt lat="43.35804" lon="2.23722">
        <ele>520.1</ele>
        <time>2016-03-28T07:14:42Z</time>
      </trkpt>
      <trkpt lat="43.35794" lon="2.23718">
        <ele>519.5</ele>
        <time>2016-03-28T07:14:46Z</time>
      </trkpt>
      <trkpt lat="43.35784" lon="2.23712">
        <ele>518.8</ele>
        <time>2016-03-28T07:14:50Z</time>
      </trkpt>
      <trkpt lat="43.35774" lon="2.23708">
        <ele>518.1</ele>
        <time>2016-03-28T07:14:54Z</time>
      </trkpt>
      <trkpt lat="43.35762" lon="2.23705">
        <ele>517.3</ele>
        <time>2016-03-28T07:14:59Z</time>
      </trkpt>
      <trkpt lat="43.35751" lon="2.237">
        <ele>516.8</ele>
        <time>2016-03-28T07:15:03Z</time>
      </trkpt>
      <trkpt lat="43.35742" lon="2.23696">
        <ele>516.4</ele>
        <time>2016-03-28T07:15:06Z</time>
      </trkpt>
      <trkpt lat="43.35732" lon="2.23692">
        <ele>515.7</ele>
        <time>2016-03-28T07:15:10Z</time>
      </trkpt>
      <trkpt lat="43.35723" lon="2.23689">
        <ele>515.3</ele>
        <time>2016-03-28T07:15:14Z</time>
      </trkpt>
      <trkpt lat="43.35712" lon="2.23686">
        <ele>514.6</ele>
        <time>2016-03-28T07:15:19Z</time>
      </trkpt>
      <trkpt lat="43.35702" lon="2.23682">
        <ele>514.1</ele>
        <time>2016-03-28T07:15:22Z</time>
      </trkpt>
      <trkpt lat="43.35691" lon="2.23677">
        <ele>513.7</ele>
        <time>2016-03-28T07:15:25Z</time>
      </trkpt>
      <trkpt lat="43.3568" lon="2.23673">
        <ele>513</ele>
        <time>2016-03-28T07:15:30Z</time>
      </trkpt>
      <trkpt lat="43.3567" lon="2.23669">
        <ele>512.9</ele>
        <time>2016-03-28T07:15:34Z</time>
      </trkpt>
      <trkpt lat="43.3566" lon="2.23669">
        <ele>512.6</ele>
        <time>2016-03-28T07:15:38Z</time>
      </trkpt>
      <trkpt lat="43.35651" lon="2.23667">
        <ele>512.4</ele>
        <time>2016-03-28T07:15:41Z</time>
      </trkpt>
      <trkpt lat="43.35641" lon="2.23664">
        <ele>512.1</ele>
        <time>2016-03-28T07:15:45Z</time>
      </trkpt>
      <trkpt lat="43.35631" lon="2.23661">
        <ele>511.9</ele>
        <time>2016-03-28T07:15:50Z</time>
      </trkpt>
      <trkpt lat="43.35621" lon="2.23661">
        <ele>511.8</ele>
        <time>2016-03-28T07:15:54Z</time>
      </trkpt>
      <trkpt lat="43.35611" lon="2.23661">
        <ele>511.7</ele>
        <time>2016-03-28T07:15:58Z</time>
      </trkpt>
      <trkpt lat="43.35602" lon="2.23661">
        <ele>511.7</ele>
        <time>2016-03-28T07:16:02Z</time>
      </trkpt>
      <trkpt lat="43.35592" lon="2.23663">
        <ele>511.3</ele>
        <time>2016-03-28T07:16:06Z</time>
      </trkpt>
      <trkpt lat="43.35581" lon="2.23664">
        <ele>511.1</ele>
        <time>2016-03-28T07:16:10Z</time>
      </trkpt>
      <trkpt lat="43.3557" lon="2.23665">
        <ele>510.8</ele>
        <time>2016-03-28T07:16:14Z</time>
      </trkpt>
      <trkpt lat="43.35559" lon="2.23662">
        <ele>510.7</ele>
        <time>2016-03-28T07:16:18Z</time>
      </trkpt>
      <trkpt lat="43.35548" lon="2.23658">
        <ele>510.6</ele>
        <time>2016-03-28T07:16:22Z</time>
      </trkpt>
      <trkpt lat="43.35538" lon="2.23655">
        <ele>510.4</ele>
        <time>2016-03-28T07:16:26Z</time>
      </trkpt>
      <trkpt lat="43.35527" lon="2.23653">
        <ele>510.1</ele>
        <time>2016-03-28T07:16:30Z</time>
      </trkpt>
      <trkpt lat="43.35517" lon="2.23651">
        <ele>510</ele>
        <time>2016-03-28T07:16:34Z</time>
      </trkpt>
      <trkpt lat="43.35506" lon="2.23648">
        <ele>509.9</ele>
        <time>2016-03-28T07:16:38Z</time>
      </trkpt>
      <trkpt lat="43.35495" lon="2.23644">
        <ele>509.5</ele>
        <time>2016-03-28T07:16:42Z</time>
      </trkpt>
      <trkpt lat="43.35485" lon="2.23641">
        <ele>509.2</ele>
        <time>2016-03-28T07:16:45Z</time>
      </trkpt>
      <trkpt lat="43.35476" lon="2.23639">
        <ele>508.8</ele>
        <time>2016-03-28T07:16:48Z</time>
      </trkpt>
      <trkpt lat="43.35465" lon="2.23636">
        <ele>508.5</ele>
        <time>2016-03-28T07:16:51Z</time>
      </trkpt>
      <trkpt lat="43.35455" lon="2.23633">
        <ele>508.2</ele>
        <time>2016-03-28T07:16:54Z</time>
      </trkpt>
      <trkpt lat="43.35443" lon="2.23631">
        <ele>508</ele>
        <time>2016-03-28T07:16:58Z</time>
      </trkpt>
      <trkpt lat="43.35433" lon="2.23628">
        <ele>507.5</ele>
        <time>2016-03-28T07:17:01Z</time>
      </trkpt>
      <trkpt lat="43.35419" lon="2.23625">
        <ele>507.1</ele>
        <time>2016-03-28T07:17:04Z</time>
      </trkpt>
      <trkpt lat="43.35408" lon="2.23622">
        <ele>506.8</ele>
        <time>2016-03-28T07:17:07Z</time>
      </trkpt>
      <trkpt lat="43.35398" lon="2.23617">
        <ele>506.6</ele>
        <time>2016-03-28T07:17:10Z</time>
      </trkpt>
      <trkpt lat="43.35385" lon="2.23615">
        <ele>506.3</ele>
        <time>2016-03-28T07:17:14Z</time>
      </trkpt>
      <trkpt lat="43.35373" lon="2.23614">
        <ele>506.1</ele>
        <time>2016-03-28T07:17:17Z</time>
      </trkpt>
      <trkpt lat="43.35362" lon="2.23613">
        <ele>505.7</ele>
        <time>2016-03-28T07:17:25Z</time>
      </trkpt>
      <trkpt lat="43.35348" lon="2.23612">
        <ele>505.6</ele>
        <time>2016-03-28T07:17:28Z</time>
      </trkpt>
      <trkpt lat="43.35337" lon="2.23609">
        <ele>504.7</ele>
        <time>2016-03-28T07:17:30Z</time>
      </trkpt>
      <trkpt lat="43.35326" lon="2.23606">
        <ele>504</ele>
        <time>2016-03-28T07:17:32Z</time>
      </trkpt>
      <trkpt lat="43.35314" lon="2.23604">
        <ele>503.6</ele>
        <time>2016-03-28T07:17:34Z</time>
      </trkpt>
      <trkpt lat="43.35303" lon="2.23602">
        <ele>502.5</ele>
        <time>2016-03-28T07:17:36Z</time>
      </trkpt>
      <trkpt lat="43.35289" lon="2.23602">
        <ele>501</ele>
        <time>2016-03-28T07:17:38Z</time>
      </trkpt>
      <trkpt lat="43.35274" lon="2.23605">
        <ele>499.9</ele>
        <time>2016-03-28T07:17:40Z</time>
      </trkpt>
      <trkpt lat="43.3526" lon="2.23608">
        <ele>498.8</ele>
        <time>2016-03-28T07:17:42Z</time>
      </trkpt>
      <trkpt lat="43.35245" lon="2.23612">
        <ele>497.2</ele>
        <time>2016-03-28T07:17:44Z</time>
      </trkpt>
      <trkpt lat="43.3523" lon="2.23617">
        <ele>495</ele>
        <time>2016-03-28T07:17:46Z</time>
      </trkpt>
      <trkpt lat="43.35217" lon="2.23621">
        <ele>493.1</ele>
        <time>2016-03-28T07:17:48Z</time>
      </trkpt>
      <trkpt lat="43.35204" lon="2.23627">
        <ele>491.6</ele>
        <time>2016-03-28T07:17:50Z</time>
      </trkpt>
      <trkpt lat="43.35191" lon="2.23634">
        <ele>489.6</ele>
        <time>2016-03-28T07:17:52Z</time>
      </trkpt>
      <trkpt lat="43.35176" lon="2.2364">
        <ele>488.3</ele>
        <time>2016-03-28T07:17:54Z</time>
      </trkpt>
      <trkpt lat="43.35162" lon="2.23646">
        <ele>488</ele>
        <time>2016-03-28T07:17:56Z</time>
      </trkpt>
      <trkpt lat="43.35147" lon="2.23653">
        <ele>488.2</ele>
        <time>2016-03-28T07:17:58Z</time>
      </trkpt>
      <trkpt lat="43.35131" lon="2.2366">
        <ele>487.4</ele>
        <time>2016-03-28T07:18:00Z</time>
      </trkpt>
      <trkpt lat="43.35116" lon="2.23666">
        <ele>485.7</ele>
        <time>2016-03-28T07:18:02Z</time>
      </trkpt>
      <trkpt lat="43.35102" lon="2.23671">
        <ele>484.3</ele>
        <time>2016-03-28T07:18:04Z</time>
      </trkpt>
      <trkpt lat="43.35089" lon="2.23676">
        <ele>482.6</ele>
        <time>2016-03-28T07:18:06Z</time>
      </trkpt>
      <trkpt lat="43.35077" lon="2.23681">
        <ele>482.1</ele>
        <time>2016-03-28T07:18:08Z</time>
      </trkpt>
      <trkpt lat="43.35065" lon="2.23687">
        <ele>481.6</ele>
        <time>2016-03-28T07:18:10Z</time>
      </trkpt>
      <trkpt lat="43.35052" lon="2.23692">
        <ele>481.4</ele>
        <time>2016-03-28T07:18:12Z</time>
      </trkpt>
      <trkpt lat="43.35039" lon="2.23695">
        <ele>480.9</ele>
        <time>2016-03-28T07:18:14Z</time>
      </trkpt>
      <trkpt lat="43.35023" lon="2.237">
        <ele>480.4</ele>
        <time>2016-03-28T07:18:16Z</time>
      </trkpt>
      <trkpt lat="43.35008" lon="2.23705">
        <ele>479.5</ele>
        <time>2016-03-28T07:18:18Z</time>
      </trkpt>
      <trkpt lat="43.34994" lon="2.23708">
        <ele>478.4</ele>
        <time>2016-03-28T07:18:20Z</time>
      </trkpt>
      <trkpt lat="43.34981" lon="2.23707">
        <ele>476.6</ele>
        <time>2016-03-28T07:18:22Z</time>
      </trkpt>
      <trkpt lat="43.34968" lon="2.23704">
        <ele>475.4</ele>
        <time>2016-03-28T07:18:24Z</time>
      </trkpt>
      <trkpt lat="43.34955" lon="2.23702">
        <ele>474.1</ele>
        <time>2016-03-28T07:18:26Z</time>
      </trkpt>
      <trkpt lat="43.34942" lon="2.23701">
        <ele>473.3</ele>
        <time>2016-03-28T07:18:28Z</time>
      </trkpt>
      <trkpt lat="43.34933" lon="2.237">
        <ele>471.8</ele>
        <time>2016-03-28T07:18:30Z</time>
      </trkpt>
      <trkpt lat="43.34923" lon="2.23699">
        <ele>470.5</ele>
        <time>2016-03-28T07:18:32Z</time>
      </trkpt>
      <trkpt lat="43.34913" lon="2.23698">
        <ele>469.1</ele>
        <time>2016-03-28T07:18:34Z</time>
      </trkpt>
      <trkpt lat="43.34901" lon="2.23697">
        <ele>467.7</ele>
        <time>2016-03-28T07:18:37Z</time>
      </trkpt>
      <trkpt lat="43.3489" lon="2.23697">
        <ele>467.5</ele>
        <time>2016-03-28T07:18:40Z</time>
      </trkpt>
      <trkpt lat="43.34879" lon="2.23694">
        <ele>467.1</ele>
        <time>2016-03-28T07:18:44Z</time>
      </trkpt>
      <trkpt lat="43.34869" lon="2.23693">
        <ele>466.3</ele>
        <time>2016-03-28T07:18:50Z</time>
      </trkpt>
      <trkpt lat="43.34859" lon="2.23695">
        <ele>465.6</ele>
        <time>2016-03-28T07:18:57Z</time>
      </trkpt>
      <trkpt lat="43.34857" lon="2.23709">
        <ele>465.3</ele>
        <time>2016-03-28T07:19:00Z</time>
      </trkpt>
      <trkpt lat="43.34859" lon="2.23722">
        <ele>464</ele>
        <time>2016-03-28T07:19:02Z</time>
      </trkpt>
      <trkpt lat="43.34861" lon="2.23737">
        <ele>462.3</ele>
        <time>2016-03-28T07:19:04Z</time>
      </trkpt>
      <trkpt lat="43.34862" lon="2.23753">
        <ele>460.8</ele>
        <time>2016-03-28T07:19:06Z</time>
      </trkpt>
      <trkpt lat="43.34863" lon="2.23771">
        <ele>459.8</ele>
        <time>2016-03-28T07:19:08Z</time>
      </trkpt>
      <trkpt lat="43.34865" lon="2.23792">
        <ele>458.6</ele>
        <time>2016-03-28T07:19:10Z</time>
      </trkpt>
      <trkpt lat="43.34866" lon="2.23813">
        <ele>457.1</ele>
        <time>2016-03-28T07:19:12Z</time>
      </trkpt>
      <trkpt lat="43.34866" lon="2.23826">
        <ele>456.6</ele>
        <time>2016-03-28T07:19:13Z</time>
      </trkpt>
      <trkpt lat="43.34867" lon="2.23839">
        <ele>456.2</ele>
        <time>2016-03-28T07:19:14Z</time>
      </trkpt>
      <trkpt lat="43.34868" lon="2.23853">
        <ele>455.9</ele>
        <time>2016-03-28T07:19:15Z</time>
      </trkpt>
      <trkpt lat="43.34869" lon="2.23867">
        <ele>456</ele>
        <time>2016-03-28T07:19:16Z</time>
      </trkpt>
      <trkpt lat="43.34871" lon="2.23893">
        <ele>456.3</ele>
        <time>2016-03-28T07:19:18Z</time>
      </trkpt>
      <trkpt lat="43.34872" lon="2.23906">
        <ele>456.3</ele>
        <time>2016-03-28T07:19:19Z</time>
      </trkpt>
      <trkpt lat="43.34873" lon="2.23922">
        <ele>455.9</ele>
        <time>2016-03-28T07:19:20Z</time>
      </trkpt>
      <trkpt lat="43.34873" lon="2.23936">
        <ele>455.4</ele>
        <time>2016-03-28T07:19:21Z</time>
      </trkpt>
      <trkpt lat="43.34873" lon="2.23948">
        <ele>454.8</ele>
        <time>2016-03-28T07:19:22Z</time>
      </trkpt>
      <trkpt lat="43.34873" lon="2.23962">
        <ele>454.1</ele>
        <time>2016-03-28T07:19:23Z</time>
      </trkpt>
      <trkpt lat="43.34873" lon="2.23977">
        <ele>453.4</ele>
        <time>2016-03-28T07:19:24Z</time>
      </trkpt>
      <trkpt lat="43.34871" lon="2.23992">
        <ele>452.7</ele>
        <time>2016-03-28T07:19:25Z</time>
      </trkpt>
      <trkpt lat="43.34869" lon="2.24008">
        <ele>452.3</ele>
        <time>2016-03-28T07:19:26Z</time>
      </trkpt>
      <trkpt lat="43.34867" lon="2.24025">
        <ele>452.1</ele>
        <time>2016-03-28T07:19:27Z</time>
      </trkpt>
      <trkpt lat="43.34865" lon="2.24042">
        <ele>452</ele>
        <time>2016-03-28T07:19:28Z</time>
      </trkpt>
      <trkpt lat="43.34862" lon="2.24059">
        <ele>451.4</ele>
        <time>2016-03-28T07:19:29Z</time>
      </trkpt>
      <trkpt lat="43.3486" lon="2.24076">
        <ele>451</ele>
        <time>2016-03-28T07:19:30Z</time>
      </trkpt>
      <trkpt lat="43.34858" lon="2.24093">
        <ele>450.8</ele>
        <time>2016-03-28T07:19:31Z</time>
      </trkpt>
      <trkpt lat="43.34855" lon="2.24109">
        <ele>450.6</ele>
        <time>2016-03-28T07:19:32Z</time>
      </trkpt>
      <trkpt lat="43.34853" lon="2.24124">
        <ele>449.9</ele>
        <time>2016-03-28T07:19:33Z</time>
      </trkpt>
      <trkpt lat="43.3485" lon="2.24139">
        <ele>449.1</ele>
        <time>2016-03-28T07:19:34Z</time>
      </trkpt>
      <trkpt lat="43.34847" lon="2.24156">
        <ele>448.8</ele>
        <time>2016-03-28T07:19:35Z</time>
      </trkpt>
      <trkpt lat="43.34844" lon="2.24171">
        <ele>448.4</ele>
        <time>2016-03-28T07:19:36Z</time>
      </trkpt>
      <trkpt lat="43.34842" lon="2.24185">
        <ele>447.8</ele>
        <time>2016-03-28T07:19:37Z</time>
      </trkpt>
      <trkpt lat="43.34839" lon="2.242">
        <ele>447.1</ele>
        <time>2016-03-28T07:19:38Z</time>
      </trkpt>
      <trkpt lat="43.34838" lon="2.24215">
        <ele>446.5</ele>
        <time>2016-03-28T07:19:39Z</time>
      </trkpt>
      <trkpt lat="43.3484" lon="2.2423">
        <ele>446.3</ele>
        <time>2016-03-28T07:19:40Z</time>
      </trkpt>
      <trkpt lat="43.34845" lon="2.24244">
        <ele>446.1</ele>
        <time>2016-03-28T07:19:41Z</time>
      </trkpt>
      <trkpt lat="43.3485" lon="2.24255">
        <ele>445.2</ele>
        <time>2016-03-28T07:19:42Z</time>
      </trkpt>
      <trkpt lat="43.34857" lon="2.24267">
        <ele>444.8</ele>
        <time>2016-03-28T07:19:43Z</time>
      </trkpt>
      <trkpt lat="43.34863" lon="2.24277">
        <ele>444.5</ele>
        <time>2016-03-28T07:19:44Z</time>
      </trkpt>
      <trkpt lat="43.3487" lon="2.24287">
        <ele>444</ele>
        <time>2016-03-28T07:19:45Z</time>
      </trkpt>
      <trkpt lat="43.34876" lon="2.24297">
        <ele>443.6</ele>
        <time>2016-03-28T07:19:46Z</time>
      </trkpt>
      <trkpt lat="43.34882" lon="2.24307">
        <ele>443</ele>
        <time>2016-03-28T07:19:47Z</time>
      </trkpt>
      <trkpt lat="43.34899" lon="2.24315">
        <ele>441.3</ele>
        <time>2016-03-28T07:19:49Z</time>
      </trkpt>
      <trkpt lat="43.34912" lon="2.24313">
        <ele>439.6</ele>
        <time>2016-03-28T07:19:51Z</time>
      </trkpt>
      <trkpt lat="43.34927" lon="2.24315">
        <ele>439</ele>
        <time>2016-03-28T07:19:53Z</time>
      </trkpt>
      <trkpt lat="43.34937" lon="2.24329">
        <ele>439.3</ele>
        <time>2016-03-28T07:19:55Z</time>
      </trkpt>
      <trkpt lat="43.34944" lon="2.24344">
        <ele>440.2</ele>
        <time>2016-03-28T07:19:57Z</time>
      </trkpt>
      <trkpt lat="43.34943" lon="2.24358">
        <ele>441.2</ele>
        <time>2016-03-28T07:19:59Z</time>
      </trkpt>
      <trkpt lat="43.34937" lon="2.24368">
        <ele>442.2</ele>
        <time>2016-03-28T07:20:01Z</time>
      </trkpt>
      <trkpt lat="43.34925" lon="2.24377">
        <ele>443.5</ele>
        <time>2016-03-28T07:20:03Z</time>
      </trkpt>
      <trkpt lat="43.34911" lon="2.24384">
        <ele>442.3</ele>
        <time>2016-03-28T07:20:05Z</time>
      </trkpt>
      <trkpt lat="43.34893" lon="2.24391">
        <ele>440</ele>
        <time>2016-03-28T07:20:07Z</time>
      </trkpt>
      <trkpt lat="43.34884" lon="2.24395">
        <ele>439.5</ele>
        <time>2016-03-28T07:20:08Z</time>
      </trkpt>
      <trkpt lat="43.34875" lon="2.24399">
        <ele>439</ele>
        <time>2016-03-28T07:20:09Z</time>
      </trkpt>
      <trkpt lat="43.34864" lon="2.24404">
        <ele>438.7</ele>
        <time>2016-03-28T07:20:10Z</time>
      </trkpt>
      <trkpt lat="43.34853" lon="2.24408">
        <ele>438.2</ele>
        <time>2016-03-28T07:20:11Z</time>
      </trkpt>
      <trkpt lat="43.34843" lon="2.24413">
        <ele>437.8</ele>
        <time>2016-03-28T07:20:12Z</time>
      </trkpt>
      <trkpt lat="43.34832" lon="2.24418">
        <ele>438</ele>
        <time>2016-03-28T07:20:13Z</time>
      </trkpt>
      <trkpt lat="43.34821" lon="2.24423">
        <ele>438</ele>
        <time>2016-03-28T07:20:14Z</time>
      </trkpt>
      <trkpt lat="43.3481" lon="2.24429">
        <ele>437.6</ele>
        <time>2016-03-28T07:20:15Z</time>
      </trkpt>
      <trkpt lat="43.348" lon="2.24434">
        <ele>437.2</ele>
        <time>2016-03-28T07:20:16Z</time>
      </trkpt>
      <trkpt lat="43.3479" lon="2.2444">
        <ele>436.8</ele>
        <time>2016-03-28T07:20:17Z</time>
      </trkpt>
      <trkpt lat="43.34779" lon="2.24447">
        <ele>436.9</ele>
        <time>2016-03-28T07:20:18Z</time>
      </trkpt>
      <trkpt lat="43.34769" lon="2.24454">
        <ele>436.8</ele>
        <time>2016-03-28T07:20:19Z</time>
      </trkpt>
      <trkpt lat="43.34758" lon="2.24463">
        <ele>436.4</ele>
        <time>2016-03-28T07:20:20Z</time>
      </trkpt>
      <trkpt lat="43.34748" lon="2.24472">
        <ele>435.8</ele>
        <time>2016-03-28T07:20:21Z</time>
      </trkpt>
      <trkpt lat="43.34738" lon="2.24482">
        <ele>435.7</ele>
        <time>2016-03-28T07:20:22Z</time>
      </trkpt>
      <trkpt lat="43.34728" lon="2.24491">
        <ele>435.7</ele>
        <time>2016-03-28T07:20:23Z</time>
      </trkpt>
      <trkpt lat="43.34718" lon="2.245">
        <ele>436</ele>
        <time>2016-03-28T07:20:24Z</time>
      </trkpt>
      <trkpt lat="43.34707" lon="2.24509">
        <ele>435.9</ele>
        <time>2016-03-28T07:20:25Z</time>
      </trkpt>
      <trkpt lat="43.34697" lon="2.24517">
        <ele>435.7</ele>
        <time>2016-03-28T07:20:26Z</time>
      </trkpt>
      <trkpt lat="43.34684" lon="2.2452">
        <ele>435.3</ele>
        <time>2016-03-28T07:20:27Z</time>
      </trkpt>
      <trkpt lat="43.34672" lon="2.24523">
        <ele>434.7</ele>
        <time>2016-03-28T07:20:28Z</time>
      </trkpt>
      <trkpt lat="43.34662" lon="2.24525">
        <ele>434.4</ele>
        <time>2016-03-28T07:20:29Z</time>
      </trkpt>
      <trkpt lat="43.34652" lon="2.24526">
        <ele>433.8</ele>
        <time>2016-03-28T07:20:30Z</time>
      </trkpt>
      <trkpt lat="43.34642" lon="2.24528">
        <ele>433.1</ele>
        <time>2016-03-28T07:20:31Z</time>
      </trkpt>
      <trkpt lat="43.34633" lon="2.2453">
        <ele>432.5</ele>
        <time>2016-03-28T07:20:32Z</time>
      </trkpt>
      <trkpt lat="43.34622" lon="2.24532">
        <ele>431.7</ele>
        <time>2016-03-28T07:20:33Z</time>
      </trkpt>
      <trkpt lat="43.34612" lon="2.24535">
        <ele>431.6</ele>
        <time>2016-03-28T07:20:34Z</time>
      </trkpt>
      <trkpt lat="43.34603" lon="2.24538">
        <ele>431.5</ele>
        <time>2016-03-28T07:20:35Z</time>
      </trkpt>
      <trkpt lat="43.34593" lon="2.24543">
        <ele>431.5</ele>
        <time>2016-03-28T07:20:36Z</time>
      </trkpt>
      <trkpt lat="43.34584" lon="2.24548">
        <ele>431.3</ele>
        <time>2016-03-28T07:20:37Z</time>
      </trkpt>
      <trkpt lat="43.34574" lon="2.24553">
        <ele>431.2</ele>
        <time>2016-03-28T07:20:38Z</time>
      </trkpt>
      <trkpt lat="43.34565" lon="2.24559">
        <ele>431</ele>
        <time>2016-03-28T07:20:39Z</time>
      </trkpt>
      <trkpt lat="43.34556" lon="2.24564">
        <ele>430.7</ele>
        <time>2016-03-28T07:20:40Z</time>
      </trkpt>
      <trkpt lat="43.34546" lon="2.2457">
        <ele>430.6</ele>
        <time>2016-03-28T07:20:41Z</time>
      </trkpt>
      <trkpt lat="43.34538" lon="2.24575">
        <ele>430.5</ele>
        <time>2016-03-28T07:20:42Z</time>
      </trkpt>
      <trkpt lat="43.34529" lon="2.24581">
        <ele>430.3</ele>
        <time>2016-03-28T07:20:43Z</time>
      </trkpt>
      <trkpt lat="43.34521" lon="2.24591">
        <ele>429.6</ele>
        <time>2016-03-28T07:20:44Z</time>
      </trkpt>
      <trkpt lat="43.34513" lon="2.24602">
        <ele>428.7</ele>
        <time>2016-03-28T07:20:45Z</time>
      </trkpt>
      <trkpt lat="43.34505" lon="2.24612">
        <ele>427.9</ele>
        <time>2016-03-28T07:20:46Z</time>
      </trkpt>
      <trkpt lat="43.34498" lon="2.24622">
        <ele>427</ele>
        <time>2016-03-28T07:20:47Z</time>
      </trkpt>
      <trkpt lat="43.34491" lon="2.24632">
        <ele>426.2</ele>
        <time>2016-03-28T07:20:48Z</time>
      </trkpt>
      <trkpt lat="43.34478" lon="2.24651">
        <ele>424.5</ele>
        <time>2016-03-28T07:20:50Z</time>
      </trkpt>
      <trkpt lat="43.34466" lon="2.24669">
        <ele>424.4</ele>
        <time>2016-03-28T07:20:52Z</time>
      </trkpt>
      <trkpt lat="43.3446" lon="2.24678">
        <ele>424.6</ele>
        <time>2016-03-28T07:20:53Z</time>
      </trkpt>
      <trkpt lat="43.34453" lon="2.24688">
        <ele>424.5</ele>
        <time>2016-03-28T07:20:54Z</time>
      </trkpt>
      <trkpt lat="43.34438" lon="2.24699">
        <ele>423.9</ele>
        <time>2016-03-28T07:20:56Z</time>
      </trkpt>
      <trkpt lat="43.3443" lon="2.24705">
        <ele>423.1</ele>
        <time>2016-03-28T07:20:57Z</time>
      </trkpt>
      <trkpt lat="43.3442" lon="2.24711">
        <ele>422</ele>
        <time>2016-03-28T07:20:58Z</time>
      </trkpt>
      <trkpt lat="43.34411" lon="2.24716">
        <ele>421.5</ele>
        <time>2016-03-28T07:20:59Z</time>
      </trkpt>
      <trkpt lat="43.34402" lon="2.24721">
        <ele>421.2</ele>
        <time>2016-03-28T07:21:00Z</time>
      </trkpt>
      <trkpt lat="43.34393" lon="2.24726">
        <ele>421.1</ele>
        <time>2016-03-28T07:21:01Z</time>
      </trkpt>
      <trkpt lat="43.34383" lon="2.2473">
        <ele>420.9</ele>
        <time>2016-03-28T07:21:02Z</time>
      </trkpt>
      <trkpt lat="43.34373" lon="2.24735">
        <ele>420.6</ele>
        <time>2016-03-28T07:21:03Z</time>
      </trkpt>
      <trkpt lat="43.34364" lon="2.2474">
        <ele>420.3</ele>
        <time>2016-03-28T07:21:04Z</time>
      </trkpt>
      <trkpt lat="43.34354" lon="2.24746">
        <ele>419.9</ele>
        <time>2016-03-28T07:21:05Z</time>
      </trkpt>
      <trkpt lat="43.34345" lon="2.24754">
        <ele>419.6</ele>
        <time>2016-03-28T07:21:06Z</time>
      </trkpt>
      <trkpt lat="43.34337" lon="2.24765">
        <ele>419.2</ele>
        <time>2016-03-28T07:21:07Z</time>
      </trkpt>
      <trkpt lat="43.3433" lon="2.24776">
        <ele>418.7</ele>
        <time>2016-03-28T07:21:08Z</time>
      </trkpt>
      <trkpt lat="43.34324" lon="2.24788">
        <ele>418.3</ele>
        <time>2016-03-28T07:21:09Z</time>
      </trkpt>
      <trkpt lat="43.34318" lon="2.24801">
        <ele>417.8</ele>
        <time>2016-03-28T07:21:10Z</time>
      </trkpt>
      <trkpt lat="43.34312" lon="2.24814">
        <ele>417.3</ele>
        <time>2016-03-28T07:21:11Z</time>
      </trkpt>
      <trkpt lat="43.34306" lon="2.24827">
        <ele>416.9</ele>
        <time>2016-03-28T07:21:12Z</time>
      </trkpt>
      <trkpt lat="43.34301" lon="2.24841">
        <ele>416.5</ele>
        <time>2016-03-28T07:21:13Z</time>
      </trkpt>
      <trkpt lat="43.34296" lon="2.24854">
        <ele>416</ele>
        <time>2016-03-28T07:21:14Z</time>
      </trkpt>
      <trkpt lat="43.34291" lon="2.24867">
        <ele>415.5</ele>
        <time>2016-03-28T07:21:15Z</time>
      </trkpt>
      <trkpt lat="43.34287" lon="2.2488">
        <ele>414.6</ele>
        <time>2016-03-28T07:21:16Z</time>
      </trkpt>
      <trkpt lat="43.34282" lon="2.24893">
        <ele>414</ele>
        <time>2016-03-28T07:21:17Z</time>
      </trkpt>
      <trkpt lat="43.34277" lon="2.24906">
        <ele>413.4</ele>
        <time>2016-03-28T07:21:18Z</time>
      </trkpt>
      <trkpt lat="43.34272" lon="2.2492">
        <ele>413</ele>
        <time>2016-03-28T07:21:19Z</time>
      </trkpt>
      <trkpt lat="43.34266" lon="2.24935">
        <ele>412.7</ele>
        <time>2016-03-28T07:21:20Z</time>
      </trkpt>
      <trkpt lat="43.34261" lon="2.24949">
        <ele>412.4</ele>
        <time>2016-03-28T07:21:21Z</time>
      </trkpt>
      <trkpt lat="43.34256" lon="2.24963">
        <ele>412</ele>
        <time>2016-03-28T07:21:22Z</time>
      </trkpt>
      <trkpt lat="43.34251" lon="2.24977">
        <ele>411.3</ele>
        <time>2016-03-28T07:21:23Z</time>
      </trkpt>
      <trkpt lat="43.34245" lon="2.24991">
        <ele>410.5</ele>
        <time>2016-03-28T07:21:24Z</time>
      </trkpt>
      <trkpt lat="43.3424" lon="2.25005">
        <ele>410</ele>
        <time>2016-03-28T07:21:25Z</time>
      </trkpt>
      <trkpt lat="43.34234" lon="2.2502">
        <ele>409.4</ele>
        <time>2016-03-28T07:21:26Z</time>
      </trkpt>
      <trkpt lat="43.34229" lon="2.25034">
        <ele>408.7</ele>
        <time>2016-03-28T07:21:27Z</time>
      </trkpt>
      <trkpt lat="43.34224" lon="2.25047">
        <ele>407.9</ele>
        <time>2016-03-28T07:21:28Z</time>
      </trkpt>
      <trkpt lat="43.34219" lon="2.2506">
        <ele>407.3</ele>
        <time>2016-03-28T07:21:29Z</time>
      </trkpt>
      <trkpt lat="43.34214" lon="2.25073">
        <ele>406.7</ele>
        <time>2016-03-28T07:21:30Z</time>
      </trkpt>
      <trkpt lat="43.34211" lon="2.25085">
        <ele>406.2</ele>
        <time>2016-03-28T07:21:31Z</time>
      </trkpt>
      <trkpt lat="43.34215" lon="2.25111">
        <ele>405.6</ele>
        <time>2016-03-28T07:21:33Z</time>
      </trkpt>
      <trkpt lat="43.34229" lon="2.25125">
        <ele>404.8</ele>
        <time>2016-03-28T07:21:35Z</time>
      </trkpt>
      <trkpt lat="43.34238" lon="2.25131">
        <ele>403.8</ele>
        <time>2016-03-28T07:21:36Z</time>
      </trkpt>
      <trkpt lat="43.34247" lon="2.25137">
        <ele>403.1</ele>
        <time>2016-03-28T07:21:37Z</time>
      </trkpt>
      <trkpt lat="43.34255" lon="2.25143">
        <ele>402</ele>
        <time>2016-03-28T07:21:38Z</time>
      </trkpt>
      <trkpt lat="43.34264" lon="2.25149">
        <ele>400.8</ele>
        <time>2016-03-28T07:21:39Z</time>
      </trkpt>
      <trkpt lat="43.34279" lon="2.25161">
        <ele>399.1</ele>
        <time>2016-03-28T07:21:41Z</time>
      </trkpt>
      <trkpt lat="43.34293" lon="2.25171">
        <ele>398.3</ele>
        <time>2016-03-28T07:21:43Z</time>
      </trkpt>
      <trkpt lat="43.34301" lon="2.25185">
        <ele>397.7</ele>
        <time>2016-03-28T07:21:45Z</time>
      </trkpt>
      <trkpt lat="43.34301" lon="2.25203">
        <ele>398.3</ele>
        <time>2016-03-28T07:21:47Z</time>
      </trkpt>
      <trkpt lat="43.34294" lon="2.25216">
        <ele>398.1</ele>
        <time>2016-03-28T07:21:49Z</time>
      </trkpt>
      <trkpt lat="43.34284" lon="2.25228">
        <ele>397.8</ele>
        <time>2016-03-28T07:21:51Z</time>
      </trkpt>
      <trkpt lat="43.3427" lon="2.25234">
        <ele>398.6</ele>
        <time>2016-03-28T07:21:53Z</time>
      </trkpt>
      <trkpt lat="43.34253" lon="2.25236">
        <ele>399.9</ele>
        <time>2016-03-28T07:21:55Z</time>
      </trkpt>
      <trkpt lat="43.34237" lon="2.25237">
        <ele>400.3</ele>
        <time>2016-03-28T07:21:57Z</time>
      </trkpt>
      <trkpt lat="43.34221" lon="2.25237">
        <ele>400.7</ele>
        <time>2016-03-28T07:21:59Z</time>
      </trkpt>
      <trkpt lat="43.34205" lon="2.25237">
        <ele>400.5</ele>
        <time>2016-03-28T07:22:01Z</time>
      </trkpt>
      <trkpt lat="43.34192" lon="2.25246">
        <ele>400.2</ele>
        <time>2016-03-28T07:22:03Z</time>
      </trkpt>
      <trkpt lat="43.34185" lon="2.25263">
        <ele>399.8</ele>
        <time>2016-03-28T07:22:05Z</time>
      </trkpt>
      <trkpt lat="43.34184" lon="2.25279">
        <ele>399.4</ele>
        <time>2016-03-28T07:22:07Z</time>
      </trkpt>
      <trkpt lat="43.34184" lon="2.25293">
        <ele>399.5</ele>
        <time>2016-03-28T07:22:09Z</time>
      </trkpt>
      <trkpt lat="43.34185" lon="2.25306">
        <ele>399.5</ele>
        <time>2016-03-28T07:22:13Z</time>
      </trkpt>
      <trkpt lat="43.34182" lon="2.2532">
        <ele>399.7</ele>
        <time>2016-03-28T07:22:19Z</time>
      </trkpt>
      <trkpt lat="43.34173" lon="2.25334">
        <ele>401.4</ele>
        <time>2016-03-28T07:22:22Z</time>
      </trkpt>
      <trkpt lat="43.34163" lon="2.25348">
        <ele>402.4</ele>
        <time>2016-03-28T07:22:24Z</time>
      </trkpt>
      <trkpt lat="43.34149" lon="2.25356">
        <ele>402.3</ele>
        <time>2016-03-28T07:22:26Z</time>
      </trkpt>
      <trkpt lat="43.34133" lon="2.25356">
        <ele>401.8</ele>
        <time>2016-03-28T07:22:28Z</time>
      </trkpt>
      <trkpt lat="43.34116" lon="2.25355">
        <ele>399.6</ele>
        <time>2016-03-28T07:22:30Z</time>
      </trkpt>
      <trkpt lat="43.34106" lon="2.25354">
        <ele>398.7</ele>
        <time>2016-03-28T07:22:31Z</time>
      </trkpt>
      <trkpt lat="43.34096" lon="2.25354">
        <ele>397.8</ele>
        <time>2016-03-28T07:22:32Z</time>
      </trkpt>
      <trkpt lat="43.34085" lon="2.25354">
        <ele>396.7</ele>
        <time>2016-03-28T07:22:33Z</time>
      </trkpt>
      <trkpt lat="43.34074" lon="2.25354">
        <ele>395.9</ele>
        <time>2016-03-28T07:22:34Z</time>
      </trkpt>
      <trkpt lat="43.34063" lon="2.25354">
        <ele>395.3</ele>
        <time>2016-03-28T07:22:35Z</time>
      </trkpt>
      <trkpt lat="43.34052" lon="2.25354">
        <ele>394.8</ele>
        <time>2016-03-28T07:22:36Z</time>
      </trkpt>
      <trkpt lat="43.3404" lon="2.25354">
        <ele>394.3</ele>
        <time>2016-03-28T07:22:37Z</time>
      </trkpt>
      <trkpt lat="43.34028" lon="2.25353">
        <ele>394.2</ele>
        <time>2016-03-28T07:22:38Z</time>
      </trkpt>
      <trkpt lat="43.34016" lon="2.25353">
        <ele>393.6</ele>
        <time>2016-03-28T07:22:39Z</time>
      </trkpt>
      <trkpt lat="43.34003" lon="2.25353">
        <ele>392.8</ele>
        <time>2016-03-28T07:22:40Z</time>
      </trkpt>
      <trkpt lat="43.3399" lon="2.25353">
        <ele>392.2</ele>
        <time>2016-03-28T07:22:41Z</time>
      </trkpt>
      <trkpt lat="43.33975" lon="2.25353">
        <ele>391.8</ele>
        <time>2016-03-28T07:22:42Z</time>
      </trkpt>
      <trkpt lat="43.33961" lon="2.25353">
        <ele>391.2</ele>
        <time>2016-03-28T07:22:43Z</time>
      </trkpt>
      <trkpt lat="43.33947" lon="2.25352">
        <ele>390.6</ele>
        <time>2016-03-28T07:22:44Z</time>
      </trkpt>
      <trkpt lat="43.33933" lon="2.25352">
        <ele>390</ele>
        <time>2016-03-28T07:22:45Z</time>
      </trkpt>
      <trkpt lat="43.3392" lon="2.25352">
        <ele>389.1</ele>
        <time>2016-03-28T07:22:46Z</time>
      </trkpt>
      <trkpt lat="43.33906" lon="2.25351">
        <ele>388.1</ele>
        <time>2016-03-28T07:22:47Z</time>
      </trkpt>
      <trkpt lat="43.33892" lon="2.25351">
        <ele>387.4</ele>
        <time>2016-03-28T07:22:48Z</time>
      </trkpt>
      <trkpt lat="43.33877" lon="2.25351">
        <ele>386.7</ele>
        <time>2016-03-28T07:22:49Z</time>
      </trkpt>
      <trkpt lat="43.33863" lon="2.2535">
        <ele>386</ele>
        <time>2016-03-28T07:22:50Z</time>
      </trkpt>
      <trkpt lat="43.33849" lon="2.2535">
        <ele>385.3</ele>
        <time>2016-03-28T07:22:51Z</time>
      </trkpt>
      <trkpt lat="43.33835" lon="2.2535">
        <ele>384.8</ele>
        <time>2016-03-28T07:22:52Z</time>
      </trkpt>
      <trkpt lat="43.33821" lon="2.2535">
        <ele>384.2</ele>
        <time>2016-03-28T07:22:53Z</time>
      </trkpt>
      <trkpt lat="43.33806" lon="2.2535">
        <ele>383.8</ele>
        <time>2016-03-28T07:22:54Z</time>
      </trkpt>
      <trkpt lat="43.33792" lon="2.2535">
        <ele>383.4</ele>
        <time>2016-03-28T07:22:55Z</time>
      </trkpt>
      <trkpt lat="43.33778" lon="2.2535">
        <ele>382.9</ele>
        <time>2016-03-28T07:22:56Z</time>
      </trkpt>
      <trkpt lat="43.33763" lon="2.2535">
        <ele>382.3</ele>
        <time>2016-03-28T07:22:57Z</time>
      </trkpt>
      <trkpt lat="43.33748" lon="2.2535">
        <ele>381.6</ele>
        <time>2016-03-28T07:22:58Z</time>
      </trkpt>
      <trkpt lat="43.33733" lon="2.25351">
        <ele>381.2</ele>
        <time>2016-03-28T07:22:59Z</time>
      </trkpt>
      <trkpt lat="43.33718" lon="2.25353">
        <ele>380.8</ele>
        <time>2016-03-28T07:23:00Z</time>
      </trkpt>
      <trkpt lat="43.33702" lon="2.25356">
        <ele>380.5</ele>
        <time>2016-03-28T07:23:01Z</time>
      </trkpt>
      <trkpt lat="43.33686" lon="2.25361">
        <ele>380.4</ele>
        <time>2016-03-28T07:23:02Z</time>
      </trkpt>
      <trkpt lat="43.33672" lon="2.25368">
        <ele>380.1</ele>
        <time>2016-03-28T07:23:03Z</time>
      </trkpt>
      <trkpt lat="43.33657" lon="2.25376">
        <ele>379.8</ele>
        <time>2016-03-28T07:23:04Z</time>
      </trkpt>
      <trkpt lat="43.33641" lon="2.25385">
        <ele>379.7</ele>
        <time>2016-03-28T07:23:05Z</time>
      </trkpt>
      <trkpt lat="43.33625" lon="2.25396">
        <ele>379.6</ele>
        <time>2016-03-28T07:23:06Z</time>
      </trkpt>
      <trkpt lat="43.3361" lon="2.25407">
        <ele>379.2</ele>
        <time>2016-03-28T07:23:07Z</time>
      </trkpt>
      <trkpt lat="43.33596" lon="2.25417">
        <ele>378.8</ele>
        <time>2016-03-28T07:23:08Z</time>
      </trkpt>
      <trkpt lat="43.33582" lon="2.25428">
        <ele>378.2</ele>
        <time>2016-03-28T07:23:09Z</time>
      </trkpt>
      <trkpt lat="43.33568" lon="2.25439">
        <ele>377.5</ele>
        <time>2016-03-28T07:23:10Z</time>
      </trkpt>
      <trkpt lat="43.33555" lon="2.2545">
        <ele>376.6</ele>
        <time>2016-03-28T07:23:11Z</time>
      </trkpt>
      <trkpt lat="43.3354" lon="2.25461">
        <ele>375.8</ele>
        <time>2016-03-28T07:23:12Z</time>
      </trkpt>
      <trkpt lat="43.33526" lon="2.25473">
        <ele>375</ele>
        <time>2016-03-28T07:23:13Z</time>
      </trkpt>
      <trkpt lat="43.33513" lon="2.25484">
        <ele>374.4</ele>
        <time>2016-03-28T07:23:14Z</time>
      </trkpt>
      <trkpt lat="43.335" lon="2.25496">
        <ele>374</ele>
        <time>2016-03-28T07:23:15Z</time>
      </trkpt>
      <trkpt lat="43.33487" lon="2.25508">
        <ele>373.5</ele>
        <time>2016-03-28T07:23:16Z</time>
      </trkpt>
      <trkpt lat="43.33474" lon="2.2552">
        <ele>373.2</ele>
        <time>2016-03-28T07:23:17Z</time>
      </trkpt>
      <trkpt lat="43.33461" lon="2.25532">
        <ele>372.7</ele>
        <time>2016-03-28T07:23:18Z</time>
      </trkpt>
      <trkpt lat="43.33447" lon="2.25545">
        <ele>372.3</ele>
        <time>2016-03-28T07:23:19Z</time>
      </trkpt>
      <trkpt lat="43.33434" lon="2.25559">
        <ele>372</ele>
        <time>2016-03-28T07:23:20Z</time>
      </trkpt>
      <trkpt lat="43.33421" lon="2.25572">
        <ele>371.7</ele>
        <time>2016-03-28T07:23:21Z</time>
      </trkpt>
      <trkpt lat="43.33409" lon="2.25585">
        <ele>371.4</ele>
        <time>2016-03-28T07:23:22Z</time>
      </trkpt>
      <trkpt lat="43.33396" lon="2.25598">
        <ele>371</ele>
        <time>2016-03-28T07:23:23Z</time>
      </trkpt>
      <trkpt lat="43.33384" lon="2.25611">
        <ele>370.5</ele>
        <time>2016-03-28T07:23:24Z</time>
      </trkpt>
      <trkpt lat="43.33371" lon="2.25624">
        <ele>369.8</ele>
        <time>2016-03-28T07:23:25Z</time>
      </trkpt>
      <trkpt lat="43.33359" lon="2.25636">
        <ele>369.3</ele>
        <time>2016-03-28T07:23:26Z</time>
      </trkpt>
      <trkpt lat="43.33347" lon="2.25648">
        <ele>368.6</ele>
        <time>2016-03-28T07:23:27Z</time>
      </trkpt>
      <trkpt lat="43.33333" lon="2.25662">
        <ele>368.2</ele>
        <time>2016-03-28T07:23:28Z</time>
      </trkpt>
      <trkpt lat="43.33321" lon="2.25673">
        <ele>367.7</ele>
        <time>2016-03-28T07:23:29Z</time>
      </trkpt>
      <trkpt lat="43.3331" lon="2.25685">
        <ele>367.9</ele>
        <time>2016-03-28T07:23:30Z</time>
      </trkpt>
      <trkpt lat="43.33298" lon="2.25697">
        <ele>368</ele>
        <time>2016-03-28T07:23:31Z</time>
      </trkpt>
      <trkpt lat="43.33286" lon="2.25708">
        <ele>367.7</ele>
        <time>2016-03-28T07:23:32Z</time>
      </trkpt>
      <trkpt lat="43.33275" lon="2.25718">
        <ele>367.3</ele>
        <time>2016-03-28T07:23:33Z</time>
      </trkpt>
      <trkpt lat="43.33263" lon="2.2573">
        <ele>367</ele>
        <time>2016-03-28T07:23:34Z</time>
      </trkpt>
      <trkpt lat="43.3325" lon="2.25741">
        <ele>366.8</ele>
        <time>2016-03-28T07:23:35Z</time>
      </trkpt>
      <trkpt lat="43.33238" lon="2.25753">
        <ele>366.6</ele>
        <time>2016-03-28T07:23:36Z</time>
      </trkpt>
      <trkpt lat="43.33226" lon="2.25764">
        <ele>366.3</ele>
        <time>2016-03-28T07:23:37Z</time>
      </trkpt>
      <trkpt lat="43.33214" lon="2.25776">
        <ele>366.1</ele>
        <time>2016-03-28T07:23:38Z</time>
      </trkpt>
      <trkpt lat="43.33201" lon="2.25787">
        <ele>366</ele>
        <time>2016-03-28T07:23:39Z</time>
      </trkpt>
      <trkpt lat="43.33189" lon="2.25798">
        <ele>365.6</ele>
        <time>2016-03-28T07:23:40Z</time>
      </trkpt>
      <trkpt lat="43.33178" lon="2.25808">
        <ele>365.3</ele>
        <time>2016-03-28T07:23:41Z</time>
      </trkpt>
      <trkpt lat="43.33166" lon="2.25818">
        <ele>365.1</ele>
        <time>2016-03-28T07:23:42Z</time>
      </trkpt>
      <trkpt lat="43.33155" lon="2.25828">
        <ele>364.7</ele>
        <time>2016-03-28T07:23:43Z</time>
      </trkpt>
      <trkpt lat="43.33145" lon="2.25838">
        <ele>364.3</ele>
        <time>2016-03-28T07:23:44Z</time>
      </trkpt>
      <trkpt lat="43.33134" lon="2.25847">
        <ele>363.9</ele>
        <time>2016-03-28T07:23:45Z</time>
      </trkpt>
      <trkpt lat="43.33124" lon="2.25857">
        <ele>363.6</ele>
        <time>2016-03-28T07:23:46Z</time>
      </trkpt>
      <trkpt lat="43.33114" lon="2.25867">
        <ele>363.4</ele>
        <time>2016-03-28T07:23:47Z</time>
      </trkpt>
      <trkpt lat="43.33106" lon="2.25878">
        <ele>363.2</ele>
        <time>2016-03-28T07:23:48Z</time>
      </trkpt>
      <trkpt lat="43.33099" lon="2.25889">
        <ele>363</ele>
        <time>2016-03-28T07:23:49Z</time>
      </trkpt>
      <trkpt lat="43.33091" lon="2.25901">
        <ele>362.9</ele>
        <time>2016-03-28T07:23:50Z</time>
      </trkpt>
      <trkpt lat="43.33085" lon="2.25913">
        <ele>362.7</ele>
        <time>2016-03-28T07:23:51Z</time>
      </trkpt>
      <trkpt lat="43.33079" lon="2.25923">
        <ele>362.3</ele>
        <time>2016-03-28T07:23:52Z</time>
      </trkpt>
      <trkpt lat="43.33071" lon="2.2594">
        <ele>361.2</ele>
        <time>2016-03-28T07:23:54Z</time>
      </trkpt>
      <trkpt lat="43.33065" lon="2.25951">
        <ele>360.4</ele>
        <time>2016-03-28T07:23:56Z</time>
      </trkpt>
      <trkpt lat="43.33059" lon="2.25963">
        <ele>360.2</ele>
        <time>2016-03-28T07:23:59Z</time>
      </trkpt>
      <trkpt lat="43.33049" lon="2.25968">
        <ele>360.1</ele>
        <time>2016-03-28T07:24:13Z</time>
      </trkpt>
      <trkpt lat="43.3304" lon="2.25974">
        <ele>360</ele>
        <time>2016-03-28T07:24:18Z</time>
      </trkpt>
      <trkpt lat="43.33031" lon="2.25979">
        <ele>360</ele>
        <time>2016-03-28T07:24:23Z</time>
      </trkpt>
      <trkpt lat="43.33021" lon="2.25982">
        <ele>360.3</ele>
        <time>2016-03-28T07:24:34Z</time>
      </trkpt>
      <trkpt lat="43.33011" lon="2.25986">
        <ele>360.3</ele>
        <time>2016-03-28T07:24:41Z</time>
      </trkpt>
      <trkpt lat="43.33002" lon="2.2599">
        <ele>360.5</ele>
        <time>2016-03-28T07:24:46Z</time>
      </trkpt>
      <trkpt lat="43.32992" lon="2.25992">
        <ele>360.6</ele>
        <time>2016-03-28T07:24:50Z</time>
      </trkpt>
      <trkpt lat="43.32981" lon="2.25992">
        <ele>360.5</ele>
        <time>2016-03-28T07:24:54Z</time>
      </trkpt>
      <trkpt lat="43.3297" lon="2.25992">
        <ele>360.4</ele>
        <time>2016-03-28T07:24:58Z</time>
      </trkpt>
      <trkpt lat="43.3296" lon="2.25994">
        <ele>360.3</ele>
        <time>2016-03-28T07:25:02Z</time>
      </trkpt>
      <trkpt lat="43.32949" lon="2.25996">
        <ele>360.2</ele>
        <time>2016-03-28T07:25:06Z</time>
      </trkpt>
      <trkpt lat="43.32937" lon="2.25997">
        <ele>360.4</ele>
        <time>2016-03-28T07:25:10Z</time>
      </trkpt>
      <trkpt lat="43.32925" lon="2.25999">
        <ele>360.6</ele>
        <time>2016-03-28T07:25:14Z</time>
      </trkpt>
      <trkpt lat="43.32914" lon="2.25998">
        <ele>360.7</ele>
        <time>2016-03-28T07:25:18Z</time>
      </trkpt>
      <trkpt lat="43.32902" lon="2.25996">
        <ele>360.8</ele>
        <time>2016-03-28T07:25:22Z</time>
      </trkpt>
      <trkpt lat="43.3289" lon="2.26001">
        <ele>361.3</ele>
        <time>2016-03-28T07:25:25Z</time>
      </trkpt>
      <trkpt lat="43.32878" lon="2.26008">
        <ele>361.7</ele>
        <time>2016-03-28T07:25:28Z</time>
      </trkpt>
      <trkpt lat="43.32868" lon="2.26015">
        <ele>360.7</ele>
        <time>2016-03-28T07:25:30Z</time>
      </trkpt>
      <trkpt lat="43.32858" lon="2.26023">
        <ele>360.5</ele>
        <time>2016-03-28T07:25:32Z</time>
      </trkpt>
      <trkpt lat="43.32846" lon="2.26033">
        <ele>361</ele>
        <time>2016-03-28T07:25:34Z</time>
      </trkpt>
      <trkpt lat="43.32836" lon="2.26044">
        <ele>361.5</ele>
        <time>2016-03-28T07:25:36Z</time>
      </trkpt>
      <trkpt lat="43.32825" lon="2.26052">
        <ele>361.7</ele>
        <time>2016-03-28T07:25:38Z</time>
      </trkpt>
      <trkpt lat="43.32813" lon="2.26061">
        <ele>360.8</ele>
        <time>2016-03-28T07:25:40Z</time>
      </trkpt>
      <trkpt lat="43.32797" lon="2.26071">
        <ele>359.4</ele>
        <time>2016-03-28T07:25:42Z</time>
      </trkpt>
      <trkpt lat="43.32782" lon="2.26082">
        <ele>357.9</ele>
        <time>2016-03-28T07:25:44Z</time>
      </trkpt>
      <trkpt lat="43.32767" lon="2.26094">
        <ele>356.6</ele>
        <time>2016-03-28T07:25:46Z</time>
      </trkpt>
      <trkpt lat="43.32759" lon="2.26101">
        <ele>356.3</ele>
        <time>2016-03-28T07:25:47Z</time>
      </trkpt>
      <trkpt lat="43.32751" lon="2.26108">
        <ele>355.9</ele>
        <time>2016-03-28T07:25:48Z</time>
      </trkpt>
      <trkpt lat="43.32743" lon="2.26115">
        <ele>355.2</ele>
        <time>2016-03-28T07:25:49Z</time>
      </trkpt>
      <trkpt lat="43.32728" lon="2.2613">
        <ele>354.3</ele>
        <time>2016-03-28T07:25:51Z</time>
      </trkpt>
      <trkpt lat="43.32714" lon="2.26145">
        <ele>353.4</ele>
        <time>2016-03-28T07:25:53Z</time>
      </trkpt>
      <trkpt lat="43.32701" lon="2.26158">
        <ele>352.4</ele>
        <time>2016-03-28T07:25:55Z</time>
      </trkpt>
      <trkpt lat="43.32687" lon="2.26169">
        <ele>351.6</ele>
        <time>2016-03-28T07:25:57Z</time>
      </trkpt>
      <trkpt lat="43.32675" lon="2.26174">
        <ele>351.4</ele>
        <time>2016-03-28T07:25:59Z</time>
      </trkpt>
      <trkpt lat="43.32666" lon="2.26181">
        <ele>351.1</ele>
        <time>2016-03-28T07:26:01Z</time>
      </trkpt>
      <trkpt lat="43.32656" lon="2.26192">
        <ele>351</ele>
        <time>2016-03-28T07:26:04Z</time>
      </trkpt>
      <trkpt lat="43.32647" lon="2.26194">
        <ele>350.1</ele>
        <time>2016-03-28T07:26:07Z</time>
      </trkpt>
      <trkpt lat="43.32638" lon="2.26195">
        <ele>348.7</ele>
        <time>2016-03-28T07:26:09Z</time>
      </trkpt>
      <trkpt lat="43.32626" lon="2.26197">
        <ele>347.4</ele>
        <time>2016-03-28T07:26:11Z</time>
      </trkpt>
      <trkpt lat="43.32615" lon="2.262">
        <ele>346.4</ele>
        <time>2016-03-28T07:26:13Z</time>
      </trkpt>
      <trkpt lat="43.32604" lon="2.26204">
        <ele>345.4</ele>
        <time>2016-03-28T07:26:15Z</time>
      </trkpt>
      <trkpt lat="43.32593" lon="2.26209">
        <ele>344.2</ele>
        <time>2016-03-28T07:26:17Z</time>
      </trkpt>
      <trkpt lat="43.32581" lon="2.26214">
        <ele>343.5</ele>
        <time>2016-03-28T07:26:19Z</time>
      </trkpt>
      <trkpt lat="43.32571" lon="2.26218">
        <ele>342.3</ele>
        <time>2016-03-28T07:26:21Z</time>
      </trkpt>
      <trkpt lat="43.32561" lon="2.2622">
        <ele>341.5</ele>
        <time>2016-03-28T07:26:23Z</time>
      </trkpt>
      <trkpt lat="43.32551" lon="2.26222">
        <ele>340.6</ele>
        <time>2016-03-28T07:26:25Z</time>
      </trkpt>
      <trkpt lat="43.32539" lon="2.26222">
        <ele>339.1</ele>
        <time>2016-03-28T07:26:27Z</time>
      </trkpt>
      <trkpt lat="43.32527" lon="2.26225">
        <ele>338.2</ele>
        <time>2016-03-28T07:26:29Z</time>
      </trkpt>
      <trkpt lat="43.32517" lon="2.26231">
        <ele>337.1</ele>
        <time>2016-03-28T07:26:31Z</time>
      </trkpt>
      <trkpt lat="43.32507" lon="2.26236">
        <ele>336.5</ele>
        <time>2016-03-28T07:26:33Z</time>
      </trkpt>
      <trkpt lat="43.32495" lon="2.26243">
        <ele>336.6</ele>
        <time>2016-03-28T07:26:36Z</time>
      </trkpt>
      <trkpt lat="43.32486" lon="2.26248">
        <ele>337.1</ele>
        <time>2016-03-28T07:26:38Z</time>
      </trkpt>
      <trkpt lat="43.32476" lon="2.26252">
        <ele>337.1</ele>
        <time>2016-03-28T07:26:40Z</time>
      </trkpt>
      <trkpt lat="43.32467" lon="2.26256">
        <ele>337</ele>
        <time>2016-03-28T07:26:42Z</time>
      </trkpt>
      <trkpt lat="43.32458" lon="2.26253">
        <ele>337.3</ele>
        <time>2016-03-28T07:26:44Z</time>
      </trkpt>
      <trkpt lat="43.3245" lon="2.26248">
        <ele>336</ele>
        <time>2016-03-28T07:26:46Z</time>
      </trkpt>
      <trkpt lat="43.32442" lon="2.26242">
        <ele>334</ele>
        <time>2016-03-28T07:26:48Z</time>
      </trkpt>
      <trkpt lat="43.32433" lon="2.26235">
        <ele>332.2</ele>
        <time>2016-03-28T07:26:51Z</time>
      </trkpt>
      <trkpt lat="43.32422" lon="2.2623">
        <ele>330.8</ele>
        <time>2016-03-28T07:26:54Z</time>
      </trkpt>
      <trkpt lat="43.32411" lon="2.26227">
        <ele>330.7</ele>
        <time>2016-03-28T07:26:56Z</time>
      </trkpt>
      <trkpt lat="43.32402" lon="2.26223">
        <ele>330.6</ele>
        <time>2016-03-28T07:26:58Z</time>
      </trkpt>
      <trkpt lat="43.3239" lon="2.26219">
        <ele>329.9</ele>
        <time>2016-03-28T07:27:00Z</time>
      </trkpt>
      <trkpt lat="43.32378" lon="2.26213">
        <ele>327.9</ele>
        <time>2016-03-28T07:27:02Z</time>
      </trkpt>
      <trkpt lat="43.32368" lon="2.26208">
        <ele>327.4</ele>
        <time>2016-03-28T07:27:04Z</time>
      </trkpt>
      <trkpt lat="43.32358" lon="2.26203">
        <ele>327.1</ele>
        <time>2016-03-28T07:27:06Z</time>
      </trkpt>
      <trkpt lat="43.32347" lon="2.26196">
        <ele>326.4</ele>
        <time>2016-03-28T07:27:08Z</time>
      </trkpt>
      <trkpt lat="43.32337" lon="2.26192">
        <ele>326.1</ele>
        <time>2016-03-28T07:27:10Z</time>
      </trkpt>
      <trkpt lat="43.32327" lon="2.26194">
        <ele>326.7</ele>
        <time>2016-03-28T07:27:12Z</time>
      </trkpt>
      <trkpt lat="43.32317" lon="2.26198">
        <ele>327.9</ele>
        <time>2016-03-28T07:27:14Z</time>
      </trkpt>
      <trkpt lat="43.32306" lon="2.26197">
        <ele>329</ele>
        <time>2016-03-28T07:27:16Z</time>
      </trkpt>
      <trkpt lat="43.32297" lon="2.26196">
        <ele>329.4</ele>
        <time>2016-03-28T07:27:18Z</time>
      </trkpt>
      <trkpt lat="43.32286" lon="2.26199">
        <ele>330.6</ele>
        <time>2016-03-28T07:27:20Z</time>
      </trkpt>
      <trkpt lat="43.32274" lon="2.26203">
        <ele>330.5</ele>
        <time>2016-03-28T07:27:22Z</time>
      </trkpt>
      <trkpt lat="43.3226" lon="2.26204">
        <ele>329.9</ele>
        <time>2016-03-28T07:27:24Z</time>
      </trkpt>
      <trkpt lat="43.32248" lon="2.26206">
        <ele>329.3</ele>
        <time>2016-03-28T07:27:26Z</time>
      </trkpt>
      <trkpt lat="43.32237" lon="2.26209">
        <ele>328.5</ele>
        <time>2016-03-28T07:27:28Z</time>
      </trkpt>
      <trkpt lat="43.32225" lon="2.26215">
        <ele>327.6</ele>
        <time>2016-03-28T07:27:30Z</time>
      </trkpt>
      <trkpt lat="43.32213" lon="2.26221">
        <ele>327.4</ele>
        <time>2016-03-28T07:27:32Z</time>
      </trkpt>
      <trkpt lat="43.32202" lon="2.26226">
        <ele>327.3</ele>
        <time>2016-03-28T07:27:34Z</time>
      </trkpt>
      <trkpt lat="43.32191" lon="2.26234">
        <ele>326.2</ele>
        <time>2016-03-28T07:27:36Z</time>
      </trkpt>
      <trkpt lat="43.32183" lon="2.26245">
        <ele>325.3</ele>
        <time>2016-03-28T07:27:38Z</time>
      </trkpt>
      <trkpt lat="43.32178" lon="2.26257">
        <ele>324.8</ele>
        <time>2016-03-28T07:27:40Z</time>
      </trkpt>
      <trkpt lat="43.32174" lon="2.2627">
        <ele>324.9</ele>
        <time>2016-03-28T07:27:42Z</time>
      </trkpt>
      <trkpt lat="43.32171" lon="2.26284">
        <ele>324.5</ele>
        <time>2016-03-28T07:27:44Z</time>
      </trkpt>
      <trkpt lat="43.32167" lon="2.26298">
        <ele>324.3</ele>
        <time>2016-03-28T07:27:46Z</time>
      </trkpt>
      <trkpt lat="43.32162" lon="2.26309">
        <ele>324.1</ele>
        <time>2016-03-28T07:27:48Z</time>
      </trkpt>
      <trkpt lat="43.32155" lon="2.26318">
        <ele>324</ele>
        <time>2016-03-28T07:27:50Z</time>
      </trkpt>
      <trkpt lat="43.32148" lon="2.26326">
        <ele>323.9</ele>
        <time>2016-03-28T07:27:52Z</time>
      </trkpt>
      <trkpt lat="43.3214" lon="2.26338">
        <ele>323.2</ele>
        <time>2016-03-28T07:27:55Z</time>
      </trkpt>
      <trkpt lat="43.32133" lon="2.2635">
        <ele>322.5</ele>
        <time>2016-03-28T07:27:58Z</time>
      </trkpt>
      <trkpt lat="43.32125" lon="2.26361">
        <ele>322.4</ele>
        <time>2016-03-28T07:28:01Z</time>
      </trkpt>
      <trkpt lat="43.32116" lon="2.26368">
        <ele>322.5</ele>
        <time>2016-03-28T07:28:06Z</time>
      </trkpt>
      <trkpt lat="43.3211" lon="2.2638">
        <ele>322.6</ele>
        <time>2016-03-28T07:28:12Z</time>
      </trkpt>
      <trkpt lat="43.32105" lon="2.26396">
        <ele>322.6</ele>
        <time>2016-03-28T07:28:16Z</time>
      </trkpt>
      <trkpt lat="43.32099" lon="2.2641">
        <ele>322.5</ele>
        <time>2016-03-28T07:28:19Z</time>
      </trkpt>
      <trkpt lat="43.32093" lon="2.2642">
        <ele>322.5</ele>
        <time>2016-03-28T07:28:22Z</time>
      </trkpt>
      <trkpt lat="43.32082" lon="2.26425">
        <ele>322.4</ele>
        <time>2016-03-28T07:28:26Z</time>
      </trkpt>
      <trkpt lat="43.32071" lon="2.26423">
        <ele>322.1</ele>
        <time>2016-03-28T07:28:31Z</time>
      </trkpt>
      <trkpt lat="43.32058" lon="2.26422">
        <ele>321.5</ele>
        <time>2016-03-28T07:28:34Z</time>
      </trkpt>
      <trkpt lat="43.32047" lon="2.26422">
        <ele>320.2</ele>
        <time>2016-03-28T07:28:37Z</time>
      </trkpt>
      <trkpt lat="43.32034" lon="2.26422">
        <ele>318</ele>
        <time>2016-03-28T07:28:40Z</time>
      </trkpt>
      <trkpt lat="43.32024" lon="2.26422">
        <ele>316.8</ele>
        <time>2016-03-28T07:28:42Z</time>
      </trkpt>
      <trkpt lat="43.32014" lon="2.26422">
        <ele>315.9</ele>
        <time>2016-03-28T07:28:44Z</time>
      </trkpt>
      <trkpt lat="43.32005" lon="2.26422">
        <ele>315.6</ele>
        <time>2016-03-28T07:28:46Z</time>
      </trkpt>
      <trkpt lat="43.31995" lon="2.26422">
        <ele>315.1</ele>
        <time>2016-03-28T07:28:48Z</time>
      </trkpt>
      <trkpt lat="43.31983" lon="2.26421">
        <ele>314.5</ele>
        <time>2016-03-28T07:28:50Z</time>
      </trkpt>
      <trkpt lat="43.31973" lon="2.26418">
        <ele>313.5</ele>
        <time>2016-03-28T07:28:52Z</time>
      </trkpt>
      <trkpt lat="43.31961" lon="2.26413">
        <ele>312.1</ele>
        <time>2016-03-28T07:28:54Z</time>
      </trkpt>
      <trkpt lat="43.31949" lon="2.26406">
        <ele>310.3</ele>
        <time>2016-03-28T07:28:56Z</time>
      </trkpt>
      <trkpt lat="43.31938" lon="2.26397">
        <ele>309.1</ele>
        <time>2016-03-28T07:28:58Z</time>
      </trkpt>
      <trkpt lat="43.31927" lon="2.26387">
        <ele>308.7</ele>
        <time>2016-03-28T07:29:00Z</time>
      </trkpt>
      <trkpt lat="43.31917" lon="2.26377">
        <ele>309</ele>
        <time>2016-03-28T07:29:02Z</time>
      </trkpt>
      <trkpt lat="43.31907" lon="2.26367">
        <ele>309.1</ele>
        <time>2016-03-28T07:29:04Z</time>
      </trkpt>
      <trkpt lat="43.31898" lon="2.26358">
        <ele>308.8</ele>
        <time>2016-03-28T07:29:06Z</time>
      </trkpt>
      <trkpt lat="43.31887" lon="2.2635">
        <ele>307.6</ele>
        <time>2016-03-28T07:29:08Z</time>
      </trkpt>
      <trkpt lat="43.31875" lon="2.26345">
        <ele>306</ele>
        <time>2016-03-28T07:29:10Z</time>
      </trkpt>
      <trkpt lat="43.31863" lon="2.26342">
        <ele>304</ele>
        <time>2016-03-28T07:29:12Z</time>
      </trkpt>
      <trkpt lat="43.3185" lon="2.26341">
        <ele>302.3</ele>
        <time>2016-03-28T07:29:14Z</time>
      </trkpt>
      <trkpt lat="43.31838" lon="2.26341">
        <ele>301.2</ele>
        <time>2016-03-28T07:29:16Z</time>
      </trkpt>
      <trkpt lat="43.31825" lon="2.26341">
        <ele>300.5</ele>
        <time>2016-03-28T07:29:18Z</time>
      </trkpt>
      <trkpt lat="43.31813" lon="2.26341">
        <ele>300.3</ele>
        <time>2016-03-28T07:29:20Z</time>
      </trkpt>
      <trkpt lat="43.31802" lon="2.26342">
        <ele>299.9</ele>
        <time>2016-03-28T07:29:22Z</time>
      </trkpt>
      <trkpt lat="43.31792" lon="2.26343">
        <ele>299.7</ele>
        <time>2016-03-28T07:29:24Z</time>
      </trkpt>
      <trkpt lat="43.3178" lon="2.26346">
        <ele>299.2</ele>
        <time>2016-03-28T07:29:27Z</time>
      </trkpt>
      <trkpt lat="43.3177" lon="2.26349">
        <ele>299</ele>
        <time>2016-03-28T07:29:31Z</time>
      </trkpt>
      <trkpt lat="43.31764" lon="2.26339">
        <ele>298.8</ele>
        <time>2016-03-28T07:29:38Z</time>
      </trkpt>
      <trkpt lat="43.31764" lon="2.26326">
        <ele>298.4</ele>
        <time>2016-03-28T07:29:46Z</time>
      </trkpt>
      <trkpt lat="43.31763" lon="2.26312">
        <ele>299.7</ele>
        <time>2016-03-28T07:30:48Z</time>
      </trkpt>
      <trkpt lat="43.31762" lon="2.26297">
        <ele>299.9</ele>
        <time>2016-03-28T07:30:53Z</time>
      </trkpt>
      <trkpt lat="43.31761" lon="2.26283">
        <ele>299.6</ele>
        <time>2016-03-28T07:30:58Z</time>
      </trkpt>
      <trkpt lat="43.31759" lon="2.26269">
        <ele>299.2</ele>
        <time>2016-03-28T07:31:03Z</time>
      </trkpt>
      <trkpt lat="43.31758" lon="2.26256">
        <ele>298.9</ele>
        <time>2016-03-28T07:31:07Z</time>
      </trkpt>
      <trkpt lat="43.31757" lon="2.26242">
        <ele>298.7</ele>
        <time>2016-03-28T07:31:11Z</time>
      </trkpt>
      <trkpt lat="43.31755" lon="2.26229">
        <ele>298.6</ele>
        <time>2016-03-28T07:31:14Z</time>
      </trkpt>
      <trkpt lat="43.31753" lon="2.2621">
        <ele>298.2</ele>
        <time>2016-03-28T07:31:17Z</time>
      </trkpt>
      <trkpt lat="43.31751" lon="2.26194">
        <ele>299.2</ele>
        <time>2016-03-28T07:31:19Z</time>
      </trkpt>
      <trkpt lat="43.31749" lon="2.26181">
        <ele>300</ele>
        <time>2016-03-28T07:31:21Z</time>
      </trkpt>
      <trkpt lat="43.3175" lon="2.26164">
        <ele>300.1</ele>
        <time>2016-03-28T07:31:24Z</time>
      </trkpt>
      <trkpt lat="43.31746" lon="2.26146">
        <ele>300.1</ele>
        <time>2016-03-28T07:31:27Z</time>
      </trkpt>
      <trkpt lat="43.31744" lon="2.26132">
        <ele>300.8</ele>
        <time>2016-03-28T07:31:29Z</time>
      </trkpt>
      <trkpt lat="43.31742" lon="2.26119">
        <ele>300.6</ele>
        <time>2016-03-28T07:31:31Z</time>
      </trkpt>
      <trkpt lat="43.31741" lon="2.26105">
        <ele>300.5</ele>
        <time>2016-03-28T07:31:33Z</time>
      </trkpt>
      <trkpt lat="43.3174" lon="2.26091">
        <ele>301.1</ele>
        <time>2016-03-28T07:31:35Z</time>
      </trkpt>
      <trkpt lat="43.31738" lon="2.26079">
        <ele>301.9</ele>
        <time>2016-03-28T07:31:37Z</time>
      </trkpt>
      <trkpt lat="43.31737" lon="2.26066">
        <ele>302.4</ele>
        <time>2016-03-28T07:31:39Z</time>
      </trkpt>
      <trkpt lat="43.31735" lon="2.26053">
        <ele>302.5</ele>
        <time>2016-03-28T07:31:41Z</time>
      </trkpt>
      <trkpt lat="43.31733" lon="2.26039">
        <ele>302.8</ele>
        <time>2016-03-28T07:31:43Z</time>
      </trkpt>
      <trkpt lat="43.31731" lon="2.26026">
        <ele>302.8</ele>
        <time>2016-03-28T07:31:45Z</time>
      </trkpt>
      <trkpt lat="43.31729" lon="2.26012">
        <ele>302.9</ele>
        <time>2016-03-28T07:31:47Z</time>
      </trkpt>
      <trkpt lat="43.31727" lon="2.25998">
        <ele>302.7</ele>
        <time>2016-03-28T07:31:49Z</time>
      </trkpt>
      <trkpt lat="43.31726" lon="2.25985">
        <ele>302.5</ele>
        <time>2016-03-28T07:31:51Z</time>
      </trkpt>
      <trkpt lat="43.31724" lon="2.25972">
        <ele>301.9</ele>
        <time>2016-03-28T07:31:53Z</time>
      </trkpt>
      <trkpt lat="43.31723" lon="2.25958">
        <ele>301.2</ele>
        <time>2016-03-28T07:31:55Z</time>
      </trkpt>
      <trkpt lat="43.31721" lon="2.25944">
        <ele>300.1</ele>
        <time>2016-03-28T07:31:57Z</time>
      </trkpt>
      <trkpt lat="43.31719" lon="2.2593">
        <ele>299.1</ele>
        <time>2016-03-28T07:31:59Z</time>
      </trkpt>
      <trkpt lat="43.31718" lon="2.25914">
        <ele>298.2</ele>
        <time>2016-03-28T07:32:01Z</time>
      </trkpt>
      <trkpt lat="43.31717" lon="2.25899">
        <ele>297.4</ele>
        <time>2016-03-28T07:32:03Z</time>
      </trkpt>
      <trkpt lat="43.31716" lon="2.25885">
        <ele>296.7</ele>
        <time>2016-03-28T07:32:05Z</time>
      </trkpt>
      <trkpt lat="43.31714" lon="2.2587">
        <ele>296.3</ele>
        <time>2016-03-28T07:32:07Z</time>
      </trkpt>
      <trkpt lat="43.31713" lon="2.25857">
        <ele>295.3</ele>
        <time>2016-03-28T07:32:09Z</time>
      </trkpt>
      <trkpt lat="43.31711" lon="2.25842">
        <ele>295.7</ele>
        <time>2016-03-28T07:32:11Z</time>
      </trkpt>
      <trkpt lat="43.31709" lon="2.25827">
        <ele>294.7</ele>
        <time>2016-03-28T07:32:13Z</time>
      </trkpt>
      <trkpt lat="43.31707" lon="2.25813">
        <ele>293.6</ele>
        <time>2016-03-28T07:32:15Z</time>
      </trkpt>
      <trkpt lat="43.31705" lon="2.25799">
        <ele>293.3</ele>
        <time>2016-03-28T07:32:17Z</time>
      </trkpt>
      <trkpt lat="43.31704" lon="2.25786">
        <ele>292.9</ele>
        <time>2016-03-28T07:32:20Z</time>
      </trkpt>
      <trkpt lat="43.31703" lon="2.25772">
        <ele>294.1</ele>
        <time>2016-03-28T07:33:22Z</time>
      </trkpt>
      <trkpt lat="43.317" lon="2.25757">
        <ele>294.7</ele>
        <time>2016-03-28T07:33:26Z</time>
      </trkpt>
      <trkpt lat="43.31696" lon="2.25741">
        <ele>295</ele>
        <time>2016-03-28T07:33:31Z</time>
      </trkpt>
      <trkpt lat="43.31694" lon="2.25729">
        <ele>294.9</ele>
        <time>2016-03-28T07:33:34Z</time>
      </trkpt>
      <trkpt lat="43.31686" lon="2.25717">
        <ele>294.9</ele>
        <time>2016-03-28T07:33:38Z</time>
      </trkpt>
      <trkpt lat="43.31678" lon="2.25707">
        <ele>294.8</ele>
        <time>2016-03-28T07:33:44Z</time>
      </trkpt>
      <trkpt lat="43.31672" lon="2.25695">
        <ele>294.7</ele>
        <time>2016-03-28T07:33:49Z</time>
      </trkpt>
      <trkpt lat="43.31668" lon="2.25683">
        <ele>294.3</ele>
        <time>2016-03-28T07:33:55Z</time>
      </trkpt>
      <trkpt lat="43.31664" lon="2.2567">
        <ele>294.3</ele>
        <time>2016-03-28T07:33:59Z</time>
      </trkpt>
      <trkpt lat="43.31659" lon="2.25659">
        <ele>294.2</ele>
        <time>2016-03-28T07:34:02Z</time>
      </trkpt>
      <trkpt lat="43.31653" lon="2.25646">
        <ele>294</ele>
        <time>2016-03-28T07:34:05Z</time>
      </trkpt>
      <trkpt lat="43.31651" lon="2.25634">
        <ele>293.7</ele>
        <time>2016-03-28T07:34:08Z</time>
      </trkpt>
      <trkpt lat="43.3165" lon="2.2562">
        <ele>293.2</ele>
        <time>2016-03-28T07:34:11Z</time>
      </trkpt>
      <trkpt lat="43.31648" lon="2.25607">
        <ele>292.6</ele>
        <time>2016-03-28T07:34:15Z</time>
      </trkpt>
      <trkpt lat="43.31642" lon="2.25595">
        <ele>292.1</ele>
        <time>2016-03-28T07:34:19Z</time>
      </trkpt>
      <trkpt lat="43.31633" lon="2.25585">
        <ele>291.8</ele>
        <time>2016-03-28T07:34:23Z</time>
      </trkpt>
      <trkpt lat="43.31625" lon="2.25578">
        <ele>291.9</ele>
        <time>2016-03-28T07:34:28Z</time>
      </trkpt>
      <trkpt lat="43.31616" lon="2.25571">
        <ele>292.3</ele>
        <time>2016-03-28T07:34:34Z</time>
      </trkpt>
      <trkpt lat="43.31605" lon="2.25564">
        <ele>292.6</ele>
        <time>2016-03-28T07:34:39Z</time>
      </trkpt>
      <trkpt lat="43.31596" lon="2.25558">
        <ele>292.8</ele>
        <time>2016-03-28T07:34:45Z</time>
      </trkpt>
      <trkpt lat="43.31587" lon="2.25552">
        <ele>292.9</ele>
        <time>2016-03-28T07:34:49Z</time>
      </trkpt>
      <trkpt lat="43.31578" lon="2.25547">
        <ele>292.8</ele>
        <time>2016-03-28T07:34:53Z</time>
      </trkpt>
      <trkpt lat="43.31569" lon="2.25539">
        <ele>292.7</ele>
        <time>2016-03-28T07:34:57Z</time>
      </trkpt>
      <trkpt lat="43.3156" lon="2.25534">
        <ele>292.7</ele>
        <time>2016-03-28T07:35:00Z</time>
      </trkpt>
      <trkpt lat="43.31551" lon="2.25532">
        <ele>293.4</ele>
        <time>2016-03-28T07:35:04Z</time>
      </trkpt>
      <trkpt lat="43.31541" lon="2.25532">
        <ele>294</ele>
        <time>2016-03-28T07:35:07Z</time>
      </trkpt>
      <trkpt lat="43.31531" lon="2.25532">
        <ele>294.7</ele>
        <time>2016-03-28T07:35:11Z</time>
      </trkpt>
      <trkpt lat="43.3152" lon="2.25533">
        <ele>295.6</ele>
        <time>2016-03-28T07:35:16Z</time>
      </trkpt>
      <trkpt lat="43.31509" lon="2.25534">
        <ele>296.7</ele>
        <time>2016-03-28T07:35:22Z</time>
      </trkpt>
      <trkpt lat="43.315" lon="2.25539">
        <ele>298</ele>
        <time>2016-03-28T07:35:28Z</time>
      </trkpt>
      <trkpt lat="43.3149" lon="2.25542">
        <ele>299</ele>
        <time>2016-03-28T07:35:33Z</time>
      </trkpt>
      <trkpt lat="43.31481" lon="2.25544">
        <ele>300.5</ele>
        <time>2016-03-28T07:35:38Z</time>
      </trkpt>
      <trkpt lat="43.31471" lon="2.25541">
        <ele>301.8</ele>
        <time>2016-03-28T07:35:43Z</time>
      </trkpt>
      <trkpt lat="43.31463" lon="2.25531">
        <ele>302.4</ele>
        <time>2016-03-28T07:35:48Z</time>
      </trkpt>
      <trkpt lat="43.31454" lon="2.25524">
        <ele>302.9</ele>
        <time>2016-03-28T07:35:52Z</time>
      </trkpt>
      <trkpt lat="43.31445" lon="2.25517">
        <ele>304.9</ele>
        <time>2016-03-28T07:37:22Z</time>
      </trkpt>
      <trkpt lat="43.31436" lon="2.2551">
        <ele>305.2</ele>
        <time>2016-03-28T07:37:27Z</time>
      </trkpt>
      <trkpt lat="43.31427" lon="2.25501">
        <ele>305.5</ele>
        <time>2016-03-28T07:37:31Z</time>
      </trkpt>
      <trkpt lat="43.31417" lon="2.25492">
        <ele>305.8</ele>
        <time>2016-03-28T07:37:35Z</time>
      </trkpt>
      <trkpt lat="43.31409" lon="2.25488">
        <ele>305.6</ele>
        <time>2016-03-28T07:37:39Z</time>
      </trkpt>
      <trkpt lat="43.31398" lon="2.25482">
        <ele>305.3</ele>
        <time>2016-03-28T07:37:43Z</time>
      </trkpt>
      <trkpt lat="43.31389" lon="2.25474">
        <ele>305.2</ele>
        <time>2016-03-28T07:37:47Z</time>
      </trkpt>
      <trkpt lat="43.3138" lon="2.25467">
        <ele>304.9</ele>
        <time>2016-03-28T07:37:51Z</time>
      </trkpt>
      <trkpt lat="43.31371" lon="2.25461">
        <ele>304.6</ele>
        <time>2016-03-28T07:37:54Z</time>
      </trkpt>
      <trkpt lat="43.31362" lon="2.25455">
        <ele>304.5</ele>
        <time>2016-03-28T07:37:57Z</time>
      </trkpt>
      <trkpt lat="43.31352" lon="2.25448">
        <ele>304</ele>
        <time>2016-03-28T07:38:01Z</time>
      </trkpt>
      <trkpt lat="43.31342" lon="2.25441">
        <ele>303.5</ele>
        <time>2016-03-28T07:38:04Z</time>
      </trkpt>
      <trkpt lat="43.31331" lon="2.25434">
        <ele>299.5</ele>
        <time>2016-03-28T07:38:07Z</time>
      </trkpt>
      <trkpt lat="43.31321" lon="2.25429">
        <ele>297.5</ele>
        <time>2016-03-28T07:38:10Z</time>
      </trkpt>
      <trkpt lat="43.31313" lon="2.25424">
        <ele>297</ele>
        <time>2016-03-28T07:38:14Z</time>
      </trkpt>
      <trkpt lat="43.31302" lon="2.25416">
        <ele>296.6</ele>
        <time>2016-03-28T07:38:18Z</time>
      </trkpt>
      <trkpt lat="43.31293" lon="2.25411">
        <ele>296.6</ele>
        <time>2016-03-28T07:38:21Z</time>
      </trkpt>
      <trkpt lat="43.31285" lon="2.25407">
        <ele>296.6</ele>
        <time>2016-03-28T07:38:23Z</time>
      </trkpt>
      <trkpt lat="43.31274" lon="2.25402">
        <ele>296.8</ele>
        <time>2016-03-28T07:38:26Z</time>
      </trkpt>
      <trkpt lat="43.31261" lon="2.25398">
        <ele>296.9</ele>
        <time>2016-03-28T07:38:29Z</time>
      </trkpt>
      <trkpt lat="43.31252" lon="2.25395">
        <ele>297</ele>
        <time>2016-03-28T07:38:31Z</time>
      </trkpt>
      <trkpt lat="43.31241" lon="2.25391">
        <ele>297.3</ele>
        <time>2016-03-28T07:38:34Z</time>
      </trkpt>
      <trkpt lat="43.31231" lon="2.25387">
        <ele>297.6</ele>
        <time>2016-03-28T07:38:36Z</time>
      </trkpt>
      <trkpt lat="43.31219" lon="2.25386">
        <ele>298</ele>
        <time>2016-03-28T07:38:39Z</time>
      </trkpt>
      <trkpt lat="43.31211" lon="2.25391">
        <ele>298.6</ele>
        <time>2016-03-28T07:38:42Z</time>
      </trkpt>
      <trkpt lat="43.31203" lon="2.25403">
        <ele>299.8</ele>
        <time>2016-03-28T07:38:47Z</time>
      </trkpt>
      <trkpt lat="43.312" lon="2.25419">
        <ele>300.1</ele>
        <time>2016-03-28T07:38:50Z</time>
      </trkpt>
      <trkpt lat="43.31196" lon="2.25436">
        <ele>300.1</ele>
        <time>2016-03-28T07:38:53Z</time>
      </trkpt>
      <trkpt lat="43.31192" lon="2.2545">
        <ele>300.3</ele>
        <time>2016-03-28T07:38:56Z</time>
      </trkpt>
      <trkpt lat="43.31187" lon="2.25463">
        <ele>300.4</ele>
        <time>2016-03-28T07:38:59Z</time>
      </trkpt>
      <trkpt lat="43.31182" lon="2.25476">
        <ele>301.9</ele>
        <time>2016-03-28T07:39:02Z</time>
      </trkpt>
      <trkpt lat="43.31178" lon="2.25488">
        <ele>302.7</ele>
        <time>2016-03-28T07:39:04Z</time>
      </trkpt>
      <trkpt lat="43.31172" lon="2.25504">
        <ele>304.1</ele>
        <time>2016-03-28T07:39:07Z</time>
      </trkpt>
      <trkpt lat="43.31165" lon="2.25518">
        <ele>304</ele>
        <time>2016-03-28T07:39:09Z</time>
      </trkpt>
      <trkpt lat="43.31157" lon="2.25532">
        <ele>303.4</ele>
        <time>2016-03-28T07:39:11Z</time>
      </trkpt>
      <trkpt lat="43.3115" lon="2.25545">
        <ele>303.1</ele>
        <time>2016-03-28T07:39:13Z</time>
      </trkpt>
      <trkpt lat="43.31143" lon="2.2556">
        <ele>302.7</ele>
        <time>2016-03-28T07:39:15Z</time>
      </trkpt>
      <trkpt lat="43.31135" lon="2.25575">
        <ele>301.6</ele>
        <time>2016-03-28T07:39:17Z</time>
      </trkpt>
      <trkpt lat="43.31128" lon="2.25591">
        <ele>300.6</ele>
        <time>2016-03-28T07:39:19Z</time>
      </trkpt>
      <trkpt lat="43.3112" lon="2.25606">
        <ele>299.9</ele>
        <time>2016-03-28T07:39:21Z</time>
      </trkpt>
      <trkpt lat="43.31111" lon="2.2562">
        <ele>299.2</ele>
        <time>2016-03-28T07:39:23Z</time>
      </trkpt>
      <trkpt lat="43.31102" lon="2.25633">
        <ele>299</ele>
        <time>2016-03-28T07:39:25Z</time>
      </trkpt>
      <trkpt lat="43.31094" lon="2.25643">
        <ele>298.8</ele>
        <time>2016-03-28T07:39:27Z</time>
      </trkpt>
      <trkpt lat="43.31084" lon="2.25651">
        <ele>298.7</ele>
        <time>2016-03-28T07:39:29Z</time>
      </trkpt>
      <trkpt lat="43.31075" lon="2.25654">
        <ele>298.9</ele>
        <time>2016-03-28T07:39:32Z</time>
      </trkpt>
      <trkpt lat="43.31065" lon="2.25657">
        <ele>298.9</ele>
        <time>2016-03-28T07:39:36Z</time>
      </trkpt>
      <trkpt lat="43.31056" lon="2.25662">
        <ele>299.1</ele>
        <time>2016-03-28T07:39:39Z</time>
      </trkpt>
      <trkpt lat="43.31045" lon="2.25669">
        <ele>299.1</ele>
        <time>2016-03-28T07:39:42Z</time>
      </trkpt>
      <trkpt lat="43.31036" lon="2.25674">
        <ele>299.2</ele>
        <time>2016-03-28T07:39:44Z</time>
      </trkpt>
      <trkpt lat="43.31028" lon="2.25681">
        <ele>299.4</ele>
        <time>2016-03-28T07:39:46Z</time>
      </trkpt>
      <trkpt lat="43.31015" lon="2.25692">
        <ele>298.4</ele>
        <time>2016-03-28T07:39:49Z</time>
      </trkpt>
      <trkpt lat="43.31007" lon="2.25699">
        <ele>298.9</ele>
        <time>2016-03-28T07:39:51Z</time>
      </trkpt>
      <trkpt lat="43.30998" lon="2.25706">
        <ele>298.7</ele>
        <time>2016-03-28T07:39:53Z</time>
      </trkpt>
      <trkpt lat="43.30988" lon="2.25714">
        <ele>299</ele>
        <time>2016-03-28T07:39:56Z</time>
      </trkpt>
      <trkpt lat="43.30978" lon="2.25718">
        <ele>299.2</ele>
        <time>2016-03-28T07:39:59Z</time>
      </trkpt>
      <trkpt lat="43.30965" lon="2.25713">
        <ele>299.9</ele>
        <time>2016-03-28T07:40:02Z</time>
      </trkpt>
      <trkpt lat="43.30957" lon="2.25707">
        <ele>300.4</ele>
        <time>2016-03-28T07:40:04Z</time>
      </trkpt>
      <trkpt lat="43.3095" lon="2.25699">
        <ele>300.6</ele>
        <time>2016-03-28T07:40:06Z</time>
      </trkpt>
      <trkpt lat="43.30942" lon="2.2569">
        <ele>299.7</ele>
        <time>2016-03-28T07:40:08Z</time>
      </trkpt>
      <trkpt lat="43.30935" lon="2.25681">
        <ele>298.5</ele>
        <time>2016-03-28T07:40:10Z</time>
      </trkpt>
      <trkpt lat="43.30928" lon="2.25671">
        <ele>298.3</ele>
        <time>2016-03-28T07:40:12Z</time>
      </trkpt>
      <trkpt lat="43.30922" lon="2.25661">
        <ele>298.3</ele>
        <time>2016-03-28T07:40:14Z</time>
      </trkpt>
      <trkpt lat="43.30915" lon="2.25647">
        <ele>298.4</ele>
        <time>2016-03-28T07:40:17Z</time>
      </trkpt>
      <trkpt lat="43.30909" lon="2.25637">
        <ele>299.4</ele>
        <time>2016-03-28T07:40:19Z</time>
      </trkpt>
      <trkpt lat="43.30903" lon="2.25626">
        <ele>299.8</ele>
        <time>2016-03-28T07:40:21Z</time>
      </trkpt>
      <trkpt lat="43.30896" lon="2.25615">
        <ele>300.4</ele>
        <time>2016-03-28T07:40:23Z</time>
      </trkpt>
      <trkpt lat="43.3089" lon="2.25602">
        <ele>300.4</ele>
        <time>2016-03-28T07:40:25Z</time>
      </trkpt>
      <trkpt lat="43.30883" lon="2.25588">
        <ele>299.7</ele>
        <time>2016-03-28T07:40:27Z</time>
      </trkpt>
      <trkpt lat="43.30876" lon="2.25574">
        <ele>300</ele>
        <time>2016-03-28T07:40:29Z</time>
      </trkpt>
      <trkpt lat="43.30866" lon="2.25561">
        <ele>299.7</ele>
        <time>2016-03-28T07:40:31Z</time>
      </trkpt>
      <trkpt lat="43.30858" lon="2.25551">
        <ele>299.7</ele>
        <time>2016-03-28T07:40:33Z</time>
      </trkpt>
      <trkpt lat="43.30851" lon="2.25541">
        <ele>299.5</ele>
        <time>2016-03-28T07:40:35Z</time>
      </trkpt>
      <trkpt lat="43.30848" lon="2.25528">
        <ele>299</ele>
        <time>2016-03-28T07:40:37Z</time>
      </trkpt>
      <trkpt lat="43.30849" lon="2.2551">
        <ele>297</ele>
        <time>2016-03-28T07:40:40Z</time>
      </trkpt>
      <trkpt lat="43.3085" lon="2.25493">
        <ele>296.2</ele>
        <time>2016-03-28T07:40:42Z</time>
      </trkpt>
      <trkpt lat="43.30849" lon="2.25477">
        <ele>295.3</ele>
        <time>2016-03-28T07:40:44Z</time>
      </trkpt>
      <trkpt lat="43.3085" lon="2.25461">
        <ele>294.5</ele>
        <time>2016-03-28T07:40:46Z</time>
      </trkpt>
      <trkpt lat="43.30851" lon="2.25445">
        <ele>294.3</ele>
        <time>2016-03-28T07:40:48Z</time>
      </trkpt>
      <trkpt lat="43.30854" lon="2.25427">
        <ele>294.4</ele>
        <time>2016-03-28T07:40:50Z</time>
      </trkpt>
      <trkpt lat="43.30856" lon="2.2541">
        <ele>294.5</ele>
        <time>2016-03-28T07:40:52Z</time>
      </trkpt>
      <trkpt lat="43.30859" lon="2.25396">
        <ele>294.8</ele>
        <time>2016-03-28T07:40:54Z</time>
      </trkpt>
      <trkpt lat="43.30864" lon="2.25379">
        <ele>295.2</ele>
        <time>2016-03-28T07:40:56Z</time>
      </trkpt>
      <trkpt lat="43.3087" lon="2.25361">
        <ele>295</ele>
        <time>2016-03-28T07:40:58Z</time>
      </trkpt>
      <trkpt lat="43.30876" lon="2.25345">
        <ele>293.7</ele>
        <time>2016-03-28T07:41:00Z</time>
      </trkpt>
      <trkpt lat="43.30882" lon="2.25326">
        <ele>292.5</ele>
        <time>2016-03-28T07:41:02Z</time>
      </trkpt>
      <trkpt lat="43.30888" lon="2.2531">
        <ele>291.7</ele>
        <time>2016-03-28T07:41:04Z</time>
      </trkpt>
      <trkpt lat="43.30891" lon="2.25297">
        <ele>291.8</ele>
        <time>2016-03-28T07:41:06Z</time>
      </trkpt>
      <trkpt lat="43.30895" lon="2.25281">
        <ele>291.7</ele>
        <time>2016-03-28T07:41:09Z</time>
      </trkpt>
      <trkpt lat="43.30899" lon="2.25269">
        <ele>292</ele>
        <time>2016-03-28T07:41:11Z</time>
      </trkpt>
      <trkpt lat="43.30904" lon="2.25253">
        <ele>293</ele>
        <time>2016-03-28T07:41:13Z</time>
      </trkpt>
      <trkpt lat="43.30909" lon="2.2524">
        <ele>294.1</ele>
        <time>2016-03-28T07:41:15Z</time>
      </trkpt>
      <trkpt lat="43.30914" lon="2.25227">
        <ele>294.8</ele>
        <time>2016-03-28T07:41:17Z</time>
      </trkpt>
      <trkpt lat="43.30918" lon="2.25212">
        <ele>294.8</ele>
        <time>2016-03-28T07:41:19Z</time>
      </trkpt>
      <trkpt lat="43.30919" lon="2.25196">
        <ele>294.8</ele>
        <time>2016-03-28T07:41:21Z</time>
      </trkpt>
      <trkpt lat="43.30919" lon="2.25182">
        <ele>294.9</ele>
        <time>2016-03-28T07:41:23Z</time>
      </trkpt>
      <trkpt lat="43.30919" lon="2.25162">
        <ele>294.3</ele>
        <time>2016-03-28T07:41:26Z</time>
      </trkpt>
      <trkpt lat="43.30917" lon="2.25146">
        <ele>293.5</ele>
        <time>2016-03-28T07:41:28Z</time>
      </trkpt>
      <trkpt lat="43.30919" lon="2.25132">
        <ele>294.7</ele>
        <time>2016-03-28T07:41:30Z</time>
      </trkpt>
      <trkpt lat="43.30922" lon="2.25119">
        <ele>294.8</ele>
        <time>2016-03-28T07:41:32Z</time>
      </trkpt>
      <trkpt lat="43.30927" lon="2.25103">
        <ele>294.7</ele>
        <time>2016-03-28T07:41:35Z</time>
      </trkpt>
      <trkpt lat="43.30932" lon="2.25092">
        <ele>295.2</ele>
        <time>2016-03-28T07:41:37Z</time>
      </trkpt>
      <trkpt lat="43.30938" lon="2.25081">
        <ele>295.1</ele>
        <time>2016-03-28T07:41:39Z</time>
      </trkpt>
      <trkpt lat="43.30944" lon="2.25066">
        <ele>293.8</ele>
        <time>2016-03-28T07:41:42Z</time>
      </trkpt>
      <trkpt lat="43.30944" lon="2.25053">
        <ele>292.3</ele>
        <time>2016-03-28T07:41:44Z</time>
      </trkpt>
      <trkpt lat="43.3094" lon="2.25036">
        <ele>290.2</ele>
        <time>2016-03-28T07:41:47Z</time>
      </trkpt>
      <trkpt lat="43.30933" lon="2.25026">
        <ele>289.1</ele>
        <time>2016-03-28T07:41:49Z</time>
      </trkpt>
      <trkpt lat="43.30924" lon="2.25019">
        <ele>288.4</ele>
        <time>2016-03-28T07:41:51Z</time>
      </trkpt>
      <trkpt lat="43.30915" lon="2.2501">
        <ele>289.4</ele>
        <time>2016-03-28T07:41:53Z</time>
      </trkpt>
      <trkpt lat="43.30906" lon="2.25001">
        <ele>290.7</ele>
        <time>2016-03-28T07:41:55Z</time>
      </trkpt>
      <trkpt lat="43.30897" lon="2.24989">
        <ele>291</ele>
        <time>2016-03-28T07:41:57Z</time>
      </trkpt>
      <trkpt lat="43.30887" lon="2.24978">
        <ele>290.3</ele>
        <time>2016-03-28T07:41:59Z</time>
      </trkpt>
      <trkpt lat="43.30879" lon="2.24965">
        <ele>290</ele>
        <time>2016-03-28T07:42:01Z</time>
      </trkpt>
      <trkpt lat="43.30871" lon="2.24953">
        <ele>290</ele>
        <time>2016-03-28T07:42:03Z</time>
      </trkpt>
      <trkpt lat="43.30864" lon="2.24941">
        <ele>288.9</ele>
        <time>2016-03-28T07:42:06Z</time>
      </trkpt>
      <trkpt lat="43.30859" lon="2.24928">
        <ele>288.6</ele>
        <time>2016-03-28T07:42:10Z</time>
      </trkpt>
      <trkpt lat="43.30856" lon="2.24916">
        <ele>288</ele>
        <time>2016-03-28T07:42:20Z</time>
      </trkpt>
      <trkpt lat="43.30851" lon="2.24902">
        <ele>287.4</ele>
        <time>2016-03-28T07:42:30Z</time>
      </trkpt>
      <trkpt lat="43.30848" lon="2.2489">
        <ele>287.1</ele>
        <time>2016-03-28T07:42:34Z</time>
      </trkpt>
      <trkpt lat="43.30845" lon="2.24877">
        <ele>286.6</ele>
        <time>2016-03-28T07:42:37Z</time>
      </trkpt>
      <trkpt lat="43.30839" lon="2.24861">
        <ele>286.1</ele>
        <time>2016-03-28T07:42:40Z</time>
      </trkpt>
      <trkpt lat="43.30834" lon="2.24845">
        <ele>285.6</ele>
        <time>2016-03-28T07:42:42Z</time>
      </trkpt>
      <trkpt lat="43.30828" lon="2.2483">
        <ele>285.5</ele>
        <time>2016-03-28T07:42:44Z</time>
      </trkpt>
      <trkpt lat="43.30823" lon="2.24816">
        <ele>285.3</ele>
        <time>2016-03-28T07:42:46Z</time>
      </trkpt>
      <trkpt lat="43.30817" lon="2.24799">
        <ele>285.5</ele>
        <time>2016-03-28T07:42:48Z</time>
      </trkpt>
      <trkpt lat="43.3081" lon="2.24783">
        <ele>286.2</ele>
        <time>2016-03-28T07:42:50Z</time>
      </trkpt>
      <trkpt lat="43.30804" lon="2.24768">
        <ele>286.3</ele>
        <time>2016-03-28T07:42:52Z</time>
      </trkpt>
      <trkpt lat="43.30798" lon="2.24752">
        <ele>285.5</ele>
        <time>2016-03-28T07:42:54Z</time>
      </trkpt>
      <trkpt lat="43.30793" lon="2.24736">
        <ele>284.5</ele>
        <time>2016-03-28T07:42:56Z</time>
      </trkpt>
      <trkpt lat="43.30787" lon="2.24719">
        <ele>284.4</ele>
        <time>2016-03-28T07:42:58Z</time>
      </trkpt>
      <trkpt lat="43.30781" lon="2.24702">
        <ele>284.6</ele>
        <time>2016-03-28T07:43:00Z</time>
      </trkpt>
      <trkpt lat="43.30775" lon="2.24686">
        <ele>284.3</ele>
        <time>2016-03-28T07:43:02Z</time>
      </trkpt>
      <trkpt lat="43.3077" lon="2.2467">
        <ele>283.9</ele>
        <time>2016-03-28T07:43:04Z</time>
      </trkpt>
      <trkpt lat="43.30765" lon="2.24655">
        <ele>283.3</ele>
        <time>2016-03-28T07:43:06Z</time>
      </trkpt>
      <trkpt lat="43.30759" lon="2.2464">
        <ele>283</ele>
        <time>2016-03-28T07:43:08Z</time>
      </trkpt>
      <trkpt lat="43.30752" lon="2.24622">
        <ele>282.9</ele>
        <time>2016-03-28T07:43:10Z</time>
      </trkpt>
      <trkpt lat="43.30744" lon="2.24604">
        <ele>283.3</ele>
        <time>2016-03-28T07:43:12Z</time>
      </trkpt>
      <trkpt lat="43.30738" lon="2.24587">
        <ele>283.3</ele>
        <time>2016-03-28T07:43:14Z</time>
      </trkpt>
      <trkpt lat="43.30732" lon="2.2457">
        <ele>283.7</ele>
        <time>2016-03-28T07:43:16Z</time>
      </trkpt>
      <trkpt lat="43.30728" lon="2.24555">
        <ele>283.7</ele>
        <time>2016-03-28T07:43:18Z</time>
      </trkpt>
      <trkpt lat="43.30723" lon="2.24539">
        <ele>283.7</ele>
        <time>2016-03-28T07:43:20Z</time>
      </trkpt>
      <trkpt lat="43.30718" lon="2.24524">
        <ele>284.3</ele>
        <time>2016-03-28T07:43:22Z</time>
      </trkpt>
      <trkpt lat="43.30713" lon="2.24509">
        <ele>284.3</ele>
        <time>2016-03-28T07:43:24Z</time>
      </trkpt>
      <trkpt lat="43.30708" lon="2.24494">
        <ele>283.9</ele>
        <time>2016-03-28T07:43:26Z</time>
      </trkpt>
      <trkpt lat="43.30703" lon="2.24481">
        <ele>283.1</ele>
        <time>2016-03-28T07:43:28Z</time>
      </trkpt>
      <trkpt lat="43.30698" lon="2.24467">
        <ele>282.5</ele>
        <time>2016-03-28T07:43:30Z</time>
      </trkpt>
      <trkpt lat="43.30696" lon="2.24455">
        <ele>281.6</ele>
        <time>2016-03-28T07:43:32Z</time>
      </trkpt>
      <trkpt lat="43.30693" lon="2.24438">
        <ele>280.7</ele>
        <time>2016-03-28T07:43:35Z</time>
      </trkpt>
      <trkpt lat="43.30691" lon="2.24425">
        <ele>280.6</ele>
        <time>2016-03-28T07:43:38Z</time>
      </trkpt>
      <trkpt lat="43.30686" lon="2.24412">
        <ele>280.4</ele>
        <time>2016-03-28T07:43:41Z</time>
      </trkpt>
      <trkpt lat="43.30679" lon="2.24399">
        <ele>280.2</ele>
        <time>2016-03-28T07:43:44Z</time>
      </trkpt>
      <trkpt lat="43.30672" lon="2.24386">
        <ele>278.9</ele>
        <time>2016-03-28T07:43:47Z</time>
      </trkpt>
      <trkpt lat="43.30666" lon="2.24373">
        <ele>279.1</ele>
        <time>2016-03-28T07:43:50Z</time>
      </trkpt>
      <trkpt lat="43.3066" lon="2.24358">
        <ele>280.5</ele>
        <time>2016-03-28T07:43:53Z</time>
      </trkpt>
      <trkpt lat="43.30655" lon="2.24347">
        <ele>281</ele>
        <time>2016-03-28T07:43:55Z</time>
      </trkpt>
      <trkpt lat="43.30648" lon="2.24336">
        <ele>281.6</ele>
        <time>2016-03-28T07:43:57Z</time>
      </trkpt>
      <trkpt lat="43.30643" lon="2.24323">
        <ele>281.9</ele>
        <time>2016-03-28T07:44:00Z</time>
      </trkpt>
      <trkpt lat="43.30637" lon="2.24311">
        <ele>281.7</ele>
        <time>2016-03-28T07:44:04Z</time>
      </trkpt>
      <trkpt lat="43.30633" lon="2.24299">
        <ele>281.5</ele>
        <time>2016-03-28T07:44:07Z</time>
      </trkpt>
      <trkpt lat="43.30628" lon="2.24285">
        <ele>280.8</ele>
        <time>2016-03-28T07:44:10Z</time>
      </trkpt>
      <trkpt lat="43.30623" lon="2.24273">
        <ele>280.7</ele>
        <time>2016-03-28T07:44:12Z</time>
      </trkpt>
      <trkpt lat="43.30617" lon="2.24258">
        <ele>280.8</ele>
        <time>2016-03-28T07:44:14Z</time>
      </trkpt>
      <trkpt lat="43.30611" lon="2.24241">
        <ele>280.8</ele>
        <time>2016-03-28T07:44:16Z</time>
      </trkpt>
      <trkpt lat="43.30608" lon="2.24226">
        <ele>280.3</ele>
        <time>2016-03-28T07:44:18Z</time>
      </trkpt>
      <trkpt lat="43.30605" lon="2.2421">
        <ele>279.7</ele>
        <time>2016-03-28T07:44:20Z</time>
      </trkpt>
      <trkpt lat="43.30602" lon="2.24195">
        <ele>278.9</ele>
        <time>2016-03-28T07:44:22Z</time>
      </trkpt>
      <trkpt lat="43.306" lon="2.2418">
        <ele>278.2</ele>
        <time>2016-03-28T07:44:24Z</time>
      </trkpt>
      <trkpt lat="43.30598" lon="2.24167">
        <ele>277.2</ele>
        <time>2016-03-28T07:44:26Z</time>
      </trkpt>
      <trkpt lat="43.30597" lon="2.24151">
        <ele>276.5</ele>
        <time>2016-03-28T07:44:28Z</time>
      </trkpt>
      <trkpt lat="43.30595" lon="2.24137">
        <ele>275.7</ele>
        <time>2016-03-28T07:44:30Z</time>
      </trkpt>
      <trkpt lat="43.30594" lon="2.24123">
        <ele>275</ele>
        <time>2016-03-28T07:44:32Z</time>
      </trkpt>
      <trkpt lat="43.30592" lon="2.24108">
        <ele>274.3</ele>
        <time>2016-03-28T07:44:34Z</time>
      </trkpt>
      <trkpt lat="43.30591" lon="2.24093">
        <ele>274</ele>
        <time>2016-03-28T07:44:36Z</time>
      </trkpt>
      <trkpt lat="43.30589" lon="2.24078">
        <ele>274</ele>
        <time>2016-03-28T07:44:38Z</time>
      </trkpt>
      <trkpt lat="43.30587" lon="2.24064">
        <ele>273.6</ele>
        <time>2016-03-28T07:44:40Z</time>
      </trkpt>
      <trkpt lat="43.30585" lon="2.2405">
        <ele>272.7</ele>
        <time>2016-03-28T07:44:42Z</time>
      </trkpt>
      <trkpt lat="43.30582" lon="2.24036">
        <ele>271.4</ele>
        <time>2016-03-28T07:44:44Z</time>
      </trkpt>
      <trkpt lat="43.30579" lon="2.24022">
        <ele>270.2</ele>
        <time>2016-03-28T07:44:46Z</time>
      </trkpt>
      <trkpt lat="43.30576" lon="2.2401">
        <ele>269.4</ele>
        <time>2016-03-28T07:44:48Z</time>
      </trkpt>
      <trkpt lat="43.30574" lon="2.23997">
        <ele>269.9</ele>
        <time>2016-03-28T07:44:50Z</time>
      </trkpt>
      <trkpt lat="43.3057" lon="2.2398">
        <ele>271</ele>
        <time>2016-03-28T07:44:53Z</time>
      </trkpt>
      <trkpt lat="43.30564" lon="2.23964">
        <ele>271.4</ele>
        <time>2016-03-28T07:44:56Z</time>
      </trkpt>
      <trkpt lat="43.30556" lon="2.23952">
        <ele>271.2</ele>
        <time>2016-03-28T07:44:58Z</time>
      </trkpt>
      <trkpt lat="43.30551" lon="2.23939">
        <ele>271.7</ele>
        <time>2016-03-28T07:45:00Z</time>
      </trkpt>
      <trkpt lat="43.30547" lon="2.23925">
        <ele>271.7</ele>
        <time>2016-03-28T07:45:02Z</time>
      </trkpt>
      <trkpt lat="43.30543" lon="2.23912">
        <ele>271</ele>
        <time>2016-03-28T07:45:04Z</time>
      </trkpt>
      <trkpt lat="43.30539" lon="2.23897">
        <ele>270</ele>
        <time>2016-03-28T07:45:06Z</time>
      </trkpt>
      <trkpt lat="43.30535" lon="2.23882">
        <ele>269.2</ele>
        <time>2016-03-28T07:45:08Z</time>
      </trkpt>
      <trkpt lat="43.3053" lon="2.23866">
        <ele>269.2</ele>
        <time>2016-03-28T07:45:10Z</time>
      </trkpt>
      <trkpt lat="43.30525" lon="2.23851">
        <ele>269.6</ele>
        <time>2016-03-28T07:45:12Z</time>
      </trkpt>
      <trkpt lat="43.3052" lon="2.23837">
        <ele>269.9</ele>
        <time>2016-03-28T07:45:14Z</time>
      </trkpt>
      <trkpt lat="43.30514" lon="2.23823">
        <ele>270.1</ele>
        <time>2016-03-28T07:45:16Z</time>
      </trkpt>
      <trkpt lat="43.30509" lon="2.23808">
        <ele>270.1</ele>
        <time>2016-03-28T07:45:18Z</time>
      </trkpt>
      <trkpt lat="43.30505" lon="2.23794">
        <ele>269.3</ele>
        <time>2016-03-28T07:45:20Z</time>
      </trkpt>
      <trkpt lat="43.30501" lon="2.23779">
        <ele>268.3</ele>
        <time>2016-03-28T07:45:22Z</time>
      </trkpt>
      <trkpt lat="43.30498" lon="2.23764">
        <ele>266.8</ele>
        <time>2016-03-28T07:45:24Z</time>
      </trkpt>
      <trkpt lat="43.30495" lon="2.23747">
        <ele>265.4</ele>
        <time>2016-03-28T07:45:26Z</time>
      </trkpt>
      <trkpt lat="43.30493" lon="2.23732">
        <ele>263.5</ele>
        <time>2016-03-28T07:45:28Z</time>
      </trkpt>
      <trkpt lat="43.30491" lon="2.23715">
        <ele>262</ele>
        <time>2016-03-28T07:45:30Z</time>
      </trkpt>
      <trkpt lat="43.30488" lon="2.237">
        <ele>260.6</ele>
        <time>2016-03-28T07:45:32Z</time>
      </trkpt>
      <trkpt lat="43.30486" lon="2.23686">
        <ele>259.3</ele>
        <time>2016-03-28T07:45:34Z</time>
      </trkpt>
      <trkpt lat="43.30482" lon="2.2367">
        <ele>259.1</ele>
        <time>2016-03-28T07:45:37Z</time>
      </trkpt>
      <trkpt lat="43.30478" lon="2.23656">
        <ele>258.8</ele>
        <time>2016-03-28T07:45:40Z</time>
      </trkpt>
      <trkpt lat="43.30473" lon="2.23638">
        <ele>256.9</ele>
        <time>2016-03-28T07:45:43Z</time>
      </trkpt>
      <trkpt lat="43.30469" lon="2.2362">
        <ele>252.5</ele>
        <time>2016-03-28T07:45:46Z</time>
      </trkpt>
      <trkpt lat="43.30468" lon="2.23607">
        <ele>249.8</ele>
        <time>2016-03-28T07:45:48Z</time>
      </trkpt>
      <trkpt lat="43.30466" lon="2.23591">
        <ele>247.3</ele>
        <time>2016-03-28T07:45:50Z</time>
      </trkpt>
      <trkpt lat="43.30466" lon="2.23577">
        <ele>246</ele>
        <time>2016-03-28T07:45:52Z</time>
      </trkpt>
      <trkpt lat="43.30468" lon="2.2356">
        <ele>243.6</ele>
        <time>2016-03-28T07:45:55Z</time>
      </trkpt>
      <trkpt lat="43.3047" lon="2.23543">
        <ele>243.5</ele>
        <time>2016-03-28T07:45:58Z</time>
      </trkpt>
      <trkpt lat="43.30469" lon="2.23528">
        <ele>243.8</ele>
        <time>2016-03-28T07:46:01Z</time>
      </trkpt>
      <trkpt lat="43.30469" lon="2.23514">
        <ele>243.9</ele>
        <time>2016-03-28T07:46:04Z</time>
      </trkpt>
      <trkpt lat="43.30468" lon="2.23496">
        <ele>243.9</ele>
        <time>2016-03-28T07:46:07Z</time>
      </trkpt>
      <trkpt lat="43.30465" lon="2.23479">
        <ele>244</ele>
        <time>2016-03-28T07:46:10Z</time>
      </trkpt>
      <trkpt lat="43.3046" lon="2.23468">
        <ele>244.3</ele>
        <time>2016-03-28T07:46:12Z</time>
      </trkpt>
      <trkpt lat="43.30454" lon="2.23453">
        <ele>244.5</ele>
        <time>2016-03-28T07:46:14Z</time>
      </trkpt>
      <trkpt lat="43.3045" lon="2.23441">
        <ele>245</ele>
        <time>2016-03-28T07:46:16Z</time>
      </trkpt>
      <trkpt lat="43.30445" lon="2.23425">
        <ele>244.7</ele>
        <time>2016-03-28T07:46:19Z</time>
      </trkpt>
      <trkpt lat="43.30443" lon="2.2341">
        <ele>242.7</ele>
        <time>2016-03-28T07:46:22Z</time>
      </trkpt>
      <trkpt lat="43.30443" lon="2.23398">
        <ele>239.7</ele>
        <time>2016-03-28T07:46:25Z</time>
      </trkpt>
      <trkpt lat="43.30442" lon="2.23384">
        <ele>237.2</ele>
        <time>2016-03-28T07:46:27Z</time>
      </trkpt>
      <trkpt lat="43.30441" lon="2.23366">
        <ele>235.8</ele>
        <time>2016-03-28T07:46:29Z</time>
      </trkpt>
      <trkpt lat="43.30441" lon="2.23352">
        <ele>234.9</ele>
        <time>2016-03-28T07:46:31Z</time>
      </trkpt>
      <trkpt lat="43.3044" lon="2.23337">
        <ele>235</ele>
        <time>2016-03-28T07:46:33Z</time>
      </trkpt>
      <trkpt lat="43.3044" lon="2.2332">
        <ele>235.2</ele>
        <time>2016-03-28T07:46:35Z</time>
      </trkpt>
      <trkpt lat="43.3044" lon="2.23304">
        <ele>235.6</ele>
        <time>2016-03-28T07:46:37Z</time>
      </trkpt>
      <trkpt lat="43.30442" lon="2.23286">
        <ele>236</ele>
        <time>2016-03-28T07:46:39Z</time>
      </trkpt>
      <trkpt lat="43.30443" lon="2.2327">
        <ele>236.2</ele>
        <time>2016-03-28T07:46:41Z</time>
      </trkpt>
      <trkpt lat="43.30445" lon="2.23256">
        <ele>236.7</ele>
        <time>2016-03-28T07:46:43Z</time>
      </trkpt>
      <trkpt lat="43.30446" lon="2.23241">
        <ele>236.9</ele>
        <time>2016-03-28T07:46:45Z</time>
      </trkpt>
      <trkpt lat="43.30448" lon="2.23228">
        <ele>235.5</ele>
        <time>2016-03-28T07:46:47Z</time>
      </trkpt>
      <trkpt lat="43.3045" lon="2.23211">
        <ele>233.3</ele>
        <time>2016-03-28T07:46:50Z</time>
      </trkpt>
      <trkpt lat="43.30452" lon="2.23194">
        <ele>234</ele>
        <time>2016-03-28T07:46:52Z</time>
      </trkpt>
      <trkpt lat="43.30452" lon="2.23179">
        <ele>234.4</ele>
        <time>2016-03-28T07:46:54Z</time>
      </trkpt>
      <trkpt lat="43.30451" lon="2.2316">
        <ele>233.2</ele>
        <time>2016-03-28T07:46:57Z</time>
      </trkpt>
      <trkpt lat="43.30451" lon="2.23147">
        <ele>231.7</ele>
        <time>2016-03-28T07:46:59Z</time>
      </trkpt>
      <trkpt lat="43.30452" lon="2.23134">
        <ele>230.4</ele>
        <time>2016-03-28T07:47:01Z</time>
      </trkpt>
      <trkpt lat="43.30453" lon="2.23121">
        <ele>229.6</ele>
        <time>2016-03-28T07:47:03Z</time>
      </trkpt>
      <trkpt lat="43.30457" lon="2.23102">
        <ele>227.6</ele>
        <time>2016-03-28T07:47:06Z</time>
      </trkpt>
      <trkpt lat="43.30461" lon="2.23088">
        <ele>226.4</ele>
        <time>2016-03-28T07:47:09Z</time>
      </trkpt>
      <trkpt lat="43.30466" lon="2.23072">
        <ele>226.5</ele>
        <time>2016-03-28T07:47:20Z</time>
      </trkpt>
      <trkpt lat="43.3047" lon="2.2306">
        <ele>227.1</ele>
        <time>2016-03-28T07:47:27Z</time>
      </trkpt>
      <trkpt lat="43.30476" lon="2.23047">
        <ele>227.3</ele>
        <time>2016-03-28T07:47:33Z</time>
      </trkpt>
      <trkpt lat="43.3048" lon="2.23036">
        <ele>227.4</ele>
        <time>2016-03-28T07:47:37Z</time>
      </trkpt>
      <trkpt lat="43.30486" lon="2.23024">
        <ele>227.4</ele>
        <time>2016-03-28T07:47:42Z</time>
      </trkpt>
      <trkpt lat="43.30492" lon="2.2301">
        <ele>227.7</ele>
        <time>2016-03-28T07:47:45Z</time>
      </trkpt>
      <trkpt lat="43.30497" lon="2.22996">
        <ele>226.4</ele>
        <time>2016-03-28T07:47:47Z</time>
      </trkpt>
      <trkpt lat="43.305" lon="2.22983">
        <ele>226.2</ele>
        <time>2016-03-28T07:47:49Z</time>
      </trkpt>
      <trkpt lat="43.30503" lon="2.2297">
        <ele>225.6</ele>
        <time>2016-03-28T07:47:51Z</time>
      </trkpt>
      <trkpt lat="43.30505" lon="2.22957">
        <ele>224.5</ele>
        <time>2016-03-28T07:47:53Z</time>
      </trkpt>
      <trkpt lat="43.30507" lon="2.22944">
        <ele>223.4</ele>
        <time>2016-03-28T07:47:55Z</time>
      </trkpt>
      <trkpt lat="43.30508" lon="2.2293">
        <ele>222.8</ele>
        <time>2016-03-28T07:47:57Z</time>
      </trkpt>
      <trkpt lat="43.30508" lon="2.22916">
        <ele>222.3</ele>
        <time>2016-03-28T07:47:59Z</time>
      </trkpt>
      <trkpt lat="43.30508" lon="2.22903">
        <ele>221.4</ele>
        <time>2016-03-28T07:48:01Z</time>
      </trkpt>
      <trkpt lat="43.30506" lon="2.22889">
        <ele>219.8</ele>
        <time>2016-03-28T07:48:03Z</time>
      </trkpt>
      <trkpt lat="43.30505" lon="2.22876">
        <ele>219</ele>
        <time>2016-03-28T07:48:05Z</time>
      </trkpt>
      <trkpt lat="43.30505" lon="2.22864">
        <ele>218.1</ele>
        <time>2016-03-28T07:48:07Z</time>
      </trkpt>
      <trkpt lat="43.30507" lon="2.22848">
        <ele>217</ele>
        <time>2016-03-28T07:48:09Z</time>
      </trkpt>
      <trkpt lat="43.3051" lon="2.2283">
        <ele>216.6</ele>
        <time>2016-03-28T07:48:11Z</time>
      </trkpt>
      <trkpt lat="43.30513" lon="2.22813">
        <ele>215.8</ele>
        <time>2016-03-28T07:48:13Z</time>
      </trkpt>
      <trkpt lat="43.30516" lon="2.22796">
        <ele>215</ele>
        <time>2016-03-28T07:48:15Z</time>
      </trkpt>
      <trkpt lat="43.30518" lon="2.2278">
        <ele>214.2</ele>
        <time>2016-03-28T07:48:17Z</time>
      </trkpt>
      <trkpt lat="43.30519" lon="2.22765">
        <ele>213</ele>
        <time>2016-03-28T07:48:19Z</time>
      </trkpt>
      <trkpt lat="43.30519" lon="2.22748">
        <ele>212</ele>
        <time>2016-03-28T07:48:22Z</time>
      </trkpt>
      <trkpt lat="43.30519" lon="2.22733">
        <ele>211.2</ele>
        <time>2016-03-28T07:48:25Z</time>
      </trkpt>
      <trkpt lat="43.30518" lon="2.22717">
        <ele>210.8</ele>
        <time>2016-03-28T07:48:29Z</time>
      </trkpt>
      <trkpt lat="43.30517" lon="2.22702">
        <ele>208.3</ele>
        <time>2016-03-28T07:48:32Z</time>
      </trkpt>
      <trkpt lat="43.30516" lon="2.22688">
        <ele>206.5</ele>
        <time>2016-03-28T07:48:34Z</time>
      </trkpt>
      <trkpt lat="43.30516" lon="2.22672">
        <ele>205.5</ele>
        <time>2016-03-28T07:48:36Z</time>
      </trkpt>
      <trkpt lat="43.30516" lon="2.22655">
        <ele>205</ele>
        <time>2016-03-28T07:48:38Z</time>
      </trkpt>
      <trkpt lat="43.30519" lon="2.22522">
        <ele>210.3</ele>
        <time>2016-03-28T07:50:14Z</time>
      </trkpt>
      <trkpt lat="43.30516" lon="2.22525">
        <ele>195.7</ele>
        <time>2016-03-28T07:50:30Z</time>
      </trkpt>
      <trkpt lat="43.30509" lon="2.22515">
        <ele>201.8</ele>
        <time>2016-03-28T08:04:44Z</time>
      </trkpt>
      <trkpt lat="43.30502" lon="2.22505">
        <ele>201.8</ele>
        <time>2016-03-28T08:04:51Z</time>
      </trkpt>
      <trkpt lat="43.30499" lon="2.22492">
        <ele>201.7</ele>
        <time>2016-03-28T08:04:57Z</time>
      </trkpt>
      <trkpt lat="43.30497" lon="2.2248">
        <ele>201.6</ele>
        <time>2016-03-28T08:05:02Z</time>
      </trkpt>
      <trkpt lat="43.30495" lon="2.22464">
        <ele>201.3</ele>
        <time>2016-03-28T08:05:06Z</time>
      </trkpt>
      <trkpt lat="43.30494" lon="2.2245">
        <ele>201</ele>
        <time>2016-03-28T08:05:10Z</time>
      </trkpt>
      <trkpt lat="43.30492" lon="2.22437">
        <ele>200.6</ele>
        <time>2016-03-28T08:05:13Z</time>
      </trkpt>
      <trkpt lat="43.3049" lon="2.22421">
        <ele>200.1</ele>
        <time>2016-03-28T08:05:16Z</time>
      </trkpt>
      <trkpt lat="43.30488" lon="2.22405">
        <ele>199.7</ele>
        <time>2016-03-28T08:05:19Z</time>
      </trkpt>
      <trkpt lat="43.30487" lon="2.22392">
        <ele>199.2</ele>
        <time>2016-03-28T08:05:22Z</time>
      </trkpt>
      <trkpt lat="43.30488" lon="2.22379">
        <ele>198.3</ele>
        <time>2016-03-28T08:05:26Z</time>
      </trkpt>
      <trkpt lat="43.30483" lon="2.22366">
        <ele>197</ele>
        <time>2016-03-28T08:05:31Z</time>
      </trkpt>
      <trkpt lat="43.30477" lon="2.22355">
        <ele>196.5</ele>
        <time>2016-03-28T08:05:35Z</time>
      </trkpt>
      <trkpt lat="43.30473" lon="2.22342">
        <ele>196.3</ele>
        <time>2016-03-28T08:05:40Z</time>
      </trkpt>
      <trkpt lat="43.30472" lon="2.22327">
        <ele>196.1</ele>
        <time>2016-03-28T08:05:45Z</time>
      </trkpt>
      <trkpt lat="43.30471" lon="2.22312">
        <ele>195.8</ele>
        <time>2016-03-28T08:05:49Z</time>
      </trkpt>
      <trkpt lat="43.30471" lon="2.223">
        <ele>195</ele>
        <time>2016-03-28T08:05:53Z</time>
      </trkpt>
      <trkpt lat="43.3047" lon="2.22284">
        <ele>194.3</ele>
        <time>2016-03-28T08:05:58Z</time>
      </trkpt>
      <trkpt lat="43.30469" lon="2.2227">
        <ele>194</ele>
        <time>2016-03-28T08:06:01Z</time>
      </trkpt>
      <trkpt lat="43.30467" lon="2.22254">
        <ele>193.6</ele>
        <time>2016-03-28T08:06:05Z</time>
      </trkpt>
      <trkpt lat="43.30466" lon="2.22239">
        <ele>193.1</ele>
        <time>2016-03-28T08:06:09Z</time>
      </trkpt>
      <trkpt lat="43.30469" lon="2.22228">
        <ele>192.7</ele>
        <time>2016-03-28T08:06:12Z</time>
      </trkpt>
      <trkpt lat="43.30476" lon="2.22214">
        <ele>192.3</ele>
        <time>2016-03-28T08:06:17Z</time>
      </trkpt>
      <trkpt lat="43.30474" lon="2.222">
        <ele>192.1</ele>
        <time>2016-03-28T08:06:21Z</time>
      </trkpt>
      <trkpt lat="43.30464" lon="2.22192">
        <ele>192</ele>
        <time>2016-03-28T08:06:25Z</time>
      </trkpt>
      <trkpt lat="43.30453" lon="2.22189">
        <ele>192.1</ele>
        <time>2016-03-28T08:06:29Z</time>
      </trkpt>
      <trkpt lat="43.3044" lon="2.22185">
        <ele>192</ele>
        <time>2016-03-28T08:06:32Z</time>
      </trkpt>
      <trkpt lat="43.30428" lon="2.22181">
        <ele>189.9</ele>
        <time>2016-03-28T08:06:35Z</time>
      </trkpt>
      <trkpt lat="43.30416" lon="2.22173">
        <ele>187.5</ele>
        <time>2016-03-28T08:06:38Z</time>
      </trkpt>
      <trkpt lat="43.30409" lon="2.22162">
        <ele>186.3</ele>
        <time>2016-03-28T08:06:41Z</time>
      </trkpt>
      <trkpt lat="43.304" lon="2.2215">
        <ele>185.8</ele>
        <time>2016-03-28T08:06:44Z</time>
      </trkpt>
      <trkpt lat="43.30392" lon="2.22141">
        <ele>185.4</ele>
        <time>2016-03-28T08:06:47Z</time>
      </trkpt>
      <trkpt lat="43.30383" lon="2.22133">
        <ele>185</ele>
        <time>2016-03-28T08:06:50Z</time>
      </trkpt>
      <trkpt lat="43.30373" lon="2.22126">
        <ele>184.6</ele>
        <time>2016-03-28T08:06:55Z</time>
      </trkpt>
      <trkpt lat="43.30366" lon="2.22118">
        <ele>183.5</ele>
        <time>2016-03-28T08:07:03Z</time>
      </trkpt>
      <trkpt lat="43.3036" lon="2.22105">
        <ele>182.7</ele>
        <time>2016-03-28T08:07:08Z</time>
      </trkpt>
      <trkpt lat="43.30351" lon="2.22099">
        <ele>181.6</ele>
        <time>2016-03-28T08:07:15Z</time>
      </trkpt>
      <trkpt lat="43.30342" lon="2.22091">
        <ele>180.4</ele>
        <time>2016-03-28T08:07:21Z</time>
      </trkpt>
      <trkpt lat="43.30333" lon="2.22082">
        <ele>179.6</ele>
        <time>2016-03-28T08:07:25Z</time>
      </trkpt>
      <trkpt lat="43.30326" lon="2.22074">
        <ele>178.9</ele>
        <time>2016-03-28T08:07:28Z</time>
      </trkpt>
      <trkpt lat="43.30315" lon="2.22066">
        <ele>178</ele>
        <time>2016-03-28T08:07:32Z</time>
      </trkpt>
      <trkpt lat="43.30307" lon="2.22059">
        <ele>177.2</ele>
        <time>2016-03-28T08:07:35Z</time>
      </trkpt>
      <trkpt lat="43.30299" lon="2.22051">
        <ele>176.4</ele>
        <time>2016-03-28T08:07:38Z</time>
      </trkpt>
      <trkpt lat="43.30289" lon="2.22042">
        <ele>169.8</ele>
        <time>2016-03-28T08:07:41Z</time>
      </trkpt>
      <trkpt lat="43.30281" lon="2.22034">
        <ele>167</ele>
        <time>2016-03-28T08:07:44Z</time>
      </trkpt>
      <trkpt lat="43.30272" lon="2.22023">
        <ele>166.9</ele>
        <time>2016-03-28T08:07:47Z</time>
      </trkpt>
      <trkpt lat="43.30263" lon="2.22015">
        <ele>166.6</ele>
        <time>2016-03-28T08:07:50Z</time>
      </trkpt>
      <trkpt lat="43.30256" lon="2.22006">
        <ele>165.9</ele>
        <time>2016-03-28T08:08:05Z</time>
      </trkpt>
      <trkpt lat="43.30245" lon="2.22006">
        <ele>165.2</ele>
        <time>2016-03-28T08:08:09Z</time>
      </trkpt>
      <trkpt lat="43.30237" lon="2.22017">
        <ele>161.9</ele>
        <time>2016-03-28T08:08:12Z</time>
      </trkpt>
      <trkpt lat="43.30228" lon="2.22029">
        <ele>159.2</ele>
        <time>2016-03-28T08:08:15Z</time>
      </trkpt>
      <trkpt lat="43.3022" lon="2.22038">
        <ele>158.1</ele>
        <time>2016-03-28T08:08:17Z</time>
      </trkpt>
      <trkpt lat="43.30213" lon="2.22048">
        <ele>157</ele>
        <time>2016-03-28T08:08:19Z</time>
      </trkpt>
      <trkpt lat="43.30203" lon="2.22058">
        <ele>156.2</ele>
        <time>2016-03-28T08:08:21Z</time>
      </trkpt>
      <trkpt lat="43.30194" lon="2.22067">
        <ele>155.2</ele>
        <time>2016-03-28T08:08:23Z</time>
      </trkpt>
      <trkpt lat="43.30184" lon="2.22076">
        <ele>154.1</ele>
        <time>2016-03-28T08:08:25Z</time>
      </trkpt>
      <trkpt lat="43.30176" lon="2.22088">
        <ele>153.4</ele>
        <time>2016-03-28T08:08:27Z</time>
      </trkpt>
      <trkpt lat="43.30169" lon="2.22101">
        <ele>152.3</ele>
        <time>2016-03-28T08:08:29Z</time>
      </trkpt>
      <trkpt lat="43.30164" lon="2.22113">
        <ele>151.7</ele>
        <time>2016-03-28T08:08:31Z</time>
      </trkpt>
      <trkpt lat="43.30158" lon="2.22128">
        <ele>151</ele>
        <time>2016-03-28T08:08:34Z</time>
      </trkpt>
      <trkpt lat="43.30148" lon="2.22138">
        <ele>149.6</ele>
        <time>2016-03-28T08:08:37Z</time>
      </trkpt>
      <trkpt lat="43.30137" lon="2.2214">
        <ele>148.1</ele>
        <time>2016-03-28T08:08:40Z</time>
      </trkpt>
      <trkpt lat="43.30128" lon="2.22146">
        <ele>148.1</ele>
        <time>2016-03-28T08:08:51Z</time>
      </trkpt>
      <trkpt lat="43.30117" lon="2.22151">
        <ele>148</ele>
        <time>2016-03-28T08:08:54Z</time>
      </trkpt>
      <trkpt lat="43.30107" lon="2.22153">
        <ele>147.8</ele>
        <time>2016-03-28T08:08:57Z</time>
      </trkpt>
      <trkpt lat="43.30097" lon="2.22149">
        <ele>146.7</ele>
        <time>2016-03-28T08:09:00Z</time>
      </trkpt>
      <trkpt lat="43.30092" lon="2.22137">
        <ele>146.2</ele>
        <time>2016-03-28T08:09:02Z</time>
      </trkpt>
      <trkpt lat="43.3009" lon="2.22122">
        <ele>144.5</ele>
        <time>2016-03-28T08:09:04Z</time>
      </trkpt>
      <trkpt lat="43.30089" lon="2.22101">
        <ele>141</ele>
        <time>2016-03-28T08:09:06Z</time>
      </trkpt>
      <trkpt lat="43.3009" lon="2.22077">
        <ele>138.3</ele>
        <time>2016-03-28T08:09:08Z</time>
      </trkpt>
      <trkpt lat="43.30091" lon="2.22056">
        <ele>137.3</ele>
        <time>2016-03-28T08:09:10Z</time>
      </trkpt>
      <trkpt lat="43.30091" lon="2.22035">
        <ele>136.2</ele>
        <time>2016-03-28T08:09:12Z</time>
      </trkpt>
      <trkpt lat="43.30092" lon="2.22013">
        <ele>135</ele>
        <time>2016-03-28T08:09:14Z</time>
      </trkpt>
      <trkpt lat="43.30092" lon="2.21991">
        <ele>134.4</ele>
        <time>2016-03-28T08:09:16Z</time>
      </trkpt>
      <trkpt lat="43.30092" lon="2.21973">
        <ele>133.7</ele>
        <time>2016-03-28T08:09:18Z</time>
      </trkpt>
      <trkpt lat="43.30093" lon="2.21959">
        <ele>133.4</ele>
        <time>2016-03-28T08:09:20Z</time>
      </trkpt>
      <trkpt lat="43.30094" lon="2.21944">
        <ele>133.2</ele>
        <time>2016-03-28T08:09:24Z</time>
      </trkpt>
      <trkpt lat="43.30092" lon="2.21932">
        <ele>133.6</ele>
        <time>2016-03-28T08:09:32Z</time>
      </trkpt>
      <trkpt lat="43.30082" lon="2.2193">
        <ele>135.7</ele>
        <time>2016-03-28T08:09:38Z</time>
      </trkpt>
      <trkpt lat="43.30069" lon="2.21938">
        <ele>136.5</ele>
        <time>2016-03-28T08:09:40Z</time>
      </trkpt>
      <trkpt lat="43.30056" lon="2.21948">
        <ele>136.7</ele>
        <time>2016-03-28T08:09:42Z</time>
      </trkpt>
      <trkpt lat="43.30041" lon="2.2196">
        <ele>137.3</ele>
        <time>2016-03-28T08:09:44Z</time>
      </trkpt>
      <trkpt lat="43.30033" lon="2.21967">
        <ele>137.4</ele>
        <time>2016-03-28T08:09:45Z</time>
      </trkpt>
      <trkpt lat="43.30025" lon="2.21974">
        <ele>137.7</ele>
        <time>2016-03-28T08:09:46Z</time>
      </trkpt>
      <trkpt lat="43.30016" lon="2.21982">
        <ele>138.1</ele>
        <time>2016-03-28T08:09:47Z</time>
      </trkpt>
      <trkpt lat="43.30006" lon="2.2199">
        <ele>138.6</ele>
        <time>2016-03-28T08:09:48Z</time>
      </trkpt>
      <trkpt lat="43.29995" lon="2.21999">
        <ele>139.3</ele>
        <time>2016-03-28T08:09:49Z</time>
      </trkpt>
      <trkpt lat="43.29985" lon="2.22008">
        <ele>140.1</ele>
        <time>2016-03-28T08:09:50Z</time>
      </trkpt>
      <trkpt lat="43.29974" lon="2.22018">
        <ele>140.8</ele>
        <time>2016-03-28T08:09:51Z</time>
      </trkpt>
      <trkpt lat="43.29963" lon="2.22028">
        <ele>140.9</ele>
        <time>2016-03-28T08:09:52Z</time>
      </trkpt>
      <trkpt lat="43.29952" lon="2.22038">
        <ele>140.6</ele>
        <time>2016-03-28T08:09:53Z</time>
      </trkpt>
      <trkpt lat="43.29942" lon="2.22047">
        <ele>140.5</ele>
        <time>2016-03-28T08:09:54Z</time>
      </trkpt>
      <trkpt lat="43.2993" lon="2.22057">
        <ele>140.6</ele>
        <time>2016-03-28T08:09:55Z</time>
      </trkpt>
      <trkpt lat="43.29918" lon="2.22067">
        <ele>140.8</ele>
        <time>2016-03-28T08:09:56Z</time>
      </trkpt>
      <trkpt lat="43.29905" lon="2.22079">
        <ele>140.9</ele>
        <time>2016-03-28T08:09:57Z</time>
      </trkpt>
      <trkpt lat="43.29893" lon="2.2209">
        <ele>141.5</ele>
        <time>2016-03-28T08:09:58Z</time>
      </trkpt>
      <trkpt lat="43.2988" lon="2.22101">
        <ele>141.6</ele>
        <time>2016-03-28T08:09:59Z</time>
      </trkpt>
      <trkpt lat="43.29867" lon="2.22113">
        <ele>141.7</ele>
        <time>2016-03-28T08:10:00Z</time>
      </trkpt>
      <trkpt lat="43.29854" lon="2.22125">
        <ele>141.8</ele>
        <time>2016-03-28T08:10:01Z</time>
      </trkpt>
      <trkpt lat="43.29841" lon="2.22136">
        <ele>141.5</ele>
        <time>2016-03-28T08:10:02Z</time>
      </trkpt>
      <trkpt lat="43.29828" lon="2.22147">
        <ele>141</ele>
        <time>2016-03-28T08:10:03Z</time>
      </trkpt>
      <trkpt lat="43.29815" lon="2.22159">
        <ele>140.5</ele>
        <time>2016-03-28T08:10:04Z</time>
      </trkpt>
      <trkpt lat="43.29801" lon="2.2217">
        <ele>140.5</ele>
        <time>2016-03-28T08:10:05Z</time>
      </trkpt>
      <trkpt lat="43.29787" lon="2.22182">
        <ele>140.4</ele>
        <time>2016-03-28T08:10:06Z</time>
      </trkpt>
      <trkpt lat="43.29774" lon="2.22194">
        <ele>139.9</ele>
        <time>2016-03-28T08:10:07Z</time>
      </trkpt>
      <trkpt lat="43.2976" lon="2.22206">
        <ele>139.2</ele>
        <time>2016-03-28T08:10:08Z</time>
      </trkpt>
      <trkpt lat="43.29745" lon="2.22218">
        <ele>138.1</ele>
        <time>2016-03-28T08:10:09Z</time>
      </trkpt>
      <trkpt lat="43.29731" lon="2.2223">
        <ele>137.7</ele>
        <time>2016-03-28T08:10:10Z</time>
      </trkpt>
      <trkpt lat="43.29718" lon="2.22241">
        <ele>137.6</ele>
        <time>2016-03-28T08:10:11Z</time>
      </trkpt>
      <trkpt lat="43.29704" lon="2.22254">
        <ele>137.7</ele>
        <time>2016-03-28T08:10:12Z</time>
      </trkpt>
      <trkpt lat="43.29691" lon="2.22264">
        <ele>137.8</ele>
        <time>2016-03-28T08:10:13Z</time>
      </trkpt>
      <trkpt lat="43.29677" lon="2.22273">
        <ele>137.8</ele>
        <time>2016-03-28T08:10:14Z</time>
      </trkpt>
      <trkpt lat="43.29663" lon="2.22281">
        <ele>137.8</ele>
        <time>2016-03-28T08:10:15Z</time>
      </trkpt>
      <trkpt lat="43.2965" lon="2.22287">
        <ele>137.5</ele>
        <time>2016-03-28T08:10:16Z</time>
      </trkpt>
      <trkpt lat="43.29637" lon="2.22292">
        <ele>137.3</ele>
        <time>2016-03-28T08:10:17Z</time>
      </trkpt>
      <trkpt lat="43.29626" lon="2.22297">
        <ele>137.5</ele>
        <time>2016-03-28T08:10:18Z</time>
      </trkpt>
      <trkpt lat="43.29617" lon="2.223">
        <ele>137.4</ele>
        <time>2016-03-28T08:10:19Z</time>
      </trkpt>
      <trkpt lat="43.29605" lon="2.22303">
        <ele>137.8</ele>
        <time>2016-03-28T08:10:21Z</time>
      </trkpt>
      <trkpt lat="43.29596" lon="2.22303">
        <ele>138</ele>
        <time>2016-03-28T08:10:23Z</time>
      </trkpt>
      <trkpt lat="43.29586" lon="2.22302">
        <ele>138.8</ele>
        <time>2016-03-28T08:10:33Z</time>
      </trkpt>
      <trkpt lat="43.29576" lon="2.22306">
        <ele>139</ele>
        <time>2016-03-28T08:10:36Z</time>
      </trkpt>
      <trkpt lat="43.29564" lon="2.22312">
        <ele>139.2</ele>
        <time>2016-03-28T08:10:40Z</time>
      </trkpt>
      <trkpt lat="43.29555" lon="2.2231">
        <ele>139.2</ele>
        <time>2016-03-28T08:10:44Z</time>
      </trkpt>
      <trkpt lat="43.29549" lon="2.22298">
        <ele>139.6</ele>
        <time>2016-03-28T08:10:49Z</time>
      </trkpt>
      <trkpt lat="43.29546" lon="2.22286">
        <ele>140.5</ele>
        <time>2016-03-28T08:10:58Z</time>
      </trkpt>
      <trkpt lat="43.29546" lon="2.22273">
        <ele>140</ele>
        <time>2016-03-28T08:11:03Z</time>
      </trkpt>
      <trkpt lat="43.29547" lon="2.22258">
        <ele>139.7</ele>
        <time>2016-03-28T08:11:07Z</time>
      </trkpt>
      <trkpt lat="43.29548" lon="2.22245">
        <ele>139.3</ele>
        <time>2016-03-28T08:11:11Z</time>
      </trkpt>
      <trkpt lat="43.29548" lon="2.22231">
        <ele>138.9</ele>
        <time>2016-03-28T08:11:15Z</time>
      </trkpt>
      <trkpt lat="43.29548" lon="2.22217">
        <ele>137.5</ele>
        <time>2016-03-28T08:11:30Z</time>
      </trkpt>
      <trkpt lat="43.29551" lon="2.22204">
        <ele>136.7</ele>
        <time>2016-03-28T08:11:37Z</time>
      </trkpt>
      <trkpt lat="43.2956" lon="2.22198">
        <ele>135.5</ele>
        <time>2016-03-28T08:11:43Z</time>
      </trkpt>
      <trkpt lat="43.29569" lon="2.22191">
        <ele>135.2</ele>
        <time>2016-03-28T08:11:47Z</time>
      </trkpt>
      <trkpt lat="43.29578" lon="2.22184">
        <ele>134.8</ele>
        <time>2016-03-28T08:11:51Z</time>
      </trkpt>
      <trkpt lat="43.29586" lon="2.22179">
        <ele>134.2</ele>
        <time>2016-03-28T08:11:56Z</time>
      </trkpt>
      <trkpt lat="43.29596" lon="2.22177">
        <ele>133.9</ele>
        <time>2016-03-28T08:12:01Z</time>
      </trkpt>
      <trkpt lat="43.29606" lon="2.22176">
        <ele>133.8</ele>
        <time>2016-03-28T08:12:05Z</time>
      </trkpt>
      <trkpt lat="43.29617" lon="2.22174">
        <ele>133.7</ele>
        <time>2016-03-28T08:12:10Z</time>
      </trkpt>
      <trkpt lat="43.29629" lon="2.2217">
        <ele>136.6</ele>
        <time>2016-03-28T08:16:13Z</time>
      </trkpt>
      <trkpt lat="43.29637" lon="2.22163">
        <ele>136.2</ele>
        <time>2016-03-28T08:16:15Z</time>
      </trkpt>
      <trkpt lat="43.29649" lon="2.22156">
        <ele>135.7</ele>
        <time>2016-03-28T08:16:18Z</time>
      </trkpt>
      <trkpt lat="43.2966" lon="2.22149">
        <ele>135.6</ele>
        <time>2016-03-28T08:16:21Z</time>
      </trkpt>
      <trkpt lat="43.29668" lon="2.22142">
        <ele>135.5</ele>
        <time>2016-03-28T08:16:24Z</time>
      </trkpt>
      <trkpt lat="43.29675" lon="2.22134">
        <ele>135.6</ele>
        <time>2016-03-28T08:16:27Z</time>
      </trkpt>
      <trkpt lat="43.29683" lon="2.22127">
        <ele>135.5</ele>
        <time>2016-03-28T08:16:30Z</time>
      </trkpt>
      <trkpt lat="43.29693" lon="2.22118">
        <ele>135.5</ele>
        <time>2016-03-28T08:16:33Z</time>
      </trkpt>
      <trkpt lat="43.29703" lon="2.22109">
        <ele>135.4</ele>
        <time>2016-03-28T08:16:37Z</time>
      </trkpt>
      <trkpt lat="43.2971" lon="2.22099">
        <ele>135.4</ele>
        <time>2016-03-28T08:16:40Z</time>
      </trkpt>
      <trkpt lat="43.29717" lon="2.22091">
        <ele>135.3</ele>
        <time>2016-03-28T08:16:43Z</time>
      </trkpt>
      <trkpt lat="43.29725" lon="2.22081">
        <ele>135.2</ele>
        <time>2016-03-28T08:16:46Z</time>
      </trkpt>
      <trkpt lat="43.29733" lon="2.2207">
        <ele>135.2</ele>
        <time>2016-03-28T08:16:50Z</time>
      </trkpt>
      <trkpt lat="43.2974" lon="2.22061">
        <ele>135.3</ele>
        <time>2016-03-28T08:16:55Z</time>
      </trkpt>
      <trkpt lat="43.29748" lon="2.22053">
        <ele>135.4</ele>
        <time>2016-03-28T08:16:58Z</time>
      </trkpt>
      <trkpt lat="43.29755" lon="2.22044">
        <ele>135.2</ele>
        <time>2016-03-28T08:17:03Z</time>
      </trkpt>
      <trkpt lat="43.29763" lon="2.22033">
        <ele>135.2</ele>
        <time>2016-03-28T08:17:08Z</time>
      </trkpt>
      <trkpt lat="43.29771" lon="2.22023">
        <ele>135.5</ele>
        <time>2016-03-28T08:17:12Z</time>
      </trkpt>
      <trkpt lat="43.29777" lon="2.22012">
        <ele>135.9</ele>
        <time>2016-03-28T08:17:16Z</time>
      </trkpt>
      <trkpt lat="43.2978" lon="2.21999">
        <ele>135.6</ele>
        <time>2016-03-28T08:17:21Z</time>
      </trkpt>
      <trkpt lat="43.29783" lon="2.21984">
        <ele>135.1</ele>
        <time>2016-03-28T08:17:25Z</time>
      </trkpt>
      <trkpt lat="43.29785" lon="2.21972">
        <ele>134.5</ele>
        <time>2016-03-28T08:17:29Z</time>
      </trkpt>
      <trkpt lat="43.29791" lon="2.21962">
        <ele>133</ele>
        <time>2016-03-28T08:18:06Z</time>
      </trkpt>
      <trkpt lat="43.2979" lon="2.21947">
        <ele>129.6</ele>
        <time>2016-03-28T08:18:49Z</time>
      </trkpt>
      <trkpt lat="43.2979" lon="2.21927">
        <ele>122</ele>
        <time>2016-03-28T08:18:52Z</time>
      </trkpt>
      <trkpt lat="43.29789" lon="2.21911">
        <ele>119.6</ele>
        <time>2016-03-28T08:18:54Z</time>
      </trkpt>
      <trkpt lat="43.29787" lon="2.21897">
        <ele>117.7</ele>
        <time>2016-03-28T08:18:56Z</time>
      </trkpt>
      <trkpt lat="43.29784" lon="2.21885">
        <ele>118.4</ele>
        <time>2016-03-28T08:18:58Z</time>
      </trkpt>
      <trkpt lat="43.2978" lon="2.21873">
        <ele>118.9</ele>
        <time>2016-03-28T08:19:01Z</time>
      </trkpt>
      <trkpt lat="43.29785" lon="2.2186">
        <ele>119.6</ele>
        <time>2016-03-28T08:19:04Z</time>
      </trkpt>
      <trkpt lat="43.29794" lon="2.21849">
        <ele>126.8</ele>
        <time>2016-03-28T08:19:07Z</time>
      </trkpt>
      <trkpt lat="43.29802" lon="2.2184">
        <ele>131.9</ele>
        <time>2016-03-28T08:19:09Z</time>
      </trkpt>
      <trkpt lat="43.2981" lon="2.21833">
        <ele>135.4</ele>
        <time>2016-03-28T08:19:11Z</time>
      </trkpt>
      <trkpt lat="43.29817" lon="2.21825">
        <ele>138</ele>
        <time>2016-03-28T08:19:13Z</time>
      </trkpt>
      <trkpt lat="43.29825" lon="2.21816">
        <ele>139.4</ele>
        <time>2016-03-28T08:19:15Z</time>
      </trkpt>
      <trkpt lat="43.29832" lon="2.21805">
        <ele>140</ele>
        <time>2016-03-28T08:19:17Z</time>
      </trkpt>
      <trkpt lat="43.2984" lon="2.21793">
        <ele>140.3</ele>
        <time>2016-03-28T08:19:19Z</time>
      </trkpt>
      <trkpt lat="43.29848" lon="2.21782">
        <ele>140.3</ele>
        <time>2016-03-28T08:19:21Z</time>
      </trkpt>
      <trkpt lat="43.29855" lon="2.21771">
        <ele>139.1</ele>
        <time>2016-03-28T08:19:23Z</time>
      </trkpt>
      <trkpt lat="43.29861" lon="2.21759">
        <ele>138.6</ele>
        <time>2016-03-28T08:19:25Z</time>
      </trkpt>
      <trkpt lat="43.29866" lon="2.21746">
        <ele>138</ele>
        <time>2016-03-28T08:19:27Z</time>
      </trkpt>
      <trkpt lat="43.29871" lon="2.21728">
        <ele>136.4</ele>
        <time>2016-03-28T08:19:29Z</time>
      </trkpt>
      <trkpt lat="43.29878" lon="2.21711">
        <ele>135.9</ele>
        <time>2016-03-28T08:19:31Z</time>
      </trkpt>
      <trkpt lat="43.29889" lon="2.21696">
        <ele>135.8</ele>
        <time>2016-03-28T08:19:33Z</time>
      </trkpt>
      <trkpt lat="43.29902" lon="2.21688">
        <ele>136.4</ele>
        <time>2016-03-28T08:19:35Z</time>
      </trkpt>
      <trkpt lat="43.29916" lon="2.21686">
        <ele>138.2</ele>
        <time>2016-03-28T08:19:37Z</time>
      </trkpt>
      <trkpt lat="43.29932" lon="2.21688">
        <ele>139.3</ele>
        <time>2016-03-28T08:19:39Z</time>
      </trkpt>
      <trkpt lat="43.29948" lon="2.2169">
        <ele>141</ele>
        <time>2016-03-28T08:19:41Z</time>
      </trkpt>
      <trkpt lat="43.29964" lon="2.21692">
        <ele>142.4</ele>
        <time>2016-03-28T08:19:43Z</time>
      </trkpt>
      <trkpt lat="43.29978" lon="2.21693">
        <ele>142.3</ele>
        <time>2016-03-28T08:19:45Z</time>
      </trkpt>
      <trkpt lat="43.29992" lon="2.21695">
        <ele>141.3</ele>
        <time>2016-03-28T08:19:47Z</time>
      </trkpt>
      <trkpt lat="43.30008" lon="2.21696">
        <ele>140.5</ele>
        <time>2016-03-28T08:19:49Z</time>
      </trkpt>
      <trkpt lat="43.30023" lon="2.21695">
        <ele>140.3</ele>
        <time>2016-03-28T08:19:51Z</time>
      </trkpt>
      <trkpt lat="43.30035" lon="2.21691">
        <ele>139.4</ele>
        <time>2016-03-28T08:19:53Z</time>
      </trkpt>
      <trkpt lat="43.30047" lon="2.21683">
        <ele>138.2</ele>
        <time>2016-03-28T08:19:55Z</time>
      </trkpt>
      <trkpt lat="43.30059" lon="2.21671">
        <ele>138.1</ele>
        <time>2016-03-28T08:19:57Z</time>
      </trkpt>
      <trkpt lat="43.3007" lon="2.21657">
        <ele>139.6</ele>
        <time>2016-03-28T08:19:59Z</time>
      </trkpt>
      <trkpt lat="43.30083" lon="2.21642">
        <ele>141</ele>
        <time>2016-03-28T08:20:01Z</time>
      </trkpt>
      <trkpt lat="43.30097" lon="2.21629">
        <ele>141.9</ele>
        <time>2016-03-28T08:20:03Z</time>
      </trkpt>
      <trkpt lat="43.30112" lon="2.21619">
        <ele>141</ele>
        <time>2016-03-28T08:20:05Z</time>
      </trkpt>
      <trkpt lat="43.30127" lon="2.21608">
        <ele>139.4</ele>
        <time>2016-03-28T08:20:07Z</time>
      </trkpt>
      <trkpt lat="43.30139" lon="2.21597">
        <ele>138.9</ele>
        <time>2016-03-28T08:20:09Z</time>
      </trkpt>
      <trkpt lat="43.30153" lon="2.21585">
        <ele>139.6</ele>
        <time>2016-03-28T08:20:11Z</time>
      </trkpt>
      <trkpt lat="43.30167" lon="2.21575">
        <ele>141</ele>
        <time>2016-03-28T08:20:13Z</time>
      </trkpt>
      <trkpt lat="43.30181" lon="2.21568">
        <ele>143</ele>
        <time>2016-03-28T08:20:15Z</time>
      </trkpt>
      <trkpt lat="43.30196" lon="2.21563">
        <ele>144.2</ele>
        <time>2016-03-28T08:20:17Z</time>
      </trkpt>
      <trkpt lat="43.30212" lon="2.21556">
        <ele>144.4</ele>
        <time>2016-03-28T08:20:19Z</time>
      </trkpt>
      <trkpt lat="43.30226" lon="2.2155">
        <ele>144.1</ele>
        <time>2016-03-28T08:20:21Z</time>
      </trkpt>
      <trkpt lat="43.30241" lon="2.21544">
        <ele>143.8</ele>
        <time>2016-03-28T08:20:23Z</time>
      </trkpt>
      <trkpt lat="43.30253" lon="2.21538">
        <ele>144.2</ele>
        <time>2016-03-28T08:20:25Z</time>
      </trkpt>
      <trkpt lat="43.30263" lon="2.21531">
        <ele>144.3</ele>
        <time>2016-03-28T08:20:28Z</time>
      </trkpt>
      <trkpt lat="43.30263" lon="2.21518">
        <ele>144.6</ele>
        <time>2016-03-28T08:20:31Z</time>
      </trkpt>
      <trkpt lat="43.30261" lon="2.21504">
        <ele>144.9</ele>
        <time>2016-03-28T08:20:33Z</time>
      </trkpt>
      <trkpt lat="43.30259" lon="2.21491">
        <ele>145.4</ele>
        <time>2016-03-28T08:20:35Z</time>
      </trkpt>
      <trkpt lat="43.30253" lon="2.21482">
        <ele>146.1</ele>
        <time>2016-03-28T08:20:37Z</time>
      </trkpt>
      <trkpt lat="43.30244" lon="2.21477">
        <ele>146.9</ele>
        <time>2016-03-28T08:20:39Z</time>
      </trkpt>
      <trkpt lat="43.30235" lon="2.21473">
        <ele>148</ele>
        <time>2016-03-28T08:20:41Z</time>
      </trkpt>
      <trkpt lat="43.30224" lon="2.21468">
        <ele>149.3</ele>
        <time>2016-03-28T08:20:43Z</time>
      </trkpt>
      <trkpt lat="43.30214" lon="2.21462">
        <ele>150.2</ele>
        <time>2016-03-28T08:20:45Z</time>
      </trkpt>
      <trkpt lat="43.30201" lon="2.21456">
        <ele>150.7</ele>
        <time>2016-03-28T08:20:47Z</time>
      </trkpt>
      <trkpt lat="43.30188" lon="2.21452">
        <ele>150.5</ele>
        <time>2016-03-28T08:20:49Z</time>
      </trkpt>
      <trkpt lat="43.30175" lon="2.21449">
        <ele>150.5</ele>
        <time>2016-03-28T08:20:51Z</time>
      </trkpt>
      <trkpt lat="43.30162" lon="2.21447">
        <ele>151</ele>
        <time>2016-03-28T08:20:53Z</time>
      </trkpt>
      <trkpt lat="43.30148" lon="2.21446">
        <ele>152</ele>
        <time>2016-03-28T08:20:55Z</time>
      </trkpt>
      <trkpt lat="43.30135" lon="2.21446">
        <ele>152.2</ele>
        <time>2016-03-28T08:20:57Z</time>
      </trkpt>
      <trkpt lat="43.30121" lon="2.21449">
        <ele>151.6</ele>
        <time>2016-03-28T08:20:59Z</time>
      </trkpt>
      <trkpt lat="43.30107" lon="2.21452">
        <ele>150.4</ele>
        <time>2016-03-28T08:21:01Z</time>
      </trkpt>
      <trkpt lat="43.30091" lon="2.21455">
        <ele>149.8</ele>
        <time>2016-03-28T08:21:03Z</time>
      </trkpt>
      <trkpt lat="43.30075" lon="2.21461">
        <ele>149.1</ele>
        <time>2016-03-28T08:21:05Z</time>
      </trkpt>
      <trkpt lat="43.30066" lon="2.21465">
        <ele>148.9</ele>
        <time>2016-03-28T08:21:06Z</time>
      </trkpt>
      <trkpt lat="43.30049" lon="2.21473">
        <ele>149</ele>
        <time>2016-03-28T08:21:08Z</time>
      </trkpt>
      <trkpt lat="43.30032" lon="2.21482">
        <ele>149.2</ele>
        <time>2016-03-28T08:21:10Z</time>
      </trkpt>
      <trkpt lat="43.30016" lon="2.21491">
        <ele>149.1</ele>
        <time>2016-03-28T08:21:12Z</time>
      </trkpt>
      <trkpt lat="43.29999" lon="2.215">
        <ele>148.3</ele>
        <time>2016-03-28T08:21:14Z</time>
      </trkpt>
      <trkpt lat="43.29983" lon="2.21508">
        <ele>148.1</ele>
        <time>2016-03-28T08:21:16Z</time>
      </trkpt>
      <trkpt lat="43.29968" lon="2.21515">
        <ele>147.6</ele>
        <time>2016-03-28T08:21:18Z</time>
      </trkpt>
      <trkpt lat="43.29954" lon="2.2152">
        <ele>148</ele>
        <time>2016-03-28T08:21:20Z</time>
      </trkpt>
      <trkpt lat="43.29939" lon="2.21524">
        <ele>149</ele>
        <time>2016-03-28T08:21:22Z</time>
      </trkpt>
      <trkpt lat="43.29924" lon="2.21528">
        <ele>150.4</ele>
        <time>2016-03-28T08:21:24Z</time>
      </trkpt>
      <trkpt lat="43.29912" lon="2.21531">
        <ele>151.1</ele>
        <time>2016-03-28T08:21:26Z</time>
      </trkpt>
      <trkpt lat="43.29902" lon="2.21533">
        <ele>151.5</ele>
        <time>2016-03-28T08:21:28Z</time>
      </trkpt>
      <trkpt lat="43.2989" lon="2.21534">
        <ele>152.3</ele>
        <time>2016-03-28T08:21:30Z</time>
      </trkpt>
      <trkpt lat="43.29879" lon="2.21534">
        <ele>153.3</ele>
        <time>2016-03-28T08:21:32Z</time>
      </trkpt>
      <trkpt lat="43.29868" lon="2.21535">
        <ele>153.5</ele>
        <time>2016-03-28T08:21:35Z</time>
      </trkpt>
      <trkpt lat="43.29859" lon="2.21536">
        <ele>153.9</ele>
        <time>2016-03-28T08:21:38Z</time>
      </trkpt>
      <trkpt lat="43.29848" lon="2.2154">
        <ele>154.9</ele>
        <time>2016-03-28T08:21:41Z</time>
      </trkpt>
      <trkpt lat="43.29838" lon="2.21545">
        <ele>156.7</ele>
        <time>2016-03-28T08:21:43Z</time>
      </trkpt>
      <trkpt lat="43.29829" lon="2.21549">
        <ele>159.8</ele>
        <time>2016-03-28T08:21:45Z</time>
      </trkpt>
      <trkpt lat="43.2982" lon="2.21553">
        <ele>162.2</ele>
        <time>2016-03-28T08:21:47Z</time>
      </trkpt>
      <trkpt lat="43.29807" lon="2.21559">
        <ele>163.2</ele>
        <time>2016-03-28T08:21:50Z</time>
      </trkpt>
      <trkpt lat="43.29795" lon="2.21565">
        <ele>164.6</ele>
        <time>2016-03-28T08:21:53Z</time>
      </trkpt>
      <trkpt lat="43.29786" lon="2.21568">
        <ele>165.8</ele>
        <time>2016-03-28T08:21:55Z</time>
      </trkpt>
      <trkpt lat="43.29774" lon="2.21569">
        <ele>168.8</ele>
        <time>2016-03-28T08:21:57Z</time>
      </trkpt>
      <trkpt lat="43.29764" lon="2.21569">
        <ele>169.7</ele>
        <time>2016-03-28T08:21:59Z</time>
      </trkpt>
      <trkpt lat="43.29755" lon="2.21568">
        <ele>169.4</ele>
        <time>2016-03-28T08:22:01Z</time>
      </trkpt>
      <trkpt lat="43.29741" lon="2.21566">
        <ele>171.1</ele>
        <time>2016-03-28T08:22:04Z</time>
      </trkpt>
      <trkpt lat="43.29731" lon="2.21564">
        <ele>173.6</ele>
        <time>2016-03-28T08:22:06Z</time>
      </trkpt>
      <trkpt lat="43.2972" lon="2.21561">
        <ele>176</ele>
        <time>2016-03-28T08:22:08Z</time>
      </trkpt>
      <trkpt lat="43.29709" lon="2.21556">
        <ele>178.9</ele>
        <time>2016-03-28T08:22:10Z</time>
      </trkpt>
      <trkpt lat="43.29699" lon="2.21552">
        <ele>181.3</ele>
        <time>2016-03-28T08:22:12Z</time>
      </trkpt>
      <trkpt lat="43.29689" lon="2.21549">
        <ele>182.3</ele>
        <time>2016-03-28T08:22:14Z</time>
      </trkpt>
      <trkpt lat="43.29679" lon="2.21547">
        <ele>183</ele>
        <time>2016-03-28T08:22:16Z</time>
      </trkpt>
      <trkpt lat="43.29669" lon="2.21546">
        <ele>184.2</ele>
        <time>2016-03-28T08:22:18Z</time>
      </trkpt>
      <trkpt lat="43.29659" lon="2.21545">
        <ele>185.4</ele>
        <time>2016-03-28T08:22:20Z</time>
      </trkpt>
      <trkpt lat="43.29647" lon="2.21543">
        <ele>186.9</ele>
        <time>2016-03-28T08:22:22Z</time>
      </trkpt>
      <trkpt lat="43.29637" lon="2.21542">
        <ele>188</ele>
        <time>2016-03-28T08:22:24Z</time>
      </trkpt>
      <trkpt lat="43.29623" lon="2.21543">
        <ele>189.5</ele>
        <time>2016-03-28T08:22:27Z</time>
      </trkpt>
      <trkpt lat="43.29612" lon="2.21544">
        <ele>190.1</ele>
        <time>2016-03-28T08:22:29Z</time>
      </trkpt>
      <trkpt lat="43.29601" lon="2.21546">
        <ele>190.2</ele>
        <time>2016-03-28T08:22:31Z</time>
      </trkpt>
      <trkpt lat="43.29587" lon="2.21549">
        <ele>191.5</ele>
        <time>2016-03-28T08:22:34Z</time>
      </trkpt>
      <trkpt lat="43.29576" lon="2.21549">
        <ele>193.3</ele>
        <time>2016-03-28T08:22:36Z</time>
      </trkpt>
      <trkpt lat="43.29566" lon="2.21547">
        <ele>195</ele>
        <time>2016-03-28T08:22:38Z</time>
      </trkpt>
      <trkpt lat="43.29557" lon="2.21544">
        <ele>196.6</ele>
        <time>2016-03-28T08:22:40Z</time>
      </trkpt>
      <trkpt lat="43.29547" lon="2.2154">
        <ele>197.6</ele>
        <time>2016-03-28T08:22:42Z</time>
      </trkpt>
      <trkpt lat="43.29538" lon="2.21537">
        <ele>199.4</ele>
        <time>2016-03-28T08:22:44Z</time>
      </trkpt>
      <trkpt lat="43.29528" lon="2.21534">
        <ele>199.7</ele>
        <time>2016-03-28T08:22:46Z</time>
      </trkpt>
      <trkpt lat="43.29519" lon="2.21531">
        <ele>200.3</ele>
        <time>2016-03-28T08:22:48Z</time>
      </trkpt>
      <trkpt lat="43.29508" lon="2.21528">
        <ele>201.4</ele>
        <time>2016-03-28T08:22:50Z</time>
      </trkpt>
      <trkpt lat="43.29499" lon="2.21523">
        <ele>202.6</ele>
        <time>2016-03-28T08:22:52Z</time>
      </trkpt>
      <trkpt lat="43.29488" lon="2.21515">
        <ele>204.5</ele>
        <time>2016-03-28T08:22:55Z</time>
      </trkpt>
      <trkpt lat="43.29477" lon="2.21502">
        <ele>205.5</ele>
        <time>2016-03-28T08:22:58Z</time>
      </trkpt>
      <trkpt lat="43.2947" lon="2.21493">
        <ele>205.5</ele>
        <time>2016-03-28T08:23:00Z</time>
      </trkpt>
      <trkpt lat="43.29462" lon="2.21485">
        <ele>206.3</ele>
        <time>2016-03-28T08:23:02Z</time>
      </trkpt>
      <trkpt lat="43.29454" lon="2.21477">
        <ele>206.5</ele>
        <time>2016-03-28T08:23:05Z</time>
      </trkpt>
      <trkpt lat="43.29446" lon="2.21468">
        <ele>206.9</ele>
        <time>2016-03-28T08:23:08Z</time>
      </trkpt>
      <trkpt lat="43.29438" lon="2.21456">
        <ele>208.9</ele>
        <time>2016-03-28T08:23:17Z</time>
      </trkpt>
      <trkpt lat="43.29432" lon="2.21447">
        <ele>210.1</ele>
        <time>2016-03-28T08:23:19Z</time>
      </trkpt>
      <trkpt lat="43.29422" lon="2.21436">
        <ele>213.7</ele>
        <time>2016-03-28T08:23:22Z</time>
      </trkpt>
      <trkpt lat="43.29413" lon="2.21428">
        <ele>215.8</ele>
        <time>2016-03-28T08:23:24Z</time>
      </trkpt>
      <trkpt lat="43.29404" lon="2.2142">
        <ele>217.5</ele>
        <time>2016-03-28T08:23:26Z</time>
      </trkpt>
      <trkpt lat="43.29393" lon="2.21411">
        <ele>218.2</ele>
        <time>2016-03-28T08:23:28Z</time>
      </trkpt>
      <trkpt lat="43.29384" lon="2.21403">
        <ele>219</ele>
        <time>2016-03-28T08:23:30Z</time>
      </trkpt>
      <trkpt lat="43.29373" lon="2.21395">
        <ele>220</ele>
        <time>2016-03-28T08:23:32Z</time>
      </trkpt>
      <trkpt lat="43.29363" lon="2.21388">
        <ele>220.9</ele>
        <time>2016-03-28T08:23:34Z</time>
      </trkpt>
      <trkpt lat="43.29353" lon="2.21382">
        <ele>222.1</ele>
        <time>2016-03-28T08:23:36Z</time>
      </trkpt>
      <trkpt lat="43.29342" lon="2.21375">
        <ele>224.1</ele>
        <time>2016-03-28T08:23:39Z</time>
      </trkpt>
      <trkpt lat="43.29331" lon="2.21371">
        <ele>225.1</ele>
        <time>2016-03-28T08:23:42Z</time>
      </trkpt>
      <trkpt lat="43.29319" lon="2.21364">
        <ele>225.4</ele>
        <time>2016-03-28T08:23:46Z</time>
      </trkpt>
      <trkpt lat="43.29308" lon="2.21355">
        <ele>226.5</ele>
        <time>2016-03-28T08:23:49Z</time>
      </trkpt>
      <trkpt lat="43.29301" lon="2.21344">
        <ele>227.5</ele>
        <time>2016-03-28T08:23:51Z</time>
      </trkpt>
      <trkpt lat="43.29297" lon="2.21329">
        <ele>227.5</ele>
        <time>2016-03-28T08:23:53Z</time>
      </trkpt>
      <trkpt lat="43.29297" lon="2.21311">
        <ele>227</ele>
        <time>2016-03-28T08:23:55Z</time>
      </trkpt>
      <trkpt lat="43.29298" lon="2.21293">
        <ele>227.2</ele>
        <time>2016-03-28T08:23:57Z</time>
      </trkpt>
      <trkpt lat="43.29301" lon="2.21276">
        <ele>226.8</ele>
        <time>2016-03-28T08:23:59Z</time>
      </trkpt>
      <trkpt lat="43.29303" lon="2.21258">
        <ele>226.2</ele>
        <time>2016-03-28T08:24:01Z</time>
      </trkpt>
      <trkpt lat="43.29304" lon="2.2124">
        <ele>225.5</ele>
        <time>2016-03-28T08:24:03Z</time>
      </trkpt>
      <trkpt lat="43.29305" lon="2.21223">
        <ele>224.6</ele>
        <time>2016-03-28T08:24:05Z</time>
      </trkpt>
      <trkpt lat="43.29303" lon="2.21204">
        <ele>223.1</ele>
        <time>2016-03-28T08:24:07Z</time>
      </trkpt>
      <trkpt lat="43.293" lon="2.21183">
        <ele>222</ele>
        <time>2016-03-28T08:24:09Z</time>
      </trkpt>
      <trkpt lat="43.29297" lon="2.21163">
        <ele>220.7</ele>
        <time>2016-03-28T08:24:11Z</time>
      </trkpt>
      <trkpt lat="43.29292" lon="2.21139">
        <ele>220.7</ele>
        <time>2016-03-28T08:24:13Z</time>
      </trkpt>
      <trkpt lat="43.2929" lon="2.21124">
        <ele>221</ele>
        <time>2016-03-28T08:24:14Z</time>
      </trkpt>
      <trkpt lat="43.29287" lon="2.21108">
        <ele>221.1</ele>
        <time>2016-03-28T08:24:15Z</time>
      </trkpt>
      <trkpt lat="43.29284" lon="2.21094">
        <ele>220.7</ele>
        <time>2016-03-28T08:24:16Z</time>
      </trkpt>
      <trkpt lat="43.29281" lon="2.21077">
        <ele>220.1</ele>
        <time>2016-03-28T08:24:17Z</time>
      </trkpt>
      <trkpt lat="43.29277" lon="2.21061">
        <ele>219.5</ele>
        <time>2016-03-28T08:24:18Z</time>
      </trkpt>
      <trkpt lat="43.29274" lon="2.21044">
        <ele>218.8</ele>
        <time>2016-03-28T08:24:19Z</time>
      </trkpt>
      <trkpt lat="43.29271" lon="2.21025">
        <ele>218.2</ele>
        <time>2016-03-28T08:24:20Z</time>
      </trkpt>
      <trkpt lat="43.29268" lon="2.21007">
        <ele>217.5</ele>
        <time>2016-03-28T08:24:21Z</time>
      </trkpt>
      <trkpt lat="43.29265" lon="2.20989">
        <ele>216.9</ele>
        <time>2016-03-28T08:24:22Z</time>
      </trkpt>
      <trkpt lat="43.29261" lon="2.2097">
        <ele>216.3</ele>
        <time>2016-03-28T08:24:23Z</time>
      </trkpt>
      <trkpt lat="43.29258" lon="2.20951">
        <ele>215.9</ele>
        <time>2016-03-28T08:24:24Z</time>
      </trkpt>
      <trkpt lat="43.29255" lon="2.20931">
        <ele>215.7</ele>
        <time>2016-03-28T08:24:25Z</time>
      </trkpt>
      <trkpt lat="43.29251" lon="2.20913">
        <ele>215.8</ele>
        <time>2016-03-28T08:24:26Z</time>
      </trkpt>
      <trkpt lat="43.29248" lon="2.20895">
        <ele>216</ele>
        <time>2016-03-28T08:24:27Z</time>
      </trkpt>
      <trkpt lat="43.29245" lon="2.20878">
        <ele>216.1</ele>
        <time>2016-03-28T08:24:28Z</time>
      </trkpt>
      <trkpt lat="43.29242" lon="2.20862">
        <ele>215.8</ele>
        <time>2016-03-28T08:24:29Z</time>
      </trkpt>
      <trkpt lat="43.29239" lon="2.20846">
        <ele>215.4</ele>
        <time>2016-03-28T08:24:30Z</time>
      </trkpt>
      <trkpt lat="43.29236" lon="2.20832">
        <ele>214.9</ele>
        <time>2016-03-28T08:24:31Z</time>
      </trkpt>
      <trkpt lat="43.29234" lon="2.20819">
        <ele>214.6</ele>
        <time>2016-03-28T08:24:32Z</time>
      </trkpt>
      <trkpt lat="43.29232" lon="2.20805">
        <ele>214</ele>
        <time>2016-03-28T08:24:33Z</time>
      </trkpt>
      <trkpt lat="43.29233" lon="2.20791">
        <ele>213.3</ele>
        <time>2016-03-28T08:24:34Z</time>
      </trkpt>
      <trkpt lat="43.29235" lon="2.20778">
        <ele>212.8</ele>
        <time>2016-03-28T08:24:35Z</time>
      </trkpt>
      <trkpt lat="43.29237" lon="2.20755">
        <ele>213.5</ele>
        <time>2016-03-28T08:24:37Z</time>
      </trkpt>
      <trkpt lat="43.29233" lon="2.20736">
        <ele>214</ele>
        <time>2016-03-28T08:24:39Z</time>
      </trkpt>
      <trkpt lat="43.29226" lon="2.20723">
        <ele>213.9</ele>
        <time>2016-03-28T08:24:41Z</time>
      </trkpt>
      <trkpt lat="43.29225" lon="2.20707">
        <ele>214.2</ele>
        <time>2016-03-28T08:24:44Z</time>
      </trkpt>
      <trkpt lat="43.29228" lon="2.20692">
        <ele>212.8</ele>
        <time>2016-03-28T08:24:48Z</time>
      </trkpt>
      <trkpt lat="43.29229" lon="2.20676">
        <ele>211.5</ele>
        <time>2016-03-28T08:24:51Z</time>
      </trkpt>
      <trkpt lat="43.2923" lon="2.20661">
        <ele>210</ele>
        <time>2016-03-28T08:24:53Z</time>
      </trkpt>
      <trkpt lat="43.29232" lon="2.20646">
        <ele>211.1</ele>
        <time>2016-03-28T08:24:55Z</time>
      </trkpt>
      <trkpt lat="43.29233" lon="2.20629">
        <ele>211.3</ele>
        <time>2016-03-28T08:24:58Z</time>
      </trkpt>
      <trkpt lat="43.29234" lon="2.20612">
        <ele>210.3</ele>
        <time>2016-03-28T08:25:01Z</time>
      </trkpt>
      <trkpt lat="43.29235" lon="2.20597">
        <ele>210.2</ele>
        <time>2016-03-28T08:25:05Z</time>
      </trkpt>
      <trkpt lat="43.29235" lon="2.20584">
        <ele>209.9</ele>
        <time>2016-03-28T08:25:10Z</time>
      </trkpt>
      <trkpt lat="43.29231" lon="2.2057">
        <ele>210</ele>
        <time>2016-03-28T08:25:14Z</time>
      </trkpt>
      <trkpt lat="43.2923" lon="2.20558">
        <ele>210.3</ele>
        <time>2016-03-28T08:25:20Z</time>
      </trkpt>
      <trkpt lat="43.29238" lon="2.20549">
        <ele>210.8</ele>
        <time>2016-03-28T08:25:24Z</time>
      </trkpt>
      <trkpt lat="43.29247" lon="2.20542">
        <ele>211.1</ele>
        <time>2016-03-28T08:25:27Z</time>
      </trkpt>
      <trkpt lat="43.29257" lon="2.20537">
        <ele>211.1</ele>
        <time>2016-03-28T08:25:30Z</time>
      </trkpt>
      <trkpt lat="43.29264" lon="2.20527">
        <ele>211.3</ele>
        <time>2016-03-28T08:25:33Z</time>
      </trkpt>
      <trkpt lat="43.29274" lon="2.20519">
        <ele>211.5</ele>
        <time>2016-03-28T08:25:36Z</time>
      </trkpt>
      <trkpt lat="43.29281" lon="2.20511">
        <ele>211.6</ele>
        <time>2016-03-28T08:25:39Z</time>
      </trkpt>
      <trkpt lat="43.29289" lon="2.20503">
        <ele>211.7</ele>
        <time>2016-03-28T08:25:42Z</time>
      </trkpt>
      <trkpt lat="43.29297" lon="2.20495">
        <ele>211.7</ele>
        <time>2016-03-28T08:25:45Z</time>
      </trkpt>
      <trkpt lat="43.29299" lon="2.2048">
        <ele>211.7</ele>
        <time>2016-03-28T08:25:49Z</time>
      </trkpt>
      <trkpt lat="43.29297" lon="2.20464">
        <ele>211.7</ele>
        <time>2016-03-28T08:25:53Z</time>
      </trkpt>
      <trkpt lat="43.29291" lon="2.20454">
        <ele>211.2</ele>
        <time>2016-03-28T08:25:57Z</time>
      </trkpt>
      <trkpt lat="43.29281" lon="2.20446">
        <ele>211</ele>
        <time>2016-03-28T08:26:00Z</time>
      </trkpt>
      <trkpt lat="43.29271" lon="2.20438">
        <ele>211</ele>
        <time>2016-03-28T08:26:03Z</time>
      </trkpt>
      <trkpt lat="43.29265" lon="2.20427">
        <ele>210.9</ele>
        <time>2016-03-28T08:26:06Z</time>
      </trkpt>
      <trkpt lat="43.29259" lon="2.20414">
        <ele>208.8</ele>
        <time>2016-03-28T08:26:09Z</time>
      </trkpt>
      <trkpt lat="43.29251" lon="2.204">
        <ele>207.4</ele>
        <time>2016-03-28T08:26:12Z</time>
      </trkpt>
      <trkpt lat="43.29241" lon="2.20392">
        <ele>206.2</ele>
        <time>2016-03-28T08:26:15Z</time>
      </trkpt>
      <trkpt lat="43.29226" lon="2.20385">
        <ele>206.4</ele>
        <time>2016-03-28T08:26:18Z</time>
      </trkpt>
      <trkpt lat="43.29216" lon="2.20382">
        <ele>207.7</ele>
        <time>2016-03-28T08:26:20Z</time>
      </trkpt>
      <trkpt lat="43.29206" lon="2.20379">
        <ele>208.6</ele>
        <time>2016-03-28T08:26:22Z</time>
      </trkpt>
      <trkpt lat="43.29197" lon="2.20372">
        <ele>209.6</ele>
        <time>2016-03-28T08:26:24Z</time>
      </trkpt>
      <trkpt lat="43.2919" lon="2.20363">
        <ele>209.8</ele>
        <time>2016-03-28T08:26:26Z</time>
      </trkpt>
      <trkpt lat="43.29184" lon="2.2035">
        <ele>210.4</ele>
        <time>2016-03-28T08:26:28Z</time>
      </trkpt>
      <trkpt lat="43.29179" lon="2.20337">
        <ele>210.8</ele>
        <time>2016-03-28T08:26:30Z</time>
      </trkpt>
      <trkpt lat="43.29174" lon="2.20324">
        <ele>211.4</ele>
        <time>2016-03-28T08:26:32Z</time>
      </trkpt>
      <trkpt lat="43.29171" lon="2.2031">
        <ele>211.9</ele>
        <time>2016-03-28T08:26:34Z</time>
      </trkpt>
      <trkpt lat="43.29168" lon="2.20297">
        <ele>212</ele>
        <time>2016-03-28T08:26:36Z</time>
      </trkpt>
      <trkpt lat="43.29164" lon="2.20285">
        <ele>212</ele>
        <time>2016-03-28T08:26:38Z</time>
      </trkpt>
      <trkpt lat="43.2916" lon="2.20274">
        <ele>212.2</ele>
        <time>2016-03-28T08:26:40Z</time>
      </trkpt>
      <trkpt lat="43.29154" lon="2.20259">
        <ele>211.8</ele>
        <time>2016-03-28T08:26:43Z</time>
      </trkpt>
      <trkpt lat="43.2915" lon="2.20247">
        <ele>211.3</ele>
        <time>2016-03-28T08:26:45Z</time>
      </trkpt>
      <trkpt lat="43.29144" lon="2.2023">
        <ele>210.7</ele>
        <time>2016-03-28T08:26:48Z</time>
      </trkpt>
      <trkpt lat="43.29143" lon="2.20214">
        <ele>210.4</ele>
        <time>2016-03-28T08:26:51Z</time>
      </trkpt>
      <trkpt lat="43.29142" lon="2.20199">
        <ele>209.8</ele>
        <time>2016-03-28T08:26:58Z</time>
      </trkpt>
      <trkpt lat="43.29141" lon="2.20187">
        <ele>209.2</ele>
        <time>2016-03-28T08:27:02Z</time>
      </trkpt>
      <trkpt lat="43.29139" lon="2.2017">
        <ele>208.2</ele>
        <time>2016-03-28T08:27:06Z</time>
      </trkpt>
      <trkpt lat="43.29135" lon="2.20157">
        <ele>207.2</ele>
        <time>2016-03-28T08:27:10Z</time>
      </trkpt>
      <trkpt lat="43.29128" lon="2.20142">
        <ele>206.4</ele>
        <time>2016-03-28T08:27:14Z</time>
      </trkpt>
      <trkpt lat="43.29122" lon="2.20131">
        <ele>204.1</ele>
        <time>2016-03-28T08:27:16Z</time>
      </trkpt>
      <trkpt lat="43.29117" lon="2.20121">
        <ele>202.9</ele>
        <time>2016-03-28T08:27:18Z</time>
      </trkpt>
      <trkpt lat="43.29108" lon="2.20111">
        <ele>202.4</ele>
        <time>2016-03-28T08:27:20Z</time>
      </trkpt>
      <trkpt lat="43.29102" lon="2.20103">
        <ele>201.9</ele>
        <time>2016-03-28T08:27:22Z</time>
      </trkpt>
      <trkpt lat="43.29096" lon="2.20093">
        <ele>201.2</ele>
        <time>2016-03-28T08:27:24Z</time>
      </trkpt>
      <trkpt lat="43.29092" lon="2.20081">
        <ele>199.8</ele>
        <time>2016-03-28T08:27:26Z</time>
      </trkpt>
      <trkpt lat="43.29091" lon="2.20067">
        <ele>199.1</ele>
        <time>2016-03-28T08:27:28Z</time>
      </trkpt>
      <trkpt lat="43.29089" lon="2.20049">
        <ele>195.6</ele>
        <time>2016-03-28T08:27:31Z</time>
      </trkpt>
      <trkpt lat="43.29085" lon="2.20032">
        <ele>192.3</ele>
        <time>2016-03-28T08:27:34Z</time>
      </trkpt>
      <trkpt lat="43.29081" lon="2.20019">
        <ele>189.3</ele>
        <time>2016-03-28T08:27:36Z</time>
      </trkpt>
      <trkpt lat="43.29077" lon="2.20004">
        <ele>189.1</ele>
        <time>2016-03-28T08:27:39Z</time>
      </trkpt>
      <trkpt lat="43.29074" lon="2.19989">
        <ele>189.2</ele>
        <time>2016-03-28T08:27:42Z</time>
      </trkpt>
      <trkpt lat="43.29075" lon="2.19972">
        <ele>190</ele>
        <time>2016-03-28T08:27:45Z</time>
      </trkpt>
      <trkpt lat="43.29078" lon="2.19955">
        <ele>191.3</ele>
        <time>2016-03-28T08:27:48Z</time>
      </trkpt>
      <trkpt lat="43.29082" lon="2.1994">
        <ele>191.5</ele>
        <time>2016-03-28T08:27:51Z</time>
      </trkpt>
      <trkpt lat="43.29085" lon="2.19923">
        <ele>194.3</ele>
        <time>2016-03-28T08:27:54Z</time>
      </trkpt>
      <trkpt lat="43.29086" lon="2.19909">
        <ele>195.3</ele>
        <time>2016-03-28T08:27:56Z</time>
      </trkpt>
      <trkpt lat="43.29086" lon="2.19896">
        <ele>195.6</ele>
        <time>2016-03-28T08:27:58Z</time>
      </trkpt>
      <trkpt lat="43.29087" lon="2.19882">
        <ele>196.8</ele>
        <time>2016-03-28T08:28:00Z</time>
      </trkpt>
      <trkpt lat="43.29091" lon="2.19866">
        <ele>199.6</ele>
        <time>2016-03-28T08:28:03Z</time>
      </trkpt>
      <trkpt lat="43.29097" lon="2.19854">
        <ele>200.8</ele>
        <time>2016-03-28T08:28:06Z</time>
      </trkpt>
      <trkpt lat="43.29103" lon="2.19841">
        <ele>201</ele>
        <time>2016-03-28T08:28:09Z</time>
      </trkpt>
      <trkpt lat="43.29111" lon="2.19829">
        <ele>201.3</ele>
        <time>2016-03-28T08:28:12Z</time>
      </trkpt>
      <trkpt lat="43.2912" lon="2.1982">
        <ele>204.1</ele>
        <time>2016-03-28T08:28:15Z</time>
      </trkpt>
      <trkpt lat="43.29131" lon="2.19813">
        <ele>206.1</ele>
        <time>2016-03-28T08:28:18Z</time>
      </trkpt>
      <trkpt lat="43.29142" lon="2.19808">
        <ele>206.4</ele>
        <time>2016-03-28T08:28:22Z</time>
      </trkpt>
      <trkpt lat="43.29153" lon="2.19804">
        <ele>208</ele>
        <time>2016-03-28T08:28:25Z</time>
      </trkpt>
      <trkpt lat="43.29162" lon="2.19794">
        <ele>208.2</ele>
        <time>2016-03-28T08:28:28Z</time>
      </trkpt>
      <trkpt lat="43.29163" lon="2.19781">
        <ele>208.2</ele>
        <time>2016-03-28T08:28:31Z</time>
      </trkpt>
      <trkpt lat="43.29158" lon="2.19768">
        <ele>210.1</ele>
        <time>2016-03-28T08:28:34Z</time>
      </trkpt>
      <trkpt lat="43.2915" lon="2.19755">
        <ele>213.3</ele>
        <time>2016-03-28T08:28:37Z</time>
      </trkpt>
      <trkpt lat="43.29142" lon="2.19746">
        <ele>213.9</ele>
        <time>2016-03-28T08:28:40Z</time>
      </trkpt>
      <trkpt lat="43.29135" lon="2.19735">
        <ele>213.9</ele>
        <time>2016-03-28T08:28:43Z</time>
      </trkpt>
      <trkpt lat="43.29139" lon="2.19722">
        <ele>213.6</ele>
        <time>2016-03-28T08:28:52Z</time>
      </trkpt>
      <trkpt lat="43.29146" lon="2.19712">
        <ele>213.5</ele>
        <time>2016-03-28T08:28:56Z</time>
      </trkpt>
      <trkpt lat="43.29151" lon="2.19703">
        <ele>213.5</ele>
        <time>2016-03-28T08:29:00Z</time>
      </trkpt>
      <trkpt lat="43.29158" lon="2.19692">
        <ele>213.8</ele>
        <time>2016-03-28T08:29:04Z</time>
      </trkpt>
      <trkpt lat="43.29164" lon="2.19682">
        <ele>214.2</ele>
        <time>2016-03-28T08:29:08Z</time>
      </trkpt>
      <trkpt lat="43.29172" lon="2.19671">
        <ele>214.4</ele>
        <time>2016-03-28T08:29:12Z</time>
      </trkpt>
      <trkpt lat="43.29179" lon="2.19659">
        <ele>214.5</ele>
        <time>2016-03-28T08:29:16Z</time>
      </trkpt>
      <trkpt lat="43.29186" lon="2.19646">
        <ele>214.7</ele>
        <time>2016-03-28T08:29:20Z</time>
      </trkpt>
      <trkpt lat="43.29193" lon="2.19635">
        <ele>215.2</ele>
        <time>2016-03-28T08:29:24Z</time>
      </trkpt>
      <trkpt lat="43.292" lon="2.19623">
        <ele>215.6</ele>
        <time>2016-03-28T08:29:28Z</time>
      </trkpt>
      <trkpt lat="43.29208" lon="2.19612">
        <ele>216.1</ele>
        <time>2016-03-28T08:29:32Z</time>
      </trkpt>
      <trkpt lat="43.29217" lon="2.19604">
        <ele>216.3</ele>
        <time>2016-03-28T08:29:36Z</time>
      </trkpt>
      <trkpt lat="43.29225" lon="2.19598">
        <ele>216.3</ele>
        <time>2016-03-28T08:29:39Z</time>
      </trkpt>
      <trkpt lat="43.29234" lon="2.19593">
        <ele>216.4</ele>
        <time>2016-03-28T08:29:42Z</time>
      </trkpt>
      <trkpt lat="43.29243" lon="2.19589">
        <ele>216.4</ele>
        <time>2016-03-28T08:29:45Z</time>
      </trkpt>
      <trkpt lat="43.29251" lon="2.19583">
        <ele>216.5</ele>
        <time>2016-03-28T08:29:48Z</time>
      </trkpt>
      <trkpt lat="43.29261" lon="2.19575">
        <ele>216.5</ele>
        <time>2016-03-28T08:29:52Z</time>
      </trkpt>
      <trkpt lat="43.29272" lon="2.19569">
        <ele>216.4</ele>
        <time>2016-03-28T08:29:56Z</time>
      </trkpt>
      <trkpt lat="43.29282" lon="2.19565">
        <ele>216.3</ele>
        <time>2016-03-28T08:29:59Z</time>
      </trkpt>
      <trkpt lat="43.29293" lon="2.19556">
        <ele>216.1</ele>
        <time>2016-03-28T08:30:03Z</time>
      </trkpt>
      <trkpt lat="43.29303" lon="2.19547">
        <ele>214.1</ele>
        <time>2016-03-28T08:30:06Z</time>
      </trkpt>
      <trkpt lat="43.29311" lon="2.1954">
        <ele>214.2</ele>
        <time>2016-03-28T08:30:08Z</time>
      </trkpt>
      <trkpt lat="43.2932" lon="2.19532">
        <ele>214.7</ele>
        <time>2016-03-28T08:30:10Z</time>
      </trkpt>
      <trkpt lat="43.2933" lon="2.19524">
        <ele>216.1</ele>
        <time>2016-03-28T08:30:12Z</time>
      </trkpt>
      <trkpt lat="43.2934" lon="2.19517">
        <ele>216.1</ele>
        <time>2016-03-28T08:30:14Z</time>
      </trkpt>
      <trkpt lat="43.29349" lon="2.1951">
        <ele>215.7</ele>
        <time>2016-03-28T08:30:16Z</time>
      </trkpt>
      <trkpt lat="43.29357" lon="2.19503">
        <ele>215.2</ele>
        <time>2016-03-28T08:30:18Z</time>
      </trkpt>
      <trkpt lat="43.29365" lon="2.19496">
        <ele>214.7</ele>
        <time>2016-03-28T08:30:20Z</time>
      </trkpt>
      <trkpt lat="43.29373" lon="2.19489">
        <ele>214.7</ele>
        <time>2016-03-28T08:30:22Z</time>
      </trkpt>
      <trkpt lat="43.29382" lon="2.1948">
        <ele>212.6</ele>
        <time>2016-03-28T08:30:24Z</time>
      </trkpt>
      <trkpt lat="43.2939" lon="2.19474">
        <ele>213.2</ele>
        <time>2016-03-28T08:30:26Z</time>
      </trkpt>
      <trkpt lat="43.29398" lon="2.19468">
        <ele>214.1</ele>
        <time>2016-03-28T08:30:28Z</time>
      </trkpt>
      <trkpt lat="43.29406" lon="2.19461">
        <ele>215</ele>
        <time>2016-03-28T08:30:30Z</time>
      </trkpt>
      <trkpt lat="43.29414" lon="2.19454">
        <ele>216.4</ele>
        <time>2016-03-28T08:30:32Z</time>
      </trkpt>
      <trkpt lat="43.29424" lon="2.19441">
        <ele>217.4</ele>
        <time>2016-03-28T08:30:34Z</time>
      </trkpt>
      <trkpt lat="43.29434" lon="2.19426">
        <ele>217.6</ele>
        <time>2016-03-28T08:30:36Z</time>
      </trkpt>
      <trkpt lat="43.29445" lon="2.19409">
        <ele>217.9</ele>
        <time>2016-03-28T08:30:38Z</time>
      </trkpt>
      <trkpt lat="43.29456" lon="2.19394">
        <ele>217.9</ele>
        <time>2016-03-28T08:30:40Z</time>
      </trkpt>
      <trkpt lat="43.29467" lon="2.19381">
        <ele>217.7</ele>
        <time>2016-03-28T08:30:42Z</time>
      </trkpt>
      <trkpt lat="43.29479" lon="2.19372">
        <ele>217.7</ele>
        <time>2016-03-28T08:30:44Z</time>
      </trkpt>
      <trkpt lat="43.29494" lon="2.19362">
        <ele>218.4</ele>
        <time>2016-03-28T08:30:46Z</time>
      </trkpt>
      <trkpt lat="43.29505" lon="2.19355">
        <ele>219.6</ele>
        <time>2016-03-28T08:30:48Z</time>
      </trkpt>
      <trkpt lat="43.29514" lon="2.19347">
        <ele>218.9</ele>
        <time>2016-03-28T08:30:50Z</time>
      </trkpt>
      <trkpt lat="43.29524" lon="2.19339">
        <ele>217.9</ele>
        <time>2016-03-28T08:30:52Z</time>
      </trkpt>
      <trkpt lat="43.29535" lon="2.19329">
        <ele>217</ele>
        <time>2016-03-28T08:30:54Z</time>
      </trkpt>
      <trkpt lat="43.29547" lon="2.19318">
        <ele>216.8</ele>
        <time>2016-03-28T08:30:56Z</time>
      </trkpt>
      <trkpt lat="43.2956" lon="2.19306">
        <ele>217.4</ele>
        <time>2016-03-28T08:30:58Z</time>
      </trkpt>
      <trkpt lat="43.29573" lon="2.19295">
        <ele>218.8</ele>
        <time>2016-03-28T08:31:00Z</time>
      </trkpt>
      <trkpt lat="43.29584" lon="2.19284">
        <ele>220</ele>
        <time>2016-03-28T08:31:02Z</time>
      </trkpt>
      <trkpt lat="43.29595" lon="2.19274">
        <ele>220</ele>
        <time>2016-03-28T08:31:04Z</time>
      </trkpt>
      <trkpt lat="43.29605" lon="2.19263">
        <ele>220</ele>
        <time>2016-03-28T08:31:06Z</time>
      </trkpt>
      <trkpt lat="43.29615" lon="2.19252">
        <ele>220.1</ele>
        <time>2016-03-28T08:31:08Z</time>
      </trkpt>
      <trkpt lat="43.29624" lon="2.19242">
        <ele>219.8</ele>
        <time>2016-03-28T08:31:10Z</time>
      </trkpt>
      <trkpt lat="43.29636" lon="2.19233">
        <ele>219.2</ele>
        <time>2016-03-28T08:31:12Z</time>
      </trkpt>
      <trkpt lat="43.29647" lon="2.19223">
        <ele>220.2</ele>
        <time>2016-03-28T08:31:14Z</time>
      </trkpt>
      <trkpt lat="43.29657" lon="2.19215">
        <ele>221</ele>
        <time>2016-03-28T08:31:16Z</time>
      </trkpt>
      <trkpt lat="43.29668" lon="2.1921">
        <ele>221.8</ele>
        <time>2016-03-28T08:31:18Z</time>
      </trkpt>
      <trkpt lat="43.29679" lon="2.19208">
        <ele>222.5</ele>
        <time>2016-03-28T08:31:20Z</time>
      </trkpt>
      <trkpt lat="43.2969" lon="2.19207">
        <ele>223.3</ele>
        <time>2016-03-28T08:31:22Z</time>
      </trkpt>
      <trkpt lat="43.29701" lon="2.19203">
        <ele>223.7</ele>
        <time>2016-03-28T08:31:24Z</time>
      </trkpt>
      <trkpt lat="43.29712" lon="2.19198">
        <ele>223.4</ele>
        <time>2016-03-28T08:31:26Z</time>
      </trkpt>
      <trkpt lat="43.29721" lon="2.19193">
        <ele>222.7</ele>
        <time>2016-03-28T08:31:28Z</time>
      </trkpt>
      <trkpt lat="43.2973" lon="2.19188">
        <ele>222.5</ele>
        <time>2016-03-28T08:31:33Z</time>
      </trkpt>
      <trkpt lat="43.29742" lon="2.19179">
        <ele>221.8</ele>
        <time>2016-03-28T08:31:37Z</time>
      </trkpt>
      <trkpt lat="43.29751" lon="2.19173">
        <ele>221.5</ele>
        <time>2016-03-28T08:31:39Z</time>
      </trkpt>
      <trkpt lat="43.2976" lon="2.19167">
        <ele>222.1</ele>
        <time>2016-03-28T08:31:41Z</time>
      </trkpt>
      <trkpt lat="43.29772" lon="2.19158">
        <ele>221.8</ele>
        <time>2016-03-28T08:31:44Z</time>
      </trkpt>
      <trkpt lat="43.29775" lon="2.19146">
        <ele>222</ele>
        <time>2016-03-28T08:31:47Z</time>
      </trkpt>
      <trkpt lat="43.29776" lon="2.19132">
        <ele>222.4</ele>
        <time>2016-03-28T08:31:49Z</time>
      </trkpt>
      <trkpt lat="43.29778" lon="2.19117">
        <ele>222.8</ele>
        <time>2016-03-28T08:31:51Z</time>
      </trkpt>
      <trkpt lat="43.29779" lon="2.19103">
        <ele>223.6</ele>
        <time>2016-03-28T08:31:53Z</time>
      </trkpt>
      <trkpt lat="43.2978" lon="2.19088">
        <ele>224.2</ele>
        <time>2016-03-28T08:31:55Z</time>
      </trkpt>
      <trkpt lat="43.29782" lon="2.19073">
        <ele>225</ele>
        <time>2016-03-28T08:31:57Z</time>
      </trkpt>
      <trkpt lat="43.29783" lon="2.1906">
        <ele>225.6</ele>
        <time>2016-03-28T08:31:59Z</time>
      </trkpt>
      <trkpt lat="43.2979" lon="2.19048">
        <ele>225.7</ele>
        <time>2016-03-28T08:32:02Z</time>
      </trkpt>
      <trkpt lat="43.29802" lon="2.19045">
        <ele>225.7</ele>
        <time>2016-03-28T08:32:05Z</time>
      </trkpt>
      <trkpt lat="43.29812" lon="2.19046">
        <ele>226.6</ele>
        <time>2016-03-28T08:32:07Z</time>
      </trkpt>
      <trkpt lat="43.29822" lon="2.19051">
        <ele>227.7</ele>
        <time>2016-03-28T08:32:09Z</time>
      </trkpt>
      <trkpt lat="43.29831" lon="2.19058">
        <ele>228.1</ele>
        <time>2016-03-28T08:32:11Z</time>
      </trkpt>
      <trkpt lat="43.2984" lon="2.19064">
        <ele>228.5</ele>
        <time>2016-03-28T08:32:13Z</time>
      </trkpt>
      <trkpt lat="43.2985" lon="2.19071">
        <ele>229.2</ele>
        <time>2016-03-28T08:32:15Z</time>
      </trkpt>
      <trkpt lat="43.29861" lon="2.19077">
        <ele>229.7</ele>
        <time>2016-03-28T08:32:17Z</time>
      </trkpt>
      <trkpt lat="43.29875" lon="2.19084">
        <ele>230</ele>
        <time>2016-03-28T08:32:19Z</time>
      </trkpt>
      <trkpt lat="43.29889" lon="2.19089">
        <ele>230.4</ele>
        <time>2016-03-28T08:32:21Z</time>
      </trkpt>
      <trkpt lat="43.29904" lon="2.19094">
        <ele>230.9</ele>
        <time>2016-03-28T08:32:23Z</time>
      </trkpt>
      <trkpt lat="43.29919" lon="2.19099">
        <ele>231.8</ele>
        <time>2016-03-28T08:32:25Z</time>
      </trkpt>
      <trkpt lat="43.29934" lon="2.19105">
        <ele>232.3</ele>
        <time>2016-03-28T08:32:27Z</time>
      </trkpt>
      <trkpt lat="43.29949" lon="2.1911">
        <ele>232.7</ele>
        <time>2016-03-28T08:32:29Z</time>
      </trkpt>
      <trkpt lat="43.29965" lon="2.19112">
        <ele>233.1</ele>
        <time>2016-03-28T08:32:31Z</time>
      </trkpt>
      <trkpt lat="43.29982" lon="2.19111">
        <ele>233.6</ele>
        <time>2016-03-28T08:32:33Z</time>
      </trkpt>
      <trkpt lat="43.29997" lon="2.19109">
        <ele>234.3</ele>
        <time>2016-03-28T08:32:35Z</time>
      </trkpt>
      <trkpt lat="43.30011" lon="2.19111">
        <ele>235</ele>
        <time>2016-03-28T08:32:37Z</time>
      </trkpt>
      <trkpt lat="43.30024" lon="2.19116">
        <ele>235.7</ele>
        <time>2016-03-28T08:32:39Z</time>
      </trkpt>
      <trkpt lat="43.30037" lon="2.19112">
        <ele>236.2</ele>
        <time>2016-03-28T08:32:41Z</time>
      </trkpt>
      <trkpt lat="43.30048" lon="2.19113">
        <ele>236.8</ele>
        <time>2016-03-28T08:32:43Z</time>
      </trkpt>
      <trkpt lat="43.30059" lon="2.19117">
        <ele>237.4</ele>
        <time>2016-03-28T08:32:45Z</time>
      </trkpt>
      <trkpt lat="43.30069" lon="2.1912">
        <ele>237.4</ele>
        <time>2016-03-28T08:32:48Z</time>
      </trkpt>
      <trkpt lat="43.3008" lon="2.19127">
        <ele>237</ele>
        <time>2016-03-28T08:32:51Z</time>
      </trkpt>
      <trkpt lat="43.30091" lon="2.19141">
        <ele>236.9</ele>
        <time>2016-03-28T08:32:54Z</time>
      </trkpt>
      <trkpt lat="43.30097" lon="2.19156">
        <ele>237.1</ele>
        <time>2016-03-28T08:32:57Z</time>
      </trkpt>
      <trkpt lat="43.30105" lon="2.19171">
        <ele>238.5</ele>
        <time>2016-03-28T08:33:00Z</time>
      </trkpt>
      <trkpt lat="43.30116" lon="2.19181">
        <ele>239.3</ele>
        <time>2016-03-28T08:33:03Z</time>
      </trkpt>
      <trkpt lat="43.30125" lon="2.19187">
        <ele>240.2</ele>
        <time>2016-03-28T08:33:05Z</time>
      </trkpt>
      <trkpt lat="43.30134" lon="2.19192">
        <ele>241.1</ele>
        <time>2016-03-28T08:33:07Z</time>
      </trkpt>
      <trkpt lat="43.30143" lon="2.19197">
        <ele>241.9</ele>
        <time>2016-03-28T08:33:09Z</time>
      </trkpt>
      <trkpt lat="43.30153" lon="2.19201">
        <ele>242.7</ele>
        <time>2016-03-28T08:33:11Z</time>
      </trkpt>
      <trkpt lat="43.30163" lon="2.19206">
        <ele>243.5</ele>
        <time>2016-03-28T08:33:13Z</time>
      </trkpt>
      <trkpt lat="43.30172" lon="2.19209">
        <ele>244.6</ele>
        <time>2016-03-28T08:33:15Z</time>
      </trkpt>
      <trkpt lat="43.30181" lon="2.19212">
        <ele>245.8</ele>
        <time>2016-03-28T08:33:17Z</time>
      </trkpt>
      <trkpt lat="43.30191" lon="2.19216">
        <ele>246.8</ele>
        <time>2016-03-28T08:33:19Z</time>
      </trkpt>
      <trkpt lat="43.30201" lon="2.19218">
        <ele>247.2</ele>
        <time>2016-03-28T08:33:21Z</time>
      </trkpt>
      <trkpt lat="43.3021" lon="2.19221">
        <ele>247.5</ele>
        <time>2016-03-28T08:33:23Z</time>
      </trkpt>
      <trkpt lat="43.30219" lon="2.19224">
        <ele>247.8</ele>
        <time>2016-03-28T08:33:25Z</time>
      </trkpt>
      <trkpt lat="43.30229" lon="2.19226">
        <ele>248.3</ele>
        <time>2016-03-28T08:33:27Z</time>
      </trkpt>
      <trkpt lat="43.30239" lon="2.19228">
        <ele>248.5</ele>
        <time>2016-03-28T08:33:29Z</time>
      </trkpt>
      <trkpt lat="43.3025" lon="2.1923">
        <ele>249</ele>
        <time>2016-03-28T08:33:31Z</time>
      </trkpt>
      <trkpt lat="43.30259" lon="2.19232">
        <ele>249.9</ele>
        <time>2016-03-28T08:33:33Z</time>
      </trkpt>
      <trkpt lat="43.30269" lon="2.19234">
        <ele>250.6</ele>
        <time>2016-03-28T08:33:35Z</time>
      </trkpt>
      <trkpt lat="43.30279" lon="2.19236">
        <ele>251.3</ele>
        <time>2016-03-28T08:33:37Z</time>
      </trkpt>
      <trkpt lat="43.30288" lon="2.19237">
        <ele>252</ele>
        <time>2016-03-28T08:33:39Z</time>
      </trkpt>
      <trkpt lat="43.30299" lon="2.19237">
        <ele>252.8</ele>
        <time>2016-03-28T08:33:41Z</time>
      </trkpt>
      <trkpt lat="43.30309" lon="2.19236">
        <ele>253.5</ele>
        <time>2016-03-28T08:33:43Z</time>
      </trkpt>
      <trkpt lat="43.30319" lon="2.19235">
        <ele>254.5</ele>
        <time>2016-03-28T08:33:45Z</time>
      </trkpt>
      <trkpt lat="43.30328" lon="2.19235">
        <ele>255.2</ele>
        <time>2016-03-28T08:33:47Z</time>
      </trkpt>
      <trkpt lat="43.30337" lon="2.19234">
        <ele>255.7</ele>
        <time>2016-03-28T08:33:49Z</time>
      </trkpt>
      <trkpt lat="43.30347" lon="2.19232">
        <ele>256.5</ele>
        <time>2016-03-28T08:33:51Z</time>
      </trkpt>
      <trkpt lat="43.30357" lon="2.19229">
        <ele>257.1</ele>
        <time>2016-03-28T08:33:53Z</time>
      </trkpt>
      <trkpt lat="43.30367" lon="2.19225">
        <ele>257.6</ele>
        <time>2016-03-28T08:33:55Z</time>
      </trkpt>
      <trkpt lat="43.30376" lon="2.19222">
        <ele>258.3</ele>
        <time>2016-03-28T08:33:57Z</time>
      </trkpt>
      <trkpt lat="43.3039" lon="2.19218">
        <ele>259.5</ele>
        <time>2016-03-28T08:34:00Z</time>
      </trkpt>
      <trkpt lat="43.304" lon="2.19216">
        <ele>260.4</ele>
        <time>2016-03-28T08:34:02Z</time>
      </trkpt>
      <trkpt lat="43.30412" lon="2.19213">
        <ele>262.2</ele>
        <time>2016-03-28T08:34:04Z</time>
      </trkpt>
      <trkpt lat="43.30424" lon="2.19211">
        <ele>263.9</ele>
        <time>2016-03-28T08:34:06Z</time>
      </trkpt>
      <trkpt lat="43.30436" lon="2.19209">
        <ele>265.4</ele>
        <time>2016-03-28T08:34:08Z</time>
      </trkpt>
      <trkpt lat="43.30446" lon="2.19208">
        <ele>265</ele>
        <time>2016-03-28T08:34:10Z</time>
      </trkpt>
      <trkpt lat="43.30458" lon="2.19207">
        <ele>265.4</ele>
        <time>2016-03-28T08:34:12Z</time>
      </trkpt>
      <trkpt lat="43.30469" lon="2.19205">
        <ele>265.2</ele>
        <time>2016-03-28T08:34:14Z</time>
      </trkpt>
      <trkpt lat="43.30482" lon="2.19203">
        <ele>264.8</ele>
        <time>2016-03-28T08:34:16Z</time>
      </trkpt>
      <trkpt lat="43.30496" lon="2.19202">
        <ele>264.9</ele>
        <time>2016-03-28T08:34:18Z</time>
      </trkpt>
      <trkpt lat="43.30512" lon="2.19201">
        <ele>265</ele>
        <time>2016-03-28T08:34:20Z</time>
      </trkpt>
      <trkpt lat="43.30526" lon="2.19201">
        <ele>266</ele>
        <time>2016-03-28T08:34:22Z</time>
      </trkpt>
      <trkpt lat="43.30538" lon="2.192">
        <ele>266.4</ele>
        <time>2016-03-28T08:34:24Z</time>
      </trkpt>
      <trkpt lat="43.30548" lon="2.19199">
        <ele>266.6</ele>
        <time>2016-03-28T08:34:26Z</time>
      </trkpt>
      <trkpt lat="43.3056" lon="2.19199">
        <ele>266.8</ele>
        <time>2016-03-28T08:34:29Z</time>
      </trkpt>
      <trkpt lat="43.30571" lon="2.19197">
        <ele>267.1</ele>
        <time>2016-03-28T08:34:51Z</time>
      </trkpt>
      <trkpt lat="43.30581" lon="2.192">
        <ele>267.1</ele>
        <time>2016-03-28T08:34:54Z</time>
      </trkpt>
      <trkpt lat="43.30593" lon="2.19202">
        <ele>268.4</ele>
        <time>2016-03-28T08:34:57Z</time>
      </trkpt>
      <trkpt lat="43.30603" lon="2.19204">
        <ele>269.4</ele>
        <time>2016-03-28T08:34:59Z</time>
      </trkpt>
      <trkpt lat="43.30613" lon="2.19207">
        <ele>270</ele>
        <time>2016-03-28T08:35:02Z</time>
      </trkpt>
      <trkpt lat="43.30625" lon="2.19213">
        <ele>270.6</ele>
        <time>2016-03-28T08:35:05Z</time>
      </trkpt>
      <trkpt lat="43.30637" lon="2.19217">
        <ele>271.6</ele>
        <time>2016-03-28T08:35:08Z</time>
      </trkpt>
      <trkpt lat="43.30646" lon="2.1922">
        <ele>272.2</ele>
        <time>2016-03-28T08:35:10Z</time>
      </trkpt>
      <trkpt lat="43.30658" lon="2.1922">
        <ele>274.6</ele>
        <time>2016-03-28T08:35:13Z</time>
      </trkpt>
      <trkpt lat="43.3067" lon="2.19221">
        <ele>275.4</ele>
        <time>2016-03-28T08:35:16Z</time>
      </trkpt>
      <trkpt lat="43.3068" lon="2.19225">
        <ele>275.7</ele>
        <time>2016-03-28T08:35:20Z</time>
      </trkpt>
      <trkpt lat="43.30689" lon="2.19228">
        <ele>275.8</ele>
        <time>2016-03-28T08:35:24Z</time>
      </trkpt>
      <trkpt lat="43.30699" lon="2.1923">
        <ele>275.9</ele>
        <time>2016-03-28T08:35:29Z</time>
      </trkpt>
      <trkpt lat="43.30711" lon="2.19231">
        <ele>276.1</ele>
        <time>2016-03-28T08:35:33Z</time>
      </trkpt>
      <trkpt lat="43.3072" lon="2.19232">
        <ele>276.2</ele>
        <time>2016-03-28T08:35:35Z</time>
      </trkpt>
      <trkpt lat="43.30728" lon="2.19237">
        <ele>275.6</ele>
        <time>2016-03-28T08:35:37Z</time>
      </trkpt>
      <trkpt lat="43.3074" lon="2.19244">
        <ele>274.8</ele>
        <time>2016-03-28T08:35:40Z</time>
      </trkpt>
      <trkpt lat="43.30749" lon="2.19251">
        <ele>274.8</ele>
        <time>2016-03-28T08:35:43Z</time>
      </trkpt>
      <trkpt lat="43.30757" lon="2.1926">
        <ele>274.8</ele>
        <time>2016-03-28T08:35:47Z</time>
      </trkpt>
      <trkpt lat="43.30762" lon="2.19274">
        <ele>274.8</ele>
        <time>2016-03-28T08:35:51Z</time>
      </trkpt>
      <trkpt lat="43.30761" lon="2.19289">
        <ele>274.7</ele>
        <time>2016-03-28T08:35:55Z</time>
      </trkpt>
      <trkpt lat="43.30762" lon="2.19302">
        <ele>274.8</ele>
        <time>2016-03-28T08:35:58Z</time>
      </trkpt>
      <trkpt lat="43.30768" lon="2.19312">
        <ele>274.8</ele>
        <time>2016-03-28T08:36:12Z</time>
      </trkpt>
      <trkpt lat="43.30779" lon="2.19317">
        <ele>274.9</ele>
        <time>2016-03-28T08:36:17Z</time>
      </trkpt>
      <trkpt lat="43.3079" lon="2.19322">
        <ele>275</ele>
        <time>2016-03-28T08:36:21Z</time>
      </trkpt>
      <trkpt lat="43.30801" lon="2.19326">
        <ele>275.2</ele>
        <time>2016-03-28T08:36:25Z</time>
      </trkpt>
      <trkpt lat="43.30813" lon="2.1933">
        <ele>275.2</ele>
        <time>2016-03-28T08:36:29Z</time>
      </trkpt>
      <trkpt lat="43.30825" lon="2.19331">
        <ele>275.3</ele>
        <time>2016-03-28T08:36:33Z</time>
      </trkpt>
      <trkpt lat="43.30837" lon="2.19334">
        <ele>275.7</ele>
        <time>2016-03-28T08:36:37Z</time>
      </trkpt>
      <trkpt lat="43.30846" lon="2.19338">
        <ele>275.9</ele>
        <time>2016-03-28T08:36:41Z</time>
      </trkpt>
      <trkpt lat="43.30855" lon="2.19343">
        <ele>276</ele>
        <time>2016-03-28T08:36:45Z</time>
      </trkpt>
      <trkpt lat="43.30866" lon="2.1935">
        <ele>276.1</ele>
        <time>2016-03-28T08:36:49Z</time>
      </trkpt>
      <trkpt lat="43.30875" lon="2.19355">
        <ele>276.3</ele>
        <time>2016-03-28T08:36:52Z</time>
      </trkpt>
      <trkpt lat="43.30884" lon="2.19361">
        <ele>276.3</ele>
        <time>2016-03-28T08:36:55Z</time>
      </trkpt>
      <trkpt lat="43.30891" lon="2.19368">
        <ele>276.3</ele>
        <time>2016-03-28T08:36:59Z</time>
      </trkpt>
      <trkpt lat="43.30899" lon="2.19377">
        <ele>276.2</ele>
        <time>2016-03-28T08:37:03Z</time>
      </trkpt>
      <trkpt lat="43.30909" lon="2.19386">
        <ele>276.2</ele>
        <time>2016-03-28T08:37:07Z</time>
      </trkpt>
      <trkpt lat="43.3092" lon="2.1939">
        <ele>276.1</ele>
        <time>2016-03-28T08:37:11Z</time>
      </trkpt>
      <trkpt lat="43.30929" lon="2.19391">
        <ele>276.1</ele>
        <time>2016-03-28T08:37:14Z</time>
      </trkpt>
      <trkpt lat="43.3094" lon="2.19389">
        <ele>275.8</ele>
        <time>2016-03-28T08:37:22Z</time>
      </trkpt>
      <trkpt lat="43.30951" lon="2.19386">
        <ele>275.5</ele>
        <time>2016-03-28T08:37:26Z</time>
      </trkpt>
      <trkpt lat="43.30961" lon="2.19383">
        <ele>275.1</ele>
        <time>2016-03-28T08:37:29Z</time>
      </trkpt>
      <trkpt lat="43.30969" lon="2.19377">
        <ele>274.7</ele>
        <time>2016-03-28T08:37:34Z</time>
      </trkpt>
      <trkpt lat="43.30979" lon="2.19372">
        <ele>274.3</ele>
        <time>2016-03-28T08:37:38Z</time>
      </trkpt>
      <trkpt lat="43.30989" lon="2.19367">
        <ele>273.8</ele>
        <time>2016-03-28T08:37:42Z</time>
      </trkpt>
      <trkpt lat="43.30998" lon="2.19362">
        <ele>273.4</ele>
        <time>2016-03-28T08:37:45Z</time>
      </trkpt>
      <trkpt lat="43.31009" lon="2.19356">
        <ele>271.6</ele>
        <time>2016-03-28T08:37:49Z</time>
      </trkpt>
      <trkpt lat="43.31019" lon="2.19351">
        <ele>270.4</ele>
        <time>2016-03-28T08:37:52Z</time>
      </trkpt>
      <trkpt lat="43.31027" lon="2.19346">
        <ele>270.2</ele>
        <time>2016-03-28T08:37:55Z</time>
      </trkpt>
      <trkpt lat="43.31038" lon="2.19342">
        <ele>270</ele>
        <time>2016-03-28T08:37:59Z</time>
      </trkpt>
      <trkpt lat="43.31049" lon="2.19336">
        <ele>269.6</ele>
        <time>2016-03-28T08:38:03Z</time>
      </trkpt>
      <trkpt lat="43.31059" lon="2.19332">
        <ele>269.4</ele>
        <time>2016-03-28T08:38:07Z</time>
      </trkpt>
      <trkpt lat="43.31069" lon="2.19327">
        <ele>269.2</ele>
        <time>2016-03-28T08:38:11Z</time>
      </trkpt>
      <trkpt lat="43.31078" lon="2.19319">
        <ele>268.8</ele>
        <time>2016-03-28T08:38:15Z</time>
      </trkpt>
      <trkpt lat="43.31087" lon="2.19311">
        <ele>268.5</ele>
        <time>2016-03-28T08:38:18Z</time>
      </trkpt>
      <trkpt lat="43.31095" lon="2.19304">
        <ele>268.2</ele>
        <time>2016-03-28T08:38:22Z</time>
      </trkpt>
      <trkpt lat="43.31105" lon="2.19295">
        <ele>268.4</ele>
        <time>2016-03-28T08:38:26Z</time>
      </trkpt>
      <trkpt lat="43.31114" lon="2.19288">
        <ele>268.4</ele>
        <time>2016-03-28T08:38:29Z</time>
      </trkpt>
      <trkpt lat="43.3112" lon="2.1928">
        <ele>268.3</ele>
        <time>2016-03-28T08:38:33Z</time>
      </trkpt>
      <trkpt lat="43.3112" lon="2.19266">
        <ele>267.9</ele>
        <time>2016-03-28T08:39:21Z</time>
      </trkpt>
      <trkpt lat="43.31115" lon="2.19254">
        <ele>267.2</ele>
        <time>2016-03-28T08:39:24Z</time>
      </trkpt>
      <trkpt lat="43.31109" lon="2.19241">
        <ele>266.7</ele>
        <time>2016-03-28T08:39:27Z</time>
      </trkpt>
      <trkpt lat="43.31105" lon="2.19223">
        <ele>265.9</ele>
        <time>2016-03-28T08:39:30Z</time>
      </trkpt>
      <trkpt lat="43.31105" lon="2.19208">
        <ele>264.6</ele>
        <time>2016-03-28T08:39:33Z</time>
      </trkpt>
      <trkpt lat="43.31108" lon="2.19194">
        <ele>263.6</ele>
        <time>2016-03-28T08:39:35Z</time>
      </trkpt>
      <trkpt lat="43.31114" lon="2.1918">
        <ele>262.7</ele>
        <time>2016-03-28T08:39:37Z</time>
      </trkpt>
      <trkpt lat="43.31121" lon="2.19168">
        <ele>261.2</ele>
        <time>2016-03-28T08:39:39Z</time>
      </trkpt>
      <trkpt lat="43.31129" lon="2.19158">
        <ele>259.1</ele>
        <time>2016-03-28T08:39:41Z</time>
      </trkpt>
      <trkpt lat="43.31138" lon="2.19147">
        <ele>257.5</ele>
        <time>2016-03-28T08:39:43Z</time>
      </trkpt>
      <trkpt lat="43.31147" lon="2.19135">
        <ele>257.1</ele>
        <time>2016-03-28T08:39:45Z</time>
      </trkpt>
      <trkpt lat="43.31158" lon="2.19122">
        <ele>257.7</ele>
        <time>2016-03-28T08:39:47Z</time>
      </trkpt>
      <trkpt lat="43.31165" lon="2.19112">
        <ele>257.8</ele>
        <time>2016-03-28T08:39:48Z</time>
      </trkpt>
      <trkpt lat="43.31169" lon="2.19101">
        <ele>258.3</ele>
        <time>2016-03-28T08:39:49Z</time>
      </trkpt>
      <trkpt lat="43.31174" lon="2.19088">
        <ele>258.9</ele>
        <time>2016-03-28T08:39:50Z</time>
      </trkpt>
      <trkpt lat="43.31178" lon="2.19075">
        <ele>259.2</ele>
        <time>2016-03-28T08:39:51Z</time>
      </trkpt>
      <trkpt lat="43.31183" lon="2.1906">
        <ele>259.5</ele>
        <time>2016-03-28T08:39:52Z</time>
      </trkpt>
      <trkpt lat="43.31187" lon="2.19045">
        <ele>259.4</ele>
        <time>2016-03-28T08:39:53Z</time>
      </trkpt>
      <trkpt lat="43.31192" lon="2.1903">
        <ele>259.1</ele>
        <time>2016-03-28T08:39:54Z</time>
      </trkpt>
      <trkpt lat="43.31197" lon="2.19015">
        <ele>258.7</ele>
        <time>2016-03-28T08:39:55Z</time>
      </trkpt>
      <trkpt lat="43.312" lon="2.19">
        <ele>258.2</ele>
        <time>2016-03-28T08:39:56Z</time>
      </trkpt>
      <trkpt lat="43.31203" lon="2.18985">
        <ele>257.5</ele>
        <time>2016-03-28T08:39:57Z</time>
      </trkpt>
      <trkpt lat="43.31205" lon="2.18971">
        <ele>256.8</ele>
        <time>2016-03-28T08:39:58Z</time>
      </trkpt>
      <trkpt lat="43.31206" lon="2.18956">
        <ele>255.9</ele>
        <time>2016-03-28T08:39:59Z</time>
      </trkpt>
      <trkpt lat="43.31207" lon="2.18941">
        <ele>255</ele>
        <time>2016-03-28T08:40:00Z</time>
      </trkpt>
      <trkpt lat="43.31207" lon="2.18926">
        <ele>254.1</ele>
        <time>2016-03-28T08:40:01Z</time>
      </trkpt>
      <trkpt lat="43.31205" lon="2.18912">
        <ele>253</ele>
        <time>2016-03-28T08:40:02Z</time>
      </trkpt>
      <trkpt lat="43.31201" lon="2.18901">
        <ele>252.4</ele>
        <time>2016-03-28T08:40:03Z</time>
      </trkpt>
      <trkpt lat="43.31194" lon="2.18889">
        <ele>251.7</ele>
        <time>2016-03-28T08:40:04Z</time>
      </trkpt>
      <trkpt lat="43.31188" lon="2.1888">
        <ele>251.1</ele>
        <time>2016-03-28T08:40:05Z</time>
      </trkpt>
      <trkpt lat="43.3118" lon="2.18869">
        <ele>250.8</ele>
        <time>2016-03-28T08:40:06Z</time>
      </trkpt>
      <trkpt lat="43.31173" lon="2.18859">
        <ele>250.8</ele>
        <time>2016-03-28T08:40:07Z</time>
      </trkpt>
      <trkpt lat="43.31167" lon="2.18849">
        <ele>250.1</ele>
        <time>2016-03-28T08:40:08Z</time>
      </trkpt>
      <trkpt lat="43.31159" lon="2.18827">
        <ele>248.7</ele>
        <time>2016-03-28T08:40:10Z</time>
      </trkpt>
      <trkpt lat="43.31157" lon="2.18813">
        <ele>247.7</ele>
        <time>2016-03-28T08:40:11Z</time>
      </trkpt>
      <trkpt lat="43.31155" lon="2.18797">
        <ele>247.1</ele>
        <time>2016-03-28T08:40:12Z</time>
      </trkpt>
      <trkpt lat="43.31152" lon="2.18781">
        <ele>247.2</ele>
        <time>2016-03-28T08:40:13Z</time>
      </trkpt>
      <trkpt lat="43.31151" lon="2.18766">
        <ele>246.6</ele>
        <time>2016-03-28T08:40:14Z</time>
      </trkpt>
      <trkpt lat="43.31149" lon="2.18751">
        <ele>246.5</ele>
        <time>2016-03-28T08:40:15Z</time>
      </trkpt>
      <trkpt lat="43.31147" lon="2.18736">
        <ele>246.4</ele>
        <time>2016-03-28T08:40:16Z</time>
      </trkpt>
      <trkpt lat="43.31145" lon="2.18723">
        <ele>246.2</ele>
        <time>2016-03-28T08:40:17Z</time>
      </trkpt>
      <trkpt lat="43.3114" lon="2.18711">
        <ele>245.6</ele>
        <time>2016-03-28T08:40:18Z</time>
      </trkpt>
      <trkpt lat="43.31136" lon="2.187">
        <ele>245.2</ele>
        <time>2016-03-28T08:40:19Z</time>
      </trkpt>
      <trkpt lat="43.31131" lon="2.18687">
        <ele>244.4</ele>
        <time>2016-03-28T08:40:20Z</time>
      </trkpt>
      <trkpt lat="43.31125" lon="2.18675">
        <ele>243.6</ele>
        <time>2016-03-28T08:40:21Z</time>
      </trkpt>
      <trkpt lat="43.3112" lon="2.18662">
        <ele>242.7</ele>
        <time>2016-03-28T08:40:22Z</time>
      </trkpt>
      <trkpt lat="43.31114" lon="2.1865">
        <ele>241.6</ele>
        <time>2016-03-28T08:40:23Z</time>
      </trkpt>
      <trkpt lat="43.31108" lon="2.18638">
        <ele>240.9</ele>
        <time>2016-03-28T08:40:24Z</time>
      </trkpt>
      <trkpt lat="43.31102" lon="2.18626">
        <ele>240.4</ele>
        <time>2016-03-28T08:40:25Z</time>
      </trkpt>
      <trkpt lat="43.31096" lon="2.18614">
        <ele>240.4</ele>
        <time>2016-03-28T08:40:26Z</time>
      </trkpt>
      <trkpt lat="43.31089" lon="2.18601">
        <ele>240</ele>
        <time>2016-03-28T08:40:27Z</time>
      </trkpt>
      <trkpt lat="43.31083" lon="2.1859">
        <ele>239.4</ele>
        <time>2016-03-28T08:40:28Z</time>
      </trkpt>
      <trkpt lat="43.31077" lon="2.18579">
        <ele>238.6</ele>
        <time>2016-03-28T08:40:29Z</time>
      </trkpt>
      <trkpt lat="43.31072" lon="2.18569">
        <ele>237.8</ele>
        <time>2016-03-28T08:40:30Z</time>
      </trkpt>
      <trkpt lat="43.31066" lon="2.18557">
        <ele>237.2</ele>
        <time>2016-03-28T08:40:31Z</time>
      </trkpt>
      <trkpt lat="43.31061" lon="2.18545">
        <ele>236.7</ele>
        <time>2016-03-28T08:40:32Z</time>
      </trkpt>
      <trkpt lat="43.31056" lon="2.18534">
        <ele>236.1</ele>
        <time>2016-03-28T08:40:33Z</time>
      </trkpt>
      <trkpt lat="43.3105" lon="2.18522">
        <ele>234.9</ele>
        <time>2016-03-28T08:40:34Z</time>
      </trkpt>
      <trkpt lat="43.31045" lon="2.18511">
        <ele>234.2</ele>
        <time>2016-03-28T08:40:35Z</time>
      </trkpt>
      <trkpt lat="43.3104" lon="2.18501">
        <ele>233.8</ele>
        <time>2016-03-28T08:40:36Z</time>
      </trkpt>
      <trkpt lat="43.31034" lon="2.1849">
        <ele>233.3</ele>
        <time>2016-03-28T08:40:37Z</time>
      </trkpt>
      <trkpt lat="43.31027" lon="2.18477">
        <ele>232.9</ele>
        <time>2016-03-28T08:40:38Z</time>
      </trkpt>
      <trkpt lat="43.31021" lon="2.18465">
        <ele>232.2</ele>
        <time>2016-03-28T08:40:39Z</time>
      </trkpt>
      <trkpt lat="43.31014" lon="2.18454">
        <ele>231.4</ele>
        <time>2016-03-28T08:40:40Z</time>
      </trkpt>
      <trkpt lat="43.31008" lon="2.18443">
        <ele>230.4</ele>
        <time>2016-03-28T08:40:41Z</time>
      </trkpt>
      <trkpt lat="43.31001" lon="2.18432">
        <ele>229.5</ele>
        <time>2016-03-28T08:40:42Z</time>
      </trkpt>
      <trkpt lat="43.30994" lon="2.18421">
        <ele>228.8</ele>
        <time>2016-03-28T08:40:43Z</time>
      </trkpt>
      <trkpt lat="43.30987" lon="2.1841">
        <ele>228.2</ele>
        <time>2016-03-28T08:40:44Z</time>
      </trkpt>
      <trkpt lat="43.3098" lon="2.18399">
        <ele>227.7</ele>
        <time>2016-03-28T08:40:45Z</time>
      </trkpt>
      <trkpt lat="43.30974" lon="2.18388">
        <ele>227.2</ele>
        <time>2016-03-28T08:40:46Z</time>
      </trkpt>
      <trkpt lat="43.30967" lon="2.18377">
        <ele>226.8</ele>
        <time>2016-03-28T08:40:47Z</time>
      </trkpt>
      <trkpt lat="43.30961" lon="2.18366">
        <ele>226.5</ele>
        <time>2016-03-28T08:40:48Z</time>
      </trkpt>
      <trkpt lat="43.30958" lon="2.18354">
        <ele>226</ele>
        <time>2016-03-28T08:40:49Z</time>
      </trkpt>
      <trkpt lat="43.30955" lon="2.18341">
        <ele>225.4</ele>
        <time>2016-03-28T08:40:50Z</time>
      </trkpt>
      <trkpt lat="43.30955" lon="2.18328">
        <ele>224.8</ele>
        <time>2016-03-28T08:40:51Z</time>
      </trkpt>
      <trkpt lat="43.30955" lon="2.18315">
        <ele>224.1</ele>
        <time>2016-03-28T08:40:52Z</time>
      </trkpt>
      <trkpt lat="43.30965" lon="2.18295">
        <ele>222.7</ele>
        <time>2016-03-28T08:40:54Z</time>
      </trkpt>
      <trkpt lat="43.30973" lon="2.18286">
        <ele>222.5</ele>
        <time>2016-03-28T08:40:55Z</time>
      </trkpt>
      <trkpt lat="43.30983" lon="2.18281">
        <ele>221.8</ele>
        <time>2016-03-28T08:40:56Z</time>
      </trkpt>
      <trkpt lat="43.30999" lon="2.18276">
        <ele>221.1</ele>
        <time>2016-03-28T08:40:58Z</time>
      </trkpt>
      <trkpt lat="43.31011" lon="2.18275">
        <ele>219.7</ele>
        <time>2016-03-28T08:41:00Z</time>
      </trkpt>
      <trkpt lat="43.31021" lon="2.18273">
        <ele>218.4</ele>
        <time>2016-03-28T08:41:02Z</time>
      </trkpt>
      <trkpt lat="43.31033" lon="2.1827">
        <ele>218.3</ele>
        <time>2016-03-28T08:41:05Z</time>
      </trkpt>
      <trkpt lat="43.31044" lon="2.18265">
        <ele>218</ele>
        <time>2016-03-28T08:41:08Z</time>
      </trkpt>
      <trkpt lat="43.31055" lon="2.18258">
        <ele>217</ele>
        <time>2016-03-28T08:41:11Z</time>
      </trkpt>
      <trkpt lat="43.31066" lon="2.18249">
        <ele>215.2</ele>
        <time>2016-03-28T08:41:13Z</time>
      </trkpt>
      <trkpt lat="43.31078" lon="2.1824">
        <ele>213.3</ele>
        <time>2016-03-28T08:41:15Z</time>
      </trkpt>
      <trkpt lat="43.3109" lon="2.18234">
        <ele>212.1</ele>
        <time>2016-03-28T08:41:17Z</time>
      </trkpt>
      <trkpt lat="43.31102" lon="2.18229">
        <ele>210.9</ele>
        <time>2016-03-28T08:41:19Z</time>
      </trkpt>
      <trkpt lat="43.31112" lon="2.18224">
        <ele>209.5</ele>
        <time>2016-03-28T08:41:21Z</time>
      </trkpt>
      <trkpt lat="43.31122" lon="2.18214">
        <ele>209.2</ele>
        <time>2016-03-28T08:41:23Z</time>
      </trkpt>
      <trkpt lat="43.3113" lon="2.18201">
        <ele>209.7</ele>
        <time>2016-03-28T08:41:25Z</time>
      </trkpt>
      <trkpt lat="43.31137" lon="2.18187">
        <ele>209.4</ele>
        <time>2016-03-28T08:41:27Z</time>
      </trkpt>
      <trkpt lat="43.3114" lon="2.18171">
        <ele>209.8</ele>
        <time>2016-03-28T08:41:29Z</time>
      </trkpt>
      <trkpt lat="43.31137" lon="2.18155">
        <ele>209.6</ele>
        <time>2016-03-28T08:41:31Z</time>
      </trkpt>
      <trkpt lat="43.31128" lon="2.18145">
        <ele>209.4</ele>
        <time>2016-03-28T08:41:33Z</time>
      </trkpt>
      <trkpt lat="43.31116" lon="2.1814">
        <ele>210.8</ele>
        <time>2016-03-28T08:41:35Z</time>
      </trkpt>
      <trkpt lat="43.31101" lon="2.18139">
        <ele>211.9</ele>
        <time>2016-03-28T08:41:37Z</time>
      </trkpt>
      <trkpt lat="43.31086" lon="2.1814">
        <ele>211.6</ele>
        <time>2016-03-28T08:41:39Z</time>
      </trkpt>
      <trkpt lat="43.31077" lon="2.18142">
        <ele>211</ele>
        <time>2016-03-28T08:41:40Z</time>
      </trkpt>
      <trkpt lat="43.31066" lon="2.18144">
        <ele>210.1</ele>
        <time>2016-03-28T08:41:41Z</time>
      </trkpt>
      <trkpt lat="43.3105" lon="2.18143">
        <ele>208.3</ele>
        <time>2016-03-28T08:41:43Z</time>
      </trkpt>
      <trkpt lat="43.31034" lon="2.18136">
        <ele>207.1</ele>
        <time>2016-03-28T08:41:45Z</time>
      </trkpt>
      <trkpt lat="43.31017" lon="2.18123">
        <ele>206.1</ele>
        <time>2016-03-28T08:41:47Z</time>
      </trkpt>
      <trkpt lat="43.31009" lon="2.18116">
        <ele>205.9</ele>
        <time>2016-03-28T08:41:48Z</time>
      </trkpt>
      <trkpt lat="43.31002" lon="2.18109">
        <ele>205.8</ele>
        <time>2016-03-28T08:41:49Z</time>
      </trkpt>
      <trkpt lat="43.30986" lon="2.18095">
        <ele>205.4</ele>
        <time>2016-03-28T08:41:51Z</time>
      </trkpt>
      <trkpt lat="43.30979" lon="2.18086">
        <ele>205.1</ele>
        <time>2016-03-28T08:41:52Z</time>
      </trkpt>
      <trkpt lat="43.30972" lon="2.18078">
        <ele>205.2</ele>
        <time>2016-03-28T08:41:53Z</time>
      </trkpt>
      <trkpt lat="43.30964" lon="2.18069">
        <ele>205.4</ele>
        <time>2016-03-28T08:41:54Z</time>
      </trkpt>
      <trkpt lat="43.3095" lon="2.18054">
        <ele>204.9</ele>
        <time>2016-03-28T08:41:56Z</time>
      </trkpt>
      <trkpt lat="43.30943" lon="2.18045">
        <ele>204.5</ele>
        <time>2016-03-28T08:41:57Z</time>
      </trkpt>
      <trkpt lat="43.30935" lon="2.18036">
        <ele>203.8</ele>
        <time>2016-03-28T08:41:58Z</time>
      </trkpt>
      <trkpt lat="43.30926" lon="2.18028">
        <ele>203.3</ele>
        <time>2016-03-28T08:41:59Z</time>
      </trkpt>
      <trkpt lat="43.30919" lon="2.18021">
        <ele>202.6</ele>
        <time>2016-03-28T08:42:00Z</time>
      </trkpt>
      <trkpt lat="43.3091" lon="2.18013">
        <ele>202.9</ele>
        <time>2016-03-28T08:42:01Z</time>
      </trkpt>
      <trkpt lat="43.30901" lon="2.18005">
        <ele>202.9</ele>
        <time>2016-03-28T08:42:02Z</time>
      </trkpt>
      <trkpt lat="43.30892" lon="2.17996">
        <ele>202.6</ele>
        <time>2016-03-28T08:42:03Z</time>
      </trkpt>
      <trkpt lat="43.30883" lon="2.17988">
        <ele>201.9</ele>
        <time>2016-03-28T08:42:04Z</time>
      </trkpt>
      <trkpt lat="43.30874" lon="2.17981">
        <ele>201.3</ele>
        <time>2016-03-28T08:42:05Z</time>
      </trkpt>
      <trkpt lat="43.30865" lon="2.17973">
        <ele>200.9</ele>
        <time>2016-03-28T08:42:06Z</time>
      </trkpt>
      <trkpt lat="43.30857" lon="2.17965">
        <ele>200.7</ele>
        <time>2016-03-28T08:42:07Z</time>
      </trkpt>
      <trkpt lat="43.30849" lon="2.17956">
        <ele>200.5</ele>
        <time>2016-03-28T08:42:08Z</time>
      </trkpt>
      <trkpt lat="43.30842" lon="2.17947">
        <ele>199.6</ele>
        <time>2016-03-28T08:42:09Z</time>
      </trkpt>
      <trkpt lat="43.3083" lon="2.17927">
        <ele>197.1</ele>
        <time>2016-03-28T08:42:11Z</time>
      </trkpt>
      <trkpt lat="43.30826" lon="2.17914">
        <ele>196</ele>
        <time>2016-03-28T08:42:12Z</time>
      </trkpt>
      <trkpt lat="43.30822" lon="2.17899">
        <ele>195.5</ele>
        <time>2016-03-28T08:42:13Z</time>
      </trkpt>
      <trkpt lat="43.30822" lon="2.17885">
        <ele>194.7</ele>
        <time>2016-03-28T08:42:14Z</time>
      </trkpt>
      <trkpt lat="43.30822" lon="2.17868">
        <ele>194.5</ele>
        <time>2016-03-28T08:42:15Z</time>
      </trkpt>
      <trkpt lat="43.30822" lon="2.17853">
        <ele>194.5</ele>
        <time>2016-03-28T08:42:16Z</time>
      </trkpt>
      <trkpt lat="43.30823" lon="2.17838">
        <ele>194.4</ele>
        <time>2016-03-28T08:42:17Z</time>
      </trkpt>
      <trkpt lat="43.30823" lon="2.17824">
        <ele>194.2</ele>
        <time>2016-03-28T08:42:18Z</time>
      </trkpt>
      <trkpt lat="43.30824" lon="2.17809">
        <ele>193.8</ele>
        <time>2016-03-28T08:42:19Z</time>
      </trkpt>
      <trkpt lat="43.30824" lon="2.17794">
        <ele>193.9</ele>
        <time>2016-03-28T08:42:20Z</time>
      </trkpt>
      <trkpt lat="43.30824" lon="2.1778">
        <ele>193.9</ele>
        <time>2016-03-28T08:42:21Z</time>
      </trkpt>
      <trkpt lat="43.30825" lon="2.17767">
        <ele>193.8</ele>
        <time>2016-03-28T08:42:22Z</time>
      </trkpt>
      <trkpt lat="43.30825" lon="2.17754">
        <ele>193.8</ele>
        <time>2016-03-28T08:42:23Z</time>
      </trkpt>
      <trkpt lat="43.30824" lon="2.17729">
        <ele>192.6</ele>
        <time>2016-03-28T08:42:25Z</time>
      </trkpt>
      <trkpt lat="43.30824" lon="2.17715">
        <ele>192</ele>
        <time>2016-03-28T08:42:26Z</time>
      </trkpt>
      <trkpt lat="43.30827" lon="2.177">
        <ele>191.3</ele>
        <time>2016-03-28T08:42:27Z</time>
      </trkpt>
      <trkpt lat="43.3083" lon="2.17686">
        <ele>190.8</ele>
        <time>2016-03-28T08:42:28Z</time>
      </trkpt>
      <trkpt lat="43.30834" lon="2.17673">
        <ele>190</ele>
        <time>2016-03-28T08:42:29Z</time>
      </trkpt>
      <trkpt lat="43.30837" lon="2.17661">
        <ele>189.1</ele>
        <time>2016-03-28T08:42:30Z</time>
      </trkpt>
      <trkpt lat="43.3084" lon="2.17646">
        <ele>188.6</ele>
        <time>2016-03-28T08:42:31Z</time>
      </trkpt>
      <trkpt lat="43.30841" lon="2.1763">
        <ele>187.9</ele>
        <time>2016-03-28T08:42:32Z</time>
      </trkpt>
      <trkpt lat="43.30841" lon="2.17613">
        <ele>187.2</ele>
        <time>2016-03-28T08:42:33Z</time>
      </trkpt>
      <trkpt lat="43.3084" lon="2.17593">
        <ele>186.5</ele>
        <time>2016-03-28T08:42:34Z</time>
      </trkpt>
      <trkpt lat="43.30838" lon="2.17572">
        <ele>186.4</ele>
        <time>2016-03-28T08:42:35Z</time>
      </trkpt>
      <trkpt lat="43.30836" lon="2.17551">
        <ele>185.9</ele>
        <time>2016-03-28T08:42:36Z</time>
      </trkpt>
      <trkpt lat="43.30833" lon="2.1753">
        <ele>185.5</ele>
        <time>2016-03-28T08:42:37Z</time>
      </trkpt>
      <trkpt lat="43.3083" lon="2.17508">
        <ele>184.6</ele>
        <time>2016-03-28T08:42:38Z</time>
      </trkpt>
      <trkpt lat="43.30826" lon="2.17489">
        <ele>184.4</ele>
        <time>2016-03-28T08:42:39Z</time>
      </trkpt>
      <trkpt lat="43.30822" lon="2.17469">
        <ele>184.5</ele>
        <time>2016-03-28T08:42:40Z</time>
      </trkpt>
      <trkpt lat="43.30819" lon="2.17449">
        <ele>184.1</ele>
        <time>2016-03-28T08:42:41Z</time>
      </trkpt>
      <trkpt lat="43.30819" lon="2.17429">
        <ele>183.5</ele>
        <time>2016-03-28T08:42:42Z</time>
      </trkpt>
      <trkpt lat="43.30819" lon="2.17408">
        <ele>182.6</ele>
        <time>2016-03-28T08:42:43Z</time>
      </trkpt>
      <trkpt lat="43.30819" lon="2.17387">
        <ele>181.9</ele>
        <time>2016-03-28T08:42:44Z</time>
      </trkpt>
      <trkpt lat="43.3082" lon="2.17367">
        <ele>181.7</ele>
        <time>2016-03-28T08:42:45Z</time>
      </trkpt>
      <trkpt lat="43.3082" lon="2.17348">
        <ele>181.9</ele>
        <time>2016-03-28T08:42:46Z</time>
      </trkpt>
      <trkpt lat="43.30819" lon="2.17332">
        <ele>182.1</ele>
        <time>2016-03-28T08:42:47Z</time>
      </trkpt>
      <trkpt lat="43.30818" lon="2.17316">
        <ele>182.1</ele>
        <time>2016-03-28T08:42:48Z</time>
      </trkpt>
      <trkpt lat="43.30813" lon="2.17301">
        <ele>182.3</ele>
        <time>2016-03-28T08:42:49Z</time>
      </trkpt>
      <trkpt lat="43.30808" lon="2.17286">
        <ele>182</ele>
        <time>2016-03-28T08:42:50Z</time>
      </trkpt>
      <trkpt lat="43.30803" lon="2.1727">
        <ele>181.8</ele>
        <time>2016-03-28T08:42:51Z</time>
      </trkpt>
      <trkpt lat="43.30798" lon="2.17256">
        <ele>181</ele>
        <time>2016-03-28T08:42:52Z</time>
      </trkpt>
      <trkpt lat="43.30792" lon="2.17242">
        <ele>180.4</ele>
        <time>2016-03-28T08:42:53Z</time>
      </trkpt>
      <trkpt lat="43.30783" lon="2.1723">
        <ele>180.7</ele>
        <time>2016-03-28T08:42:54Z</time>
      </trkpt>
      <trkpt lat="43.30774" lon="2.17215">
        <ele>180.5</ele>
        <time>2016-03-28T08:42:55Z</time>
      </trkpt>
      <trkpt lat="43.30764" lon="2.17202">
        <ele>180.2</ele>
        <time>2016-03-28T08:42:56Z</time>
      </trkpt>
      <trkpt lat="43.30754" lon="2.17189">
        <ele>180.2</ele>
        <time>2016-03-28T08:42:57Z</time>
      </trkpt>
      <trkpt lat="43.30744" lon="2.17178">
        <ele>180.3</ele>
        <time>2016-03-28T08:42:58Z</time>
      </trkpt>
      <trkpt lat="43.30733" lon="2.17167">
        <ele>181</ele>
        <time>2016-03-28T08:42:59Z</time>
      </trkpt>
      <trkpt lat="43.30722" lon="2.17156">
        <ele>181.4</ele>
        <time>2016-03-28T08:43:00Z</time>
      </trkpt>
      <trkpt lat="43.3071" lon="2.17145">
        <ele>182</ele>
        <time>2016-03-28T08:43:01Z</time>
      </trkpt>
      <trkpt lat="43.30699" lon="2.17134">
        <ele>182.3</ele>
        <time>2016-03-28T08:43:02Z</time>
      </trkpt>
      <trkpt lat="43.30687" lon="2.17123">
        <ele>182</ele>
        <time>2016-03-28T08:43:03Z</time>
      </trkpt>
      <trkpt lat="43.30677" lon="2.17114">
        <ele>182</ele>
        <time>2016-03-28T08:43:04Z</time>
      </trkpt>
      <trkpt lat="43.30665" lon="2.17105">
        <ele>182.2</ele>
        <time>2016-03-28T08:43:05Z</time>
      </trkpt>
      <trkpt lat="43.30654" lon="2.17097">
        <ele>182.2</ele>
        <time>2016-03-28T08:43:06Z</time>
      </trkpt>
      <trkpt lat="43.30641" lon="2.17093">
        <ele>181.3</ele>
        <time>2016-03-28T08:43:07Z</time>
      </trkpt>
      <trkpt lat="43.30629" lon="2.17088">
        <ele>180.9</ele>
        <time>2016-03-28T08:43:08Z</time>
      </trkpt>
      <trkpt lat="43.30618" lon="2.17083">
        <ele>180.2</ele>
        <time>2016-03-28T08:43:09Z</time>
      </trkpt>
      <trkpt lat="43.3061" lon="2.17074">
        <ele>179.7</ele>
        <time>2016-03-28T08:43:10Z</time>
      </trkpt>
      <trkpt lat="43.30601" lon="2.17063">
        <ele>179</ele>
        <time>2016-03-28T08:43:12Z</time>
      </trkpt>
      <trkpt lat="43.30593" lon="2.17054">
        <ele>178.2</ele>
        <time>2016-03-28T08:43:14Z</time>
      </trkpt>
      <trkpt lat="43.30583" lon="2.17041">
        <ele>176.7</ele>
        <time>2016-03-28T08:43:16Z</time>
      </trkpt>
      <trkpt lat="43.3057" lon="2.17027">
        <ele>174.7</ele>
        <time>2016-03-28T08:43:18Z</time>
      </trkpt>
      <trkpt lat="43.30557" lon="2.17011">
        <ele>175</ele>
        <time>2016-03-28T08:43:20Z</time>
      </trkpt>
      <trkpt lat="43.30544" lon="2.16995">
        <ele>175.1</ele>
        <time>2016-03-28T08:43:22Z</time>
      </trkpt>
      <trkpt lat="43.30534" lon="2.1698">
        <ele>175.7</ele>
        <time>2016-03-28T08:43:24Z</time>
      </trkpt>
      <trkpt lat="43.30528" lon="2.1696">
        <ele>175.5</ele>
        <time>2016-03-28T08:43:26Z</time>
      </trkpt>
      <trkpt lat="43.30525" lon="2.16941">
        <ele>175</ele>
        <time>2016-03-28T08:43:28Z</time>
      </trkpt>
      <trkpt lat="43.30526" lon="2.16923">
        <ele>173.7</ele>
        <time>2016-03-28T08:43:30Z</time>
      </trkpt>
      <trkpt lat="43.30528" lon="2.16906">
        <ele>172.2</ele>
        <time>2016-03-28T08:43:32Z</time>
      </trkpt>
      <trkpt lat="43.30526" lon="2.16886">
        <ele>170.4</ele>
        <time>2016-03-28T08:43:34Z</time>
      </trkpt>
      <trkpt lat="43.30523" lon="2.16867">
        <ele>169.3</ele>
        <time>2016-03-28T08:43:36Z</time>
      </trkpt>
      <trkpt lat="43.30521" lon="2.16849">
        <ele>168.3</ele>
        <time>2016-03-28T08:43:38Z</time>
      </trkpt>
      <trkpt lat="43.30518" lon="2.16828">
        <ele>167.5</ele>
        <time>2016-03-28T08:43:40Z</time>
      </trkpt>
      <trkpt lat="43.30514" lon="2.16806">
        <ele>166.4</ele>
        <time>2016-03-28T08:43:42Z</time>
      </trkpt>
      <trkpt lat="43.30512" lon="2.16784">
        <ele>165.1</ele>
        <time>2016-03-28T08:43:44Z</time>
      </trkpt>
      <trkpt lat="43.30509" lon="2.16762">
        <ele>163.7</ele>
        <time>2016-03-28T08:43:46Z</time>
      </trkpt>
      <trkpt lat="43.30507" lon="2.16739">
        <ele>162.1</ele>
        <time>2016-03-28T08:43:48Z</time>
      </trkpt>
      <trkpt lat="43.30505" lon="2.16721">
        <ele>162.3</ele>
        <time>2016-03-28T08:43:50Z</time>
      </trkpt>
      <trkpt lat="43.30503" lon="2.16708">
        <ele>162.5</ele>
        <time>2016-03-28T08:43:52Z</time>
      </trkpt>
      <trkpt lat="43.305" lon="2.16695">
        <ele>162.7</ele>
        <time>2016-03-28T08:43:55Z</time>
      </trkpt>
      <trkpt lat="43.30497" lon="2.16682">
        <ele>163</ele>
        <time>2016-03-28T08:43:58Z</time>
      </trkpt>
      <trkpt lat="43.30494" lon="2.16665">
        <ele>163.3</ele>
        <time>2016-03-28T08:44:01Z</time>
      </trkpt>
      <trkpt lat="43.3049" lon="2.16647">
        <ele>163.7</ele>
        <time>2016-03-28T08:44:04Z</time>
      </trkpt>
      <trkpt lat="43.30487" lon="2.16631">
        <ele>165.7</ele>
        <time>2016-03-28T08:44:07Z</time>
      </trkpt>
      <trkpt lat="43.30484" lon="2.16613">
        <ele>168</ele>
        <time>2016-03-28T08:44:10Z</time>
      </trkpt>
      <trkpt lat="43.30481" lon="2.16597">
        <ele>169.1</ele>
        <time>2016-03-28T08:44:13Z</time>
      </trkpt>
      <trkpt lat="43.30478" lon="2.16583">
        <ele>170.4</ele>
        <time>2016-03-28T08:44:15Z</time>
      </trkpt>
      <trkpt lat="43.30475" lon="2.16569">
        <ele>172.3</ele>
        <time>2016-03-28T08:44:17Z</time>
      </trkpt>
      <trkpt lat="43.30471" lon="2.1655">
        <ele>172.9</ele>
        <time>2016-03-28T08:44:19Z</time>
      </trkpt>
      <trkpt lat="43.3047" lon="2.16535">
        <ele>173</ele>
        <time>2016-03-28T08:44:21Z</time>
      </trkpt>
      <trkpt lat="43.30474" lon="2.16518">
        <ele>171.4</ele>
        <time>2016-03-28T08:44:23Z</time>
      </trkpt>
      <trkpt lat="43.30484" lon="2.16499">
        <ele>171.1</ele>
        <time>2016-03-28T08:44:25Z</time>
      </trkpt>
      <trkpt lat="43.30501" lon="2.16487">
        <ele>170.4</ele>
        <time>2016-03-28T08:44:27Z</time>
      </trkpt>
      <trkpt lat="43.30511" lon="2.16478">
        <ele>170.2</ele>
        <time>2016-03-28T08:44:28Z</time>
      </trkpt>
      <trkpt lat="43.30518" lon="2.16471">
        <ele>169.7</ele>
        <time>2016-03-28T08:44:29Z</time>
      </trkpt>
      <trkpt lat="43.30532" lon="2.16454">
        <ele>168.4</ele>
        <time>2016-03-28T08:44:31Z</time>
      </trkpt>
      <trkpt lat="43.30543" lon="2.16446">
        <ele>168.1</ele>
        <time>2016-03-28T08:44:32Z</time>
      </trkpt>
      <trkpt lat="43.30551" lon="2.1644">
        <ele>167.6</ele>
        <time>2016-03-28T08:44:33Z</time>
      </trkpt>
      <trkpt lat="43.30567" lon="2.16425">
        <ele>168.3</ele>
        <time>2016-03-28T08:44:35Z</time>
      </trkpt>
      <trkpt lat="43.30576" lon="2.16416">
        <ele>168.8</ele>
        <time>2016-03-28T08:44:36Z</time>
      </trkpt>
      <trkpt lat="43.30586" lon="2.16408">
        <ele>169.3</ele>
        <time>2016-03-28T08:44:37Z</time>
      </trkpt>
      <trkpt lat="43.30596" lon="2.16399">
        <ele>169.8</ele>
        <time>2016-03-28T08:44:38Z</time>
      </trkpt>
      <trkpt lat="43.30606" lon="2.16391">
        <ele>170.1</ele>
        <time>2016-03-28T08:44:39Z</time>
      </trkpt>
      <trkpt lat="43.30616" lon="2.16383">
        <ele>170.3</ele>
        <time>2016-03-28T08:44:40Z</time>
      </trkpt>
      <trkpt lat="43.30627" lon="2.16374">
        <ele>170.5</ele>
        <time>2016-03-28T08:44:41Z</time>
      </trkpt>
      <trkpt lat="43.30637" lon="2.16365">
        <ele>170.7</ele>
        <time>2016-03-28T08:44:42Z</time>
      </trkpt>
      <trkpt lat="43.30648" lon="2.16356">
        <ele>171</ele>
        <time>2016-03-28T08:44:43Z</time>
      </trkpt>
      <trkpt lat="43.30659" lon="2.16347">
        <ele>171.2</ele>
        <time>2016-03-28T08:44:44Z</time>
      </trkpt>
      <trkpt lat="43.30669" lon="2.16339">
        <ele>171.5</ele>
        <time>2016-03-28T08:44:45Z</time>
      </trkpt>
      <trkpt lat="43.3068" lon="2.16331">
        <ele>171.8</ele>
        <time>2016-03-28T08:44:46Z</time>
      </trkpt>
      <trkpt lat="43.30691" lon="2.16322">
        <ele>172.1</ele>
        <time>2016-03-28T08:44:47Z</time>
      </trkpt>
      <trkpt lat="43.30703" lon="2.16314">
        <ele>172.6</ele>
        <time>2016-03-28T08:44:48Z</time>
      </trkpt>
      <trkpt lat="43.30714" lon="2.16304">
        <ele>173.2</ele>
        <time>2016-03-28T08:44:49Z</time>
      </trkpt>
      <trkpt lat="43.30722" lon="2.16296">
        <ele>173.2</ele>
        <time>2016-03-28T08:44:50Z</time>
      </trkpt>
      <trkpt lat="43.30731" lon="2.16288">
        <ele>173.5</ele>
        <time>2016-03-28T08:44:51Z</time>
      </trkpt>
      <trkpt lat="43.30738" lon="2.1628">
        <ele>173.7</ele>
        <time>2016-03-28T08:44:52Z</time>
      </trkpt>
      <trkpt lat="43.30746" lon="2.16273">
        <ele>174.3</ele>
        <time>2016-03-28T08:44:53Z</time>
      </trkpt>
      <trkpt lat="43.3076" lon="2.16259">
        <ele>175.2</ele>
        <time>2016-03-28T08:44:55Z</time>
      </trkpt>
      <trkpt lat="43.30768" lon="2.16251">
        <ele>175.5</ele>
        <time>2016-03-28T08:44:56Z</time>
      </trkpt>
      <trkpt lat="43.30776" lon="2.16242">
        <ele>175.7</ele>
        <time>2016-03-28T08:44:57Z</time>
      </trkpt>
      <trkpt lat="43.30784" lon="2.16234">
        <ele>175.9</ele>
        <time>2016-03-28T08:44:58Z</time>
      </trkpt>
      <trkpt lat="43.30792" lon="2.16226">
        <ele>176</ele>
        <time>2016-03-28T08:44:59Z</time>
      </trkpt>
      <trkpt lat="43.30801" lon="2.16217">
        <ele>176.5</ele>
        <time>2016-03-28T08:45:00Z</time>
      </trkpt>
      <trkpt lat="43.3081" lon="2.16209">
        <ele>176.6</ele>
        <time>2016-03-28T08:45:01Z</time>
      </trkpt>
      <trkpt lat="43.30824" lon="2.16194">
        <ele>177.1</ele>
        <time>2016-03-28T08:45:03Z</time>
      </trkpt>
      <trkpt lat="43.30833" lon="2.16185">
        <ele>177.2</ele>
        <time>2016-03-28T08:45:04Z</time>
      </trkpt>
      <trkpt lat="43.3084" lon="2.16177">
        <ele>177.4</ele>
        <time>2016-03-28T08:45:05Z</time>
      </trkpt>
      <trkpt lat="43.30848" lon="2.16169">
        <ele>177.3</ele>
        <time>2016-03-28T08:45:06Z</time>
      </trkpt>
      <trkpt lat="43.30856" lon="2.1616">
        <ele>177.6</ele>
        <time>2016-03-28T08:45:07Z</time>
      </trkpt>
      <trkpt lat="43.30865" lon="2.16152">
        <ele>177.6</ele>
        <time>2016-03-28T08:45:08Z</time>
      </trkpt>
      <trkpt lat="43.30873" lon="2.16144">
        <ele>177.9</ele>
        <time>2016-03-28T08:45:09Z</time>
      </trkpt>
      <trkpt lat="43.30882" lon="2.1614">
        <ele>178.3</ele>
        <time>2016-03-28T08:45:10Z</time>
      </trkpt>
      <trkpt lat="43.30892" lon="2.16136">
        <ele>179.3</ele>
        <time>2016-03-28T08:45:11Z</time>
      </trkpt>
      <trkpt lat="43.30901" lon="2.16133">
        <ele>180.1</ele>
        <time>2016-03-28T08:45:12Z</time>
      </trkpt>
      <trkpt lat="43.30911" lon="2.16129">
        <ele>181.2</ele>
        <time>2016-03-28T08:45:13Z</time>
      </trkpt>
      <trkpt lat="43.30922" lon="2.16123">
        <ele>182</ele>
        <time>2016-03-28T08:45:14Z</time>
      </trkpt>
      <trkpt lat="43.3093" lon="2.16113">
        <ele>182.1</ele>
        <time>2016-03-28T08:45:15Z</time>
      </trkpt>
      <trkpt lat="43.30938" lon="2.16102">
        <ele>182.6</ele>
        <time>2016-03-28T08:45:16Z</time>
      </trkpt>
      <trkpt lat="43.30943" lon="2.16089">
        <ele>183.5</ele>
        <time>2016-03-28T08:45:17Z</time>
      </trkpt>
      <trkpt lat="43.30949" lon="2.16077">
        <ele>184.3</ele>
        <time>2016-03-28T08:45:18Z</time>
      </trkpt>
      <trkpt lat="43.30954" lon="2.16065">
        <ele>185.4</ele>
        <time>2016-03-28T08:45:19Z</time>
      </trkpt>
      <trkpt lat="43.30963" lon="2.1604">
        <ele>187.7</ele>
        <time>2016-03-28T08:45:21Z</time>
      </trkpt>
      <trkpt lat="43.30967" lon="2.16025">
        <ele>189</ele>
        <time>2016-03-28T08:45:22Z</time>
      </trkpt>
      <trkpt lat="43.30971" lon="2.16011">
        <ele>189.3</ele>
        <time>2016-03-28T08:45:23Z</time>
      </trkpt>
      <trkpt lat="43.30974" lon="2.15998">
        <ele>189.4</ele>
        <time>2016-03-28T08:45:24Z</time>
      </trkpt>
      <trkpt lat="43.30977" lon="2.15984">
        <ele>189.4</ele>
        <time>2016-03-28T08:45:25Z</time>
      </trkpt>
      <trkpt lat="43.3098" lon="2.15971">
        <ele>189.7</ele>
        <time>2016-03-28T08:45:26Z</time>
      </trkpt>
      <trkpt lat="43.30982" lon="2.15955">
        <ele>190.1</ele>
        <time>2016-03-28T08:45:27Z</time>
      </trkpt>
      <trkpt lat="43.30985" lon="2.15941">
        <ele>190.4</ele>
        <time>2016-03-28T08:45:28Z</time>
      </trkpt>
      <trkpt lat="43.3099" lon="2.15928">
        <ele>191.1</ele>
        <time>2016-03-28T08:45:29Z</time>
      </trkpt>
      <trkpt lat="43.30995" lon="2.15916">
        <ele>191.9</ele>
        <time>2016-03-28T08:45:30Z</time>
      </trkpt>
      <trkpt lat="43.31" lon="2.15904">
        <ele>192.4</ele>
        <time>2016-03-28T08:45:31Z</time>
      </trkpt>
      <trkpt lat="43.31005" lon="2.15892">
        <ele>193.2</ele>
        <time>2016-03-28T08:45:32Z</time>
      </trkpt>
      <trkpt lat="43.31011" lon="2.1588">
        <ele>194.2</ele>
        <time>2016-03-28T08:45:33Z</time>
      </trkpt>
      <trkpt lat="43.31016" lon="2.1587">
        <ele>195.4</ele>
        <time>2016-03-28T08:45:34Z</time>
      </trkpt>
      <trkpt lat="43.31024" lon="2.15862">
        <ele>196.2</ele>
        <time>2016-03-28T08:45:35Z</time>
      </trkpt>
      <trkpt lat="43.31033" lon="2.15853">
        <ele>196.9</ele>
        <time>2016-03-28T08:45:36Z</time>
      </trkpt>
      <trkpt lat="43.31041" lon="2.15845">
        <ele>197.8</ele>
        <time>2016-03-28T08:45:37Z</time>
      </trkpt>
      <trkpt lat="43.31049" lon="2.15837">
        <ele>198.4</ele>
        <time>2016-03-28T08:45:38Z</time>
      </trkpt>
      <trkpt lat="43.31055" lon="2.15826">
        <ele>199.3</ele>
        <time>2016-03-28T08:45:39Z</time>
      </trkpt>
      <trkpt lat="43.3106" lon="2.15815">
        <ele>200</ele>
        <time>2016-03-28T08:45:40Z</time>
      </trkpt>
      <trkpt lat="43.31065" lon="2.15803">
        <ele>200.4</ele>
        <time>2016-03-28T08:45:41Z</time>
      </trkpt>
      <trkpt lat="43.3107" lon="2.15791">
        <ele>200.4</ele>
        <time>2016-03-28T08:45:42Z</time>
      </trkpt>
      <trkpt lat="43.31076" lon="2.15779">
        <ele>200.7</ele>
        <time>2016-03-28T08:45:43Z</time>
      </trkpt>
      <trkpt lat="43.31082" lon="2.15768">
        <ele>200.5</ele>
        <time>2016-03-28T08:45:44Z</time>
      </trkpt>
      <trkpt lat="43.31089" lon="2.15757">
        <ele>200.9</ele>
        <time>2016-03-28T08:45:45Z</time>
      </trkpt>
      <trkpt lat="43.31102" lon="2.15738">
        <ele>201.5</ele>
        <time>2016-03-28T08:45:47Z</time>
      </trkpt>
      <trkpt lat="43.31109" lon="2.15729">
        <ele>202</ele>
        <time>2016-03-28T08:45:48Z</time>
      </trkpt>
      <trkpt lat="43.31115" lon="2.1572">
        <ele>202.6</ele>
        <time>2016-03-28T08:45:49Z</time>
      </trkpt>
      <trkpt lat="43.31127" lon="2.15704">
        <ele>204.3</ele>
        <time>2016-03-28T08:45:51Z</time>
      </trkpt>
      <trkpt lat="43.3113" lon="2.15683">
        <ele>206.3</ele>
        <time>2016-03-28T08:45:53Z</time>
      </trkpt>
      <trkpt lat="43.31122" lon="2.15668">
        <ele>207.2</ele>
        <time>2016-03-28T08:45:55Z</time>
      </trkpt>
      <trkpt lat="43.31105" lon="2.15667">
        <ele>208.8</ele>
        <time>2016-03-28T08:45:57Z</time>
      </trkpt>
      <trkpt lat="43.31092" lon="2.15679">
        <ele>210</ele>
        <time>2016-03-28T08:45:59Z</time>
      </trkpt>
      <trkpt lat="43.31077" lon="2.15691">
        <ele>211.7</ele>
        <time>2016-03-28T08:46:01Z</time>
      </trkpt>
      <trkpt lat="43.31067" lon="2.15697">
        <ele>212</ele>
        <time>2016-03-28T08:46:02Z</time>
      </trkpt>
      <trkpt lat="43.31058" lon="2.15702">
        <ele>212.6</ele>
        <time>2016-03-28T08:46:03Z</time>
      </trkpt>
      <trkpt lat="43.3105" lon="2.15707">
        <ele>213</ele>
        <time>2016-03-28T08:46:04Z</time>
      </trkpt>
      <trkpt lat="43.3104" lon="2.15711">
        <ele>213.7</ele>
        <time>2016-03-28T08:46:05Z</time>
      </trkpt>
      <trkpt lat="43.31031" lon="2.15715">
        <ele>214.1</ele>
        <time>2016-03-28T08:46:06Z</time>
      </trkpt>
      <trkpt lat="43.31022" lon="2.15719">
        <ele>214.6</ele>
        <time>2016-03-28T08:46:07Z</time>
      </trkpt>
      <trkpt lat="43.31013" lon="2.15724">
        <ele>215.4</ele>
        <time>2016-03-28T08:46:08Z</time>
      </trkpt>
      <trkpt lat="43.31005" lon="2.15729">
        <ele>216.3</ele>
        <time>2016-03-28T08:46:09Z</time>
      </trkpt>
      <trkpt lat="43.30995" lon="2.15735">
        <ele>217.3</ele>
        <time>2016-03-28T08:46:10Z</time>
      </trkpt>
      <trkpt lat="43.30987" lon="2.15741">
        <ele>218.4</ele>
        <time>2016-03-28T08:46:11Z</time>
      </trkpt>
      <trkpt lat="43.30977" lon="2.15747">
        <ele>219.3</ele>
        <time>2016-03-28T08:46:12Z</time>
      </trkpt>
      <trkpt lat="43.30967" lon="2.15754">
        <ele>220.1</ele>
        <time>2016-03-28T08:46:13Z</time>
      </trkpt>
      <trkpt lat="43.30957" lon="2.15762">
        <ele>220.6</ele>
        <time>2016-03-28T08:46:14Z</time>
      </trkpt>
      <trkpt lat="43.30946" lon="2.1577">
        <ele>220.8</ele>
        <time>2016-03-28T08:46:15Z</time>
      </trkpt>
      <trkpt lat="43.30936" lon="2.15778">
        <ele>221.2</ele>
        <time>2016-03-28T08:46:16Z</time>
      </trkpt>
      <trkpt lat="43.30925" lon="2.15786">
        <ele>221.9</ele>
        <time>2016-03-28T08:46:17Z</time>
      </trkpt>
      <trkpt lat="43.30915" lon="2.15794">
        <ele>222.6</ele>
        <time>2016-03-28T08:46:18Z</time>
      </trkpt>
      <trkpt lat="43.30905" lon="2.15802">
        <ele>223.1</ele>
        <time>2016-03-28T08:46:19Z</time>
      </trkpt>
      <trkpt lat="43.30896" lon="2.15809">
        <ele>223.4</ele>
        <time>2016-03-28T08:46:20Z</time>
      </trkpt>
      <trkpt lat="43.30885" lon="2.15818">
        <ele>224.1</ele>
        <time>2016-03-28T08:46:21Z</time>
      </trkpt>
      <trkpt lat="43.30874" lon="2.15826">
        <ele>224.8</ele>
        <time>2016-03-28T08:46:22Z</time>
      </trkpt>
      <trkpt lat="43.30863" lon="2.15835">
        <ele>225.4</ele>
        <time>2016-03-28T08:46:23Z</time>
      </trkpt>
      <trkpt lat="43.30853" lon="2.15842">
        <ele>226</ele>
        <time>2016-03-28T08:46:24Z</time>
      </trkpt>
      <trkpt lat="43.30844" lon="2.15849">
        <ele>226.8</ele>
        <time>2016-03-28T08:46:25Z</time>
      </trkpt>
      <trkpt lat="43.30834" lon="2.15856">
        <ele>227.7</ele>
        <time>2016-03-28T08:46:26Z</time>
      </trkpt>
      <trkpt lat="43.30823" lon="2.15865">
        <ele>228.9</ele>
        <time>2016-03-28T08:46:27Z</time>
      </trkpt>
      <trkpt lat="43.30813" lon="2.15873">
        <ele>230.1</ele>
        <time>2016-03-28T08:46:28Z</time>
      </trkpt>
      <trkpt lat="43.30803" lon="2.15881">
        <ele>231.7</ele>
        <time>2016-03-28T08:46:29Z</time>
      </trkpt>
      <trkpt lat="43.30792" lon="2.15888">
        <ele>232.6</ele>
        <time>2016-03-28T08:46:30Z</time>
      </trkpt>
      <trkpt lat="43.30781" lon="2.15892">
        <ele>233.4</ele>
        <time>2016-03-28T08:46:31Z</time>
      </trkpt>
      <trkpt lat="43.3077" lon="2.15896">
        <ele>234</ele>
        <time>2016-03-28T08:46:32Z</time>
      </trkpt>
      <trkpt lat="43.30758" lon="2.15899">
        <ele>234.5</ele>
        <time>2016-03-28T08:46:33Z</time>
      </trkpt>
      <trkpt lat="43.30747" lon="2.15902">
        <ele>235.1</ele>
        <time>2016-03-28T08:46:34Z</time>
      </trkpt>
      <trkpt lat="43.30737" lon="2.15905">
        <ele>235.5</ele>
        <time>2016-03-28T08:46:35Z</time>
      </trkpt>
      <trkpt lat="43.30727" lon="2.1591">
        <ele>236</ele>
        <time>2016-03-28T08:46:36Z</time>
      </trkpt>
      <trkpt lat="43.30718" lon="2.15915">
        <ele>236.5</ele>
        <time>2016-03-28T08:46:37Z</time>
      </trkpt>
      <trkpt lat="43.30709" lon="2.1592">
        <ele>237.3</ele>
        <time>2016-03-28T08:46:38Z</time>
      </trkpt>
      <trkpt lat="43.30701" lon="2.15926">
        <ele>238.3</ele>
        <time>2016-03-28T08:46:39Z</time>
      </trkpt>
      <trkpt lat="43.30693" lon="2.15932">
        <ele>239</ele>
        <time>2016-03-28T08:46:40Z</time>
      </trkpt>
      <trkpt lat="43.30685" lon="2.15938">
        <ele>239.2</ele>
        <time>2016-03-28T08:46:41Z</time>
      </trkpt>
      <trkpt lat="43.30672" lon="2.15944">
        <ele>239.9</ele>
        <time>2016-03-28T08:46:43Z</time>
      </trkpt>
      <trkpt lat="43.30661" lon="2.15943">
        <ele>241.4</ele>
        <time>2016-03-28T08:46:45Z</time>
      </trkpt>
      <trkpt lat="43.30653" lon="2.15933">
        <ele>243.7</ele>
        <time>2016-03-28T08:46:47Z</time>
      </trkpt>
      <trkpt lat="43.3065" lon="2.15917">
        <ele>244.9</ele>
        <time>2016-03-28T08:46:49Z</time>
      </trkpt>
      <trkpt lat="43.30655" lon="2.15903">
        <ele>245.5</ele>
        <time>2016-03-28T08:46:51Z</time>
      </trkpt>
      <trkpt lat="43.30661" lon="2.15891">
        <ele>244.4</ele>
        <time>2016-03-28T08:46:53Z</time>
      </trkpt>
      <trkpt lat="43.30667" lon="2.15877">
        <ele>243.8</ele>
        <time>2016-03-28T08:46:55Z</time>
      </trkpt>
      <trkpt lat="43.30673" lon="2.15864">
        <ele>244</ele>
        <time>2016-03-28T08:46:57Z</time>
      </trkpt>
      <trkpt lat="43.30679" lon="2.15849">
        <ele>243.8</ele>
        <time>2016-03-28T08:46:59Z</time>
      </trkpt>
      <trkpt lat="43.30685" lon="2.15833">
        <ele>243.8</ele>
        <time>2016-03-28T08:47:01Z</time>
      </trkpt>
      <trkpt lat="43.3069" lon="2.1582">
        <ele>244.1</ele>
        <time>2016-03-28T08:47:03Z</time>
      </trkpt>
      <trkpt lat="43.30693" lon="2.15805">
        <ele>244.1</ele>
        <time>2016-03-28T08:47:05Z</time>
      </trkpt>
      <trkpt lat="43.30696" lon="2.15791">
        <ele>244.3</ele>
        <time>2016-03-28T08:47:07Z</time>
      </trkpt>
      <trkpt lat="43.30701" lon="2.1578">
        <ele>243.9</ele>
        <time>2016-03-28T08:47:09Z</time>
      </trkpt>
      <trkpt lat="43.30709" lon="2.15769">
        <ele>243.5</ele>
        <time>2016-03-28T08:47:12Z</time>
      </trkpt>
      <trkpt lat="43.30718" lon="2.15759">
        <ele>243.4</ele>
        <time>2016-03-28T08:47:15Z</time>
      </trkpt>
      <trkpt lat="43.30726" lon="2.15752">
        <ele>244.6</ele>
        <time>2016-03-28T08:47:18Z</time>
      </trkpt>
      <trkpt lat="43.30735" lon="2.15744">
        <ele>244.9</ele>
        <time>2016-03-28T08:47:21Z</time>
      </trkpt>
      <trkpt lat="43.30746" lon="2.15735">
        <ele>248.5</ele>
        <time>2016-03-28T08:47:24Z</time>
      </trkpt>
      <trkpt lat="43.30754" lon="2.15728">
        <ele>249.9</ele>
        <time>2016-03-28T08:47:26Z</time>
      </trkpt>
      <trkpt lat="43.30765" lon="2.15719">
        <ele>251</ele>
        <time>2016-03-28T08:47:29Z</time>
      </trkpt>
      <trkpt lat="43.30776" lon="2.15709">
        <ele>252.5</ele>
        <time>2016-03-28T08:47:32Z</time>
      </trkpt>
      <trkpt lat="43.30787" lon="2.15698">
        <ele>253.6</ele>
        <time>2016-03-28T08:47:35Z</time>
      </trkpt>
      <trkpt lat="43.30793" lon="2.15689">
        <ele>254.3</ele>
        <time>2016-03-28T08:47:37Z</time>
      </trkpt>
      <trkpt lat="43.30801" lon="2.15679">
        <ele>254.3</ele>
        <time>2016-03-28T08:47:39Z</time>
      </trkpt>
      <trkpt lat="43.30809" lon="2.1567">
        <ele>253.2</ele>
        <time>2016-03-28T08:47:41Z</time>
      </trkpt>
      <trkpt lat="43.30817" lon="2.15662">
        <ele>251.3</ele>
        <time>2016-03-28T08:47:43Z</time>
      </trkpt>
      <trkpt lat="43.30825" lon="2.15654">
        <ele>249.6</ele>
        <time>2016-03-28T08:47:45Z</time>
      </trkpt>
      <trkpt lat="43.30832" lon="2.15645">
        <ele>248.3</ele>
        <time>2016-03-28T08:47:47Z</time>
      </trkpt>
      <trkpt lat="43.3084" lon="2.15637">
        <ele>247.8</ele>
        <time>2016-03-28T08:47:49Z</time>
      </trkpt>
      <trkpt lat="43.30847" lon="2.15629">
        <ele>247.8</ele>
        <time>2016-03-28T08:47:52Z</time>
      </trkpt>
      <trkpt lat="43.30856" lon="2.15623">
        <ele>247.8</ele>
        <time>2016-03-28T08:47:55Z</time>
      </trkpt>
      <trkpt lat="43.30868" lon="2.15618">
        <ele>248.5</ele>
        <time>2016-03-28T08:47:58Z</time>
      </trkpt>
      <trkpt lat="43.30878" lon="2.15611">
        <ele>248.3</ele>
        <time>2016-03-28T08:48:01Z</time>
      </trkpt>
      <trkpt lat="43.30887" lon="2.15602">
        <ele>248.8</ele>
        <time>2016-03-28T08:48:04Z</time>
      </trkpt>
      <trkpt lat="43.30895" lon="2.15593">
        <ele>250.7</ele>
        <time>2016-03-28T08:48:07Z</time>
      </trkpt>
      <trkpt lat="43.30904" lon="2.15587">
        <ele>253.2</ele>
        <time>2016-03-28T08:48:09Z</time>
      </trkpt>
      <trkpt lat="43.30916" lon="2.1558">
        <ele>255.1</ele>
        <time>2016-03-28T08:48:12Z</time>
      </trkpt>
      <trkpt lat="43.30926" lon="2.15574">
        <ele>255.7</ele>
        <time>2016-03-28T08:48:14Z</time>
      </trkpt>
      <trkpt lat="43.30936" lon="2.15567">
        <ele>255.3</ele>
        <time>2016-03-28T08:48:16Z</time>
      </trkpt>
      <trkpt lat="43.30945" lon="2.15562">
        <ele>254.1</ele>
        <time>2016-03-28T08:48:18Z</time>
      </trkpt>
      <trkpt lat="43.30954" lon="2.15557">
        <ele>252.9</ele>
        <time>2016-03-28T08:48:20Z</time>
      </trkpt>
      <trkpt lat="43.30965" lon="2.15553">
        <ele>251.3</ele>
        <time>2016-03-28T08:48:22Z</time>
      </trkpt>
      <trkpt lat="43.30976" lon="2.15549">
        <ele>250.3</ele>
        <time>2016-03-28T08:48:24Z</time>
      </trkpt>
      <trkpt lat="43.30986" lon="2.15544">
        <ele>249.5</ele>
        <time>2016-03-28T08:48:26Z</time>
      </trkpt>
      <trkpt lat="43.30995" lon="2.15537">
        <ele>249.1</ele>
        <time>2016-03-28T08:48:28Z</time>
      </trkpt>
      <trkpt lat="43.31003" lon="2.15529">
        <ele>248.9</ele>
        <time>2016-03-28T08:48:30Z</time>
      </trkpt>
      <trkpt lat="43.31012" lon="2.1552">
        <ele>248.4</ele>
        <time>2016-03-28T08:48:32Z</time>
      </trkpt>
      <trkpt lat="43.3102" lon="2.15513">
        <ele>249.3</ele>
        <time>2016-03-28T08:48:34Z</time>
      </trkpt>
      <trkpt lat="43.31028" lon="2.15504">
        <ele>249.8</ele>
        <time>2016-03-28T08:48:36Z</time>
      </trkpt>
      <trkpt lat="43.31037" lon="2.15495">
        <ele>249.9</ele>
        <time>2016-03-28T08:48:38Z</time>
      </trkpt>
      <trkpt lat="43.31045" lon="2.15488">
        <ele>249.6</ele>
        <time>2016-03-28T08:48:40Z</time>
      </trkpt>
      <trkpt lat="43.31056" lon="2.15478">
        <ele>250</ele>
        <time>2016-03-28T08:48:43Z</time>
      </trkpt>
      <trkpt lat="43.31064" lon="2.15468">
        <ele>250.2</ele>
        <time>2016-03-28T08:48:45Z</time>
      </trkpt>
      <trkpt lat="43.31072" lon="2.15456">
        <ele>249.8</ele>
        <time>2016-03-28T08:48:47Z</time>
      </trkpt>
      <trkpt lat="43.31079" lon="2.15445">
        <ele>249.1</ele>
        <time>2016-03-28T08:48:49Z</time>
      </trkpt>
      <trkpt lat="43.31086" lon="2.15436">
        <ele>248.2</ele>
        <time>2016-03-28T08:48:51Z</time>
      </trkpt>
      <trkpt lat="43.31094" lon="2.15427">
        <ele>247.8</ele>
        <time>2016-03-28T08:48:54Z</time>
      </trkpt>
      <trkpt lat="43.31104" lon="2.15425">
        <ele>247.8</ele>
        <time>2016-03-28T08:48:58Z</time>
      </trkpt>
      <trkpt lat="43.31117" lon="2.15422">
        <ele>246.8</ele>
        <time>2016-03-28T08:49:01Z</time>
      </trkpt>
      <trkpt lat="43.3113" lon="2.15417">
        <ele>246.6</ele>
        <time>2016-03-28T08:49:03Z</time>
      </trkpt>
      <trkpt lat="43.31142" lon="2.15409">
        <ele>246.8</ele>
        <time>2016-03-28T08:49:05Z</time>
      </trkpt>
      <trkpt lat="43.31152" lon="2.154">
        <ele>247.4</ele>
        <time>2016-03-28T08:49:07Z</time>
      </trkpt>
      <trkpt lat="43.31161" lon="2.15391">
        <ele>247.6</ele>
        <time>2016-03-28T08:49:09Z</time>
      </trkpt>
      <trkpt lat="43.31169" lon="2.1538">
        <ele>249</ele>
        <time>2016-03-28T08:49:11Z</time>
      </trkpt>
      <trkpt lat="43.31178" lon="2.1537">
        <ele>249.4</ele>
        <time>2016-03-28T08:49:13Z</time>
      </trkpt>
      <trkpt lat="43.31186" lon="2.15364">
        <ele>249.9</ele>
        <time>2016-03-28T08:49:15Z</time>
      </trkpt>
      <trkpt lat="43.31195" lon="2.15359">
        <ele>251.1</ele>
        <time>2016-03-28T08:50:26Z</time>
      </trkpt>
      <trkpt lat="43.31205" lon="2.15355">
        <ele>251.3</ele>
        <time>2016-03-28T08:50:32Z</time>
      </trkpt>
      <trkpt lat="43.31215" lon="2.15353">
        <ele>251.4</ele>
        <time>2016-03-28T08:50:35Z</time>
      </trkpt>
      <trkpt lat="43.31227" lon="2.15352">
        <ele>251.5</ele>
        <time>2016-03-28T08:50:38Z</time>
      </trkpt>
      <trkpt lat="43.31236" lon="2.15351">
        <ele>251.6</ele>
        <time>2016-03-28T08:50:41Z</time>
      </trkpt>
      <trkpt lat="43.31246" lon="2.15352">
        <ele>251.6</ele>
        <time>2016-03-28T08:50:44Z</time>
      </trkpt>
      <trkpt lat="43.31255" lon="2.15353">
        <ele>251.5</ele>
        <time>2016-03-28T08:50:47Z</time>
      </trkpt>
      <trkpt lat="43.31265" lon="2.15354">
        <ele>251.4</ele>
        <time>2016-03-28T08:50:50Z</time>
      </trkpt>
      <trkpt lat="43.31276" lon="2.15353">
        <ele>250.5</ele>
        <time>2016-03-28T08:50:53Z</time>
      </trkpt>
      <trkpt lat="43.31285" lon="2.15357">
        <ele>250</ele>
        <time>2016-03-28T08:50:55Z</time>
      </trkpt>
      <trkpt lat="43.31293" lon="2.15363">
        <ele>249.1</ele>
        <time>2016-03-28T08:50:57Z</time>
      </trkpt>
      <trkpt lat="43.31303" lon="2.15365">
        <ele>247.7</ele>
        <time>2016-03-28T08:50:59Z</time>
      </trkpt>
      <trkpt lat="43.31312" lon="2.15368">
        <ele>245.7</ele>
        <time>2016-03-28T08:51:01Z</time>
      </trkpt>
      <trkpt lat="43.31323" lon="2.15376">
        <ele>244.4</ele>
        <time>2016-03-28T08:51:04Z</time>
      </trkpt>
      <trkpt lat="43.31334" lon="2.15385">
        <ele>243.9</ele>
        <time>2016-03-28T08:51:07Z</time>
      </trkpt>
      <trkpt lat="43.31342" lon="2.15393">
        <ele>242.9</ele>
        <time>2016-03-28T08:51:09Z</time>
      </trkpt>
      <trkpt lat="43.3135" lon="2.15401">
        <ele>242.6</ele>
        <time>2016-03-28T08:51:11Z</time>
      </trkpt>
      <trkpt lat="43.31359" lon="2.15408">
        <ele>242.4</ele>
        <time>2016-03-28T08:51:13Z</time>
      </trkpt>
      <trkpt lat="43.31369" lon="2.15414">
        <ele>242.3</ele>
        <time>2016-03-28T08:51:15Z</time>
      </trkpt>
      <trkpt lat="43.31378" lon="2.15417">
        <ele>242</ele>
        <time>2016-03-28T08:51:17Z</time>
      </trkpt>
      <trkpt lat="43.31391" lon="2.15419">
        <ele>244.1</ele>
        <time>2016-03-28T08:51:20Z</time>
      </trkpt>
      <trkpt lat="43.314" lon="2.15421">
        <ele>245.8</ele>
        <time>2016-03-28T08:51:22Z</time>
      </trkpt>
      <trkpt lat="43.31409" lon="2.15423">
        <ele>247.1</ele>
        <time>2016-03-28T08:51:24Z</time>
      </trkpt>
      <trkpt lat="43.31419" lon="2.15426">
        <ele>247.8</ele>
        <time>2016-03-28T08:51:26Z</time>
      </trkpt>
      <trkpt lat="43.31428" lon="2.1543">
        <ele>248</ele>
        <time>2016-03-28T08:51:28Z</time>
      </trkpt>
      <trkpt lat="43.31437" lon="2.15435">
        <ele>248.1</ele>
        <time>2016-03-28T08:51:30Z</time>
      </trkpt>
      <trkpt lat="43.31446" lon="2.15443">
        <ele>248.5</ele>
        <time>2016-03-28T08:51:32Z</time>
      </trkpt>
      <trkpt lat="43.31453" lon="2.15451">
        <ele>248.5</ele>
        <time>2016-03-28T08:51:34Z</time>
      </trkpt>
      <trkpt lat="43.31462" lon="2.15463">
        <ele>248.3</ele>
        <time>2016-03-28T08:51:37Z</time>
      </trkpt>
      <trkpt lat="43.31469" lon="2.15471">
        <ele>247.6</ele>
        <time>2016-03-28T08:51:39Z</time>
      </trkpt>
      <trkpt lat="43.31475" lon="2.15481">
        <ele>246.9</ele>
        <time>2016-03-28T08:51:41Z</time>
      </trkpt>
      <trkpt lat="43.31486" lon="2.15491">
        <ele>246.9</ele>
        <time>2016-03-28T08:51:44Z</time>
      </trkpt>
      <trkpt lat="43.31497" lon="2.15498">
        <ele>248.7</ele>
        <time>2016-03-28T08:51:47Z</time>
      </trkpt>
      <trkpt lat="43.31505" lon="2.15504">
        <ele>249.5</ele>
        <time>2016-03-28T08:51:49Z</time>
      </trkpt>
      <trkpt lat="43.31513" lon="2.1551">
        <ele>249.2</ele>
        <time>2016-03-28T08:51:51Z</time>
      </trkpt>
      <trkpt lat="43.31521" lon="2.15517">
        <ele>249.6</ele>
        <time>2016-03-28T08:51:53Z</time>
      </trkpt>
      <trkpt lat="43.3153" lon="2.15522">
        <ele>250.1</ele>
        <time>2016-03-28T08:51:55Z</time>
      </trkpt>
      <trkpt lat="43.31539" lon="2.15526">
        <ele>250.9</ele>
        <time>2016-03-28T08:51:57Z</time>
      </trkpt>
      <trkpt lat="43.31547" lon="2.15529">
        <ele>252</ele>
        <time>2016-03-28T08:51:59Z</time>
      </trkpt>
      <trkpt lat="43.31555" lon="2.15536">
        <ele>253.1</ele>
        <time>2016-03-28T08:52:01Z</time>
      </trkpt>
      <trkpt lat="43.31565" lon="2.15545">
        <ele>254.9</ele>
        <time>2016-03-28T08:52:04Z</time>
      </trkpt>
      <trkpt lat="43.31574" lon="2.15554">
        <ele>255.2</ele>
        <time>2016-03-28T08:52:07Z</time>
      </trkpt>
      <trkpt lat="43.31584" lon="2.15566">
        <ele>255.4</ele>
        <time>2016-03-28T08:52:10Z</time>
      </trkpt>
      <trkpt lat="43.31594" lon="2.15577">
        <ele>255.4</ele>
        <time>2016-03-28T08:52:13Z</time>
      </trkpt>
      <trkpt lat="43.31601" lon="2.15587">
        <ele>255.7</ele>
        <time>2016-03-28T08:52:15Z</time>
      </trkpt>
      <trkpt lat="43.31606" lon="2.15597">
        <ele>256.2</ele>
        <time>2016-03-28T08:52:17Z</time>
      </trkpt>
      <trkpt lat="43.31612" lon="2.15608">
        <ele>256.7</ele>
        <time>2016-03-28T08:52:19Z</time>
      </trkpt>
      <trkpt lat="43.3162" lon="2.15618">
        <ele>257.8</ele>
        <time>2016-03-28T08:52:22Z</time>
      </trkpt>
      <trkpt lat="43.31629" lon="2.15627">
        <ele>258</ele>
        <time>2016-03-28T08:52:25Z</time>
      </trkpt>
      <trkpt lat="43.3164" lon="2.15631">
        <ele>258.2</ele>
        <time>2016-03-28T08:52:28Z</time>
      </trkpt>
      <trkpt lat="43.31651" lon="2.15631">
        <ele>259.1</ele>
        <time>2016-03-28T08:52:31Z</time>
      </trkpt>
      <trkpt lat="43.31662" lon="2.1563">
        <ele>260.3</ele>
        <time>2016-03-28T08:52:34Z</time>
      </trkpt>
      <trkpt lat="43.31673" lon="2.1563">
        <ele>262.3</ele>
        <time>2016-03-28T08:52:37Z</time>
      </trkpt>
      <trkpt lat="43.31684" lon="2.15628">
        <ele>262.9</ele>
        <time>2016-03-28T08:52:40Z</time>
      </trkpt>
      <trkpt lat="43.31693" lon="2.15628">
        <ele>262.7</ele>
        <time>2016-03-28T08:52:43Z</time>
      </trkpt>
      <trkpt lat="43.31704" lon="2.15624">
        <ele>262.7</ele>
        <time>2016-03-28T08:52:57Z</time>
      </trkpt>
      <trkpt lat="43.31714" lon="2.1562">
        <ele>263</ele>
        <time>2016-03-28T08:52:59Z</time>
      </trkpt>
      <trkpt lat="43.31723" lon="2.15616">
        <ele>263.1</ele>
        <time>2016-03-28T08:53:01Z</time>
      </trkpt>
      <trkpt lat="43.31735" lon="2.15612">
        <ele>263.1</ele>
        <time>2016-03-28T08:53:04Z</time>
      </trkpt>
      <trkpt lat="43.31747" lon="2.15607">
        <ele>263.2</ele>
        <time>2016-03-28T08:53:07Z</time>
      </trkpt>
      <trkpt lat="43.31756" lon="2.15604">
        <ele>263.3</ele>
        <time>2016-03-28T08:53:09Z</time>
      </trkpt>
      <trkpt lat="43.31768" lon="2.15601">
        <ele>263.4</ele>
        <time>2016-03-28T08:53:12Z</time>
      </trkpt>
      <trkpt lat="43.31779" lon="2.156">
        <ele>263.5</ele>
        <time>2016-03-28T08:53:15Z</time>
      </trkpt>
      <trkpt lat="43.31791" lon="2.15597">
        <ele>263.9</ele>
        <time>2016-03-28T08:53:18Z</time>
      </trkpt>
      <trkpt lat="43.31803" lon="2.15593">
        <ele>264.1</ele>
        <time>2016-03-28T08:53:21Z</time>
      </trkpt>
      <trkpt lat="43.31815" lon="2.1559">
        <ele>264.5</ele>
        <time>2016-03-28T08:53:24Z</time>
      </trkpt>
      <trkpt lat="43.31826" lon="2.15586">
        <ele>264.8</ele>
        <time>2016-03-28T08:53:28Z</time>
      </trkpt>
      <trkpt lat="43.31836" lon="2.15583">
        <ele>266.6</ele>
        <time>2016-03-28T08:53:59Z</time>
      </trkpt>
      <trkpt lat="43.31845" lon="2.15578">
        <ele>267.5</ele>
        <time>2016-03-28T08:54:03Z</time>
      </trkpt>
      <trkpt lat="43.31855" lon="2.15573">
        <ele>267.8</ele>
        <time>2016-03-28T08:54:07Z</time>
      </trkpt>
      <trkpt lat="43.31865" lon="2.15571">
        <ele>267.9</ele>
        <time>2016-03-28T08:54:10Z</time>
      </trkpt>
      <trkpt lat="43.31874" lon="2.15571">
        <ele>268</ele>
        <time>2016-03-28T08:54:13Z</time>
      </trkpt>
      <trkpt lat="43.31884" lon="2.1557">
        <ele>267.9</ele>
        <time>2016-03-28T08:54:16Z</time>
      </trkpt>
      <trkpt lat="43.31895" lon="2.15571">
        <ele>268.1</ele>
        <time>2016-03-28T08:54:19Z</time>
      </trkpt>
      <trkpt lat="43.31904" lon="2.15568">
        <ele>268.4</ele>
        <time>2016-03-28T08:54:22Z</time>
      </trkpt>
      <trkpt lat="43.31918" lon="2.15564">
        <ele>270.1</ele>
        <time>2016-03-28T08:54:25Z</time>
      </trkpt>
      <trkpt lat="43.31927" lon="2.15555">
        <ele>272.5</ele>
        <time>2016-03-28T08:54:27Z</time>
      </trkpt>
      <trkpt lat="43.31936" lon="2.15547">
        <ele>274.1</ele>
        <time>2016-03-28T08:54:29Z</time>
      </trkpt>
      <trkpt lat="43.31944" lon="2.15542">
        <ele>275.9</ele>
        <time>2016-03-28T08:54:31Z</time>
      </trkpt>
      <trkpt lat="43.31954" lon="2.15536">
        <ele>276</ele>
        <time>2016-03-28T08:54:33Z</time>
      </trkpt>
      <trkpt lat="43.31966" lon="2.15531">
        <ele>276</ele>
        <time>2016-03-28T08:54:35Z</time>
      </trkpt>
      <trkpt lat="43.31977" lon="2.15525">
        <ele>275.8</ele>
        <time>2016-03-28T08:54:37Z</time>
      </trkpt>
      <trkpt lat="43.3199" lon="2.15517">
        <ele>276.7</ele>
        <time>2016-03-28T08:54:39Z</time>
      </trkpt>
      <trkpt lat="43.32002" lon="2.15508">
        <ele>277.6</ele>
        <time>2016-03-28T08:54:41Z</time>
      </trkpt>
      <trkpt lat="43.32017" lon="2.15498">
        <ele>276.8</ele>
        <time>2016-03-28T08:54:43Z</time>
      </trkpt>
      <trkpt lat="43.32026" lon="2.15492">
        <ele>276.7</ele>
        <time>2016-03-28T08:54:44Z</time>
      </trkpt>
      <trkpt lat="43.32034" lon="2.15486">
        <ele>276.7</ele>
        <time>2016-03-28T08:54:45Z</time>
      </trkpt>
      <trkpt lat="43.32042" lon="2.1548">
        <ele>276.6</ele>
        <time>2016-03-28T08:54:46Z</time>
      </trkpt>
      <trkpt lat="43.32052" lon="2.15474">
        <ele>276.4</ele>
        <time>2016-03-28T08:54:47Z</time>
      </trkpt>
      <trkpt lat="43.32068" lon="2.15462">
        <ele>276.2</ele>
        <time>2016-03-28T08:54:49Z</time>
      </trkpt>
      <trkpt lat="43.32076" lon="2.15456">
        <ele>275.7</ele>
        <time>2016-03-28T08:54:50Z</time>
      </trkpt>
      <trkpt lat="43.32085" lon="2.15451">
        <ele>275.2</ele>
        <time>2016-03-28T08:54:51Z</time>
      </trkpt>
      <trkpt lat="43.32093" lon="2.15445">
        <ele>274.6</ele>
        <time>2016-03-28T08:54:52Z</time>
      </trkpt>
      <trkpt lat="43.32106" lon="2.15437">
        <ele>274.7</ele>
        <time>2016-03-28T08:54:54Z</time>
      </trkpt>
      <trkpt lat="43.32116" lon="2.1543">
        <ele>274.6</ele>
        <time>2016-03-28T08:54:56Z</time>
      </trkpt>
      <trkpt lat="43.32125" lon="2.15423">
        <ele>274.5</ele>
        <time>2016-03-28T08:55:00Z</time>
      </trkpt>
      <trkpt lat="43.32134" lon="2.15416">
        <ele>274.3</ele>
        <time>2016-03-28T08:55:03Z</time>
      </trkpt>
      <trkpt lat="43.32142" lon="2.15409">
        <ele>274.5</ele>
        <time>2016-03-28T08:55:06Z</time>
      </trkpt>
      <trkpt lat="43.32153" lon="2.154">
        <ele>277.2</ele>
        <time>2016-03-28T08:55:09Z</time>
      </trkpt>
      <trkpt lat="43.32166" lon="2.15394">
        <ele>278.1</ele>
        <time>2016-03-28T08:55:11Z</time>
      </trkpt>
      <trkpt lat="43.32177" lon="2.15387">
        <ele>278.5</ele>
        <time>2016-03-28T08:55:13Z</time>
      </trkpt>
      <trkpt lat="43.32188" lon="2.15381">
        <ele>280</ele>
        <time>2016-03-28T08:55:15Z</time>
      </trkpt>
      <trkpt lat="43.322" lon="2.15373">
        <ele>280.4</ele>
        <time>2016-03-28T08:55:17Z</time>
      </trkpt>
      <trkpt lat="43.32213" lon="2.15364">
        <ele>280.4</ele>
        <time>2016-03-28T08:55:19Z</time>
      </trkpt>
      <trkpt lat="43.32228" lon="2.15355">
        <ele>281.4</ele>
        <time>2016-03-28T08:55:21Z</time>
      </trkpt>
      <trkpt lat="43.32243" lon="2.15344">
        <ele>282.2</ele>
        <time>2016-03-28T08:55:23Z</time>
      </trkpt>
      <trkpt lat="43.32251" lon="2.15338">
        <ele>282.6</ele>
        <time>2016-03-28T08:55:24Z</time>
      </trkpt>
      <trkpt lat="43.32265" lon="2.15328">
        <ele>282.5</ele>
        <time>2016-03-28T08:55:26Z</time>
      </trkpt>
      <trkpt lat="43.3228" lon="2.15317">
        <ele>283</ele>
        <time>2016-03-28T08:55:28Z</time>
      </trkpt>
      <trkpt lat="43.32295" lon="2.15305">
        <ele>283</ele>
        <time>2016-03-28T08:55:30Z</time>
      </trkpt>
      <trkpt lat="43.32309" lon="2.15294">
        <ele>283</ele>
        <time>2016-03-28T08:55:32Z</time>
      </trkpt>
      <trkpt lat="43.32322" lon="2.15284">
        <ele>283.6</ele>
        <time>2016-03-28T08:55:34Z</time>
      </trkpt>
      <trkpt lat="43.32335" lon="2.15275">
        <ele>285.2</ele>
        <time>2016-03-28T08:55:36Z</time>
      </trkpt>
      <trkpt lat="43.3235" lon="2.15265">
        <ele>285.9</ele>
        <time>2016-03-28T08:55:38Z</time>
      </trkpt>
      <trkpt lat="43.32362" lon="2.15256">
        <ele>286.9</ele>
        <time>2016-03-28T08:55:40Z</time>
      </trkpt>
      <trkpt lat="43.32373" lon="2.15249">
        <ele>287</ele>
        <time>2016-03-28T08:55:42Z</time>
      </trkpt>
      <trkpt lat="43.32381" lon="2.15244">
        <ele>286</ele>
        <time>2016-03-28T08:55:44Z</time>
      </trkpt>
      <trkpt lat="43.3239" lon="2.15236">
        <ele>285.8</ele>
        <time>2016-03-28T08:55:47Z</time>
      </trkpt>
      <trkpt lat="43.32399" lon="2.15228">
        <ele>284.6</ele>
        <time>2016-03-28T08:56:01Z</time>
      </trkpt>
      <trkpt lat="43.32409" lon="2.15223">
        <ele>283.2</ele>
        <time>2016-03-28T08:56:04Z</time>
      </trkpt>
      <trkpt lat="43.32422" lon="2.15214">
        <ele>282.2</ele>
        <time>2016-03-28T08:56:07Z</time>
      </trkpt>
      <trkpt lat="43.32432" lon="2.15208">
        <ele>280.3</ele>
        <time>2016-03-28T08:56:10Z</time>
      </trkpt>
      <trkpt lat="43.32442" lon="2.15201">
        <ele>279.7</ele>
        <time>2016-03-28T08:56:12Z</time>
      </trkpt>
      <trkpt lat="43.32451" lon="2.15192">
        <ele>279.8</ele>
        <time>2016-03-28T08:56:14Z</time>
      </trkpt>
      <trkpt lat="43.32459" lon="2.15183">
        <ele>278.9</ele>
        <time>2016-03-28T08:56:16Z</time>
      </trkpt>
      <trkpt lat="43.32468" lon="2.15174">
        <ele>277.8</ele>
        <time>2016-03-28T08:56:18Z</time>
      </trkpt>
      <trkpt lat="43.32477" lon="2.15164">
        <ele>275.7</ele>
        <time>2016-03-28T08:56:20Z</time>
      </trkpt>
      <trkpt lat="43.32485" lon="2.15154">
        <ele>274.2</ele>
        <time>2016-03-28T08:56:22Z</time>
      </trkpt>
      <trkpt lat="43.32494" lon="2.15144">
        <ele>273.9</ele>
        <time>2016-03-28T08:56:24Z</time>
      </trkpt>
      <trkpt lat="43.32505" lon="2.15134">
        <ele>274.3</ele>
        <time>2016-03-28T08:56:26Z</time>
      </trkpt>
      <trkpt lat="43.32513" lon="2.15121">
        <ele>274.4</ele>
        <time>2016-03-28T08:56:28Z</time>
      </trkpt>
      <trkpt lat="43.32521" lon="2.15102">
        <ele>274.1</ele>
        <time>2016-03-28T08:56:30Z</time>
      </trkpt>
      <trkpt lat="43.32526" lon="2.15088">
        <ele>272.9</ele>
        <time>2016-03-28T08:56:32Z</time>
      </trkpt>
      <trkpt lat="43.32531" lon="2.15073">
        <ele>270.9</ele>
        <time>2016-03-28T08:56:34Z</time>
      </trkpt>
      <trkpt lat="43.32535" lon="2.15058">
        <ele>269.3</ele>
        <time>2016-03-28T08:56:36Z</time>
      </trkpt>
      <trkpt lat="43.32538" lon="2.15044">
        <ele>267.5</ele>
        <time>2016-03-28T08:56:38Z</time>
      </trkpt>
      <trkpt lat="43.32541" lon="2.15031">
        <ele>266.8</ele>
        <time>2016-03-28T08:56:40Z</time>
      </trkpt>
      <trkpt lat="43.32546" lon="2.15016">
        <ele>267</ele>
        <time>2016-03-28T08:56:43Z</time>
      </trkpt>
      <trkpt lat="43.32552" lon="2.15005">
        <ele>267.1</ele>
        <time>2016-03-28T08:56:46Z</time>
      </trkpt>
      <trkpt lat="43.32559" lon="2.14997">
        <ele>267</ele>
        <time>2016-03-28T08:56:49Z</time>
      </trkpt>
      <trkpt lat="43.32569" lon="2.1499">
        <ele>267</ele>
        <time>2016-03-28T08:56:53Z</time>
      </trkpt>
      <trkpt lat="43.32579" lon="2.14987">
        <ele>267.4</ele>
        <time>2016-03-28T08:56:57Z</time>
      </trkpt>
      <trkpt lat="43.3259" lon="2.14985">
        <ele>267.6</ele>
        <time>2016-03-28T08:57:00Z</time>
      </trkpt>
      <trkpt lat="43.32602" lon="2.14985">
        <ele>267.9</ele>
        <time>2016-03-28T08:57:03Z</time>
      </trkpt>
      <trkpt lat="43.32612" lon="2.14985">
        <ele>268.9</ele>
        <time>2016-03-28T08:57:05Z</time>
      </trkpt>
      <trkpt lat="43.32621" lon="2.14986">
        <ele>269.1</ele>
        <time>2016-03-28T08:57:07Z</time>
      </trkpt>
      <trkpt lat="43.32631" lon="2.14986">
        <ele>269.3</ele>
        <time>2016-03-28T08:57:09Z</time>
      </trkpt>
      <trkpt lat="43.32643" lon="2.14985">
        <ele>269.9</ele>
        <time>2016-03-28T08:57:11Z</time>
      </trkpt>
      <trkpt lat="43.32652" lon="2.14985">
        <ele>270.3</ele>
        <time>2016-03-28T08:57:13Z</time>
      </trkpt>
      <trkpt lat="43.32661" lon="2.14985">
        <ele>271</ele>
        <time>2016-03-28T08:57:15Z</time>
      </trkpt>
      <trkpt lat="43.32672" lon="2.14984">
        <ele>271.9</ele>
        <time>2016-03-28T08:57:17Z</time>
      </trkpt>
      <trkpt lat="43.32681" lon="2.14982">
        <ele>271.6</ele>
        <time>2016-03-28T08:57:20Z</time>
      </trkpt>
      <trkpt lat="43.32691" lon="2.14985">
        <ele>271.7</ele>
        <time>2016-03-28T08:59:04Z</time>
      </trkpt>
      <trkpt lat="43.32702" lon="2.14987">
        <ele>271.2</ele>
        <time>2016-03-28T08:59:07Z</time>
      </trkpt>
      <trkpt lat="43.32713" lon="2.14986">
        <ele>271</ele>
        <time>2016-03-28T08:59:13Z</time>
      </trkpt>
      <trkpt lat="43.32724" lon="2.14984">
        <ele>271.2</ele>
        <time>2016-03-28T08:59:17Z</time>
      </trkpt>
      <trkpt lat="43.32734" lon="2.14983">
        <ele>271.6</ele>
        <time>2016-03-28T08:59:21Z</time>
      </trkpt>
      <trkpt lat="43.32744" lon="2.14983">
        <ele>272.1</ele>
        <time>2016-03-28T08:59:25Z</time>
      </trkpt>
      <trkpt lat="43.32753" lon="2.14984">
        <ele>272.8</ele>
        <time>2016-03-28T08:59:29Z</time>
      </trkpt>
      <trkpt lat="43.32764" lon="2.14984">
        <ele>273.6</ele>
        <time>2016-03-28T08:59:34Z</time>
      </trkpt>
      <trkpt lat="43.32774" lon="2.14983">
        <ele>274.2</ele>
        <time>2016-03-28T08:59:39Z</time>
      </trkpt>
      <trkpt lat="43.32785" lon="2.14982">
        <ele>274.5</ele>
        <time>2016-03-28T08:59:44Z</time>
      </trkpt>
      <trkpt lat="43.32796" lon="2.14982">
        <ele>274.8</ele>
        <time>2016-03-28T08:59:49Z</time>
      </trkpt>
      <trkpt lat="43.32806" lon="2.14981">
        <ele>275</ele>
        <time>2016-03-28T08:59:53Z</time>
      </trkpt>
      <trkpt lat="43.32816" lon="2.14981">
        <ele>275.3</ele>
        <time>2016-03-28T08:59:58Z</time>
      </trkpt>
      <trkpt lat="43.32826" lon="2.14981">
        <ele>275.7</ele>
        <time>2016-03-28T09:00:02Z</time>
      </trkpt>
      <trkpt lat="43.32836" lon="2.14979">
        <ele>276.2</ele>
        <time>2016-03-28T09:00:07Z</time>
      </trkpt>
      <trkpt lat="43.32845" lon="2.14976">
        <ele>276.7</ele>
        <time>2016-03-28T09:00:11Z</time>
      </trkpt>
      <trkpt lat="43.32854" lon="2.14973">
        <ele>277.2</ele>
        <time>2016-03-28T09:00:15Z</time>
      </trkpt>
      <trkpt lat="43.32864" lon="2.14971">
        <ele>277.7</ele>
        <time>2016-03-28T09:00:20Z</time>
      </trkpt>
      <trkpt lat="43.32874" lon="2.14969">
        <ele>278</ele>
        <time>2016-03-28T09:00:24Z</time>
      </trkpt>
      <trkpt lat="43.32885" lon="2.14968">
        <ele>278.2</ele>
        <time>2016-03-28T09:00:28Z</time>
      </trkpt>
      <trkpt lat="43.32895" lon="2.14966">
        <ele>278.5</ele>
        <time>2016-03-28T09:00:32Z</time>
      </trkpt>
      <trkpt lat="43.32905" lon="2.14965">
        <ele>278.9</ele>
        <time>2016-03-28T09:00:36Z</time>
      </trkpt>
      <trkpt lat="43.32914" lon="2.14964">
        <ele>279.3</ele>
        <time>2016-03-28T09:00:40Z</time>
      </trkpt>
      <trkpt lat="43.32925" lon="2.14963">
        <ele>279.8</ele>
        <time>2016-03-28T09:00:44Z</time>
      </trkpt>
      <trkpt lat="43.32938" lon="2.14962">
        <ele>281.3</ele>
        <time>2016-03-28T09:00:48Z</time>
      </trkpt>
      <trkpt lat="43.32948" lon="2.14961">
        <ele>282.6</ele>
        <time>2016-03-28T09:00:50Z</time>
      </trkpt>
      <trkpt lat="43.32959" lon="2.1496">
        <ele>283.1</ele>
        <time>2016-03-28T09:00:52Z</time>
      </trkpt>
      <trkpt lat="43.32974" lon="2.14958">
        <ele>282.9</ele>
        <time>2016-03-28T09:00:55Z</time>
      </trkpt>
      <trkpt lat="43.32988" lon="2.14956">
        <ele>284.1</ele>
        <time>2016-03-28T09:00:57Z</time>
      </trkpt>
      <trkpt lat="43.33003" lon="2.14952">
        <ele>285.1</ele>
        <time>2016-03-28T09:00:59Z</time>
      </trkpt>
      <trkpt lat="43.33019" lon="2.14949">
        <ele>285.5</ele>
        <time>2016-03-28T09:01:01Z</time>
      </trkpt>
      <trkpt lat="43.33035" lon="2.14947">
        <ele>285.8</ele>
        <time>2016-03-28T09:01:03Z</time>
      </trkpt>
      <trkpt lat="43.33053" lon="2.14944">
        <ele>285.7</ele>
        <time>2016-03-28T09:01:05Z</time>
      </trkpt>
      <trkpt lat="43.33069" lon="2.14941">
        <ele>285.4</ele>
        <time>2016-03-28T09:01:07Z</time>
      </trkpt>
      <trkpt lat="43.33085" lon="2.14939">
        <ele>285.9</ele>
        <time>2016-03-28T09:01:09Z</time>
      </trkpt>
      <trkpt lat="43.33101" lon="2.14935">
        <ele>287.2</ele>
        <time>2016-03-28T09:01:11Z</time>
      </trkpt>
      <trkpt lat="43.33116" lon="2.14931">
        <ele>288.4</ele>
        <time>2016-03-28T09:01:13Z</time>
      </trkpt>
      <trkpt lat="43.33131" lon="2.14929">
        <ele>288.9</ele>
        <time>2016-03-28T09:01:15Z</time>
      </trkpt>
      <trkpt lat="43.33146" lon="2.14927">
        <ele>288.4</ele>
        <time>2016-03-28T09:01:17Z</time>
      </trkpt>
      <trkpt lat="43.33159" lon="2.14924">
        <ele>288.5</ele>
        <time>2016-03-28T09:01:19Z</time>
      </trkpt>
      <trkpt lat="43.3317" lon="2.14923">
        <ele>288.6</ele>
        <time>2016-03-28T09:01:21Z</time>
      </trkpt>
      <trkpt lat="43.33182" lon="2.14921">
        <ele>288.8</ele>
        <time>2016-03-28T09:01:23Z</time>
      </trkpt>
      <trkpt lat="43.33193" lon="2.14926">
        <ele>288.7</ele>
        <time>2016-03-28T09:01:25Z</time>
      </trkpt>
      <trkpt lat="43.33205" lon="2.1494">
        <ele>288.5</ele>
        <time>2016-03-28T09:01:27Z</time>
      </trkpt>
      <trkpt lat="43.33217" lon="2.14954">
        <ele>287.7</ele>
        <time>2016-03-28T09:01:29Z</time>
      </trkpt>
      <trkpt lat="43.3323" lon="2.14969">
        <ele>285.9</ele>
        <time>2016-03-28T09:01:31Z</time>
      </trkpt>
      <trkpt lat="43.3324" lon="2.14975">
        <ele>285.2</ele>
        <time>2016-03-28T09:01:32Z</time>
      </trkpt>
      <trkpt lat="43.3325" lon="2.14981">
        <ele>284.7</ele>
        <time>2016-03-28T09:01:33Z</time>
      </trkpt>
      <trkpt lat="43.33261" lon="2.14986">
        <ele>284.3</ele>
        <time>2016-03-28T09:01:34Z</time>
      </trkpt>
      <trkpt lat="43.33272" lon="2.14991">
        <ele>283.9</ele>
        <time>2016-03-28T09:01:35Z</time>
      </trkpt>
      <trkpt lat="43.33283" lon="2.14995">
        <ele>283.5</ele>
        <time>2016-03-28T09:01:36Z</time>
      </trkpt>
      <trkpt lat="43.33296" lon="2.14997">
        <ele>282.9</ele>
        <time>2016-03-28T09:01:37Z</time>
      </trkpt>
      <trkpt lat="43.33308" lon="2.14997">
        <ele>282.4</ele>
        <time>2016-03-28T09:01:38Z</time>
      </trkpt>
      <trkpt lat="43.33319" lon="2.14993">
        <ele>282.3</ele>
        <time>2016-03-28T09:01:39Z</time>
      </trkpt>
      <trkpt lat="43.33329" lon="2.1499">
        <ele>282.3</ele>
        <time>2016-03-28T09:01:40Z</time>
      </trkpt>
      <trkpt lat="43.33339" lon="2.14985">
        <ele>282.2</ele>
        <time>2016-03-28T09:01:41Z</time>
      </trkpt>
      <trkpt lat="43.3335" lon="2.14979">
        <ele>282.4</ele>
        <time>2016-03-28T09:01:42Z</time>
      </trkpt>
      <trkpt lat="43.33359" lon="2.14973">
        <ele>282.6</ele>
        <time>2016-03-28T09:01:43Z</time>
      </trkpt>
      <trkpt lat="43.33369" lon="2.14966">
        <ele>282.9</ele>
        <time>2016-03-28T09:01:44Z</time>
      </trkpt>
      <trkpt lat="43.33378" lon="2.1496">
        <ele>282.8</ele>
        <time>2016-03-28T09:01:45Z</time>
      </trkpt>
      <trkpt lat="43.33387" lon="2.14953">
        <ele>282.4</ele>
        <time>2016-03-28T09:01:46Z</time>
      </trkpt>
      <trkpt lat="43.33395" lon="2.14945">
        <ele>282.2</ele>
        <time>2016-03-28T09:01:47Z</time>
      </trkpt>
      <trkpt lat="43.33405" lon="2.14932">
        <ele>282</ele>
        <time>2016-03-28T09:01:49Z</time>
      </trkpt>
      <trkpt lat="43.33412" lon="2.14917">
        <ele>282.6</ele>
        <time>2016-03-28T09:01:52Z</time>
      </trkpt>
      <trkpt lat="43.33409" lon="2.14905">
        <ele>282.9</ele>
        <time>2016-03-28T09:01:56Z</time>
      </trkpt>
      <trkpt lat="43.33395" lon="2.14908">
        <ele>283.7</ele>
        <time>2016-03-28T09:02:00Z</time>
      </trkpt>
      <trkpt lat="43.33382" lon="2.14916">
        <ele>283.5</ele>
        <time>2016-03-28T09:02:03Z</time>
      </trkpt>
      <trkpt lat="43.33369" lon="2.14923">
        <ele>282.9</ele>
        <time>2016-03-28T09:02:05Z</time>
      </trkpt>
      <trkpt lat="43.33355" lon="2.14926">
        <ele>282.1</ele>
        <time>2016-03-28T09:02:07Z</time>
      </trkpt>
      <trkpt lat="43.33341" lon="2.14927">
        <ele>281.5</ele>
        <time>2016-03-28T09:02:09Z</time>
      </trkpt>
      <trkpt lat="43.33327" lon="2.14926">
        <ele>280.7</ele>
        <time>2016-03-28T09:02:11Z</time>
      </trkpt>
      <trkpt lat="43.33315" lon="2.14918">
        <ele>280.9</ele>
        <time>2016-03-28T09:02:13Z</time>
      </trkpt>
      <trkpt lat="43.33302" lon="2.14909">
        <ele>281.3</ele>
        <time>2016-03-28T09:02:15Z</time>
      </trkpt>
      <trkpt lat="43.3329" lon="2.14896">
        <ele>281.3</ele>
        <time>2016-03-28T09:02:17Z</time>
      </trkpt>
      <trkpt lat="43.33279" lon="2.14881">
        <ele>280.6</ele>
        <time>2016-03-28T09:02:19Z</time>
      </trkpt>
      <trkpt lat="43.33269" lon="2.14864">
        <ele>279.9</ele>
        <time>2016-03-28T09:02:21Z</time>
      </trkpt>
      <trkpt lat="43.33259" lon="2.14844">
        <ele>278.6</ele>
        <time>2016-03-28T09:02:23Z</time>
      </trkpt>
      <trkpt lat="43.33255" lon="2.14833">
        <ele>278.2</ele>
        <time>2016-03-28T09:02:24Z</time>
      </trkpt>
      <trkpt lat="43.3325" lon="2.14822">
        <ele>278</ele>
        <time>2016-03-28T09:02:25Z</time>
      </trkpt>
      <trkpt lat="43.33246" lon="2.1481">
        <ele>277.9</ele>
        <time>2016-03-28T09:02:26Z</time>
      </trkpt>
      <trkpt lat="43.33241" lon="2.14799">
        <ele>277.8</ele>
        <time>2016-03-28T09:02:27Z</time>
      </trkpt>
      <trkpt lat="43.33237" lon="2.14788">
        <ele>277.6</ele>
        <time>2016-03-28T09:02:28Z</time>
      </trkpt>
      <trkpt lat="43.33232" lon="2.14776">
        <ele>277.4</ele>
        <time>2016-03-28T09:02:29Z</time>
      </trkpt>
      <trkpt lat="43.33227" lon="2.14764">
        <ele>277.5</ele>
        <time>2016-03-28T09:02:30Z</time>
      </trkpt>
      <trkpt lat="43.33223" lon="2.14752">
        <ele>277.8</ele>
        <time>2016-03-28T09:02:31Z</time>
      </trkpt>
      <trkpt lat="43.33218" lon="2.14739">
        <ele>278</ele>
        <time>2016-03-28T09:02:32Z</time>
      </trkpt>
      <trkpt lat="43.33214" lon="2.14728">
        <ele>277.7</ele>
        <time>2016-03-28T09:02:33Z</time>
      </trkpt>
      <trkpt lat="43.3321" lon="2.14716">
        <ele>277.1</ele>
        <time>2016-03-28T09:02:34Z</time>
      </trkpt>
      <trkpt lat="43.33199" lon="2.147">
        <ele>275.3</ele>
        <time>2016-03-28T09:02:36Z</time>
      </trkpt>
      <trkpt lat="43.33186" lon="2.14689">
        <ele>273.6</ele>
        <time>2016-03-28T09:02:38Z</time>
      </trkpt>
      <trkpt lat="43.33169" lon="2.14683">
        <ele>271.7</ele>
        <time>2016-03-28T09:02:40Z</time>
      </trkpt>
      <trkpt lat="43.33159" lon="2.14681">
        <ele>271</ele>
        <time>2016-03-28T09:02:41Z</time>
      </trkpt>
      <trkpt lat="43.33148" lon="2.14679">
        <ele>270.6</ele>
        <time>2016-03-28T09:02:42Z</time>
      </trkpt>
      <trkpt lat="43.33138" lon="2.14677">
        <ele>270.2</ele>
        <time>2016-03-28T09:02:43Z</time>
      </trkpt>
      <trkpt lat="43.33121" lon="2.14676">
        <ele>269.5</ele>
        <time>2016-03-28T09:02:45Z</time>
      </trkpt>
      <trkpt lat="43.33104" lon="2.14674">
        <ele>268.9</ele>
        <time>2016-03-28T09:02:47Z</time>
      </trkpt>
      <trkpt lat="43.33095" lon="2.14672">
        <ele>268.3</ele>
        <time>2016-03-28T09:02:48Z</time>
      </trkpt>
      <trkpt lat="43.3308" lon="2.14662">
        <ele>267.2</ele>
        <time>2016-03-28T09:02:50Z</time>
      </trkpt>
      <trkpt lat="43.33066" lon="2.14649">
        <ele>265.8</ele>
        <time>2016-03-28T09:02:52Z</time>
      </trkpt>
      <trkpt lat="43.33055" lon="2.1463">
        <ele>263.9</ele>
        <time>2016-03-28T09:02:54Z</time>
      </trkpt>
      <trkpt lat="43.3305" lon="2.14619">
        <ele>263.1</ele>
        <time>2016-03-28T09:02:55Z</time>
      </trkpt>
      <trkpt lat="43.33045" lon="2.14606">
        <ele>262.4</ele>
        <time>2016-03-28T09:02:56Z</time>
      </trkpt>
      <trkpt lat="43.3304" lon="2.14592">
        <ele>262.1</ele>
        <time>2016-03-28T09:02:57Z</time>
      </trkpt>
      <trkpt lat="43.33036" lon="2.14577">
        <ele>262</ele>
        <time>2016-03-28T09:02:58Z</time>
      </trkpt>
      <trkpt lat="43.33033" lon="2.14563">
        <ele>262.2</ele>
        <time>2016-03-28T09:02:59Z</time>
      </trkpt>
      <trkpt lat="43.33031" lon="2.1455">
        <ele>262.4</ele>
        <time>2016-03-28T09:03:00Z</time>
      </trkpt>
      <trkpt lat="43.33031" lon="2.14537">
        <ele>262.4</ele>
        <time>2016-03-28T09:03:01Z</time>
      </trkpt>
      <trkpt lat="43.33032" lon="2.14524">
        <ele>262.1</ele>
        <time>2016-03-28T09:03:02Z</time>
      </trkpt>
      <trkpt lat="43.33032" lon="2.1451">
        <ele>261.4</ele>
        <time>2016-03-28T09:03:03Z</time>
      </trkpt>
      <trkpt lat="43.33033" lon="2.14497">
        <ele>260.8</ele>
        <time>2016-03-28T09:03:04Z</time>
      </trkpt>
      <trkpt lat="43.33034" lon="2.14483">
        <ele>260.4</ele>
        <time>2016-03-28T09:03:05Z</time>
      </trkpt>
      <trkpt lat="43.33036" lon="2.1447">
        <ele>259.9</ele>
        <time>2016-03-28T09:03:06Z</time>
      </trkpt>
      <trkpt lat="43.33039" lon="2.14458">
        <ele>258.9</ele>
        <time>2016-03-28T09:03:07Z</time>
      </trkpt>
      <trkpt lat="43.33041" lon="2.14444">
        <ele>258.2</ele>
        <time>2016-03-28T09:03:08Z</time>
      </trkpt>
      <trkpt lat="43.33043" lon="2.14431">
        <ele>257.4</ele>
        <time>2016-03-28T09:03:09Z</time>
      </trkpt>
      <trkpt lat="43.33045" lon="2.14418">
        <ele>256.6</ele>
        <time>2016-03-28T09:03:10Z</time>
      </trkpt>
      <trkpt lat="43.33046" lon="2.14405">
        <ele>256</ele>
        <time>2016-03-28T09:03:11Z</time>
      </trkpt>
      <trkpt lat="43.33048" lon="2.1439">
        <ele>255.2</ele>
        <time>2016-03-28T09:03:12Z</time>
      </trkpt>
      <trkpt lat="43.33045" lon="2.14377">
        <ele>254.5</ele>
        <time>2016-03-28T09:03:13Z</time>
      </trkpt>
      <trkpt lat="43.33042" lon="2.14362">
        <ele>253.5</ele>
        <time>2016-03-28T09:03:14Z</time>
      </trkpt>
      <trkpt lat="43.33035" lon="2.14345">
        <ele>252.7</ele>
        <time>2016-03-28T09:03:15Z</time>
      </trkpt>
      <trkpt lat="43.33027" lon="2.14328">
        <ele>252.2</ele>
        <time>2016-03-28T09:03:16Z</time>
      </trkpt>
      <trkpt lat="43.3302" lon="2.14312">
        <ele>251.7</ele>
        <time>2016-03-28T09:03:17Z</time>
      </trkpt>
      <trkpt lat="43.33012" lon="2.14296">
        <ele>251</ele>
        <time>2016-03-28T09:03:18Z</time>
      </trkpt>
      <trkpt lat="43.33003" lon="2.14281">
        <ele>250.3</ele>
        <time>2016-03-28T09:03:19Z</time>
      </trkpt>
      <trkpt lat="43.32995" lon="2.14265">
        <ele>249.7</ele>
        <time>2016-03-28T09:03:20Z</time>
      </trkpt>
      <trkpt lat="43.32987" lon="2.14249">
        <ele>249.1</ele>
        <time>2016-03-28T09:03:21Z</time>
      </trkpt>
      <trkpt lat="43.32981" lon="2.14231">
        <ele>248.8</ele>
        <time>2016-03-28T09:03:22Z</time>
      </trkpt>
      <trkpt lat="43.3298" lon="2.14215">
        <ele>248.3</ele>
        <time>2016-03-28T09:03:23Z</time>
      </trkpt>
      <trkpt lat="43.32979" lon="2.14197">
        <ele>247.6</ele>
        <time>2016-03-28T09:03:24Z</time>
      </trkpt>
      <trkpt lat="43.32981" lon="2.14179">
        <ele>246.6</ele>
        <time>2016-03-28T09:03:25Z</time>
      </trkpt>
      <trkpt lat="43.32983" lon="2.14158">
        <ele>245.7</ele>
        <time>2016-03-28T09:03:26Z</time>
      </trkpt>
      <trkpt lat="43.32985" lon="2.14137">
        <ele>244.5</ele>
        <time>2016-03-28T09:03:27Z</time>
      </trkpt>
      <trkpt lat="43.32988" lon="2.14116">
        <ele>243.2</ele>
        <time>2016-03-28T09:03:28Z</time>
      </trkpt>
      <trkpt lat="43.3299" lon="2.14095">
        <ele>241.9</ele>
        <time>2016-03-28T09:03:29Z</time>
      </trkpt>
      <trkpt lat="43.32994" lon="2.14073">
        <ele>240.8</ele>
        <time>2016-03-28T09:03:30Z</time>
      </trkpt>
      <trkpt lat="43.32996" lon="2.14053">
        <ele>239.8</ele>
        <time>2016-03-28T09:03:31Z</time>
      </trkpt>
      <trkpt lat="43.32999" lon="2.14032">
        <ele>239</ele>
        <time>2016-03-28T09:03:32Z</time>
      </trkpt>
      <trkpt lat="43.33001" lon="2.14012">
        <ele>238.1</ele>
        <time>2016-03-28T09:03:33Z</time>
      </trkpt>
      <trkpt lat="43.33002" lon="2.13992">
        <ele>237.5</ele>
        <time>2016-03-28T09:03:34Z</time>
      </trkpt>
      <trkpt lat="43.33002" lon="2.13971">
        <ele>236.4</ele>
        <time>2016-03-28T09:03:35Z</time>
      </trkpt>
      <trkpt lat="43.33001" lon="2.13949">
        <ele>235.1</ele>
        <time>2016-03-28T09:03:36Z</time>
      </trkpt>
      <trkpt lat="43.32999" lon="2.13928">
        <ele>234.1</ele>
        <time>2016-03-28T09:03:37Z</time>
      </trkpt>
      <trkpt lat="43.32997" lon="2.13907">
        <ele>233.2</ele>
        <time>2016-03-28T09:03:38Z</time>
      </trkpt>
      <trkpt lat="43.32996" lon="2.13886">
        <ele>232.5</ele>
        <time>2016-03-28T09:03:39Z</time>
      </trkpt>
      <trkpt lat="43.32999" lon="2.13867">
        <ele>231.9</ele>
        <time>2016-03-28T09:03:40Z</time>
      </trkpt>
      <trkpt lat="43.33003" lon="2.13847">
        <ele>231.5</ele>
        <time>2016-03-28T09:03:41Z</time>
      </trkpt>
      <trkpt lat="43.33006" lon="2.13827">
        <ele>231.1</ele>
        <time>2016-03-28T09:03:42Z</time>
      </trkpt>
      <trkpt lat="43.33006" lon="2.1381">
        <ele>230.7</ele>
        <time>2016-03-28T09:03:43Z</time>
      </trkpt>
      <trkpt lat="43.33002" lon="2.13793">
        <ele>230.7</ele>
        <time>2016-03-28T09:03:44Z</time>
      </trkpt>
      <trkpt lat="43.32997" lon="2.13778">
        <ele>230.9</ele>
        <time>2016-03-28T09:03:45Z</time>
      </trkpt>
      <trkpt lat="43.32991" lon="2.13763">
        <ele>230.7</ele>
        <time>2016-03-28T09:03:46Z</time>
      </trkpt>
      <trkpt lat="43.32983" lon="2.13747">
        <ele>230.9</ele>
        <time>2016-03-28T09:03:47Z</time>
      </trkpt>
      <trkpt lat="43.32975" lon="2.13731">
        <ele>230.1</ele>
        <time>2016-03-28T09:03:48Z</time>
      </trkpt>
      <trkpt lat="43.32966" lon="2.13716">
        <ele>229.2</ele>
        <time>2016-03-28T09:03:49Z</time>
      </trkpt>
      <trkpt lat="43.32958" lon="2.13701">
        <ele>228.3</ele>
        <time>2016-03-28T09:03:50Z</time>
      </trkpt>
      <trkpt lat="43.32949" lon="2.13683">
        <ele>227.6</ele>
        <time>2016-03-28T09:03:51Z</time>
      </trkpt>
      <trkpt lat="43.32944" lon="2.13667">
        <ele>226.5</ele>
        <time>2016-03-28T09:03:52Z</time>
      </trkpt>
      <trkpt lat="43.3294" lon="2.13649">
        <ele>225.3</ele>
        <time>2016-03-28T09:03:53Z</time>
      </trkpt>
      <trkpt lat="43.32939" lon="2.13628">
        <ele>224.5</ele>
        <time>2016-03-28T09:03:54Z</time>
      </trkpt>
      <trkpt lat="43.32938" lon="2.13605">
        <ele>224.3</ele>
        <time>2016-03-28T09:03:55Z</time>
      </trkpt>
      <trkpt lat="43.32938" lon="2.13584">
        <ele>224.4</ele>
        <time>2016-03-28T09:03:56Z</time>
      </trkpt>
      <trkpt lat="43.32938" lon="2.13563">
        <ele>224.6</ele>
        <time>2016-03-28T09:03:57Z</time>
      </trkpt>
      <trkpt lat="43.32939" lon="2.13541">
        <ele>224.8</ele>
        <time>2016-03-28T09:03:58Z</time>
      </trkpt>
      <trkpt lat="43.32939" lon="2.13521">
        <ele>224.9</ele>
        <time>2016-03-28T09:03:59Z</time>
      </trkpt>
      <trkpt lat="43.32938" lon="2.135">
        <ele>224.8</ele>
        <time>2016-03-28T09:04:00Z</time>
      </trkpt>
      <trkpt lat="43.32933" lon="2.13481">
        <ele>224.4</ele>
        <time>2016-03-28T09:04:01Z</time>
      </trkpt>
      <trkpt lat="43.32927" lon="2.13462">
        <ele>223.8</ele>
        <time>2016-03-28T09:04:02Z</time>
      </trkpt>
      <trkpt lat="43.32919" lon="2.13441">
        <ele>222.8</ele>
        <time>2016-03-28T09:04:03Z</time>
      </trkpt>
      <trkpt lat="43.32911" lon="2.13422">
        <ele>222</ele>
        <time>2016-03-28T09:04:04Z</time>
      </trkpt>
      <trkpt lat="43.32902" lon="2.13403">
        <ele>221.2</ele>
        <time>2016-03-28T09:04:05Z</time>
      </trkpt>
      <trkpt lat="43.32894" lon="2.13384">
        <ele>220.5</ele>
        <time>2016-03-28T09:04:06Z</time>
      </trkpt>
      <trkpt lat="43.32886" lon="2.13365">
        <ele>219.8</ele>
        <time>2016-03-28T09:04:07Z</time>
      </trkpt>
      <trkpt lat="43.32879" lon="2.13346">
        <ele>219.1</ele>
        <time>2016-03-28T09:04:08Z</time>
      </trkpt>
      <trkpt lat="43.32873" lon="2.13326">
        <ele>218.6</ele>
        <time>2016-03-28T09:04:09Z</time>
      </trkpt>
      <trkpt lat="43.32868" lon="2.13306">
        <ele>218.3</ele>
        <time>2016-03-28T09:04:10Z</time>
      </trkpt>
      <trkpt lat="43.32864" lon="2.13287">
        <ele>218.1</ele>
        <time>2016-03-28T09:04:11Z</time>
      </trkpt>
      <trkpt lat="43.32861" lon="2.13269">
        <ele>217.7</ele>
        <time>2016-03-28T09:04:12Z</time>
      </trkpt>
      <trkpt lat="43.32862" lon="2.1325">
        <ele>217.3</ele>
        <time>2016-03-28T09:04:13Z</time>
      </trkpt>
      <trkpt lat="43.32863" lon="2.13231">
        <ele>216.8</ele>
        <time>2016-03-28T09:04:14Z</time>
      </trkpt>
      <trkpt lat="43.32864" lon="2.13214">
        <ele>216.1</ele>
        <time>2016-03-28T09:04:15Z</time>
      </trkpt>
      <trkpt lat="43.32866" lon="2.13195">
        <ele>215.4</ele>
        <time>2016-03-28T09:04:16Z</time>
      </trkpt>
      <trkpt lat="43.32869" lon="2.13176">
        <ele>214.8</ele>
        <time>2016-03-28T09:04:17Z</time>
      </trkpt>
      <trkpt lat="43.32872" lon="2.13158">
        <ele>214.4</ele>
        <time>2016-03-28T09:04:18Z</time>
      </trkpt>
      <trkpt lat="43.32876" lon="2.13142">
        <ele>213.8</ele>
        <time>2016-03-28T09:04:19Z</time>
      </trkpt>
      <trkpt lat="43.3288" lon="2.13125">
        <ele>213</ele>
        <time>2016-03-28T09:04:20Z</time>
      </trkpt>
      <trkpt lat="43.32884" lon="2.13108">
        <ele>212.2</ele>
        <time>2016-03-28T09:04:21Z</time>
      </trkpt>
      <trkpt lat="43.32888" lon="2.1309">
        <ele>211.7</ele>
        <time>2016-03-28T09:04:22Z</time>
      </trkpt>
      <trkpt lat="43.32892" lon="2.13073">
        <ele>211.2</ele>
        <time>2016-03-28T09:04:23Z</time>
      </trkpt>
      <trkpt lat="43.32897" lon="2.13056">
        <ele>210.7</ele>
        <time>2016-03-28T09:04:24Z</time>
      </trkpt>
      <trkpt lat="43.32901" lon="2.13039">
        <ele>210.2</ele>
        <time>2016-03-28T09:04:25Z</time>
      </trkpt>
      <trkpt lat="43.32905" lon="2.13022">
        <ele>209.9</ele>
        <time>2016-03-28T09:04:26Z</time>
      </trkpt>
      <trkpt lat="43.32909" lon="2.13006">
        <ele>209.6</ele>
        <time>2016-03-28T09:04:27Z</time>
      </trkpt>
      <trkpt lat="43.32911" lon="2.12989">
        <ele>209.5</ele>
        <time>2016-03-28T09:04:28Z</time>
      </trkpt>
      <trkpt lat="43.32911" lon="2.12971">
        <ele>209.3</ele>
        <time>2016-03-28T09:04:29Z</time>
      </trkpt>
      <trkpt lat="43.32911" lon="2.12955">
        <ele>209.1</ele>
        <time>2016-03-28T09:04:30Z</time>
      </trkpt>
      <trkpt lat="43.32908" lon="2.12939">
        <ele>208.9</ele>
        <time>2016-03-28T09:04:31Z</time>
      </trkpt>
      <trkpt lat="43.32904" lon="2.12924">
        <ele>208.6</ele>
        <time>2016-03-28T09:04:32Z</time>
      </trkpt>
      <trkpt lat="43.329" lon="2.12908">
        <ele>208.1</ele>
        <time>2016-03-28T09:04:33Z</time>
      </trkpt>
      <trkpt lat="43.32896" lon="2.12892">
        <ele>207.5</ele>
        <time>2016-03-28T09:04:34Z</time>
      </trkpt>
      <trkpt lat="43.32891" lon="2.12876">
        <ele>207.1</ele>
        <time>2016-03-28T09:04:35Z</time>
      </trkpt>
      <trkpt lat="43.32886" lon="2.12861">
        <ele>206.8</ele>
        <time>2016-03-28T09:04:36Z</time>
      </trkpt>
      <trkpt lat="43.3288" lon="2.12847">
        <ele>206.5</ele>
        <time>2016-03-28T09:04:37Z</time>
      </trkpt>
      <trkpt lat="43.32873" lon="2.12834">
        <ele>206.2</ele>
        <time>2016-03-28T09:04:38Z</time>
      </trkpt>
      <trkpt lat="43.32866" lon="2.12822">
        <ele>205.9</ele>
        <time>2016-03-28T09:04:39Z</time>
      </trkpt>
      <trkpt lat="43.32859" lon="2.12812">
        <ele>205.5</ele>
        <time>2016-03-28T09:04:40Z</time>
      </trkpt>
      <trkpt lat="43.32852" lon="2.128">
        <ele>204.9</ele>
        <time>2016-03-28T09:04:41Z</time>
      </trkpt>
      <trkpt lat="43.32845" lon="2.12786">
        <ele>204.3</ele>
        <time>2016-03-28T09:04:42Z</time>
      </trkpt>
      <trkpt lat="43.32842" lon="2.12774">
        <ele>203.8</ele>
        <time>2016-03-28T09:04:43Z</time>
      </trkpt>
      <trkpt lat="43.3284" lon="2.12749">
        <ele>202.1</ele>
        <time>2016-03-28T09:04:45Z</time>
      </trkpt>
      <trkpt lat="43.32838" lon="2.12734">
        <ele>201.6</ele>
        <time>2016-03-28T09:04:46Z</time>
      </trkpt>
      <trkpt lat="43.32836" lon="2.12719">
        <ele>200.8</ele>
        <time>2016-03-28T09:04:47Z</time>
      </trkpt>
      <trkpt lat="43.3283" lon="2.12704">
        <ele>200.1</ele>
        <time>2016-03-28T09:04:48Z</time>
      </trkpt>
      <trkpt lat="43.32822" lon="2.12692">
        <ele>199.3</ele>
        <time>2016-03-28T09:04:49Z</time>
      </trkpt>
      <trkpt lat="43.32813" lon="2.12681">
        <ele>198.3</ele>
        <time>2016-03-28T09:04:50Z</time>
      </trkpt>
      <trkpt lat="43.32804" lon="2.1267">
        <ele>197.4</ele>
        <time>2016-03-28T09:04:51Z</time>
      </trkpt>
      <trkpt lat="43.32794" lon="2.1266">
        <ele>196.8</ele>
        <time>2016-03-28T09:04:52Z</time>
      </trkpt>
      <trkpt lat="43.32786" lon="2.1265">
        <ele>196.2</ele>
        <time>2016-03-28T09:04:53Z</time>
      </trkpt>
      <trkpt lat="43.32777" lon="2.12639">
        <ele>195.6</ele>
        <time>2016-03-28T09:04:54Z</time>
      </trkpt>
      <trkpt lat="43.32768" lon="2.12628">
        <ele>195.1</ele>
        <time>2016-03-28T09:04:55Z</time>
      </trkpt>
      <trkpt lat="43.3276" lon="2.12617">
        <ele>193.8</ele>
        <time>2016-03-28T09:04:56Z</time>
      </trkpt>
      <trkpt lat="43.32752" lon="2.12607">
        <ele>192.6</ele>
        <time>2016-03-28T09:04:57Z</time>
      </trkpt>
      <trkpt lat="43.32743" lon="2.126">
        <ele>191.6</ele>
        <time>2016-03-28T09:04:58Z</time>
      </trkpt>
      <trkpt lat="43.32733" lon="2.12593">
        <ele>190.4</ele>
        <time>2016-03-28T09:04:59Z</time>
      </trkpt>
      <trkpt lat="43.32722" lon="2.12588">
        <ele>189.6</ele>
        <time>2016-03-28T09:05:00Z</time>
      </trkpt>
      <trkpt lat="43.32706" lon="2.12584">
        <ele>187.9</ele>
        <time>2016-03-28T09:05:02Z</time>
      </trkpt>
      <trkpt lat="43.32693" lon="2.12574">
        <ele>187.7</ele>
        <time>2016-03-28T09:05:04Z</time>
      </trkpt>
      <trkpt lat="43.32677" lon="2.1256">
        <ele>187</ele>
        <time>2016-03-28T09:05:06Z</time>
      </trkpt>
      <trkpt lat="43.32664" lon="2.12546">
        <ele>186.7</ele>
        <time>2016-03-28T09:05:08Z</time>
      </trkpt>
      <trkpt lat="43.32651" lon="2.12536">
        <ele>185.7</ele>
        <time>2016-03-28T09:05:10Z</time>
      </trkpt>
      <trkpt lat="43.32636" lon="2.12528">
        <ele>185.9</ele>
        <time>2016-03-28T09:05:12Z</time>
      </trkpt>
      <trkpt lat="43.32621" lon="2.12524">
        <ele>186</ele>
        <time>2016-03-28T09:05:14Z</time>
      </trkpt>
      <trkpt lat="43.32604" lon="2.12521">
        <ele>185.5</ele>
        <time>2016-03-28T09:05:16Z</time>
      </trkpt>
      <trkpt lat="43.32588" lon="2.12517">
        <ele>185.2</ele>
        <time>2016-03-28T09:05:18Z</time>
      </trkpt>
      <trkpt lat="43.32573" lon="2.12514">
        <ele>184.2</ele>
        <time>2016-03-28T09:05:20Z</time>
      </trkpt>
      <trkpt lat="43.32559" lon="2.12512">
        <ele>183.5</ele>
        <time>2016-03-28T09:05:22Z</time>
      </trkpt>
      <trkpt lat="43.32547" lon="2.12506">
        <ele>183</ele>
        <time>2016-03-28T09:05:25Z</time>
      </trkpt>
      <trkpt lat="43.32551" lon="2.12493">
        <ele>182.9</ele>
        <time>2016-03-28T09:05:28Z</time>
      </trkpt>
      <trkpt lat="43.32565" lon="2.1249">
        <ele>182.5</ele>
        <time>2016-03-28T09:05:31Z</time>
      </trkpt>
      <trkpt lat="43.32578" lon="2.12489">
        <ele>182.9</ele>
        <time>2016-03-28T09:05:33Z</time>
      </trkpt>
      <trkpt lat="43.32592" lon="2.12488">
        <ele>182.2</ele>
        <time>2016-03-28T09:05:35Z</time>
      </trkpt>
      <trkpt lat="43.32603" lon="2.12488">
        <ele>181.6</ele>
        <time>2016-03-28T09:05:37Z</time>
      </trkpt>
      <trkpt lat="43.32614" lon="2.12486">
        <ele>181.4</ele>
        <time>2016-03-28T09:05:39Z</time>
      </trkpt>
      <trkpt lat="43.32625" lon="2.12482">
        <ele>179</ele>
        <time>2016-03-28T09:05:41Z</time>
      </trkpt>
      <trkpt lat="43.32633" lon="2.12473">
        <ele>177.4</ele>
        <time>2016-03-28T09:05:43Z</time>
      </trkpt>
      <trkpt lat="43.32642" lon="2.12458">
        <ele>177.5</ele>
        <time>2016-03-28T09:05:45Z</time>
      </trkpt>
      <trkpt lat="43.3265" lon="2.12438">
        <ele>177.8</ele>
        <time>2016-03-28T09:05:47Z</time>
      </trkpt>
      <trkpt lat="43.32656" lon="2.12426">
        <ele>177.5</ele>
        <time>2016-03-28T09:05:48Z</time>
      </trkpt>
      <trkpt lat="43.32662" lon="2.12413">
        <ele>177.1</ele>
        <time>2016-03-28T09:05:49Z</time>
      </trkpt>
      <trkpt lat="43.3267" lon="2.12392">
        <ele>176.9</ele>
        <time>2016-03-28T09:05:51Z</time>
      </trkpt>
      <trkpt lat="43.32677" lon="2.12372">
        <ele>176.5</ele>
        <time>2016-03-28T09:05:53Z</time>
      </trkpt>
      <trkpt lat="43.32682" lon="2.1236">
        <ele>176.7</ele>
        <time>2016-03-28T09:05:54Z</time>
      </trkpt>
      <trkpt lat="43.32687" lon="2.12349">
        <ele>176.5</ele>
        <time>2016-03-28T09:05:55Z</time>
      </trkpt>
      <trkpt lat="43.32692" lon="2.12337">
        <ele>176.5</ele>
        <time>2016-03-28T09:05:56Z</time>
      </trkpt>
      <trkpt lat="43.327" lon="2.12316">
        <ele>175.9</ele>
        <time>2016-03-28T09:05:58Z</time>
      </trkpt>
      <trkpt lat="43.32709" lon="2.12296">
        <ele>174.4</ele>
        <time>2016-03-28T09:06:00Z</time>
      </trkpt>
      <trkpt lat="43.32717" lon="2.12277">
        <ele>172.4</ele>
        <time>2016-03-28T09:06:02Z</time>
      </trkpt>
      <trkpt lat="43.32724" lon="2.1226">
        <ele>171.4</ele>
        <time>2016-03-28T09:06:04Z</time>
      </trkpt>
      <trkpt lat="43.32731" lon="2.12242">
        <ele>171</ele>
        <time>2016-03-28T09:06:06Z</time>
      </trkpt>
      <trkpt lat="43.32739" lon="2.1222">
        <ele>170.6</ele>
        <time>2016-03-28T09:06:08Z</time>
      </trkpt>
      <trkpt lat="43.32747" lon="2.12199">
        <ele>171.1</ele>
        <time>2016-03-28T09:06:10Z</time>
      </trkpt>
      <trkpt lat="43.32755" lon="2.1218">
        <ele>171.6</ele>
        <time>2016-03-28T09:06:12Z</time>
      </trkpt>
      <trkpt lat="43.32763" lon="2.1216">
        <ele>172.7</ele>
        <time>2016-03-28T09:06:14Z</time>
      </trkpt>
      <trkpt lat="43.32767" lon="2.12149">
        <ele>172.8</ele>
        <time>2016-03-28T09:06:15Z</time>
      </trkpt>
      <trkpt lat="43.32776" lon="2.12129">
        <ele>172.5</ele>
        <time>2016-03-28T09:06:17Z</time>
      </trkpt>
      <trkpt lat="43.3278" lon="2.12118">
        <ele>172.3</ele>
        <time>2016-03-28T09:06:18Z</time>
      </trkpt>
      <trkpt lat="43.32787" lon="2.12098">
        <ele>172.3</ele>
        <time>2016-03-28T09:06:20Z</time>
      </trkpt>
      <trkpt lat="43.32794" lon="2.12078">
        <ele>172.1</ele>
        <time>2016-03-28T09:06:22Z</time>
      </trkpt>
      <trkpt lat="43.32802" lon="2.12056">
        <ele>172.6</ele>
        <time>2016-03-28T09:06:24Z</time>
      </trkpt>
      <trkpt lat="43.32809" lon="2.12036">
        <ele>173.4</ele>
        <time>2016-03-28T09:06:26Z</time>
      </trkpt>
      <trkpt lat="43.32819" lon="2.12015">
        <ele>173.7</ele>
        <time>2016-03-28T09:06:28Z</time>
      </trkpt>
      <trkpt lat="43.32828" lon="2.11999">
        <ele>173.9</ele>
        <time>2016-03-28T09:06:30Z</time>
      </trkpt>
      <trkpt lat="43.32835" lon="2.1199">
        <ele>174</ele>
        <time>2016-03-28T09:06:31Z</time>
      </trkpt>
      <trkpt lat="43.32847" lon="2.11978">
        <ele>173.3</ele>
        <time>2016-03-28T09:06:33Z</time>
      </trkpt>
      <trkpt lat="43.32864" lon="2.1197">
        <ele>173.1</ele>
        <time>2016-03-28T09:06:35Z</time>
      </trkpt>
      <trkpt lat="43.32883" lon="2.11961">
        <ele>174.3</ele>
        <time>2016-03-28T09:06:37Z</time>
      </trkpt>
      <trkpt lat="43.32899" lon="2.11954">
        <ele>174.7</ele>
        <time>2016-03-28T09:06:39Z</time>
      </trkpt>
      <trkpt lat="43.32916" lon="2.11947">
        <ele>173.4</ele>
        <time>2016-03-28T09:06:41Z</time>
      </trkpt>
      <trkpt lat="43.32925" lon="2.11944">
        <ele>172.8</ele>
        <time>2016-03-28T09:06:42Z</time>
      </trkpt>
      <trkpt lat="43.32934" lon="2.11939">
        <ele>171.6</ele>
        <time>2016-03-28T09:06:43Z</time>
      </trkpt>
      <trkpt lat="43.32943" lon="2.11935">
        <ele>170.8</ele>
        <time>2016-03-28T09:06:44Z</time>
      </trkpt>
      <trkpt lat="43.32959" lon="2.11926">
        <ele>169</ele>
        <time>2016-03-28T09:06:46Z</time>
      </trkpt>
      <trkpt lat="43.32972" lon="2.11916">
        <ele>169.5</ele>
        <time>2016-03-28T09:06:48Z</time>
      </trkpt>
      <trkpt lat="43.32984" lon="2.11902">
        <ele>170.4</ele>
        <time>2016-03-28T09:06:50Z</time>
      </trkpt>
      <trkpt lat="43.32998" lon="2.11885">
        <ele>172</ele>
        <time>2016-03-28T09:06:52Z</time>
      </trkpt>
      <trkpt lat="43.33005" lon="2.11866">
        <ele>172.9</ele>
        <time>2016-03-28T09:06:54Z</time>
      </trkpt>
      <trkpt lat="43.33011" lon="2.11855">
        <ele>173.4</ele>
        <time>2016-03-28T09:06:55Z</time>
      </trkpt>
      <trkpt lat="43.33016" lon="2.11845">
        <ele>174</ele>
        <time>2016-03-28T09:06:56Z</time>
      </trkpt>
      <trkpt lat="43.33023" lon="2.1183">
        <ele>175.5</ele>
        <time>2016-03-28T09:06:58Z</time>
      </trkpt>
      <trkpt lat="43.33031" lon="2.1182">
        <ele>176.2</ele>
        <time>2016-03-28T09:07:00Z</time>
      </trkpt>
      <trkpt lat="43.33041" lon="2.11814">
        <ele>177.8</ele>
        <time>2016-03-28T09:07:02Z</time>
      </trkpt>
      <trkpt lat="43.33052" lon="2.11809">
        <ele>179.1</ele>
        <time>2016-03-28T09:07:04Z</time>
      </trkpt>
      <trkpt lat="43.33062" lon="2.11802">
        <ele>179.6</ele>
        <time>2016-03-28T09:07:06Z</time>
      </trkpt>
      <trkpt lat="43.33071" lon="2.11794">
        <ele>180.2</ele>
        <time>2016-03-28T09:07:08Z</time>
      </trkpt>
      <trkpt lat="43.3308" lon="2.11786">
        <ele>180.6</ele>
        <time>2016-03-28T09:07:10Z</time>
      </trkpt>
      <trkpt lat="43.33091" lon="2.11778">
        <ele>181</ele>
        <time>2016-03-28T09:07:12Z</time>
      </trkpt>
      <trkpt lat="43.33099" lon="2.11773">
        <ele>181.9</ele>
        <time>2016-03-28T09:07:14Z</time>
      </trkpt>
      <trkpt lat="43.33109" lon="2.11769">
        <ele>182.2</ele>
        <time>2016-03-28T09:07:16Z</time>
      </trkpt>
      <trkpt lat="43.33119" lon="2.11765">
        <ele>182.2</ele>
        <time>2016-03-28T09:07:18Z</time>
      </trkpt>
      <trkpt lat="43.33131" lon="2.11759">
        <ele>181.1</ele>
        <time>2016-03-28T09:07:20Z</time>
      </trkpt>
      <trkpt lat="43.3314" lon="2.11756">
        <ele>181.4</ele>
        <time>2016-03-28T09:07:22Z</time>
      </trkpt>
      <trkpt lat="43.33149" lon="2.11752">
        <ele>182.6</ele>
        <time>2016-03-28T09:07:24Z</time>
      </trkpt>
      <trkpt lat="43.3316" lon="2.11744">
        <ele>182.7</ele>
        <time>2016-03-28T09:07:27Z</time>
      </trkpt>
      <trkpt lat="43.3316" lon="2.11726">
        <ele>184</ele>
        <time>2016-03-28T09:07:30Z</time>
      </trkpt>
      <trkpt lat="43.33159" lon="2.1171">
        <ele>185.6</ele>
        <time>2016-03-28T09:07:32Z</time>
      </trkpt>
      <trkpt lat="43.33156" lon="2.11692">
        <ele>186.8</ele>
        <time>2016-03-28T09:07:34Z</time>
      </trkpt>
      <trkpt lat="43.33152" lon="2.11676">
        <ele>186.5</ele>
        <time>2016-03-28T09:07:37Z</time>
      </trkpt>
      <trkpt lat="43.33148" lon="2.11664">
        <ele>186.1</ele>
        <time>2016-03-28T09:07:39Z</time>
      </trkpt>
      <trkpt lat="43.33143" lon="2.11648">
        <ele>185.9</ele>
        <time>2016-03-28T09:07:41Z</time>
      </trkpt>
      <trkpt lat="43.33138" lon="2.11629">
        <ele>185.2</ele>
        <time>2016-03-28T09:07:43Z</time>
      </trkpt>
      <trkpt lat="43.33133" lon="2.11608">
        <ele>184.4</ele>
        <time>2016-03-28T09:07:45Z</time>
      </trkpt>
      <trkpt lat="43.33127" lon="2.11587">
        <ele>183.8</ele>
        <time>2016-03-28T09:07:47Z</time>
      </trkpt>
      <trkpt lat="43.33122" lon="2.11564">
        <ele>183.2</ele>
        <time>2016-03-28T09:07:49Z</time>
      </trkpt>
      <trkpt lat="43.33117" lon="2.11541">
        <ele>182.6</ele>
        <time>2016-03-28T09:07:51Z</time>
      </trkpt>
      <trkpt lat="43.33114" lon="2.11528">
        <ele>182.6</ele>
        <time>2016-03-28T09:07:52Z</time>
      </trkpt>
      <trkpt lat="43.33111" lon="2.11515">
        <ele>182.6</ele>
        <time>2016-03-28T09:07:53Z</time>
      </trkpt>
      <trkpt lat="43.33108" lon="2.11502">
        <ele>182.9</ele>
        <time>2016-03-28T09:07:54Z</time>
      </trkpt>
      <trkpt lat="43.33105" lon="2.11488">
        <ele>183.5</ele>
        <time>2016-03-28T09:07:55Z</time>
      </trkpt>
      <trkpt lat="43.33103" lon="2.11475">
        <ele>184.2</ele>
        <time>2016-03-28T09:07:56Z</time>
      </trkpt>
      <trkpt lat="43.331" lon="2.11462">
        <ele>185.1</ele>
        <time>2016-03-28T09:07:57Z</time>
      </trkpt>
      <trkpt lat="43.33091" lon="2.11444">
        <ele>186.5</ele>
        <time>2016-03-28T09:07:59Z</time>
      </trkpt>
      <trkpt lat="43.33077" lon="2.11438">
        <ele>187.3</ele>
        <time>2016-03-28T09:08:01Z</time>
      </trkpt>
      <trkpt lat="43.33062" lon="2.11442">
        <ele>188.2</ele>
        <time>2016-03-28T09:08:03Z</time>
      </trkpt>
      <trkpt lat="43.33052" lon="2.1146">
        <ele>189.3</ele>
        <time>2016-03-28T09:08:05Z</time>
      </trkpt>
      <trkpt lat="43.33048" lon="2.11471">
        <ele>189.5</ele>
        <time>2016-03-28T09:08:06Z</time>
      </trkpt>
      <trkpt lat="43.3304" lon="2.11491">
        <ele>189.2</ele>
        <time>2016-03-28T09:08:08Z</time>
      </trkpt>
      <trkpt lat="43.33033" lon="2.11513">
        <ele>187.9</ele>
        <time>2016-03-28T09:08:10Z</time>
      </trkpt>
      <trkpt lat="43.33029" lon="2.11525">
        <ele>187.3</ele>
        <time>2016-03-28T09:08:11Z</time>
      </trkpt>
      <trkpt lat="43.3302" lon="2.11547">
        <ele>187.3</ele>
        <time>2016-03-28T09:08:13Z</time>
      </trkpt>
      <trkpt lat="43.33014" lon="2.11557">
        <ele>187.3</ele>
        <time>2016-03-28T09:08:14Z</time>
      </trkpt>
      <trkpt lat="43.33007" lon="2.11566">
        <ele>187.5</ele>
        <time>2016-03-28T09:08:15Z</time>
      </trkpt>
      <trkpt lat="43.32998" lon="2.11572">
        <ele>188.3</ele>
        <time>2016-03-28T09:08:16Z</time>
      </trkpt>
      <trkpt lat="43.32981" lon="2.11583">
        <ele>190.3</ele>
        <time>2016-03-28T09:08:18Z</time>
      </trkpt>
      <trkpt lat="43.32965" lon="2.11592">
        <ele>191.6</ele>
        <time>2016-03-28T09:08:20Z</time>
      </trkpt>
      <trkpt lat="43.32947" lon="2.11588">
        <ele>192.6</ele>
        <time>2016-03-28T09:08:22Z</time>
      </trkpt>
      <trkpt lat="43.32938" lon="2.11571">
        <ele>193.2</ele>
        <time>2016-03-28T09:08:24Z</time>
      </trkpt>
      <trkpt lat="43.32939" lon="2.11549">
        <ele>194.5</ele>
        <time>2016-03-28T09:08:26Z</time>
      </trkpt>
      <trkpt lat="43.3294" lon="2.11535">
        <ele>195.2</ele>
        <time>2016-03-28T09:08:27Z</time>
      </trkpt>
      <trkpt lat="43.32941" lon="2.11522">
        <ele>195.7</ele>
        <time>2016-03-28T09:08:28Z</time>
      </trkpt>
      <trkpt lat="43.32938" lon="2.11499">
        <ele>197</ele>
        <time>2016-03-28T09:08:30Z</time>
      </trkpt>
      <trkpt lat="43.32936" lon="2.11485">
        <ele>197</ele>
        <time>2016-03-28T09:08:31Z</time>
      </trkpt>
      <trkpt lat="43.32933" lon="2.11472">
        <ele>196.6</ele>
        <time>2016-03-28T09:08:32Z</time>
      </trkpt>
      <trkpt lat="43.3293" lon="2.1146">
        <ele>196.7</ele>
        <time>2016-03-28T09:08:33Z</time>
      </trkpt>
      <trkpt lat="43.32924" lon="2.11436">
        <ele>196.8</ele>
        <time>2016-03-28T09:08:35Z</time>
      </trkpt>
      <trkpt lat="43.32921" lon="2.11424">
        <ele>196.6</ele>
        <time>2016-03-28T09:08:36Z</time>
      </trkpt>
      <trkpt lat="43.32921" lon="2.11402">
        <ele>196.8</ele>
        <time>2016-03-28T09:08:38Z</time>
      </trkpt>
      <trkpt lat="43.32924" lon="2.1138">
        <ele>196.9</ele>
        <time>2016-03-28T09:08:40Z</time>
      </trkpt>
      <trkpt lat="43.32927" lon="2.11356">
        <ele>198.1</ele>
        <time>2016-03-28T09:08:42Z</time>
      </trkpt>
      <trkpt lat="43.32929" lon="2.11344">
        <ele>198.8</ele>
        <time>2016-03-28T09:08:43Z</time>
      </trkpt>
      <trkpt lat="43.32933" lon="2.11321">
        <ele>199.8</ele>
        <time>2016-03-28T09:08:45Z</time>
      </trkpt>
      <trkpt lat="43.32936" lon="2.11297">
        <ele>200.3</ele>
        <time>2016-03-28T09:08:47Z</time>
      </trkpt>
      <trkpt lat="43.32942" lon="2.11274">
        <ele>201.2</ele>
        <time>2016-03-28T09:08:49Z</time>
      </trkpt>
      <trkpt lat="43.32946" lon="2.11261">
        <ele>202.6</ele>
        <time>2016-03-28T09:08:50Z</time>
      </trkpt>
      <trkpt lat="43.32952" lon="2.11247">
        <ele>203.6</ele>
        <time>2016-03-28T09:08:51Z</time>
      </trkpt>
      <trkpt lat="43.32957" lon="2.11237">
        <ele>205</ele>
        <time>2016-03-28T09:08:52Z</time>
      </trkpt>
      <trkpt lat="43.32966" lon="2.11217">
        <ele>206.9</ele>
        <time>2016-03-28T09:08:54Z</time>
      </trkpt>
      <trkpt lat="43.32972" lon="2.11207">
        <ele>207.5</ele>
        <time>2016-03-28T09:08:55Z</time>
      </trkpt>
      <trkpt lat="43.32978" lon="2.11197">
        <ele>208.3</ele>
        <time>2016-03-28T09:08:56Z</time>
      </trkpt>
      <trkpt lat="43.32988" lon="2.1118">
        <ele>209.3</ele>
        <time>2016-03-28T09:08:58Z</time>
      </trkpt>
      <trkpt lat="43.32994" lon="2.11168">
        <ele>210.5</ele>
        <time>2016-03-28T09:09:00Z</time>
      </trkpt>
      <trkpt lat="43.32988" lon="2.11155">
        <ele>213.5</ele>
        <time>2016-03-28T09:09:03Z</time>
      </trkpt>
      <trkpt lat="43.32979" lon="2.11143">
        <ele>216.5</ele>
        <time>2016-03-28T09:09:06Z</time>
      </trkpt>
      <trkpt lat="43.32971" lon="2.11133">
        <ele>218.1</ele>
        <time>2016-03-28T09:09:08Z</time>
      </trkpt>
      <trkpt lat="43.32965" lon="2.11123">
        <ele>219.9</ele>
        <time>2016-03-28T09:09:10Z</time>
      </trkpt>
      <trkpt lat="43.32956" lon="2.11111">
        <ele>221.4</ele>
        <time>2016-03-28T09:09:13Z</time>
      </trkpt>
      <trkpt lat="43.32949" lon="2.11102">
        <ele>222.4</ele>
        <time>2016-03-28T09:09:15Z</time>
      </trkpt>
      <trkpt lat="43.32939" lon="2.11091">
        <ele>223.8</ele>
        <time>2016-03-28T09:09:18Z</time>
      </trkpt>
      <trkpt lat="43.3293" lon="2.11082">
        <ele>223.7</ele>
        <time>2016-03-28T09:09:24Z</time>
      </trkpt>
      <trkpt lat="43.3292" lon="2.11071">
        <ele>221.8</ele>
        <time>2016-03-28T09:09:28Z</time>
      </trkpt>
      <trkpt lat="43.32911" lon="2.11063">
        <ele>221.4</ele>
        <time>2016-03-28T09:09:30Z</time>
      </trkpt>
      <trkpt lat="43.32903" lon="2.11055">
        <ele>221.5</ele>
        <time>2016-03-28T09:09:32Z</time>
      </trkpt>
      <trkpt lat="43.32895" lon="2.11048">
        <ele>221.9</ele>
        <time>2016-03-28T09:09:34Z</time>
      </trkpt>
      <trkpt lat="43.32887" lon="2.11041">
        <ele>222.5</ele>
        <time>2016-03-28T09:09:36Z</time>
      </trkpt>
      <trkpt lat="43.32879" lon="2.11033">
        <ele>223.1</ele>
        <time>2016-03-28T09:09:38Z</time>
      </trkpt>
      <trkpt lat="43.32871" lon="2.11026">
        <ele>224.3</ele>
        <time>2016-03-28T09:09:40Z</time>
      </trkpt>
      <trkpt lat="43.32863" lon="2.11018">
        <ele>226.2</ele>
        <time>2016-03-28T09:09:42Z</time>
      </trkpt>
      <trkpt lat="43.32854" lon="2.11009">
        <ele>227.8</ele>
        <time>2016-03-28T09:09:44Z</time>
      </trkpt>
      <trkpt lat="43.32846" lon="2.11">
        <ele>229.3</ele>
        <time>2016-03-28T09:09:46Z</time>
      </trkpt>
      <trkpt lat="43.32838" lon="2.10992">
        <ele>230.2</ele>
        <time>2016-03-28T09:09:48Z</time>
      </trkpt>
      <trkpt lat="43.32829" lon="2.10984">
        <ele>231.5</ele>
        <time>2016-03-28T09:09:50Z</time>
      </trkpt>
      <trkpt lat="43.3282" lon="2.10977">
        <ele>231.9</ele>
        <time>2016-03-28T09:09:53Z</time>
      </trkpt>
      <trkpt lat="43.32814" lon="2.10986">
        <ele>232.6</ele>
        <time>2016-03-28T09:09:56Z</time>
      </trkpt>
      <trkpt lat="43.32808" lon="2.11001">
        <ele>233.5</ele>
        <time>2016-03-28T09:10:00Z</time>
      </trkpt>
      <trkpt lat="43.32803" lon="2.11015">
        <ele>234</ele>
        <time>2016-03-28T09:10:03Z</time>
      </trkpt>
      <trkpt lat="43.32798" lon="2.11026">
        <ele>234.8</ele>
        <time>2016-03-28T09:10:07Z</time>
      </trkpt>
      <trkpt lat="43.32789" lon="2.11036">
        <ele>235.6</ele>
        <time>2016-03-28T09:10:54Z</time>
      </trkpt>
      <trkpt lat="43.32783" lon="2.11048">
        <ele>235.9</ele>
        <time>2016-03-28T09:10:58Z</time>
      </trkpt>
      <trkpt lat="43.32777" lon="2.11059">
        <ele>236.2</ele>
        <time>2016-03-28T09:11:01Z</time>
      </trkpt>
      <trkpt lat="43.32769" lon="2.11073">
        <ele>236.5</ele>
        <time>2016-03-28T09:11:05Z</time>
      </trkpt>
      <trkpt lat="43.32763" lon="2.11085">
        <ele>236.8</ele>
        <time>2016-03-28T09:11:08Z</time>
      </trkpt>
      <trkpt lat="43.32755" lon="2.11101">
        <ele>238.3</ele>
        <time>2016-03-28T09:11:11Z</time>
      </trkpt>
      <trkpt lat="43.32749" lon="2.11112">
        <ele>239.1</ele>
        <time>2016-03-28T09:11:13Z</time>
      </trkpt>
      <trkpt lat="43.32742" lon="2.11124">
        <ele>239.6</ele>
        <time>2016-03-28T09:11:15Z</time>
      </trkpt>
      <trkpt lat="43.32737" lon="2.11135">
        <ele>239.6</ele>
        <time>2016-03-28T09:11:17Z</time>
      </trkpt>
      <trkpt lat="43.32731" lon="2.11145">
        <ele>239.4</ele>
        <time>2016-03-28T09:11:19Z</time>
      </trkpt>
      <trkpt lat="43.32725" lon="2.11157">
        <ele>239.7</ele>
        <time>2016-03-28T09:11:21Z</time>
      </trkpt>
      <trkpt lat="43.32717" lon="2.11175">
        <ele>240.8</ele>
        <time>2016-03-28T09:11:24Z</time>
      </trkpt>
      <trkpt lat="43.32712" lon="2.11191">
        <ele>241.3</ele>
        <time>2016-03-28T09:11:26Z</time>
      </trkpt>
      <trkpt lat="43.32708" lon="2.11205">
        <ele>241.8</ele>
        <time>2016-03-28T09:11:28Z</time>
      </trkpt>
      <trkpt lat="43.32704" lon="2.11221">
        <ele>241.5</ele>
        <time>2016-03-28T09:11:30Z</time>
      </trkpt>
      <trkpt lat="43.32698" lon="2.11238">
        <ele>241.8</ele>
        <time>2016-03-28T09:11:32Z</time>
      </trkpt>
      <trkpt lat="43.32691" lon="2.11255">
        <ele>242.3</ele>
        <time>2016-03-28T09:11:34Z</time>
      </trkpt>
      <trkpt lat="43.32685" lon="2.11272">
        <ele>243</ele>
        <time>2016-03-28T09:11:36Z</time>
      </trkpt>
      <trkpt lat="43.32679" lon="2.11287">
        <ele>243.8</ele>
        <time>2016-03-28T09:11:38Z</time>
      </trkpt>
      <trkpt lat="43.32672" lon="2.11303">
        <ele>243.8</ele>
        <time>2016-03-28T09:11:40Z</time>
      </trkpt>
      <trkpt lat="43.32665" lon="2.1132">
        <ele>244.3</ele>
        <time>2016-03-28T09:11:42Z</time>
      </trkpt>
      <trkpt lat="43.32658" lon="2.11335">
        <ele>245</ele>
        <time>2016-03-28T09:11:44Z</time>
      </trkpt>
      <trkpt lat="43.32651" lon="2.1135">
        <ele>244.9</ele>
        <time>2016-03-28T09:11:46Z</time>
      </trkpt>
      <trkpt lat="43.32644" lon="2.11366">
        <ele>244.7</ele>
        <time>2016-03-28T09:11:49Z</time>
      </trkpt>
      <trkpt lat="43.32638" lon="2.1138">
        <ele>242.9</ele>
        <time>2016-03-28T09:11:51Z</time>
      </trkpt>
      <trkpt lat="43.32632" lon="2.11393">
        <ele>241.7</ele>
        <time>2016-03-28T09:11:53Z</time>
      </trkpt>
      <trkpt lat="43.32623" lon="2.11407">
        <ele>241.4</ele>
        <time>2016-03-28T09:11:55Z</time>
      </trkpt>
      <trkpt lat="43.32614" lon="2.11417">
        <ele>240.3</ele>
        <time>2016-03-28T09:11:57Z</time>
      </trkpt>
      <trkpt lat="43.32607" lon="2.11427">
        <ele>239.6</ele>
        <time>2016-03-28T09:11:59Z</time>
      </trkpt>
      <trkpt lat="43.32596" lon="2.11439">
        <ele>238.3</ele>
        <time>2016-03-28T09:12:01Z</time>
      </trkpt>
      <trkpt lat="43.32589" lon="2.11448">
        <ele>238.4</ele>
        <time>2016-03-28T09:12:02Z</time>
      </trkpt>
      <trkpt lat="43.32578" lon="2.11463">
        <ele>239.5</ele>
        <time>2016-03-28T09:12:04Z</time>
      </trkpt>
      <trkpt lat="43.32571" lon="2.11471">
        <ele>239.8</ele>
        <time>2016-03-28T09:12:05Z</time>
      </trkpt>
      <trkpt lat="43.32556" lon="2.11486">
        <ele>239.5</ele>
        <time>2016-03-28T09:12:07Z</time>
      </trkpt>
      <trkpt lat="43.32548" lon="2.11494">
        <ele>238.7</ele>
        <time>2016-03-28T09:12:08Z</time>
      </trkpt>
      <trkpt lat="43.32533" lon="2.11507">
        <ele>237.8</ele>
        <time>2016-03-28T09:12:10Z</time>
      </trkpt>
      <trkpt lat="43.32521" lon="2.11517">
        <ele>238.1</ele>
        <time>2016-03-28T09:12:12Z</time>
      </trkpt>
      <trkpt lat="43.32509" lon="2.11524">
        <ele>239.2</ele>
        <time>2016-03-28T09:12:14Z</time>
      </trkpt>
      <trkpt lat="43.32499" lon="2.11529">
        <ele>239.2</ele>
        <time>2016-03-28T09:12:17Z</time>
      </trkpt>
      <trkpt lat="43.32488" lon="2.11536">
        <ele>239.6</ele>
        <time>2016-03-28T09:12:20Z</time>
      </trkpt>
      <trkpt lat="43.32478" lon="2.11541">
        <ele>239.8</ele>
        <time>2016-03-28T09:12:23Z</time>
      </trkpt>
      <trkpt lat="43.32468" lon="2.11545">
        <ele>240.9</ele>
        <time>2016-03-28T09:12:25Z</time>
      </trkpt>
      <trkpt lat="43.32457" lon="2.11551">
        <ele>241.9</ele>
        <time>2016-03-28T09:12:27Z</time>
      </trkpt>
      <trkpt lat="43.32444" lon="2.11561">
        <ele>242.1</ele>
        <time>2016-03-28T09:12:30Z</time>
      </trkpt>
      <trkpt lat="43.32436" lon="2.11568">
        <ele>241.5</ele>
        <time>2016-03-28T09:12:32Z</time>
      </trkpt>
      <trkpt lat="43.32429" lon="2.11575">
        <ele>241.1</ele>
        <time>2016-03-28T09:12:34Z</time>
      </trkpt>
      <trkpt lat="43.32419" lon="2.11579">
        <ele>240.8</ele>
        <time>2016-03-28T09:12:36Z</time>
      </trkpt>
      <trkpt lat="43.32409" lon="2.11585">
        <ele>240.7</ele>
        <time>2016-03-28T09:12:38Z</time>
      </trkpt>
      <trkpt lat="43.32399" lon="2.11593">
        <ele>240.6</ele>
        <time>2016-03-28T09:12:40Z</time>
      </trkpt>
      <trkpt lat="43.32388" lon="2.11602">
        <ele>240.1</ele>
        <time>2016-03-28T09:12:42Z</time>
      </trkpt>
      <trkpt lat="43.32376" lon="2.11607">
        <ele>239.1</ele>
        <time>2016-03-28T09:12:44Z</time>
      </trkpt>
      <trkpt lat="43.32366" lon="2.11613">
        <ele>239</ele>
        <time>2016-03-28T09:12:46Z</time>
      </trkpt>
      <trkpt lat="43.32355" lon="2.1162">
        <ele>239.5</ele>
        <time>2016-03-28T09:12:48Z</time>
      </trkpt>
      <trkpt lat="43.32347" lon="2.11624">
        <ele>239.5</ele>
        <time>2016-03-28T09:12:50Z</time>
      </trkpt>
      <trkpt lat="43.32336" lon="2.11629">
        <ele>239.3</ele>
        <time>2016-03-28T09:12:52Z</time>
      </trkpt>
      <trkpt lat="43.32326" lon="2.11634">
        <ele>239.6</ele>
        <time>2016-03-28T09:12:54Z</time>
      </trkpt>
      <trkpt lat="43.32317" lon="2.11639">
        <ele>240.1</ele>
        <time>2016-03-28T09:12:56Z</time>
      </trkpt>
      <trkpt lat="43.32312" lon="2.1165">
        <ele>239.9</ele>
        <time>2016-03-28T09:12:59Z</time>
      </trkpt>
      <trkpt lat="43.323" lon="2.1166">
        <ele>239.8</ele>
        <time>2016-03-28T09:13:23Z</time>
      </trkpt>
      <trkpt lat="43.32293" lon="2.1167">
        <ele>240</ele>
        <time>2016-03-28T09:13:30Z</time>
      </trkpt>
      <trkpt lat="43.32287" lon="2.11679">
        <ele>240.2</ele>
        <time>2016-03-28T09:13:34Z</time>
      </trkpt>
      <trkpt lat="43.32279" lon="2.11687">
        <ele>240.7</ele>
        <time>2016-03-28T09:13:41Z</time>
      </trkpt>
      <trkpt lat="43.32272" lon="2.11695">
        <ele>241.1</ele>
        <time>2016-03-28T09:13:45Z</time>
      </trkpt>
      <trkpt lat="43.32261" lon="2.11706">
        <ele>241.3</ele>
        <time>2016-03-28T09:13:48Z</time>
      </trkpt>
      <trkpt lat="43.32254" lon="2.11713">
        <ele>241.5</ele>
        <time>2016-03-28T09:13:51Z</time>
      </trkpt>
      <trkpt lat="43.32243" lon="2.11723">
        <ele>241.6</ele>
        <time>2016-03-28T09:13:54Z</time>
      </trkpt>
      <trkpt lat="43.32232" lon="2.11732">
        <ele>242.2</ele>
        <time>2016-03-28T09:13:57Z</time>
      </trkpt>
      <trkpt lat="43.32226" lon="2.11743">
        <ele>242</ele>
        <time>2016-03-28T09:13:59Z</time>
      </trkpt>
      <trkpt lat="43.3222" lon="2.11754">
        <ele>241.2</ele>
        <time>2016-03-28T09:14:01Z</time>
      </trkpt>
      <trkpt lat="43.32212" lon="2.11766">
        <ele>239.6</ele>
        <time>2016-03-28T09:14:03Z</time>
      </trkpt>
      <trkpt lat="43.32204" lon="2.11777">
        <ele>239.4</ele>
        <time>2016-03-28T09:14:05Z</time>
      </trkpt>
      <trkpt lat="43.32197" lon="2.11788">
        <ele>239</ele>
        <time>2016-03-28T09:14:07Z</time>
      </trkpt>
      <trkpt lat="43.32189" lon="2.11798">
        <ele>238.9</ele>
        <time>2016-03-28T09:14:09Z</time>
      </trkpt>
      <trkpt lat="43.32181" lon="2.11809">
        <ele>238.7</ele>
        <time>2016-03-28T09:14:11Z</time>
      </trkpt>
      <trkpt lat="43.32172" lon="2.11818">
        <ele>238.4</ele>
        <time>2016-03-28T09:14:13Z</time>
      </trkpt>
      <trkpt lat="43.32162" lon="2.11829">
        <ele>237.3</ele>
        <time>2016-03-28T09:14:15Z</time>
      </trkpt>
      <trkpt lat="43.32152" lon="2.11838">
        <ele>236</ele>
        <time>2016-03-28T09:14:17Z</time>
      </trkpt>
      <trkpt lat="43.32142" lon="2.11848">
        <ele>235.4</ele>
        <time>2016-03-28T09:14:19Z</time>
      </trkpt>
      <trkpt lat="43.32133" lon="2.11857">
        <ele>235.4</ele>
        <time>2016-03-28T09:14:21Z</time>
      </trkpt>
      <trkpt lat="43.32125" lon="2.11865">
        <ele>235.9</ele>
        <time>2016-03-28T09:14:23Z</time>
      </trkpt>
      <trkpt lat="43.32115" lon="2.11875">
        <ele>236</ele>
        <time>2016-03-28T09:14:25Z</time>
      </trkpt>
      <trkpt lat="43.32105" lon="2.11884">
        <ele>236.1</ele>
        <time>2016-03-28T09:14:27Z</time>
      </trkpt>
      <trkpt lat="43.32096" lon="2.11893">
        <ele>235.9</ele>
        <time>2016-03-28T09:14:29Z</time>
      </trkpt>
      <trkpt lat="43.32086" lon="2.11903">
        <ele>234.9</ele>
        <time>2016-03-28T09:14:31Z</time>
      </trkpt>
      <trkpt lat="43.32076" lon="2.11912">
        <ele>234.2</ele>
        <time>2016-03-28T09:14:33Z</time>
      </trkpt>
      <trkpt lat="43.32066" lon="2.11919">
        <ele>233.3</ele>
        <time>2016-03-28T09:14:35Z</time>
      </trkpt>
      <trkpt lat="43.32055" lon="2.11925">
        <ele>233.1</ele>
        <time>2016-03-28T09:14:37Z</time>
      </trkpt>
      <trkpt lat="43.32045" lon="2.11933">
        <ele>232.7</ele>
        <time>2016-03-28T09:14:39Z</time>
      </trkpt>
      <trkpt lat="43.32034" lon="2.11942">
        <ele>232.8</ele>
        <time>2016-03-28T09:14:41Z</time>
      </trkpt>
      <trkpt lat="43.32022" lon="2.11952">
        <ele>232.5</ele>
        <time>2016-03-28T09:14:43Z</time>
      </trkpt>
      <trkpt lat="43.32012" lon="2.11962">
        <ele>232</ele>
        <time>2016-03-28T09:14:45Z</time>
      </trkpt>
      <trkpt lat="43.32003" lon="2.11971">
        <ele>231.9</ele>
        <time>2016-03-28T09:14:47Z</time>
      </trkpt>
      <trkpt lat="43.31996" lon="2.11981">
        <ele>232.4</ele>
        <time>2016-03-28T09:14:49Z</time>
      </trkpt>
      <trkpt lat="43.31989" lon="2.11989">
        <ele>232.6</ele>
        <time>2016-03-28T09:14:51Z</time>
      </trkpt>
      <trkpt lat="43.3198" lon="2.11999">
        <ele>232.4</ele>
        <time>2016-03-28T09:14:53Z</time>
      </trkpt>
      <trkpt lat="43.31969" lon="2.1201">
        <ele>232.4</ele>
        <time>2016-03-28T09:14:55Z</time>
      </trkpt>
      <trkpt lat="43.31957" lon="2.12021">
        <ele>232.9</ele>
        <time>2016-03-28T09:14:57Z</time>
      </trkpt>
      <trkpt lat="43.31946" lon="2.12033">
        <ele>232.9</ele>
        <time>2016-03-28T09:14:59Z</time>
      </trkpt>
      <trkpt lat="43.31935" lon="2.12044">
        <ele>231.8</ele>
        <time>2016-03-28T09:15:01Z</time>
      </trkpt>
      <trkpt lat="43.31923" lon="2.12055">
        <ele>230.8</ele>
        <time>2016-03-28T09:15:03Z</time>
      </trkpt>
      <trkpt lat="43.31911" lon="2.12067">
        <ele>230.4</ele>
        <time>2016-03-28T09:15:05Z</time>
      </trkpt>
      <trkpt lat="43.31899" lon="2.12076">
        <ele>229.7</ele>
        <time>2016-03-28T09:15:07Z</time>
      </trkpt>
      <trkpt lat="43.31888" lon="2.12086">
        <ele>228.6</ele>
        <time>2016-03-28T09:15:09Z</time>
      </trkpt>
      <trkpt lat="43.31876" lon="2.12096">
        <ele>228</ele>
        <time>2016-03-28T09:15:11Z</time>
      </trkpt>
      <trkpt lat="43.31862" lon="2.12106">
        <ele>228.8</ele>
        <time>2016-03-28T09:15:13Z</time>
      </trkpt>
      <trkpt lat="43.31849" lon="2.12116">
        <ele>229.3</ele>
        <time>2016-03-28T09:15:15Z</time>
      </trkpt>
      <trkpt lat="43.31836" lon="2.12126">
        <ele>229.7</ele>
        <time>2016-03-28T09:15:17Z</time>
      </trkpt>
      <trkpt lat="43.31825" lon="2.12136">
        <ele>230.3</ele>
        <time>2016-03-28T09:15:19Z</time>
      </trkpt>
      <trkpt lat="43.31813" lon="2.12145">
        <ele>231.1</ele>
        <time>2016-03-28T09:15:21Z</time>
      </trkpt>
      <trkpt lat="43.31803" lon="2.12153">
        <ele>231.6</ele>
        <time>2016-03-28T09:15:23Z</time>
      </trkpt>
      <trkpt lat="43.31791" lon="2.12162">
        <ele>231.4</ele>
        <time>2016-03-28T09:15:25Z</time>
      </trkpt>
      <trkpt lat="43.31781" lon="2.12172">
        <ele>231.3</ele>
        <time>2016-03-28T09:15:27Z</time>
      </trkpt>
      <trkpt lat="43.3177" lon="2.12182">
        <ele>230.5</ele>
        <time>2016-03-28T09:15:29Z</time>
      </trkpt>
      <trkpt lat="43.31757" lon="2.12193">
        <ele>229.6</ele>
        <time>2016-03-28T09:15:31Z</time>
      </trkpt>
      <trkpt lat="43.31743" lon="2.12205">
        <ele>228.7</ele>
        <time>2016-03-28T09:15:33Z</time>
      </trkpt>
      <trkpt lat="43.3173" lon="2.12218">
        <ele>228.6</ele>
        <time>2016-03-28T09:15:35Z</time>
      </trkpt>
      <trkpt lat="43.31719" lon="2.12228">
        <ele>229.3</ele>
        <time>2016-03-28T09:15:37Z</time>
      </trkpt>
      <trkpt lat="43.31708" lon="2.12237">
        <ele>230.1</ele>
        <time>2016-03-28T09:15:39Z</time>
      </trkpt>
      <trkpt lat="43.31696" lon="2.12246">
        <ele>230.8</ele>
        <time>2016-03-28T09:15:41Z</time>
      </trkpt>
      <trkpt lat="43.31684" lon="2.12255">
        <ele>230.9</ele>
        <time>2016-03-28T09:15:43Z</time>
      </trkpt>
      <trkpt lat="43.31671" lon="2.12265">
        <ele>230.4</ele>
        <time>2016-03-28T09:15:45Z</time>
      </trkpt>
      <trkpt lat="43.31657" lon="2.12275">
        <ele>230</ele>
        <time>2016-03-28T09:15:47Z</time>
      </trkpt>
      <trkpt lat="43.31643" lon="2.12284">
        <ele>230.2</ele>
        <time>2016-03-28T09:15:49Z</time>
      </trkpt>
      <trkpt lat="43.31631" lon="2.12292">
        <ele>230.3</ele>
        <time>2016-03-28T09:15:51Z</time>
      </trkpt>
      <trkpt lat="43.31618" lon="2.123">
        <ele>229.4</ele>
        <time>2016-03-28T09:15:53Z</time>
      </trkpt>
      <trkpt lat="43.31605" lon="2.12309">
        <ele>228.9</ele>
        <time>2016-03-28T09:15:55Z</time>
      </trkpt>
      <trkpt lat="43.31593" lon="2.12317">
        <ele>229.1</ele>
        <time>2016-03-28T09:15:57Z</time>
      </trkpt>
      <trkpt lat="43.31582" lon="2.12324">
        <ele>228.7</ele>
        <time>2016-03-28T09:15:59Z</time>
      </trkpt>
      <trkpt lat="43.31573" lon="2.12331">
        <ele>228</ele>
        <time>2016-03-28T09:16:01Z</time>
      </trkpt>
      <trkpt lat="43.31562" lon="2.12339">
        <ele>227.6</ele>
        <time>2016-03-28T09:16:03Z</time>
      </trkpt>
      <trkpt lat="43.31551" lon="2.12349">
        <ele>227.2</ele>
        <time>2016-03-28T09:16:05Z</time>
      </trkpt>
      <trkpt lat="43.31542" lon="2.12357">
        <ele>226.8</ele>
        <time>2016-03-28T09:16:07Z</time>
      </trkpt>
      <trkpt lat="43.31538" lon="2.12344">
        <ele>226.8</ele>
        <time>2016-03-28T09:16:19Z</time>
      </trkpt>
      <trkpt lat="43.31545" lon="2.12333">
        <ele>226.7</ele>
        <time>2016-03-28T09:16:22Z</time>
      </trkpt>
      <trkpt lat="43.31553" lon="2.12322">
        <ele>226.6</ele>
        <time>2016-03-28T09:16:26Z</time>
      </trkpt>
      <trkpt lat="43.3156" lon="2.12313">
        <ele>226.5</ele>
        <time>2016-03-28T09:16:30Z</time>
      </trkpt>
      <trkpt lat="43.31565" lon="2.12301">
        <ele>226.6</ele>
        <time>2016-03-28T09:16:36Z</time>
      </trkpt>
      <trkpt lat="43.3157" lon="2.12289">
        <ele>227.7</ele>
        <time>2016-03-28T09:16:59Z</time>
      </trkpt>
      <trkpt lat="43.31576" lon="2.12281">
        <ele>228</ele>
        <time>2016-03-28T09:17:02Z</time>
      </trkpt>
      <trkpt lat="43.31583" lon="2.12269">
        <ele>228.2</ele>
        <time>2016-03-28T09:17:06Z</time>
      </trkpt>
      <trkpt lat="43.31589" lon="2.12256">
        <ele>228.3</ele>
        <time>2016-03-28T09:17:10Z</time>
      </trkpt>
      <trkpt lat="43.31593" lon="2.12243">
        <ele>228.4</ele>
        <time>2016-03-28T09:17:15Z</time>
      </trkpt>
      <trkpt lat="43.31596" lon="2.1223">
        <ele>228.5</ele>
        <time>2016-03-28T09:17:21Z</time>
      </trkpt>
      <trkpt lat="43.31601" lon="2.12217">
        <ele>228.3</ele>
        <time>2016-03-28T09:17:26Z</time>
      </trkpt>
      <trkpt lat="43.31606" lon="2.12204">
        <ele>228.2</ele>
        <time>2016-03-28T09:17:31Z</time>
      </trkpt>
      <trkpt lat="43.3161" lon="2.12191">
        <ele>228</ele>
        <time>2016-03-28T09:17:36Z</time>
      </trkpt>
      <trkpt lat="43.31613" lon="2.12179">
        <ele>227.9</ele>
        <time>2016-03-28T09:17:41Z</time>
      </trkpt>
      <trkpt lat="43.31618" lon="2.12167">
        <ele>227.9</ele>
        <time>2016-03-28T09:17:46Z</time>
      </trkpt>
      <trkpt lat="43.31622" lon="2.12154">
        <ele>227.9</ele>
        <time>2016-03-28T09:17:51Z</time>
      </trkpt>
      <trkpt lat="43.31626" lon="2.12142">
        <ele>227.9</ele>
        <time>2016-03-28T09:17:56Z</time>
      </trkpt>
      <trkpt lat="43.3163" lon="2.1213">
        <ele>227.8</ele>
        <time>2016-03-28T09:18:01Z</time>
      </trkpt>
      <trkpt lat="43.31634" lon="2.12116">
        <ele>227.7</ele>
        <time>2016-03-28T09:18:06Z</time>
      </trkpt>
      <trkpt lat="43.31638" lon="2.12105">
        <ele>227.5</ele>
        <time>2016-03-28T09:18:10Z</time>
      </trkpt>
      <trkpt lat="43.31641" lon="2.12093">
        <ele>227.5</ele>
        <time>2016-03-28T09:18:15Z</time>
      </trkpt>
      <trkpt lat="43.31644" lon="2.12081">
        <ele>227.5</ele>
        <time>2016-03-28T09:18:19Z</time>
      </trkpt>
      <trkpt lat="43.31647" lon="2.12068">
        <ele>227.4</ele>
        <time>2016-03-28T09:18:23Z</time>
      </trkpt>
      <trkpt lat="43.3165" lon="2.12055">
        <ele>227.4</ele>
        <time>2016-03-28T09:18:27Z</time>
      </trkpt>
      <trkpt lat="43.31653" lon="2.12041">
        <ele>227.1</ele>
        <time>2016-03-28T09:18:30Z</time>
      </trkpt>
      <trkpt lat="43.31655" lon="2.12027">
        <ele>226.6</ele>
        <time>2016-03-28T09:18:32Z</time>
      </trkpt>
      <trkpt lat="43.31657" lon="2.12012">
        <ele>225.9</ele>
        <time>2016-03-28T09:18:34Z</time>
      </trkpt>
      <trkpt lat="43.31658" lon="2.11998">
        <ele>224.9</ele>
        <time>2016-03-28T09:18:36Z</time>
      </trkpt>
      <trkpt lat="43.31659" lon="2.11983">
        <ele>225</ele>
        <time>2016-03-28T09:18:38Z</time>
      </trkpt>
      <trkpt lat="43.31661" lon="2.11966">
        <ele>224</ele>
        <time>2016-03-28T09:18:40Z</time>
      </trkpt>
      <trkpt lat="43.31664" lon="2.11948">
        <ele>222.3</ele>
        <time>2016-03-28T09:18:42Z</time>
      </trkpt>
      <trkpt lat="43.31666" lon="2.1193">
        <ele>221.7</ele>
        <time>2016-03-28T09:18:44Z</time>
      </trkpt>
      <trkpt lat="43.31667" lon="2.11909">
        <ele>221.4</ele>
        <time>2016-03-28T09:18:46Z</time>
      </trkpt>
      <trkpt lat="43.31667" lon="2.11889">
        <ele>220.7</ele>
        <time>2016-03-28T09:18:48Z</time>
      </trkpt>
      <trkpt lat="43.31667" lon="2.11871">
        <ele>219.7</ele>
        <time>2016-03-28T09:18:50Z</time>
      </trkpt>
      <trkpt lat="43.31667" lon="2.11854">
        <ele>218.6</ele>
        <time>2016-03-28T09:18:52Z</time>
      </trkpt>
      <trkpt lat="43.31666" lon="2.11837">
        <ele>218.1</ele>
        <time>2016-03-28T09:18:55Z</time>
      </trkpt>
      <trkpt lat="43.31666" lon="2.11824">
        <ele>217.8</ele>
        <time>2016-03-28T09:19:01Z</time>
      </trkpt>
      <trkpt lat="43.31666" lon="2.11808">
        <ele>217.7</ele>
        <time>2016-03-28T09:19:04Z</time>
      </trkpt>
      <trkpt lat="43.31666" lon="2.11791">
        <ele>217.1</ele>
        <time>2016-03-28T09:19:07Z</time>
      </trkpt>
      <trkpt lat="43.31666" lon="2.11776">
        <ele>216.7</ele>
        <time>2016-03-28T09:19:10Z</time>
      </trkpt>
      <trkpt lat="43.31666" lon="2.11763">
        <ele>216.5</ele>
        <time>2016-03-28T09:19:13Z</time>
      </trkpt>
      <trkpt lat="43.31667" lon="2.11748">
        <ele>215.2</ele>
        <time>2016-03-28T09:19:16Z</time>
      </trkpt>
      <trkpt lat="43.31667" lon="2.11733">
        <ele>215.2</ele>
        <time>2016-03-28T09:19:18Z</time>
      </trkpt>
      <trkpt lat="43.31669" lon="2.11716">
        <ele>215.2</ele>
        <time>2016-03-28T09:19:20Z</time>
      </trkpt>
      <trkpt lat="43.31671" lon="2.11695">
        <ele>215</ele>
        <time>2016-03-28T09:19:22Z</time>
      </trkpt>
      <trkpt lat="43.31674" lon="2.11674">
        <ele>215.2</ele>
        <time>2016-03-28T09:19:24Z</time>
      </trkpt>
      <trkpt lat="43.31677" lon="2.11652">
        <ele>214.9</ele>
        <time>2016-03-28T09:19:26Z</time>
      </trkpt>
      <trkpt lat="43.3168" lon="2.11633">
        <ele>215.6</ele>
        <time>2016-03-28T09:19:28Z</time>
      </trkpt>
      <trkpt lat="43.31682" lon="2.11619">
        <ele>216.1</ele>
        <time>2016-03-28T09:19:30Z</time>
      </trkpt>
      <trkpt lat="43.31683" lon="2.11605">
        <ele>216.1</ele>
        <time>2016-03-28T09:19:32Z</time>
      </trkpt>
      <trkpt lat="43.31685" lon="2.11591">
        <ele>215.9</ele>
        <time>2016-03-28T09:19:34Z</time>
      </trkpt>
      <trkpt lat="43.31686" lon="2.11575">
        <ele>215</ele>
        <time>2016-03-28T09:19:36Z</time>
      </trkpt>
      <trkpt lat="43.31687" lon="2.11558">
        <ele>213.8</ele>
        <time>2016-03-28T09:19:38Z</time>
      </trkpt>
      <trkpt lat="43.31688" lon="2.11541">
        <ele>213.1</ele>
        <time>2016-03-28T09:19:40Z</time>
      </trkpt>
      <trkpt lat="43.31688" lon="2.11523">
        <ele>212.3</ele>
        <time>2016-03-28T09:19:42Z</time>
      </trkpt>
      <trkpt lat="43.31688" lon="2.11507">
        <ele>211.7</ele>
        <time>2016-03-28T09:19:44Z</time>
      </trkpt>
      <trkpt lat="43.31688" lon="2.11491">
        <ele>211</ele>
        <time>2016-03-28T09:19:46Z</time>
      </trkpt>
      <trkpt lat="43.31687" lon="2.11472">
        <ele>210.4</ele>
        <time>2016-03-28T09:19:48Z</time>
      </trkpt>
      <trkpt lat="43.31685" lon="2.11455">
        <ele>209.5</ele>
        <time>2016-03-28T09:19:50Z</time>
      </trkpt>
      <trkpt lat="43.31682" lon="2.11439">
        <ele>208.3</ele>
        <time>2016-03-28T09:19:52Z</time>
      </trkpt>
      <trkpt lat="43.31678" lon="2.11422">
        <ele>207</ele>
        <time>2016-03-28T09:19:54Z</time>
      </trkpt>
      <trkpt lat="43.31674" lon="2.11406">
        <ele>205.8</ele>
        <time>2016-03-28T09:19:56Z</time>
      </trkpt>
      <trkpt lat="43.31669" lon="2.1139">
        <ele>204.8</ele>
        <time>2016-03-28T09:19:58Z</time>
      </trkpt>
      <trkpt lat="43.31665" lon="2.11374">
        <ele>204.2</ele>
        <time>2016-03-28T09:20:00Z</time>
      </trkpt>
      <trkpt lat="43.31659" lon="2.11356">
        <ele>203.6</ele>
        <time>2016-03-28T09:20:02Z</time>
      </trkpt>
      <trkpt lat="43.31654" lon="2.11339">
        <ele>203.3</ele>
        <time>2016-03-28T09:20:04Z</time>
      </trkpt>
      <trkpt lat="43.31649" lon="2.11321">
        <ele>203.3</ele>
        <time>2016-03-28T09:20:06Z</time>
      </trkpt>
      <trkpt lat="43.31644" lon="2.11304">
        <ele>203.2</ele>
        <time>2016-03-28T09:20:08Z</time>
      </trkpt>
      <trkpt lat="43.3164" lon="2.11287">
        <ele>203.6</ele>
        <time>2016-03-28T09:20:10Z</time>
      </trkpt>
      <trkpt lat="43.31636" lon="2.1127">
        <ele>203.7</ele>
        <time>2016-03-28T09:20:12Z</time>
      </trkpt>
      <trkpt lat="43.31631" lon="2.11251">
        <ele>203</ele>
        <time>2016-03-28T09:20:14Z</time>
      </trkpt>
      <trkpt lat="43.31628" lon="2.11235">
        <ele>202.3</ele>
        <time>2016-03-28T09:20:16Z</time>
      </trkpt>
      <trkpt lat="43.31624" lon="2.11218">
        <ele>201.8</ele>
        <time>2016-03-28T09:20:18Z</time>
      </trkpt>
      <trkpt lat="43.3162" lon="2.11201">
        <ele>201.2</ele>
        <time>2016-03-28T09:20:20Z</time>
      </trkpt>
      <trkpt lat="43.31617" lon="2.11185">
        <ele>200.8</ele>
        <time>2016-03-28T09:20:22Z</time>
      </trkpt>
      <trkpt lat="43.31614" lon="2.11168">
        <ele>200.8</ele>
        <time>2016-03-28T09:20:24Z</time>
      </trkpt>
      <trkpt lat="43.31613" lon="2.11154">
        <ele>200.5</ele>
        <time>2016-03-28T09:20:26Z</time>
      </trkpt>
      <trkpt lat="43.31613" lon="2.11137">
        <ele>199.9</ele>
        <time>2016-03-28T09:20:28Z</time>
      </trkpt>
      <trkpt lat="43.31615" lon="2.1112">
        <ele>199.8</ele>
        <time>2016-03-28T09:20:30Z</time>
      </trkpt>
      <trkpt lat="43.31617" lon="2.11105">
        <ele>200.5</ele>
        <time>2016-03-28T09:20:32Z</time>
      </trkpt>
      <trkpt lat="43.3162" lon="2.1109">
        <ele>200.3</ele>
        <time>2016-03-28T09:20:34Z</time>
      </trkpt>
      <trkpt lat="43.31622" lon="2.11078">
        <ele>199.5</ele>
        <time>2016-03-28T09:20:36Z</time>
      </trkpt>
      <trkpt lat="43.31626" lon="2.11065">
        <ele>199.5</ele>
        <time>2016-03-28T09:20:38Z</time>
      </trkpt>
      <trkpt lat="43.3163" lon="2.11051">
        <ele>199.6</ele>
        <time>2016-03-28T09:20:40Z</time>
      </trkpt>
      <trkpt lat="43.31636" lon="2.11037">
        <ele>200</ele>
        <time>2016-03-28T09:20:42Z</time>
      </trkpt>
      <trkpt lat="43.31641" lon="2.1102">
        <ele>199.6</ele>
        <time>2016-03-28T09:20:44Z</time>
      </trkpt>
      <trkpt lat="43.31645" lon="2.11004">
        <ele>198.7</ele>
        <time>2016-03-28T09:20:46Z</time>
      </trkpt>
      <trkpt lat="43.31648" lon="2.10989">
        <ele>198.8</ele>
        <time>2016-03-28T09:20:48Z</time>
      </trkpt>
      <trkpt lat="43.3165" lon="2.10975">
        <ele>198.8</ele>
        <time>2016-03-28T09:20:50Z</time>
      </trkpt>
      <trkpt lat="43.3165" lon="2.10962">
        <ele>199.4</ele>
        <time>2016-03-28T09:20:52Z</time>
      </trkpt>
      <trkpt lat="43.31651" lon="2.10945">
        <ele>198.3</ele>
        <time>2016-03-28T09:20:54Z</time>
      </trkpt>
      <trkpt lat="43.31651" lon="2.10931">
        <ele>197.6</ele>
        <time>2016-03-28T09:20:56Z</time>
      </trkpt>
      <trkpt lat="43.31647" lon="2.10915">
        <ele>197.5</ele>
        <time>2016-03-28T09:20:58Z</time>
      </trkpt>
      <trkpt lat="43.31642" lon="2.10901">
        <ele>197.2</ele>
        <time>2016-03-28T09:21:00Z</time>
      </trkpt>
      <trkpt lat="43.31638" lon="2.10889">
        <ele>196.8</ele>
        <time>2016-03-28T09:21:02Z</time>
      </trkpt>
      <trkpt lat="43.31633" lon="2.10876">
        <ele>195.4</ele>
        <time>2016-03-28T09:21:04Z</time>
      </trkpt>
      <trkpt lat="43.31628" lon="2.10861">
        <ele>193.8</ele>
        <time>2016-03-28T09:21:06Z</time>
      </trkpt>
      <trkpt lat="43.31621" lon="2.10845">
        <ele>192.1</ele>
        <time>2016-03-28T09:21:08Z</time>
      </trkpt>
      <trkpt lat="43.31614" lon="2.10828">
        <ele>191.2</ele>
        <time>2016-03-28T09:21:10Z</time>
      </trkpt>
      <trkpt lat="43.31607" lon="2.10816">
        <ele>190.7</ele>
        <time>2016-03-28T09:21:12Z</time>
      </trkpt>
      <trkpt lat="43.316" lon="2.10801">
        <ele>190.7</ele>
        <time>2016-03-28T09:21:14Z</time>
      </trkpt>
      <trkpt lat="43.31593" lon="2.10787">
        <ele>189.9</ele>
        <time>2016-03-28T09:21:16Z</time>
      </trkpt>
      <trkpt lat="43.31587" lon="2.10774">
        <ele>188.9</ele>
        <time>2016-03-28T09:21:18Z</time>
      </trkpt>
      <trkpt lat="43.31582" lon="2.10763">
        <ele>186.7</ele>
        <time>2016-03-28T09:21:20Z</time>
      </trkpt>
      <trkpt lat="43.31577" lon="2.10752">
        <ele>186.3</ele>
        <time>2016-03-28T09:21:22Z</time>
      </trkpt>
      <trkpt lat="43.31573" lon="2.1074">
        <ele>186.4</ele>
        <time>2016-03-28T09:21:30Z</time>
      </trkpt>
      <trkpt lat="43.31566" lon="2.10728">
        <ele>186.7</ele>
        <time>2016-03-28T09:21:35Z</time>
      </trkpt>
      <trkpt lat="43.31561" lon="2.10714">
        <ele>187.5</ele>
        <time>2016-03-28T09:22:14Z</time>
      </trkpt>
      <trkpt lat="43.31561" lon="2.10698">
        <ele>188.1</ele>
        <time>2016-03-28T09:22:17Z</time>
      </trkpt>
      <trkpt lat="43.3156" lon="2.10684">
        <ele>187.9</ele>
        <time>2016-03-28T09:22:19Z</time>
      </trkpt>
      <trkpt lat="43.31559" lon="2.10668">
        <ele>188.4</ele>
        <time>2016-03-28T09:22:21Z</time>
      </trkpt>
      <trkpt lat="43.31558" lon="2.10652">
        <ele>188.4</ele>
        <time>2016-03-28T09:22:23Z</time>
      </trkpt>
      <trkpt lat="43.31557" lon="2.10634">
        <ele>188.1</ele>
        <time>2016-03-28T09:22:25Z</time>
      </trkpt>
      <trkpt lat="43.31557" lon="2.10614">
        <ele>188.3</ele>
        <time>2016-03-28T09:22:27Z</time>
      </trkpt>
      <trkpt lat="43.31556" lon="2.10591">
        <ele>189</ele>
        <time>2016-03-28T09:22:29Z</time>
      </trkpt>
      <trkpt lat="43.31555" lon="2.10567">
        <ele>189.8</ele>
        <time>2016-03-28T09:22:31Z</time>
      </trkpt>
      <trkpt lat="43.31555" lon="2.10554">
        <ele>190.1</ele>
        <time>2016-03-28T09:22:32Z</time>
      </trkpt>
      <trkpt lat="43.31555" lon="2.10541">
        <ele>189.9</ele>
        <time>2016-03-28T09:22:33Z</time>
      </trkpt>
      <trkpt lat="43.31556" lon="2.10528">
        <ele>189.4</ele>
        <time>2016-03-28T09:22:34Z</time>
      </trkpt>
      <trkpt lat="43.31556" lon="2.10515">
        <ele>188.9</ele>
        <time>2016-03-28T09:22:35Z</time>
      </trkpt>
      <trkpt lat="43.31556" lon="2.10502">
        <ele>188.5</ele>
        <time>2016-03-28T09:22:36Z</time>
      </trkpt>
      <trkpt lat="43.31556" lon="2.10489">
        <ele>188.2</ele>
        <time>2016-03-28T09:22:37Z</time>
      </trkpt>
      <trkpt lat="43.31556" lon="2.10475">
        <ele>187.7</ele>
        <time>2016-03-28T09:22:38Z</time>
      </trkpt>
      <trkpt lat="43.31556" lon="2.10462">
        <ele>187.2</ele>
        <time>2016-03-28T09:22:39Z</time>
      </trkpt>
      <trkpt lat="43.31555" lon="2.10449">
        <ele>186.8</ele>
        <time>2016-03-28T09:22:40Z</time>
      </trkpt>
      <trkpt lat="43.31555" lon="2.10436">
        <ele>185.9</ele>
        <time>2016-03-28T09:22:41Z</time>
      </trkpt>
      <trkpt lat="43.31552" lon="2.1041">
        <ele>184.8</ele>
        <time>2016-03-28T09:22:43Z</time>
      </trkpt>
      <trkpt lat="43.31551" lon="2.10396">
        <ele>184.6</ele>
        <time>2016-03-28T09:22:44Z</time>
      </trkpt>
      <trkpt lat="43.31549" lon="2.10382">
        <ele>184</ele>
        <time>2016-03-28T09:22:45Z</time>
      </trkpt>
      <trkpt lat="43.31548" lon="2.10368">
        <ele>183.8</ele>
        <time>2016-03-28T09:22:46Z</time>
      </trkpt>
      <trkpt lat="43.31547" lon="2.10353">
        <ele>183.6</ele>
        <time>2016-03-28T09:22:47Z</time>
      </trkpt>
      <trkpt lat="43.31547" lon="2.1034">
        <ele>183.3</ele>
        <time>2016-03-28T09:22:48Z</time>
      </trkpt>
      <trkpt lat="43.31548" lon="2.10325">
        <ele>183.1</ele>
        <time>2016-03-28T09:22:49Z</time>
      </trkpt>
      <trkpt lat="43.3155" lon="2.10313">
        <ele>183.1</ele>
        <time>2016-03-28T09:22:50Z</time>
      </trkpt>
      <trkpt lat="43.31554" lon="2.10298">
        <ele>182.9</ele>
        <time>2016-03-28T09:22:51Z</time>
      </trkpt>
      <trkpt lat="43.31557" lon="2.10286">
        <ele>182.8</ele>
        <time>2016-03-28T09:22:52Z</time>
      </trkpt>
      <trkpt lat="43.31561" lon="2.10274">
        <ele>182.6</ele>
        <time>2016-03-28T09:22:53Z</time>
      </trkpt>
      <trkpt lat="43.31572" lon="2.10258">
        <ele>181.8</ele>
        <time>2016-03-28T09:22:55Z</time>
      </trkpt>
      <trkpt lat="43.31586" lon="2.10245">
        <ele>180.5</ele>
        <time>2016-03-28T09:22:57Z</time>
      </trkpt>
      <trkpt lat="43.31595" lon="2.10239">
        <ele>179.1</ele>
        <time>2016-03-28T09:22:58Z</time>
      </trkpt>
      <trkpt lat="43.3161" lon="2.1023">
        <ele>177.8</ele>
        <time>2016-03-28T09:23:00Z</time>
      </trkpt>
      <trkpt lat="43.31627" lon="2.10219">
        <ele>177.6</ele>
        <time>2016-03-28T09:23:02Z</time>
      </trkpt>
      <trkpt lat="43.31636" lon="2.10214">
        <ele>177.6</ele>
        <time>2016-03-28T09:23:03Z</time>
      </trkpt>
      <trkpt lat="43.31644" lon="2.10209">
        <ele>177.5</ele>
        <time>2016-03-28T09:23:04Z</time>
      </trkpt>
      <trkpt lat="43.31653" lon="2.10204">
        <ele>177.4</ele>
        <time>2016-03-28T09:23:05Z</time>
      </trkpt>
      <trkpt lat="43.31668" lon="2.10194">
        <ele>177.1</ele>
        <time>2016-03-28T09:23:07Z</time>
      </trkpt>
      <trkpt lat="43.31682" lon="2.10184">
        <ele>176.8</ele>
        <time>2016-03-28T09:23:09Z</time>
      </trkpt>
      <trkpt lat="43.3169" lon="2.10177">
        <ele>175.7</ele>
        <time>2016-03-28T09:23:11Z</time>
      </trkpt>
      <trkpt lat="43.31691" lon="2.10163">
        <ele>175.7</ele>
        <time>2016-03-28T09:23:14Z</time>
      </trkpt>
      <trkpt lat="43.31685" lon="2.1015">
        <ele>176</ele>
        <time>2016-03-28T09:23:16Z</time>
      </trkpt>
      <trkpt lat="43.31678" lon="2.10139">
        <ele>175.5</ele>
        <time>2016-03-28T09:23:18Z</time>
      </trkpt>
      <trkpt lat="43.31671" lon="2.10129">
        <ele>175.1</ele>
        <time>2016-03-28T09:23:20Z</time>
      </trkpt>
      <trkpt lat="43.31663" lon="2.10119">
        <ele>174.9</ele>
        <time>2016-03-28T09:23:22Z</time>
      </trkpt>
      <trkpt lat="43.31649" lon="2.10109">
        <ele>174.4</ele>
        <time>2016-03-28T09:23:24Z</time>
      </trkpt>
      <trkpt lat="43.3164" lon="2.10105">
        <ele>174.2</ele>
        <time>2016-03-28T09:23:25Z</time>
      </trkpt>
      <trkpt lat="43.31622" lon="2.101">
        <ele>173.9</ele>
        <time>2016-03-28T09:23:27Z</time>
      </trkpt>
      <trkpt lat="43.31613" lon="2.10098">
        <ele>174</ele>
        <time>2016-03-28T09:23:28Z</time>
      </trkpt>
      <trkpt lat="43.31597" lon="2.10096">
        <ele>174.3</ele>
        <time>2016-03-28T09:23:30Z</time>
      </trkpt>
      <trkpt lat="43.31582" lon="2.10094">
        <ele>174.2</ele>
        <time>2016-03-28T09:23:32Z</time>
      </trkpt>
      <trkpt lat="43.31566" lon="2.10091">
        <ele>173.9</ele>
        <time>2016-03-28T09:23:34Z</time>
      </trkpt>
      <trkpt lat="43.3155" lon="2.10086">
        <ele>173.2</ele>
        <time>2016-03-28T09:23:36Z</time>
      </trkpt>
      <trkpt lat="43.31533" lon="2.10078">
        <ele>171.8</ele>
        <time>2016-03-28T09:23:38Z</time>
      </trkpt>
      <trkpt lat="43.31518" lon="2.1007">
        <ele>170</ele>
        <time>2016-03-28T09:23:40Z</time>
      </trkpt>
      <trkpt lat="43.31501" lon="2.10061">
        <ele>168.3</ele>
        <time>2016-03-28T09:23:42Z</time>
      </trkpt>
      <trkpt lat="43.31485" lon="2.10052">
        <ele>167</ele>
        <time>2016-03-28T09:23:44Z</time>
      </trkpt>
      <trkpt lat="43.31469" lon="2.10043">
        <ele>166.3</ele>
        <time>2016-03-28T09:23:46Z</time>
      </trkpt>
      <trkpt lat="43.31459" lon="2.10038">
        <ele>166</ele>
        <time>2016-03-28T09:23:47Z</time>
      </trkpt>
      <trkpt lat="43.31449" lon="2.10031">
        <ele>165.9</ele>
        <time>2016-03-28T09:23:48Z</time>
      </trkpt>
      <trkpt lat="43.3144" lon="2.10025">
        <ele>165.6</ele>
        <time>2016-03-28T09:23:49Z</time>
      </trkpt>
      <trkpt lat="43.3143" lon="2.10019">
        <ele>165.3</ele>
        <time>2016-03-28T09:23:50Z</time>
      </trkpt>
      <trkpt lat="43.3142" lon="2.10013">
        <ele>165.2</ele>
        <time>2016-03-28T09:23:51Z</time>
      </trkpt>
      <trkpt lat="43.3141" lon="2.10006">
        <ele>165.2</ele>
        <time>2016-03-28T09:23:52Z</time>
      </trkpt>
      <trkpt lat="43.314" lon="2.1">
        <ele>165.3</ele>
        <time>2016-03-28T09:23:53Z</time>
      </trkpt>
      <trkpt lat="43.31391" lon="2.09994">
        <ele>165</ele>
        <time>2016-03-28T09:23:54Z</time>
      </trkpt>
      <trkpt lat="43.31381" lon="2.09988">
        <ele>164.5</ele>
        <time>2016-03-28T09:23:55Z</time>
      </trkpt>
      <trkpt lat="43.31373" lon="2.09983">
        <ele>164</ele>
        <time>2016-03-28T09:23:56Z</time>
      </trkpt>
      <trkpt lat="43.31356" lon="2.09973">
        <ele>163.2</ele>
        <time>2016-03-28T09:23:58Z</time>
      </trkpt>
      <trkpt lat="43.31347" lon="2.09968">
        <ele>163</ele>
        <time>2016-03-28T09:23:59Z</time>
      </trkpt>
      <trkpt lat="43.31335" lon="2.09962">
        <ele>162.9</ele>
        <time>2016-03-28T09:24:01Z</time>
      </trkpt>
      <trkpt lat="43.31325" lon="2.0995">
        <ele>162.5</ele>
        <time>2016-03-28T09:24:04Z</time>
      </trkpt>
      <trkpt lat="43.31323" lon="2.09935">
        <ele>162.5</ele>
        <time>2016-03-28T09:24:07Z</time>
      </trkpt>
      <trkpt lat="43.31321" lon="2.09919">
        <ele>162.5</ele>
        <time>2016-03-28T09:24:11Z</time>
      </trkpt>
      <trkpt lat="43.31317" lon="2.09903">
        <ele>162.4</ele>
        <time>2016-03-28T09:24:14Z</time>
      </trkpt>
      <trkpt lat="43.3131" lon="2.09889">
        <ele>162.5</ele>
        <time>2016-03-28T09:24:16Z</time>
      </trkpt>
      <trkpt lat="43.31301" lon="2.09875">
        <ele>163.8</ele>
        <time>2016-03-28T09:24:18Z</time>
      </trkpt>
      <trkpt lat="43.31294" lon="2.09864">
        <ele>164.9</ele>
        <time>2016-03-28T09:24:20Z</time>
      </trkpt>
      <trkpt lat="43.31286" lon="2.09851">
        <ele>165.1</ele>
        <time>2016-03-28T09:24:22Z</time>
      </trkpt>
      <trkpt lat="43.31279" lon="2.09838">
        <ele>165.1</ele>
        <time>2016-03-28T09:24:24Z</time>
      </trkpt>
      <trkpt lat="43.31273" lon="2.09826">
        <ele>164.9</ele>
        <time>2016-03-28T09:24:26Z</time>
      </trkpt>
      <trkpt lat="43.31266" lon="2.09811">
        <ele>165</ele>
        <time>2016-03-28T09:24:28Z</time>
      </trkpt>
      <trkpt lat="43.3126" lon="2.09797">
        <ele>165.2</ele>
        <time>2016-03-28T09:24:30Z</time>
      </trkpt>
      <trkpt lat="43.31252" lon="2.09783">
        <ele>165.2</ele>
        <time>2016-03-28T09:24:32Z</time>
      </trkpt>
      <trkpt lat="43.31244" lon="2.09769">
        <ele>165.1</ele>
        <time>2016-03-28T09:24:34Z</time>
      </trkpt>
      <trkpt lat="43.31238" lon="2.09757">
        <ele>164.7</ele>
        <time>2016-03-28T09:24:36Z</time>
      </trkpt>
      <trkpt lat="43.31231" lon="2.09744">
        <ele>164.3</ele>
        <time>2016-03-28T09:24:38Z</time>
      </trkpt>
      <trkpt lat="43.31224" lon="2.09729">
        <ele>163.9</ele>
        <time>2016-03-28T09:24:40Z</time>
      </trkpt>
      <trkpt lat="43.31216" lon="2.09716">
        <ele>163.5</ele>
        <time>2016-03-28T09:24:42Z</time>
      </trkpt>
      <trkpt lat="43.31209" lon="2.09704">
        <ele>163.4</ele>
        <time>2016-03-28T09:24:44Z</time>
      </trkpt>
      <trkpt lat="43.31202" lon="2.09693">
        <ele>163.3</ele>
        <time>2016-03-28T09:24:46Z</time>
      </trkpt>
      <trkpt lat="43.31196" lon="2.09679">
        <ele>162.8</ele>
        <time>2016-03-28T09:24:48Z</time>
      </trkpt>
      <trkpt lat="43.31188" lon="2.09663">
        <ele>162.5</ele>
        <time>2016-03-28T09:24:50Z</time>
      </trkpt>
      <trkpt lat="43.31184" lon="2.09647">
        <ele>162.3</ele>
        <time>2016-03-28T09:24:52Z</time>
      </trkpt>
      <trkpt lat="43.31182" lon="2.09631">
        <ele>162.2</ele>
        <time>2016-03-28T09:24:54Z</time>
      </trkpt>
      <trkpt lat="43.31182" lon="2.09618">
        <ele>162.3</ele>
        <time>2016-03-28T09:24:56Z</time>
      </trkpt>
      <trkpt lat="43.31183" lon="2.09604">
        <ele>162.6</ele>
        <time>2016-03-28T09:24:58Z</time>
      </trkpt>
      <trkpt lat="43.31183" lon="2.0959">
        <ele>163.1</ele>
        <time>2016-03-28T09:25:00Z</time>
      </trkpt>
      <trkpt lat="43.31182" lon="2.09576">
        <ele>163.5</ele>
        <time>2016-03-28T09:25:01Z</time>
      </trkpt>
      <trkpt lat="43.31182" lon="2.09562">
        <ele>163.6</ele>
        <time>2016-03-28T09:25:04Z</time>
      </trkpt>
      <trkpt lat="43.31178" lon="2.09548">
        <ele>163.2</ele>
        <time>2016-03-28T09:26:06Z</time>
      </trkpt>
      <trkpt lat="43.31167" lon="2.09543">
        <ele>162.5</ele>
        <time>2016-03-28T09:26:11Z</time>
      </trkpt>
      <trkpt lat="43.31159" lon="2.09538">
        <ele>161.3</ele>
        <time>2016-03-28T09:26:13Z</time>
      </trkpt>
      <trkpt lat="43.31151" lon="2.0953">
        <ele>161.5</ele>
        <time>2016-03-28T09:26:15Z</time>
      </trkpt>
      <trkpt lat="43.31144" lon="2.09519">
        <ele>161.2</ele>
        <time>2016-03-28T09:26:17Z</time>
      </trkpt>
      <trkpt lat="43.31136" lon="2.09507">
        <ele>160.7</ele>
        <time>2016-03-28T09:26:19Z</time>
      </trkpt>
      <trkpt lat="43.31127" lon="2.09495">
        <ele>160.4</ele>
        <time>2016-03-28T09:26:21Z</time>
      </trkpt>
      <trkpt lat="43.31117" lon="2.09484">
        <ele>160.4</ele>
        <time>2016-03-28T09:26:23Z</time>
      </trkpt>
      <trkpt lat="43.31106" lon="2.09473">
        <ele>160.1</ele>
        <time>2016-03-28T09:26:25Z</time>
      </trkpt>
      <trkpt lat="43.31096" lon="2.09466">
        <ele>159.3</ele>
        <time>2016-03-28T09:26:27Z</time>
      </trkpt>
      <trkpt lat="43.31084" lon="2.09461">
        <ele>159.1</ele>
        <time>2016-03-28T09:26:29Z</time>
      </trkpt>
      <trkpt lat="43.31072" lon="2.09458">
        <ele>159.8</ele>
        <time>2016-03-28T09:26:31Z</time>
      </trkpt>
      <trkpt lat="43.31058" lon="2.09456">
        <ele>160.6</ele>
        <time>2016-03-28T09:26:33Z</time>
      </trkpt>
      <trkpt lat="43.31043" lon="2.09456">
        <ele>161.1</ele>
        <time>2016-03-28T09:26:35Z</time>
      </trkpt>
      <trkpt lat="43.31027" lon="2.09457">
        <ele>161.3</ele>
        <time>2016-03-28T09:26:37Z</time>
      </trkpt>
      <trkpt lat="43.31011" lon="2.09458">
        <ele>161.8</ele>
        <time>2016-03-28T09:26:39Z</time>
      </trkpt>
      <trkpt lat="43.30994" lon="2.0946">
        <ele>162.5</ele>
        <time>2016-03-28T09:26:41Z</time>
      </trkpt>
      <trkpt lat="43.30985" lon="2.09461">
        <ele>162.9</ele>
        <time>2016-03-28T09:26:42Z</time>
      </trkpt>
      <trkpt lat="43.30975" lon="2.09462">
        <ele>163.4</ele>
        <time>2016-03-28T09:26:43Z</time>
      </trkpt>
      <trkpt lat="43.30966" lon="2.09463">
        <ele>163.9</ele>
        <time>2016-03-28T09:26:44Z</time>
      </trkpt>
      <trkpt lat="43.30957" lon="2.09464">
        <ele>164.2</ele>
        <time>2016-03-28T09:26:45Z</time>
      </trkpt>
      <trkpt lat="43.30947" lon="2.09465">
        <ele>164.6</ele>
        <time>2016-03-28T09:26:46Z</time>
      </trkpt>
      <trkpt lat="43.30937" lon="2.09466">
        <ele>165</ele>
        <time>2016-03-28T09:26:47Z</time>
      </trkpt>
      <trkpt lat="43.30927" lon="2.09466">
        <ele>165.3</ele>
        <time>2016-03-28T09:26:48Z</time>
      </trkpt>
      <trkpt lat="43.30918" lon="2.09467">
        <ele>165.6</ele>
        <time>2016-03-28T09:26:49Z</time>
      </trkpt>
      <trkpt lat="43.30909" lon="2.09467">
        <ele>165.8</ele>
        <time>2016-03-28T09:26:50Z</time>
      </trkpt>
      <trkpt lat="43.30899" lon="2.09467">
        <ele>166.2</ele>
        <time>2016-03-28T09:26:51Z</time>
      </trkpt>
      <trkpt lat="43.30889" lon="2.09467">
        <ele>166.5</ele>
        <time>2016-03-28T09:26:52Z</time>
      </trkpt>
      <trkpt lat="43.30879" lon="2.09467">
        <ele>166.9</ele>
        <time>2016-03-28T09:26:53Z</time>
      </trkpt>
      <trkpt lat="43.30869" lon="2.09467">
        <ele>167.3</ele>
        <time>2016-03-28T09:26:54Z</time>
      </trkpt>
      <trkpt lat="43.30859" lon="2.09465">
        <ele>167.6</ele>
        <time>2016-03-28T09:26:55Z</time>
      </trkpt>
      <trkpt lat="43.3085" lon="2.09463">
        <ele>167.8</ele>
        <time>2016-03-28T09:26:56Z</time>
      </trkpt>
      <trkpt lat="43.3084" lon="2.0946">
        <ele>167.9</ele>
        <time>2016-03-28T09:26:57Z</time>
      </trkpt>
      <trkpt lat="43.3083" lon="2.09456">
        <ele>168</ele>
        <time>2016-03-28T09:26:58Z</time>
      </trkpt>
      <trkpt lat="43.3082" lon="2.09452">
        <ele>168</ele>
        <time>2016-03-28T09:26:59Z</time>
      </trkpt>
      <trkpt lat="43.30811" lon="2.09447">
        <ele>168.1</ele>
        <time>2016-03-28T09:27:00Z</time>
      </trkpt>
      <trkpt lat="43.30802" lon="2.09442">
        <ele>168.1</ele>
        <time>2016-03-28T09:27:01Z</time>
      </trkpt>
      <trkpt lat="43.30793" lon="2.09437">
        <ele>168.2</ele>
        <time>2016-03-28T09:27:02Z</time>
      </trkpt>
      <trkpt lat="43.30784" lon="2.09432">
        <ele>168.4</ele>
        <time>2016-03-28T09:27:03Z</time>
      </trkpt>
      <trkpt lat="43.30775" lon="2.09426">
        <ele>168.5</ele>
        <time>2016-03-28T09:27:04Z</time>
      </trkpt>
      <trkpt lat="43.30767" lon="2.09421">
        <ele>168.7</ele>
        <time>2016-03-28T09:27:05Z</time>
      </trkpt>
      <trkpt lat="43.3075" lon="2.09413">
        <ele>168.8</ele>
        <time>2016-03-28T09:27:07Z</time>
      </trkpt>
      <trkpt lat="43.30733" lon="2.09405">
        <ele>168.5</ele>
        <time>2016-03-28T09:27:09Z</time>
      </trkpt>
      <trkpt lat="43.30724" lon="2.09401">
        <ele>168.3</ele>
        <time>2016-03-28T09:27:10Z</time>
      </trkpt>
      <trkpt lat="43.30707" lon="2.09394">
        <ele>168</ele>
        <time>2016-03-28T09:27:12Z</time>
      </trkpt>
      <trkpt lat="43.30691" lon="2.09389">
        <ele>167.9</ele>
        <time>2016-03-28T09:27:14Z</time>
      </trkpt>
      <trkpt lat="43.30673" lon="2.09383">
        <ele>167.5</ele>
        <time>2016-03-28T09:27:16Z</time>
      </trkpt>
      <trkpt lat="43.30657" lon="2.09379">
        <ele>167.7</ele>
        <time>2016-03-28T09:27:18Z</time>
      </trkpt>
      <trkpt lat="43.30641" lon="2.09382">
        <ele>168</ele>
        <time>2016-03-28T09:27:20Z</time>
      </trkpt>
      <trkpt lat="43.30625" lon="2.09386">
        <ele>168.3</ele>
        <time>2016-03-28T09:27:22Z</time>
      </trkpt>
      <trkpt lat="43.3061" lon="2.09392">
        <ele>168.5</ele>
        <time>2016-03-28T09:27:24Z</time>
      </trkpt>
      <trkpt lat="43.30597" lon="2.09398">
        <ele>168.7</ele>
        <time>2016-03-28T09:27:26Z</time>
      </trkpt>
      <trkpt lat="43.30586" lon="2.09404">
        <ele>168.9</ele>
        <time>2016-03-28T09:27:28Z</time>
      </trkpt>
      <trkpt lat="43.30577" lon="2.0941">
        <ele>168.9</ele>
        <time>2016-03-28T09:28:48Z</time>
      </trkpt>
      <trkpt lat="43.30567" lon="2.09416">
        <ele>169</ele>
        <time>2016-03-28T09:28:55Z</time>
      </trkpt>
      <trkpt lat="43.30557" lon="2.09419">
        <ele>169.5</ele>
        <time>2016-03-28T09:29:00Z</time>
      </trkpt>
      <trkpt lat="43.30547" lon="2.09423">
        <ele>169.9</ele>
        <time>2016-03-28T09:29:04Z</time>
      </trkpt>
      <trkpt lat="43.30537" lon="2.09427">
        <ele>170.2</ele>
        <time>2016-03-28T09:29:08Z</time>
      </trkpt>
      <trkpt lat="43.30528" lon="2.09429">
        <ele>170.3</ele>
        <time>2016-03-28T09:29:11Z</time>
      </trkpt>
      <trkpt lat="43.30516" lon="2.09431">
        <ele>170.7</ele>
        <time>2016-03-28T09:29:14Z</time>
      </trkpt>
      <trkpt lat="43.30507" lon="2.09434">
        <ele>171.1</ele>
        <time>2016-03-28T09:29:17Z</time>
      </trkpt>
      <trkpt lat="43.30498" lon="2.09439">
        <ele>171.4</ele>
        <time>2016-03-28T09:29:20Z</time>
      </trkpt>
      <trkpt lat="43.30489" lon="2.0944">
        <ele>171.7</ele>
        <time>2016-03-28T09:29:23Z</time>
      </trkpt>
      <trkpt lat="43.30479" lon="2.09442">
        <ele>172</ele>
        <time>2016-03-28T09:29:27Z</time>
      </trkpt>
      <trkpt lat="43.3047" lon="2.09443">
        <ele>172.2</ele>
        <time>2016-03-28T09:29:30Z</time>
      </trkpt>
      <trkpt lat="43.30459" lon="2.09443">
        <ele>172.6</ele>
        <time>2016-03-28T09:29:34Z</time>
      </trkpt>
      <trkpt lat="43.30448" lon="2.09445">
        <ele>172.9</ele>
        <time>2016-03-28T09:29:38Z</time>
      </trkpt>
      <trkpt lat="43.30438" lon="2.09448">
        <ele>173.3</ele>
        <time>2016-03-28T09:29:42Z</time>
      </trkpt>
      <trkpt lat="43.30428" lon="2.0945">
        <ele>173.7</ele>
        <time>2016-03-28T09:29:48Z</time>
      </trkpt>
      <trkpt lat="43.30416" lon="2.09451">
        <ele>174.9</ele>
        <time>2016-03-28T09:29:51Z</time>
      </trkpt>
      <trkpt lat="43.30406" lon="2.09451">
        <ele>175.3</ele>
        <time>2016-03-28T09:29:53Z</time>
      </trkpt>
      <trkpt lat="43.30396" lon="2.09451">
        <ele>175</ele>
        <time>2016-03-28T09:29:55Z</time>
      </trkpt>
      <trkpt lat="43.30386" lon="2.09451">
        <ele>174.7</ele>
        <time>2016-03-28T09:29:57Z</time>
      </trkpt>
      <trkpt lat="43.30375" lon="2.0945">
        <ele>174.3</ele>
        <time>2016-03-28T09:29:59Z</time>
      </trkpt>
      <trkpt lat="43.30363" lon="2.09449">
        <ele>174.1</ele>
        <time>2016-03-28T09:30:01Z</time>
      </trkpt>
      <trkpt lat="43.30351" lon="2.09447">
        <ele>174.1</ele>
        <time>2016-03-28T09:30:03Z</time>
      </trkpt>
      <trkpt lat="43.3034" lon="2.09445">
        <ele>174</ele>
        <time>2016-03-28T09:30:05Z</time>
      </trkpt>
      <trkpt lat="43.30328" lon="2.09442">
        <ele>173.7</ele>
        <time>2016-03-28T09:30:07Z</time>
      </trkpt>
      <trkpt lat="43.30318" lon="2.09439">
        <ele>172.9</ele>
        <time>2016-03-28T09:30:09Z</time>
      </trkpt>
      <trkpt lat="43.30307" lon="2.09434">
        <ele>172.2</ele>
        <time>2016-03-28T09:30:11Z</time>
      </trkpt>
      <trkpt lat="43.30296" lon="2.09429">
        <ele>171.9</ele>
        <time>2016-03-28T09:30:13Z</time>
      </trkpt>
      <trkpt lat="43.30285" lon="2.09424">
        <ele>171.6</ele>
        <time>2016-03-28T09:30:15Z</time>
      </trkpt>
      <trkpt lat="43.30273" lon="2.09418">
        <ele>171.1</ele>
        <time>2016-03-28T09:30:17Z</time>
      </trkpt>
      <trkpt lat="43.30263" lon="2.09413">
        <ele>170.6</ele>
        <time>2016-03-28T09:30:19Z</time>
      </trkpt>
      <trkpt lat="43.30252" lon="2.09408">
        <ele>170.2</ele>
        <time>2016-03-28T09:30:21Z</time>
      </trkpt>
      <trkpt lat="43.30242" lon="2.09403">
        <ele>169.8</ele>
        <time>2016-03-28T09:30:23Z</time>
      </trkpt>
      <trkpt lat="43.30232" lon="2.09397">
        <ele>169.5</ele>
        <time>2016-03-28T09:30:25Z</time>
      </trkpt>
      <trkpt lat="43.30221" lon="2.09391">
        <ele>169.4</ele>
        <time>2016-03-28T09:30:27Z</time>
      </trkpt>
      <trkpt lat="43.3021" lon="2.09385">
        <ele>169.2</ele>
        <time>2016-03-28T09:30:29Z</time>
      </trkpt>
      <trkpt lat="43.302" lon="2.09379">
        <ele>169.1</ele>
        <time>2016-03-28T09:30:31Z</time>
      </trkpt>
      <trkpt lat="43.30188" lon="2.09374">
        <ele>168.9</ele>
        <time>2016-03-28T09:30:33Z</time>
      </trkpt>
      <trkpt lat="43.30176" lon="2.0937">
        <ele>168.6</ele>
        <time>2016-03-28T09:30:35Z</time>
      </trkpt>
      <trkpt lat="43.30164" lon="2.09367">
        <ele>168</ele>
        <time>2016-03-28T09:30:37Z</time>
      </trkpt>
      <trkpt lat="43.30151" lon="2.09365">
        <ele>167.8</ele>
        <time>2016-03-28T09:30:39Z</time>
      </trkpt>
      <trkpt lat="43.30139" lon="2.09364">
        <ele>167.3</ele>
        <time>2016-03-28T09:30:41Z</time>
      </trkpt>
      <trkpt lat="43.30127" lon="2.09362">
        <ele>166.5</ele>
        <time>2016-03-28T09:30:43Z</time>
      </trkpt>
      <trkpt lat="43.30115" lon="2.09361">
        <ele>165.6</ele>
        <time>2016-03-28T09:30:45Z</time>
      </trkpt>
      <trkpt lat="43.30106" lon="2.0936">
        <ele>165.1</ele>
        <time>2016-03-28T09:30:47Z</time>
      </trkpt>
      <trkpt lat="43.30096" lon="2.0936">
        <ele>164.6</ele>
        <time>2016-03-28T09:30:49Z</time>
      </trkpt>
      <trkpt lat="43.30085" lon="2.09359">
        <ele>164.2</ele>
        <time>2016-03-28T09:30:51Z</time>
      </trkpt>
      <trkpt lat="43.30074" lon="2.09357">
        <ele>163.5</ele>
        <time>2016-03-28T09:30:53Z</time>
      </trkpt>
      <trkpt lat="43.30064" lon="2.09356">
        <ele>162.7</ele>
        <time>2016-03-28T09:30:55Z</time>
      </trkpt>
      <trkpt lat="43.30054" lon="2.09354">
        <ele>162</ele>
        <time>2016-03-28T09:30:57Z</time>
      </trkpt>
      <trkpt lat="43.30043" lon="2.09353">
        <ele>161.3</ele>
        <time>2016-03-28T09:30:59Z</time>
      </trkpt>
      <trkpt lat="43.30032" lon="2.09352">
        <ele>160.7</ele>
        <time>2016-03-28T09:31:01Z</time>
      </trkpt>
      <trkpt lat="43.30022" lon="2.09351">
        <ele>160.3</ele>
        <time>2016-03-28T09:31:03Z</time>
      </trkpt>
      <trkpt lat="43.30011" lon="2.0935">
        <ele>160.3</ele>
        <time>2016-03-28T09:31:05Z</time>
      </trkpt>
      <trkpt lat="43.30001" lon="2.09349">
        <ele>160.2</ele>
        <time>2016-03-28T09:31:07Z</time>
      </trkpt>
      <trkpt lat="43.29991" lon="2.09348">
        <ele>160.2</ele>
        <time>2016-03-28T09:31:09Z</time>
      </trkpt>
      <trkpt lat="43.2998" lon="2.09347">
        <ele>160.3</ele>
        <time>2016-03-28T09:31:11Z</time>
      </trkpt>
      <trkpt lat="43.2997" lon="2.09346">
        <ele>160.6</ele>
        <time>2016-03-28T09:31:13Z</time>
      </trkpt>
      <trkpt lat="43.29959" lon="2.09349">
        <ele>160.8</ele>
        <time>2016-03-28T09:31:18Z</time>
      </trkpt>
      <trkpt lat="43.29957" lon="2.09362">
        <ele>161.2</ele>
        <time>2016-03-28T09:31:24Z</time>
      </trkpt>
      <trkpt lat="43.29951" lon="2.09376">
        <ele>161.2</ele>
        <time>2016-03-28T09:31:29Z</time>
      </trkpt>
      <trkpt lat="43.29945" lon="2.09388">
        <ele>161</ele>
        <time>2016-03-28T09:31:33Z</time>
      </trkpt>
      <trkpt lat="43.29939" lon="2.094">
        <ele>161</ele>
        <time>2016-03-28T09:31:37Z</time>
      </trkpt>
      <trkpt lat="43.29933" lon="2.09412">
        <ele>161.1</ele>
        <time>2016-03-28T09:31:41Z</time>
      </trkpt>
      <trkpt lat="43.29941" lon="2.09397">
        <ele>163.2</ele>
        <time>2016-03-28T09:33:16Z</time>
      </trkpt>
      <trkpt lat="43.29946" lon="2.09387">
        <ele>163.3</ele>
        <time>2016-03-28T09:33:20Z</time>
      </trkpt>
      <trkpt lat="43.29952" lon="2.09377">
        <ele>163.2</ele>
        <time>2016-03-28T09:33:26Z</time>
      </trkpt>
      <trkpt lat="43.29957" lon="2.09361">
        <ele>163.4</ele>
        <time>2016-03-28T09:33:59Z</time>
      </trkpt>
      <trkpt lat="43.29959" lon="2.09348">
        <ele>163.9</ele>
        <time>2016-03-28T09:34:09Z</time>
      </trkpt>
      <trkpt lat="43.29948" lon="2.09339">
        <ele>164.1</ele>
        <time>2016-03-28T09:34:20Z</time>
      </trkpt>
      <trkpt lat="43.29937" lon="2.09336">
        <ele>164.2</ele>
        <time>2016-03-28T09:34:22Z</time>
      </trkpt>
      <trkpt lat="43.29927" lon="2.09332">
        <ele>164.5</ele>
        <time>2016-03-28T09:34:24Z</time>
      </trkpt>
      <trkpt lat="43.29913" lon="2.09326">
        <ele>164.9</ele>
        <time>2016-03-28T09:34:26Z</time>
      </trkpt>
      <trkpt lat="43.29899" lon="2.09318">
        <ele>165.2</ele>
        <time>2016-03-28T09:34:28Z</time>
      </trkpt>
      <trkpt lat="43.29883" lon="2.09308">
        <ele>165.3</ele>
        <time>2016-03-28T09:34:30Z</time>
      </trkpt>
      <trkpt lat="43.29874" lon="2.09302">
        <ele>165.3</ele>
        <time>2016-03-28T09:34:31Z</time>
      </trkpt>
      <trkpt lat="43.29865" lon="2.09295">
        <ele>165.3</ele>
        <time>2016-03-28T09:34:32Z</time>
      </trkpt>
      <trkpt lat="43.29857" lon="2.09288">
        <ele>165.2</ele>
        <time>2016-03-28T09:34:33Z</time>
      </trkpt>
      <trkpt lat="43.29848" lon="2.09281">
        <ele>165.1</ele>
        <time>2016-03-28T09:34:34Z</time>
      </trkpt>
      <trkpt lat="43.29839" lon="2.09275">
        <ele>164.9</ele>
        <time>2016-03-28T09:34:35Z</time>
      </trkpt>
      <trkpt lat="43.29831" lon="2.09268">
        <ele>164.9</ele>
        <time>2016-03-28T09:34:36Z</time>
      </trkpt>
      <trkpt lat="43.29815" lon="2.09256">
        <ele>164.8</ele>
        <time>2016-03-28T09:34:38Z</time>
      </trkpt>
      <trkpt lat="43.29807" lon="2.09249">
        <ele>164.8</ele>
        <time>2016-03-28T09:34:39Z</time>
      </trkpt>
      <trkpt lat="43.29799" lon="2.09242">
        <ele>164.6</ele>
        <time>2016-03-28T09:34:40Z</time>
      </trkpt>
      <trkpt lat="43.29786" lon="2.0923">
        <ele>164.3</ele>
        <time>2016-03-28T09:34:42Z</time>
      </trkpt>
      <trkpt lat="43.29774" lon="2.0922">
        <ele>164</ele>
        <time>2016-03-28T09:34:44Z</time>
      </trkpt>
      <trkpt lat="43.29762" lon="2.09209">
        <ele>163.9</ele>
        <time>2016-03-28T09:34:46Z</time>
      </trkpt>
      <trkpt lat="43.29748" lon="2.09198">
        <ele>163.7</ele>
        <time>2016-03-28T09:34:48Z</time>
      </trkpt>
      <trkpt lat="43.29733" lon="2.09186">
        <ele>163.6</ele>
        <time>2016-03-28T09:34:50Z</time>
      </trkpt>
      <trkpt lat="43.29719" lon="2.09174">
        <ele>163.3</ele>
        <time>2016-03-28T09:34:52Z</time>
      </trkpt>
      <trkpt lat="43.29705" lon="2.09164">
        <ele>162.9</ele>
        <time>2016-03-28T09:34:54Z</time>
      </trkpt>
      <trkpt lat="43.29691" lon="2.09153">
        <ele>162.3</ele>
        <time>2016-03-28T09:34:56Z</time>
      </trkpt>
      <trkpt lat="43.29677" lon="2.09141">
        <ele>162.3</ele>
        <time>2016-03-28T09:34:58Z</time>
      </trkpt>
      <trkpt lat="43.29662" lon="2.09129">
        <ele>162.2</ele>
        <time>2016-03-28T09:35:00Z</time>
      </trkpt>
      <trkpt lat="43.29648" lon="2.09117">
        <ele>162.2</ele>
        <time>2016-03-28T09:35:02Z</time>
      </trkpt>
      <trkpt lat="43.29634" lon="2.09106">
        <ele>162.3</ele>
        <time>2016-03-28T09:35:04Z</time>
      </trkpt>
      <trkpt lat="43.29621" lon="2.09096">
        <ele>162.8</ele>
        <time>2016-03-28T09:35:06Z</time>
      </trkpt>
      <trkpt lat="43.29607" lon="2.09086">
        <ele>163.5</ele>
        <time>2016-03-28T09:35:08Z</time>
      </trkpt>
      <trkpt lat="43.29595" lon="2.09076">
        <ele>164.5</ele>
        <time>2016-03-28T09:35:10Z</time>
      </trkpt>
      <trkpt lat="43.29581" lon="2.09065">
        <ele>165.4</ele>
        <time>2016-03-28T09:35:12Z</time>
      </trkpt>
      <trkpt lat="43.29568" lon="2.09055">
        <ele>166.3</ele>
        <time>2016-03-28T09:35:14Z</time>
      </trkpt>
      <trkpt lat="43.29557" lon="2.09047">
        <ele>167.1</ele>
        <time>2016-03-28T09:35:16Z</time>
      </trkpt>
      <trkpt lat="43.29544" lon="2.09041">
        <ele>167.9</ele>
        <time>2016-03-28T09:35:18Z</time>
      </trkpt>
      <trkpt lat="43.2953" lon="2.09038">
        <ele>168.5</ele>
        <time>2016-03-28T09:35:20Z</time>
      </trkpt>
      <trkpt lat="43.29515" lon="2.09035">
        <ele>168.9</ele>
        <time>2016-03-28T09:35:22Z</time>
      </trkpt>
      <trkpt lat="43.295" lon="2.09033">
        <ele>169.1</ele>
        <time>2016-03-28T09:35:24Z</time>
      </trkpt>
      <trkpt lat="43.29485" lon="2.09031">
        <ele>169.6</ele>
        <time>2016-03-28T09:35:26Z</time>
      </trkpt>
      <trkpt lat="43.29472" lon="2.09029">
        <ele>170.4</ele>
        <time>2016-03-28T09:35:28Z</time>
      </trkpt>
      <trkpt lat="43.29458" lon="2.09027">
        <ele>171.8</ele>
        <time>2016-03-28T09:35:30Z</time>
      </trkpt>
      <trkpt lat="43.29444" lon="2.09023">
        <ele>172.7</ele>
        <time>2016-03-28T09:35:32Z</time>
      </trkpt>
      <trkpt lat="43.29429" lon="2.09019">
        <ele>173.3</ele>
        <time>2016-03-28T09:35:34Z</time>
      </trkpt>
      <trkpt lat="43.29415" lon="2.09014">
        <ele>173.7</ele>
        <time>2016-03-28T09:35:36Z</time>
      </trkpt>
      <trkpt lat="43.294" lon="2.09008">
        <ele>174.2</ele>
        <time>2016-03-28T09:35:38Z</time>
      </trkpt>
      <trkpt lat="43.29386" lon="2.09001">
        <ele>174.6</ele>
        <time>2016-03-28T09:35:40Z</time>
      </trkpt>
      <trkpt lat="43.29371" lon="2.08993">
        <ele>175.1</ele>
        <time>2016-03-28T09:35:42Z</time>
      </trkpt>
      <trkpt lat="43.29357" lon="2.08984">
        <ele>175.7</ele>
        <time>2016-03-28T09:35:44Z</time>
      </trkpt>
      <trkpt lat="43.29343" lon="2.08974">
        <ele>176.2</ele>
        <time>2016-03-28T09:35:46Z</time>
      </trkpt>
      <trkpt lat="43.29329" lon="2.08963">
        <ele>176.7</ele>
        <time>2016-03-28T09:35:48Z</time>
      </trkpt>
      <trkpt lat="43.29316" lon="2.08951">
        <ele>177.5</ele>
        <time>2016-03-28T09:35:50Z</time>
      </trkpt>
      <trkpt lat="43.29303" lon="2.08938">
        <ele>178.5</ele>
        <time>2016-03-28T09:35:52Z</time>
      </trkpt>
      <trkpt lat="43.2929" lon="2.08924">
        <ele>179.7</ele>
        <time>2016-03-28T09:35:54Z</time>
      </trkpt>
      <trkpt lat="43.29276" lon="2.08911">
        <ele>180.6</ele>
        <time>2016-03-28T09:35:56Z</time>
      </trkpt>
      <trkpt lat="43.29264" lon="2.08899">
        <ele>181.6</ele>
        <time>2016-03-28T09:35:58Z</time>
      </trkpt>
      <trkpt lat="43.29252" lon="2.08887">
        <ele>182.6</ele>
        <time>2016-03-28T09:36:00Z</time>
      </trkpt>
      <trkpt lat="43.2924" lon="2.08875">
        <ele>183.3</ele>
        <time>2016-03-28T09:36:02Z</time>
      </trkpt>
      <trkpt lat="43.29229" lon="2.08866">
        <ele>183.9</ele>
        <time>2016-03-28T09:36:04Z</time>
      </trkpt>
      <trkpt lat="43.2922" lon="2.0886">
        <ele>184.1</ele>
        <time>2016-03-28T09:36:06Z</time>
      </trkpt>
      <trkpt lat="43.29222" lon="2.08846">
        <ele>184.2</ele>
        <time>2016-03-28T09:36:12Z</time>
      </trkpt>
      <trkpt lat="43.29228" lon="2.08833">
        <ele>184.4</ele>
        <time>2016-03-28T09:36:17Z</time>
      </trkpt>
      <trkpt lat="43.29235" lon="2.08821">
        <ele>184.4</ele>
        <time>2016-03-28T09:36:21Z</time>
      </trkpt>
      <trkpt lat="43.29241" lon="2.0881">
        <ele>184.4</ele>
        <time>2016-03-28T09:36:24Z</time>
      </trkpt>
      <trkpt lat="43.29248" lon="2.08802">
        <ele>184.5</ele>
        <time>2016-03-28T09:36:27Z</time>
      </trkpt>
      <trkpt lat="43.29254" lon="2.08789">
        <ele>184.4</ele>
        <time>2016-03-28T09:36:42Z</time>
      </trkpt>
      <trkpt lat="43.2926" lon="2.08774">
        <ele>184.2</ele>
        <time>2016-03-28T09:36:45Z</time>
      </trkpt>
      <trkpt lat="43.29266" lon="2.08763">
        <ele>183.9</ele>
        <time>2016-03-28T09:36:47Z</time>
      </trkpt>
      <trkpt lat="43.29272" lon="2.08752">
        <ele>183.5</ele>
        <time>2016-03-28T09:36:49Z</time>
      </trkpt>
      <trkpt lat="43.29279" lon="2.08741">
        <ele>183.3</ele>
        <time>2016-03-28T09:36:51Z</time>
      </trkpt>
      <trkpt lat="43.29285" lon="2.08729">
        <ele>183.1</ele>
        <time>2016-03-28T09:36:53Z</time>
      </trkpt>
      <trkpt lat="43.29292" lon="2.08716">
        <ele>182.8</ele>
        <time>2016-03-28T09:36:55Z</time>
      </trkpt>
      <trkpt lat="43.29298" lon="2.08704">
        <ele>182.5</ele>
        <time>2016-03-28T09:36:57Z</time>
      </trkpt>
      <trkpt lat="43.29304" lon="2.08691">
        <ele>182.4</ele>
        <time>2016-03-28T09:36:59Z</time>
      </trkpt>
      <trkpt lat="43.2931" lon="2.08675">
        <ele>182.4</ele>
        <time>2016-03-28T09:37:01Z</time>
      </trkpt>
      <trkpt lat="43.29315" lon="2.08658">
        <ele>182.6</ele>
        <time>2016-03-28T09:37:03Z</time>
      </trkpt>
      <trkpt lat="43.29321" lon="2.08639">
        <ele>182.9</ele>
        <time>2016-03-28T09:37:05Z</time>
      </trkpt>
      <trkpt lat="43.29326" lon="2.08619">
        <ele>183.3</ele>
        <time>2016-03-28T09:37:07Z</time>
      </trkpt>
      <trkpt lat="43.29331" lon="2.086">
        <ele>183.1</ele>
        <time>2016-03-28T09:37:09Z</time>
      </trkpt>
      <trkpt lat="43.29338" lon="2.08579">
        <ele>183.1</ele>
        <time>2016-03-28T09:37:11Z</time>
      </trkpt>
      <trkpt lat="43.29343" lon="2.0856">
        <ele>182.8</ele>
        <time>2016-03-28T09:37:13Z</time>
      </trkpt>
      <trkpt lat="43.2935" lon="2.08539">
        <ele>182.8</ele>
        <time>2016-03-28T09:37:15Z</time>
      </trkpt>
      <trkpt lat="43.29356" lon="2.08518">
        <ele>183.4</ele>
        <time>2016-03-28T09:37:17Z</time>
      </trkpt>
      <trkpt lat="43.29361" lon="2.08499">
        <ele>183.6</ele>
        <time>2016-03-28T09:37:19Z</time>
      </trkpt>
      <trkpt lat="43.29365" lon="2.08479">
        <ele>183.9</ele>
        <time>2016-03-28T09:37:21Z</time>
      </trkpt>
      <trkpt lat="43.29368" lon="2.0846">
        <ele>184.3</ele>
        <time>2016-03-28T09:37:23Z</time>
      </trkpt>
      <trkpt lat="43.29369" lon="2.08442">
        <ele>184.2</ele>
        <time>2016-03-28T09:37:25Z</time>
      </trkpt>
      <trkpt lat="43.2937" lon="2.08425">
        <ele>184.2</ele>
        <time>2016-03-28T09:37:27Z</time>
      </trkpt>
      <trkpt lat="43.2937" lon="2.08412">
        <ele>184.1</ele>
        <time>2016-03-28T09:37:29Z</time>
      </trkpt>
      <trkpt lat="43.29372" lon="2.08396">
        <ele>184.4</ele>
        <time>2016-03-28T09:37:32Z</time>
      </trkpt>
      <trkpt lat="43.29376" lon="2.0838">
        <ele>183.7</ele>
        <time>2016-03-28T09:37:35Z</time>
      </trkpt>
      <trkpt lat="43.29382" lon="2.08366">
        <ele>183.3</ele>
        <time>2016-03-28T09:37:38Z</time>
      </trkpt>
      <trkpt lat="43.29388" lon="2.08351">
        <ele>182.6</ele>
        <time>2016-03-28T09:37:41Z</time>
      </trkpt>
      <trkpt lat="43.29394" lon="2.08339">
        <ele>182.4</ele>
        <time>2016-03-28T09:37:44Z</time>
      </trkpt>
      <trkpt lat="43.29403" lon="2.0833">
        <ele>182.3</ele>
        <time>2016-03-28T09:37:47Z</time>
      </trkpt>
      <trkpt lat="43.2941" lon="2.08321">
        <ele>182.2</ele>
        <time>2016-03-28T09:37:51Z</time>
      </trkpt>
      <trkpt lat="43.29404" lon="2.08311">
        <ele>181.9</ele>
        <time>2016-03-28T09:37:55Z</time>
      </trkpt>
      <trkpt lat="43.29403" lon="2.08297">
        <ele>181.7</ele>
        <time>2016-03-28T09:37:58Z</time>
      </trkpt>
      <trkpt lat="43.29405" lon="2.08284">
        <ele>181.7</ele>
        <time>2016-03-28T09:38:00Z</time>
      </trkpt>
      <trkpt lat="43.29409" lon="2.08266">
        <ele>181.7</ele>
        <time>2016-03-28T09:38:03Z</time>
      </trkpt>
      <trkpt lat="43.29411" lon="2.08253">
        <ele>181.3</ele>
        <time>2016-03-28T09:38:05Z</time>
      </trkpt>
      <trkpt lat="43.29413" lon="2.08239">
        <ele>181.3</ele>
        <time>2016-03-28T09:38:07Z</time>
      </trkpt>
      <trkpt lat="43.29414" lon="2.08226">
        <ele>181.4</ele>
        <time>2016-03-28T09:38:09Z</time>
      </trkpt>
      <trkpt lat="43.29416" lon="2.08212">
        <ele>181.3</ele>
        <time>2016-03-28T09:38:11Z</time>
      </trkpt>
      <trkpt lat="43.29417" lon="2.082">
        <ele>180.9</ele>
        <time>2016-03-28T09:38:13Z</time>
      </trkpt>
      <trkpt lat="43.29418" lon="2.08184">
        <ele>180.9</ele>
        <time>2016-03-28T09:38:16Z</time>
      </trkpt>
      <trkpt lat="43.29418" lon="2.08168">
        <ele>180.3</ele>
        <time>2016-03-28T09:38:19Z</time>
      </trkpt>
      <trkpt lat="43.29419" lon="2.08156">
        <ele>180</ele>
        <time>2016-03-28T09:38:21Z</time>
      </trkpt>
      <trkpt lat="43.29419" lon="2.08143">
        <ele>180.3</ele>
        <time>2016-03-28T09:38:23Z</time>
      </trkpt>
      <trkpt lat="43.2942" lon="2.0813">
        <ele>180.6</ele>
        <time>2016-03-28T09:38:25Z</time>
      </trkpt>
      <trkpt lat="43.29421" lon="2.08117">
        <ele>180.7</ele>
        <time>2016-03-28T09:38:27Z</time>
      </trkpt>
      <trkpt lat="43.29422" lon="2.08104">
        <ele>180.8</ele>
        <time>2016-03-28T09:38:29Z</time>
      </trkpt>
      <trkpt lat="43.29423" lon="2.08085">
        <ele>179.7</ele>
        <time>2016-03-28T09:38:32Z</time>
      </trkpt>
      <trkpt lat="43.29424" lon="2.08071">
        <ele>179.1</ele>
        <time>2016-03-28T09:38:34Z</time>
      </trkpt>
      <trkpt lat="43.29426" lon="2.08056">
        <ele>177.6</ele>
        <time>2016-03-28T09:38:36Z</time>
      </trkpt>
      <trkpt lat="43.29428" lon="2.08041">
        <ele>176.8</ele>
        <time>2016-03-28T09:38:38Z</time>
      </trkpt>
      <trkpt lat="43.2943" lon="2.08026">
        <ele>176.4</ele>
        <time>2016-03-28T09:38:40Z</time>
      </trkpt>
      <trkpt lat="43.29433" lon="2.08011">
        <ele>175.9</ele>
        <time>2016-03-28T09:38:42Z</time>
      </trkpt>
      <trkpt lat="43.29435" lon="2.07996">
        <ele>175.7</ele>
        <time>2016-03-28T09:38:44Z</time>
      </trkpt>
      <trkpt lat="43.29437" lon="2.07982">
        <ele>175.8</ele>
        <time>2016-03-28T09:38:46Z</time>
      </trkpt>
      <trkpt lat="43.2944" lon="2.07965">
        <ele>174.4</ele>
        <time>2016-03-28T09:38:48Z</time>
      </trkpt>
      <trkpt lat="43.29442" lon="2.0795">
        <ele>172.4</ele>
        <time>2016-03-28T09:38:50Z</time>
      </trkpt>
      <trkpt lat="43.29443" lon="2.07934">
        <ele>170.6</ele>
        <time>2016-03-28T09:38:52Z</time>
      </trkpt>
      <trkpt lat="43.29444" lon="2.07917">
        <ele>169.7</ele>
        <time>2016-03-28T09:38:54Z</time>
      </trkpt>
      <trkpt lat="43.29444" lon="2.07901">
        <ele>169.4</ele>
        <time>2016-03-28T09:38:56Z</time>
      </trkpt>
      <trkpt lat="43.29444" lon="2.07887">
        <ele>168.7</ele>
        <time>2016-03-28T09:38:58Z</time>
      </trkpt>
      <trkpt lat="43.29444" lon="2.07872">
        <ele>167.8</ele>
        <time>2016-03-28T09:39:00Z</time>
      </trkpt>
      <trkpt lat="43.29445" lon="2.07857">
        <ele>166.6</ele>
        <time>2016-03-28T09:39:02Z</time>
      </trkpt>
      <trkpt lat="43.29445" lon="2.0784">
        <ele>165.4</ele>
        <time>2016-03-28T09:39:04Z</time>
      </trkpt>
      <trkpt lat="43.29445" lon="2.07823">
        <ele>164.6</ele>
        <time>2016-03-28T09:39:06Z</time>
      </trkpt>
      <trkpt lat="43.29446" lon="2.07808">
        <ele>163.4</ele>
        <time>2016-03-28T09:39:08Z</time>
      </trkpt>
      <trkpt lat="43.29448" lon="2.07793">
        <ele>162.5</ele>
        <time>2016-03-28T09:39:10Z</time>
      </trkpt>
      <trkpt lat="43.29449" lon="2.07778">
        <ele>162.1</ele>
        <time>2016-03-28T09:39:12Z</time>
      </trkpt>
      <trkpt lat="43.2945" lon="2.07762">
        <ele>162</ele>
        <time>2016-03-28T09:39:14Z</time>
      </trkpt>
      <trkpt lat="43.29449" lon="2.07746">
        <ele>161.5</ele>
        <time>2016-03-28T09:39:16Z</time>
      </trkpt>
      <trkpt lat="43.2945" lon="2.07731">
        <ele>161</ele>
        <time>2016-03-28T09:39:18Z</time>
      </trkpt>
      <trkpt lat="43.2945" lon="2.07715">
        <ele>160.8</ele>
        <time>2016-03-28T09:39:20Z</time>
      </trkpt>
      <trkpt lat="43.29454" lon="2.077">
        <ele>160.6</ele>
        <time>2016-03-28T09:39:22Z</time>
      </trkpt>
      <trkpt lat="43.29457" lon="2.07688">
        <ele>159.9</ele>
        <time>2016-03-28T09:39:24Z</time>
      </trkpt>
      <trkpt lat="43.29461" lon="2.07674">
        <ele>159.1</ele>
        <time>2016-03-28T09:39:26Z</time>
      </trkpt>
      <trkpt lat="43.29464" lon="2.0766">
        <ele>158.6</ele>
        <time>2016-03-28T09:39:28Z</time>
      </trkpt>
      <trkpt lat="43.29468" lon="2.07647">
        <ele>158.4</ele>
        <time>2016-03-28T09:39:30Z</time>
      </trkpt>
      <trkpt lat="43.29473" lon="2.07631">
        <ele>158.6</ele>
        <time>2016-03-28T09:39:32Z</time>
      </trkpt>
      <trkpt lat="43.29477" lon="2.07615">
        <ele>159.2</ele>
        <time>2016-03-28T09:39:34Z</time>
      </trkpt>
      <trkpt lat="43.29481" lon="2.07599">
        <ele>159.7</ele>
        <time>2016-03-28T09:39:36Z</time>
      </trkpt>
      <trkpt lat="43.29486" lon="2.07582">
        <ele>160.2</ele>
        <time>2016-03-28T09:39:38Z</time>
      </trkpt>
      <trkpt lat="43.29491" lon="2.07565">
        <ele>160.6</ele>
        <time>2016-03-28T09:39:40Z</time>
      </trkpt>
      <trkpt lat="43.29496" lon="2.07549">
        <ele>161.1</ele>
        <time>2016-03-28T09:39:42Z</time>
      </trkpt>
      <trkpt lat="43.295" lon="2.07534">
        <ele>161.5</ele>
        <time>2016-03-28T09:39:44Z</time>
      </trkpt>
      <trkpt lat="43.29505" lon="2.07518">
        <ele>161.5</ele>
        <time>2016-03-28T09:39:46Z</time>
      </trkpt>
      <trkpt lat="43.29509" lon="2.07502">
        <ele>161.6</ele>
        <time>2016-03-28T09:39:48Z</time>
      </trkpt>
      <trkpt lat="43.29513" lon="2.07486">
        <ele>161.8</ele>
        <time>2016-03-28T09:39:50Z</time>
      </trkpt>
      <trkpt lat="43.29518" lon="2.07471">
        <ele>161.8</ele>
        <time>2016-03-28T09:39:52Z</time>
      </trkpt>
      <trkpt lat="43.29522" lon="2.07457">
        <ele>161.6</ele>
        <time>2016-03-28T09:39:54Z</time>
      </trkpt>
      <trkpt lat="43.29526" lon="2.07443">
        <ele>161.4</ele>
        <time>2016-03-28T09:39:56Z</time>
      </trkpt>
      <trkpt lat="43.29529" lon="2.07431">
        <ele>161.5</ele>
        <time>2016-03-28T09:39:58Z</time>
      </trkpt>
      <trkpt lat="43.29534" lon="2.0742">
        <ele>161.6</ele>
        <time>2016-03-28T09:40:03Z</time>
      </trkpt>
      <trkpt lat="43.29545" lon="2.07424">
        <ele>161.6</ele>
        <time>2016-03-28T09:40:07Z</time>
      </trkpt>
      <trkpt lat="43.29555" lon="2.07429">
        <ele>161.8</ele>
        <time>2016-03-28T09:40:10Z</time>
      </trkpt>
      <trkpt lat="43.29566" lon="2.07434">
        <ele>162.4</ele>
        <time>2016-03-28T09:40:13Z</time>
      </trkpt>
      <trkpt lat="43.29578" lon="2.07439">
        <ele>163.1</ele>
        <time>2016-03-28T09:40:16Z</time>
      </trkpt>
      <trkpt lat="43.29589" lon="2.07439">
        <ele>163.2</ele>
        <time>2016-03-28T09:40:20Z</time>
      </trkpt>
      <trkpt lat="43.2959" lon="2.07425">
        <ele>162.8</ele>
        <time>2016-03-28T09:40:35Z</time>
      </trkpt>
      <trkpt lat="43.29586" lon="2.07406">
        <ele>162.6</ele>
        <time>2016-03-28T09:40:38Z</time>
      </trkpt>
      <trkpt lat="43.29581" lon="2.07388">
        <ele>162.7</ele>
        <time>2016-03-28T09:40:40Z</time>
      </trkpt>
      <trkpt lat="43.29576" lon="2.0737">
        <ele>163.1</ele>
        <time>2016-03-28T09:40:42Z</time>
      </trkpt>
      <trkpt lat="43.29571" lon="2.0735">
        <ele>163.6</ele>
        <time>2016-03-28T09:40:44Z</time>
      </trkpt>
      <trkpt lat="43.29564" lon="2.07328">
        <ele>163.7</ele>
        <time>2016-03-28T09:40:46Z</time>
      </trkpt>
      <trkpt lat="43.2956" lon="2.07316">
        <ele>163.6</ele>
        <time>2016-03-28T09:40:47Z</time>
      </trkpt>
      <trkpt lat="43.29557" lon="2.07304">
        <ele>163.7</ele>
        <time>2016-03-28T09:40:48Z</time>
      </trkpt>
      <trkpt lat="43.29553" lon="2.07292">
        <ele>163.7</ele>
        <time>2016-03-28T09:40:49Z</time>
      </trkpt>
      <trkpt lat="43.2955" lon="2.07279">
        <ele>163.7</ele>
        <time>2016-03-28T09:40:50Z</time>
      </trkpt>
      <trkpt lat="43.29546" lon="2.07266">
        <ele>163.8</ele>
        <time>2016-03-28T09:40:51Z</time>
      </trkpt>
      <trkpt lat="43.29542" lon="2.07253">
        <ele>164</ele>
        <time>2016-03-28T09:40:52Z</time>
      </trkpt>
      <trkpt lat="43.29539" lon="2.0724">
        <ele>164.2</ele>
        <time>2016-03-28T09:40:53Z</time>
      </trkpt>
      <trkpt lat="43.29533" lon="2.07215">
        <ele>164.2</ele>
        <time>2016-03-28T09:40:55Z</time>
      </trkpt>
      <trkpt lat="43.29531" lon="2.07203">
        <ele>164.3</ele>
        <time>2016-03-28T09:40:56Z</time>
      </trkpt>
      <trkpt lat="43.29528" lon="2.0719">
        <ele>164.3</ele>
        <time>2016-03-28T09:40:57Z</time>
      </trkpt>
      <trkpt lat="43.29527" lon="2.07177">
        <ele>164.2</ele>
        <time>2016-03-28T09:40:58Z</time>
      </trkpt>
      <trkpt lat="43.29525" lon="2.07162">
        <ele>164</ele>
        <time>2016-03-28T09:40:59Z</time>
      </trkpt>
      <trkpt lat="43.29521" lon="2.07137">
        <ele>164</ele>
        <time>2016-03-28T09:41:01Z</time>
      </trkpt>
      <trkpt lat="43.29519" lon="2.07123">
        <ele>164</ele>
        <time>2016-03-28T09:41:02Z</time>
      </trkpt>
      <trkpt lat="43.29517" lon="2.07108">
        <ele>164</ele>
        <time>2016-03-28T09:41:03Z</time>
      </trkpt>
      <trkpt lat="43.29514" lon="2.07085">
        <ele>163.9</ele>
        <time>2016-03-28T09:41:05Z</time>
      </trkpt>
      <trkpt lat="43.29512" lon="2.07072">
        <ele>163.8</ele>
        <time>2016-03-28T09:41:06Z</time>
      </trkpt>
      <trkpt lat="43.2951" lon="2.07058">
        <ele>163.8</ele>
        <time>2016-03-28T09:41:07Z</time>
      </trkpt>
      <trkpt lat="43.29507" lon="2.07045">
        <ele>163.5</ele>
        <time>2016-03-28T09:41:08Z</time>
      </trkpt>
      <trkpt lat="43.29504" lon="2.07032">
        <ele>163</ele>
        <time>2016-03-28T09:41:09Z</time>
      </trkpt>
      <trkpt lat="43.295" lon="2.07019">
        <ele>162.7</ele>
        <time>2016-03-28T09:41:10Z</time>
      </trkpt>
      <trkpt lat="43.29496" lon="2.07006">
        <ele>161.5</ele>
        <time>2016-03-28T09:41:11Z</time>
      </trkpt>
      <trkpt lat="43.29491" lon="2.06993">
        <ele>160.4</ele>
        <time>2016-03-28T09:41:12Z</time>
      </trkpt>
      <trkpt lat="43.29486" lon="2.0698">
        <ele>159.2</ele>
        <time>2016-03-28T09:41:13Z</time>
      </trkpt>
      <trkpt lat="43.29481" lon="2.06967">
        <ele>157.8</ele>
        <time>2016-03-28T09:41:14Z</time>
      </trkpt>
      <trkpt lat="43.29476" lon="2.06953">
        <ele>156.5</ele>
        <time>2016-03-28T09:41:15Z</time>
      </trkpt>
      <trkpt lat="43.2947" lon="2.06937">
        <ele>155.1</ele>
        <time>2016-03-28T09:41:16Z</time>
      </trkpt>
      <trkpt lat="43.29465" lon="2.06922">
        <ele>154</ele>
        <time>2016-03-28T09:41:17Z</time>
      </trkpt>
      <trkpt lat="43.29461" lon="2.06907">
        <ele>153.1</ele>
        <time>2016-03-28T09:41:18Z</time>
      </trkpt>
      <trkpt lat="43.29456" lon="2.06892">
        <ele>152.1</ele>
        <time>2016-03-28T09:41:19Z</time>
      </trkpt>
      <trkpt lat="43.29452" lon="2.06878">
        <ele>151</ele>
        <time>2016-03-28T09:41:20Z</time>
      </trkpt>
      <trkpt lat="43.29448" lon="2.06862">
        <ele>150</ele>
        <time>2016-03-28T09:41:21Z</time>
      </trkpt>
      <trkpt lat="43.29444" lon="2.06848">
        <ele>149</ele>
        <time>2016-03-28T09:41:22Z</time>
      </trkpt>
      <trkpt lat="43.2944" lon="2.06834">
        <ele>147.8</ele>
        <time>2016-03-28T09:41:23Z</time>
      </trkpt>
      <trkpt lat="43.29436" lon="2.0682">
        <ele>146.1</ele>
        <time>2016-03-28T09:41:24Z</time>
      </trkpt>
      <trkpt lat="43.29432" lon="2.06807">
        <ele>144.6</ele>
        <time>2016-03-28T09:41:25Z</time>
      </trkpt>
      <trkpt lat="43.29428" lon="2.06793">
        <ele>143.2</ele>
        <time>2016-03-28T09:41:26Z</time>
      </trkpt>
      <trkpt lat="43.29424" lon="2.06779">
        <ele>142.3</ele>
        <time>2016-03-28T09:41:27Z</time>
      </trkpt>
      <trkpt lat="43.2942" lon="2.06767">
        <ele>141.9</ele>
        <time>2016-03-28T09:41:28Z</time>
      </trkpt>
      <trkpt lat="43.29416" lon="2.06754">
        <ele>141.9</ele>
        <time>2016-03-28T09:41:29Z</time>
      </trkpt>
      <trkpt lat="43.29411" lon="2.06742">
        <ele>141.9</ele>
        <time>2016-03-28T09:41:30Z</time>
      </trkpt>
      <trkpt lat="43.29406" lon="2.06729">
        <ele>141.1</ele>
        <time>2016-03-28T09:41:32Z</time>
      </trkpt>
      <trkpt lat="43.29402" lon="2.06717">
        <ele>140.8</ele>
        <time>2016-03-28T09:41:35Z</time>
      </trkpt>
      <trkpt lat="43.2941" lon="2.06705">
        <ele>140.5</ele>
        <time>2016-03-28T09:41:38Z</time>
      </trkpt>
      <trkpt lat="43.2942" lon="2.06694">
        <ele>140.1</ele>
        <time>2016-03-28T09:41:40Z</time>
      </trkpt>
      <trkpt lat="43.29432" lon="2.0668">
        <ele>139.1</ele>
        <time>2016-03-28T09:41:42Z</time>
      </trkpt>
      <trkpt lat="43.29444" lon="2.06664">
        <ele>137.9</ele>
        <time>2016-03-28T09:41:44Z</time>
      </trkpt>
      <trkpt lat="43.29456" lon="2.06647">
        <ele>137.6</ele>
        <time>2016-03-28T09:41:46Z</time>
      </trkpt>
      <trkpt lat="43.29463" lon="2.06637">
        <ele>137.5</ele>
        <time>2016-03-28T09:41:47Z</time>
      </trkpt>
      <trkpt lat="43.29469" lon="2.06627">
        <ele>137.4</ele>
        <time>2016-03-28T09:41:48Z</time>
      </trkpt>
      <trkpt lat="43.29476" lon="2.06616">
        <ele>137.3</ele>
        <time>2016-03-28T09:41:49Z</time>
      </trkpt>
      <trkpt lat="43.29483" lon="2.06606">
        <ele>137.3</ele>
        <time>2016-03-28T09:41:50Z</time>
      </trkpt>
      <trkpt lat="43.2949" lon="2.06594">
        <ele>137.2</ele>
        <time>2016-03-28T09:41:51Z</time>
      </trkpt>
      <trkpt lat="43.29497" lon="2.06582">
        <ele>137.1</ele>
        <time>2016-03-28T09:41:52Z</time>
      </trkpt>
      <trkpt lat="43.29504" lon="2.0657">
        <ele>136.9</ele>
        <time>2016-03-28T09:41:53Z</time>
      </trkpt>
      <trkpt lat="43.29512" lon="2.06557">
        <ele>136.7</ele>
        <time>2016-03-28T09:41:54Z</time>
      </trkpt>
      <trkpt lat="43.2952" lon="2.06544">
        <ele>136.6</ele>
        <time>2016-03-28T09:41:55Z</time>
      </trkpt>
      <trkpt lat="43.29527" lon="2.06532">
        <ele>136.6</ele>
        <time>2016-03-28T09:41:56Z</time>
      </trkpt>
      <trkpt lat="43.29534" lon="2.06519">
        <ele>136.7</ele>
        <time>2016-03-28T09:41:57Z</time>
      </trkpt>
      <trkpt lat="43.29542" lon="2.06506">
        <ele>137</ele>
        <time>2016-03-28T09:41:58Z</time>
      </trkpt>
      <trkpt lat="43.29549" lon="2.06492">
        <ele>137.2</ele>
        <time>2016-03-28T09:41:59Z</time>
      </trkpt>
      <trkpt lat="43.29557" lon="2.06478">
        <ele>137.5</ele>
        <time>2016-03-28T09:42:00Z</time>
      </trkpt>
      <trkpt lat="43.29565" lon="2.06461">
        <ele>137.6</ele>
        <time>2016-03-28T09:42:01Z</time>
      </trkpt>
      <trkpt lat="43.29573" lon="2.06444">
        <ele>137.5</ele>
        <time>2016-03-28T09:42:02Z</time>
      </trkpt>
      <trkpt lat="43.2958" lon="2.06425">
        <ele>137.5</ele>
        <time>2016-03-28T09:42:03Z</time>
      </trkpt>
      <trkpt lat="43.29587" lon="2.06407">
        <ele>137.5</ele>
        <time>2016-03-28T09:42:04Z</time>
      </trkpt>
      <trkpt lat="43.29595" lon="2.06388">
        <ele>137.5</ele>
        <time>2016-03-28T09:42:05Z</time>
      </trkpt>
      <trkpt lat="43.29602" lon="2.06369">
        <ele>137.6</ele>
        <time>2016-03-28T09:42:06Z</time>
      </trkpt>
      <trkpt lat="43.29609" lon="2.0635">
        <ele>137.8</ele>
        <time>2016-03-28T09:42:07Z</time>
      </trkpt>
      <trkpt lat="43.29616" lon="2.06331">
        <ele>138</ele>
        <time>2016-03-28T09:42:08Z</time>
      </trkpt>
      <trkpt lat="43.29623" lon="2.06311">
        <ele>138.1</ele>
        <time>2016-03-28T09:42:09Z</time>
      </trkpt>
      <trkpt lat="43.2963" lon="2.0629">
        <ele>138</ele>
        <time>2016-03-28T09:42:10Z</time>
      </trkpt>
      <trkpt lat="43.29637" lon="2.06271">
        <ele>138.1</ele>
        <time>2016-03-28T09:42:11Z</time>
      </trkpt>
      <trkpt lat="43.29644" lon="2.06251">
        <ele>138.2</ele>
        <time>2016-03-28T09:42:12Z</time>
      </trkpt>
      <trkpt lat="43.29652" lon="2.0623">
        <ele>138.2</ele>
        <time>2016-03-28T09:42:13Z</time>
      </trkpt>
      <trkpt lat="43.2966" lon="2.0621">
        <ele>138.3</ele>
        <time>2016-03-28T09:42:14Z</time>
      </trkpt>
      <trkpt lat="43.29668" lon="2.06192">
        <ele>138.6</ele>
        <time>2016-03-28T09:42:15Z</time>
      </trkpt>
      <trkpt lat="43.29675" lon="2.06174">
        <ele>138.8</ele>
        <time>2016-03-28T09:42:16Z</time>
      </trkpt>
      <trkpt lat="43.29683" lon="2.06156">
        <ele>138.9</ele>
        <time>2016-03-28T09:42:17Z</time>
      </trkpt>
      <trkpt lat="43.29691" lon="2.06138">
        <ele>139.1</ele>
        <time>2016-03-28T09:42:18Z</time>
      </trkpt>
      <trkpt lat="43.29699" lon="2.0612">
        <ele>139.1</ele>
        <time>2016-03-28T09:42:19Z</time>
      </trkpt>
      <trkpt lat="43.29707" lon="2.06102">
        <ele>138.8</ele>
        <time>2016-03-28T09:42:20Z</time>
      </trkpt>
      <trkpt lat="43.29715" lon="2.06085">
        <ele>138.5</ele>
        <time>2016-03-28T09:42:21Z</time>
      </trkpt>
      <trkpt lat="43.29724" lon="2.06067">
        <ele>138.1</ele>
        <time>2016-03-28T09:42:22Z</time>
      </trkpt>
      <trkpt lat="43.29731" lon="2.06051">
        <ele>138.1</ele>
        <time>2016-03-28T09:42:23Z</time>
      </trkpt>
      <trkpt lat="43.29738" lon="2.06034">
        <ele>138</ele>
        <time>2016-03-28T09:42:24Z</time>
      </trkpt>
      <trkpt lat="43.29745" lon="2.06018">
        <ele>138</ele>
        <time>2016-03-28T09:42:25Z</time>
      </trkpt>
      <trkpt lat="43.29751" lon="2.06002">
        <ele>138.3</ele>
        <time>2016-03-28T09:42:26Z</time>
      </trkpt>
      <trkpt lat="43.29756" lon="2.05983">
        <ele>138.6</ele>
        <time>2016-03-28T09:42:27Z</time>
      </trkpt>
      <trkpt lat="43.29759" lon="2.05964">
        <ele>139</ele>
        <time>2016-03-28T09:42:28Z</time>
      </trkpt>
      <trkpt lat="43.29762" lon="2.05944">
        <ele>139.2</ele>
        <time>2016-03-28T09:42:29Z</time>
      </trkpt>
      <trkpt lat="43.29763" lon="2.05925">
        <ele>139.4</ele>
        <time>2016-03-28T09:42:30Z</time>
      </trkpt>
      <trkpt lat="43.29764" lon="2.05905">
        <ele>139.5</ele>
        <time>2016-03-28T09:42:31Z</time>
      </trkpt>
      <trkpt lat="43.29764" lon="2.05885">
        <ele>139.6</ele>
        <time>2016-03-28T09:42:32Z</time>
      </trkpt>
      <trkpt lat="43.29763" lon="2.05867">
        <ele>139.7</ele>
        <time>2016-03-28T09:42:33Z</time>
      </trkpt>
      <trkpt lat="43.29763" lon="2.05848">
        <ele>139.9</ele>
        <time>2016-03-28T09:42:34Z</time>
      </trkpt>
      <trkpt lat="43.29763" lon="2.05829">
        <ele>140.1</ele>
        <time>2016-03-28T09:42:35Z</time>
      </trkpt>
      <trkpt lat="43.29763" lon="2.0581">
        <ele>140.4</ele>
        <time>2016-03-28T09:42:36Z</time>
      </trkpt>
      <trkpt lat="43.29765" lon="2.0579">
        <ele>140.6</ele>
        <time>2016-03-28T09:42:37Z</time>
      </trkpt>
      <trkpt lat="43.29767" lon="2.0577">
        <ele>140.7</ele>
        <time>2016-03-28T09:42:38Z</time>
      </trkpt>
      <trkpt lat="43.2977" lon="2.0575">
        <ele>140.8</ele>
        <time>2016-03-28T09:42:39Z</time>
      </trkpt>
      <trkpt lat="43.29773" lon="2.05731">
        <ele>140.9</ele>
        <time>2016-03-28T09:42:40Z</time>
      </trkpt>
      <trkpt lat="43.29777" lon="2.05711">
        <ele>140.9</ele>
        <time>2016-03-28T09:42:41Z</time>
      </trkpt>
      <trkpt lat="43.29782" lon="2.05692">
        <ele>140.9</ele>
        <time>2016-03-28T09:42:42Z</time>
      </trkpt>
      <trkpt lat="43.29787" lon="2.05673">
        <ele>140.7</ele>
        <time>2016-03-28T09:42:43Z</time>
      </trkpt>
      <trkpt lat="43.29792" lon="2.05655">
        <ele>140.6</ele>
        <time>2016-03-28T09:42:44Z</time>
      </trkpt>
      <trkpt lat="43.29798" lon="2.05637">
        <ele>140.5</ele>
        <time>2016-03-28T09:42:45Z</time>
      </trkpt>
      <trkpt lat="43.29804" lon="2.05619">
        <ele>140.5</ele>
        <time>2016-03-28T09:42:46Z</time>
      </trkpt>
      <trkpt lat="43.2981" lon="2.05601">
        <ele>140.4</ele>
        <time>2016-03-28T09:42:47Z</time>
      </trkpt>
      <trkpt lat="43.29816" lon="2.05582">
        <ele>140.1</ele>
        <time>2016-03-28T09:42:48Z</time>
      </trkpt>
      <trkpt lat="43.29823" lon="2.05564">
        <ele>139.6</ele>
        <time>2016-03-28T09:42:49Z</time>
      </trkpt>
      <trkpt lat="43.2983" lon="2.05546">
        <ele>139.2</ele>
        <time>2016-03-28T09:42:50Z</time>
      </trkpt>
      <trkpt lat="43.29835" lon="2.05527">
        <ele>139</ele>
        <time>2016-03-28T09:42:51Z</time>
      </trkpt>
      <trkpt lat="43.29841" lon="2.05507">
        <ele>138.7</ele>
        <time>2016-03-28T09:42:52Z</time>
      </trkpt>
      <trkpt lat="43.29845" lon="2.05487">
        <ele>138.4</ele>
        <time>2016-03-28T09:42:53Z</time>
      </trkpt>
      <trkpt lat="43.29849" lon="2.05467">
        <ele>138.3</ele>
        <time>2016-03-28T09:42:54Z</time>
      </trkpt>
      <trkpt lat="43.29853" lon="2.05447">
        <ele>138.6</ele>
        <time>2016-03-28T09:42:55Z</time>
      </trkpt>
      <trkpt lat="43.29856" lon="2.05426">
        <ele>138.9</ele>
        <time>2016-03-28T09:42:56Z</time>
      </trkpt>
      <trkpt lat="43.29859" lon="2.05405">
        <ele>139.3</ele>
        <time>2016-03-28T09:42:57Z</time>
      </trkpt>
      <trkpt lat="43.29861" lon="2.05384">
        <ele>139.5</ele>
        <time>2016-03-28T09:42:58Z</time>
      </trkpt>
      <trkpt lat="43.29864" lon="2.05364">
        <ele>139.8</ele>
        <time>2016-03-28T09:42:59Z</time>
      </trkpt>
      <trkpt lat="43.29866" lon="2.05344">
        <ele>140.2</ele>
        <time>2016-03-28T09:43:00Z</time>
      </trkpt>
      <trkpt lat="43.29869" lon="2.05325">
        <ele>140.5</ele>
        <time>2016-03-28T09:43:01Z</time>
      </trkpt>
      <trkpt lat="43.29872" lon="2.05304">
        <ele>140.8</ele>
        <time>2016-03-28T09:43:02Z</time>
      </trkpt>
      <trkpt lat="43.29875" lon="2.05284">
        <ele>141</ele>
        <time>2016-03-28T09:43:03Z</time>
      </trkpt>
      <trkpt lat="43.29879" lon="2.05264">
        <ele>141.1</ele>
        <time>2016-03-28T09:43:04Z</time>
      </trkpt>
      <trkpt lat="43.29884" lon="2.05243">
        <ele>141.1</ele>
        <time>2016-03-28T09:43:05Z</time>
      </trkpt>
      <trkpt lat="43.29889" lon="2.05223">
        <ele>141.1</ele>
        <time>2016-03-28T09:43:06Z</time>
      </trkpt>
      <trkpt lat="43.29894" lon="2.05203">
        <ele>141.2</ele>
        <time>2016-03-28T09:43:07Z</time>
      </trkpt>
      <trkpt lat="43.29899" lon="2.05184">
        <ele>141.2</ele>
        <time>2016-03-28T09:43:08Z</time>
      </trkpt>
      <trkpt lat="43.29904" lon="2.05164">
        <ele>141.1</ele>
        <time>2016-03-28T09:43:09Z</time>
      </trkpt>
      <trkpt lat="43.2991" lon="2.05145">
        <ele>141</ele>
        <time>2016-03-28T09:43:10Z</time>
      </trkpt>
      <trkpt lat="43.29915" lon="2.05126">
        <ele>140.9</ele>
        <time>2016-03-28T09:43:11Z</time>
      </trkpt>
      <trkpt lat="43.2992" lon="2.05106">
        <ele>140.7</ele>
        <time>2016-03-28T09:43:12Z</time>
      </trkpt>
      <trkpt lat="43.29925" lon="2.05087">
        <ele>140.6</ele>
        <time>2016-03-28T09:43:13Z</time>
      </trkpt>
      <trkpt lat="43.29928" lon="2.05069">
        <ele>140.6</ele>
        <time>2016-03-28T09:43:14Z</time>
      </trkpt>
      <trkpt lat="43.29931" lon="2.0505">
        <ele>140.6</ele>
        <time>2016-03-28T09:43:15Z</time>
      </trkpt>
      <trkpt lat="43.29933" lon="2.05032">
        <ele>140.9</ele>
        <time>2016-03-28T09:43:16Z</time>
      </trkpt>
      <trkpt lat="43.29935" lon="2.05013">
        <ele>140.9</ele>
        <time>2016-03-28T09:43:17Z</time>
      </trkpt>
      <trkpt lat="43.29938" lon="2.04995">
        <ele>141</ele>
        <time>2016-03-28T09:43:18Z</time>
      </trkpt>
      <trkpt lat="43.2994" lon="2.04978">
        <ele>141.1</ele>
        <time>2016-03-28T09:43:19Z</time>
      </trkpt>
      <trkpt lat="43.29943" lon="2.04962">
        <ele>141.2</ele>
        <time>2016-03-28T09:43:20Z</time>
      </trkpt>
      <trkpt lat="43.29946" lon="2.04947">
        <ele>141.3</ele>
        <time>2016-03-28T09:43:21Z</time>
      </trkpt>
      <trkpt lat="43.29949" lon="2.04932">
        <ele>141.3</ele>
        <time>2016-03-28T09:43:22Z</time>
      </trkpt>
      <trkpt lat="43.29951" lon="2.04919">
        <ele>141.3</ele>
        <time>2016-03-28T09:43:23Z</time>
      </trkpt>
      <trkpt lat="43.29956" lon="2.04897">
        <ele>141.3</ele>
        <time>2016-03-28T09:43:25Z</time>
      </trkpt>
      <trkpt lat="43.29959" lon="2.04881">
        <ele>141.2</ele>
        <time>2016-03-28T09:43:27Z</time>
      </trkpt>
      <trkpt lat="43.2996" lon="2.04868">
        <ele>141.3</ele>
        <time>2016-03-28T09:43:32Z</time>
      </trkpt>
      <trkpt lat="43.29951" lon="2.04861">
        <ele>142.9</ele>
        <time>2016-03-28T09:43:35Z</time>
      </trkpt>
      <trkpt lat="43.2994" lon="2.04859">
        <ele>142.5</ele>
        <time>2016-03-28T09:43:37Z</time>
      </trkpt>
      <trkpt lat="43.29927" lon="2.04856">
        <ele>142.6</ele>
        <time>2016-03-28T09:43:39Z</time>
      </trkpt>
      <trkpt lat="43.29914" lon="2.04852">
        <ele>142.4</ele>
        <time>2016-03-28T09:43:41Z</time>
      </trkpt>
      <trkpt lat="43.29903" lon="2.04849">
        <ele>142</ele>
        <time>2016-03-28T09:43:43Z</time>
      </trkpt>
      <trkpt lat="43.29897" lon="2.04841">
        <ele>142</ele>
        <time>2016-03-28T09:43:45Z</time>
      </trkpt>
      <trkpt lat="43.29898" lon="2.04825">
        <ele>142.3</ele>
        <time>2016-03-28T09:43:48Z</time>
      </trkpt>
      <trkpt lat="43.29903" lon="2.04813">
        <ele>142.5</ele>
        <time>2016-03-28T09:43:50Z</time>
      </trkpt>
      <trkpt lat="43.2991" lon="2.04798">
        <ele>142.9</ele>
        <time>2016-03-28T09:43:52Z</time>
      </trkpt>
      <trkpt lat="43.29917" lon="2.04781">
        <ele>143</ele>
        <time>2016-03-28T09:43:54Z</time>
      </trkpt>
      <trkpt lat="43.29926" lon="2.04761">
        <ele>143.5</ele>
        <time>2016-03-28T09:43:56Z</time>
      </trkpt>
      <trkpt lat="43.29935" lon="2.04741">
        <ele>143.9</ele>
        <time>2016-03-28T09:43:58Z</time>
      </trkpt>
      <trkpt lat="43.2994" lon="2.0473">
        <ele>143.8</ele>
        <time>2016-03-28T09:43:59Z</time>
      </trkpt>
      <trkpt lat="43.29945" lon="2.04718">
        <ele>143.5</ele>
        <time>2016-03-28T09:44:00Z</time>
      </trkpt>
      <trkpt lat="43.29951" lon="2.04705">
        <ele>143.5</ele>
        <time>2016-03-28T09:44:01Z</time>
      </trkpt>
      <trkpt lat="43.29958" lon="2.04692">
        <ele>143.6</ele>
        <time>2016-03-28T09:44:02Z</time>
      </trkpt>
      <trkpt lat="43.29966" lon="2.04678">
        <ele>143.7</ele>
        <time>2016-03-28T09:44:03Z</time>
      </trkpt>
      <trkpt lat="43.29973" lon="2.04664">
        <ele>144.2</ele>
        <time>2016-03-28T09:44:04Z</time>
      </trkpt>
      <trkpt lat="43.2998" lon="2.0465">
        <ele>144.6</ele>
        <time>2016-03-28T09:44:05Z</time>
      </trkpt>
      <trkpt lat="43.29988" lon="2.04636">
        <ele>144.5</ele>
        <time>2016-03-28T09:44:06Z</time>
      </trkpt>
      <trkpt lat="43.29996" lon="2.04623">
        <ele>144.6</ele>
        <time>2016-03-28T09:44:07Z</time>
      </trkpt>
      <trkpt lat="43.30004" lon="2.04612">
        <ele>144</ele>
        <time>2016-03-28T09:44:08Z</time>
      </trkpt>
      <trkpt lat="43.30012" lon="2.04599">
        <ele>143.5</ele>
        <time>2016-03-28T09:44:09Z</time>
      </trkpt>
      <trkpt lat="43.30022" lon="2.04585">
        <ele>143</ele>
        <time>2016-03-28T09:44:10Z</time>
      </trkpt>
      <trkpt lat="43.30031" lon="2.0457">
        <ele>142.5</ele>
        <time>2016-03-28T09:44:11Z</time>
      </trkpt>
      <trkpt lat="43.30041" lon="2.04555">
        <ele>142.1</ele>
        <time>2016-03-28T09:44:12Z</time>
      </trkpt>
      <trkpt lat="43.30052" lon="2.04541">
        <ele>141.8</ele>
        <time>2016-03-28T09:44:13Z</time>
      </trkpt>
      <trkpt lat="43.30062" lon="2.04525">
        <ele>141.4</ele>
        <time>2016-03-28T09:44:14Z</time>
      </trkpt>
      <trkpt lat="43.30073" lon="2.0451">
        <ele>141</ele>
        <time>2016-03-28T09:44:15Z</time>
      </trkpt>
      <trkpt lat="43.30084" lon="2.04496">
        <ele>140.8</ele>
        <time>2016-03-28T09:44:16Z</time>
      </trkpt>
      <trkpt lat="43.30094" lon="2.0448">
        <ele>140.7</ele>
        <time>2016-03-28T09:44:17Z</time>
      </trkpt>
      <trkpt lat="43.30104" lon="2.04464">
        <ele>140.6</ele>
        <time>2016-03-28T09:44:18Z</time>
      </trkpt>
      <trkpt lat="43.30113" lon="2.04447">
        <ele>140.6</ele>
        <time>2016-03-28T09:44:19Z</time>
      </trkpt>
      <trkpt lat="43.30122" lon="2.0443">
        <ele>140.5</ele>
        <time>2016-03-28T09:44:20Z</time>
      </trkpt>
      <trkpt lat="43.3013" lon="2.04413">
        <ele>140.6</ele>
        <time>2016-03-28T09:44:21Z</time>
      </trkpt>
      <trkpt lat="43.30138" lon="2.04395">
        <ele>140.6</ele>
        <time>2016-03-28T09:44:22Z</time>
      </trkpt>
      <trkpt lat="43.30146" lon="2.04376">
        <ele>140.6</ele>
        <time>2016-03-28T09:44:23Z</time>
      </trkpt>
      <trkpt lat="43.30153" lon="2.04357">
        <ele>140.6</ele>
        <time>2016-03-28T09:44:24Z</time>
      </trkpt>
      <trkpt lat="43.3016" lon="2.04338">
        <ele>140.5</ele>
        <time>2016-03-28T09:44:25Z</time>
      </trkpt>
      <trkpt lat="43.30166" lon="2.04318">
        <ele>140.3</ele>
        <time>2016-03-28T09:44:26Z</time>
      </trkpt>
      <trkpt lat="43.30171" lon="2.04297">
        <ele>140.2</ele>
        <time>2016-03-28T09:44:27Z</time>
      </trkpt>
      <trkpt lat="43.30177" lon="2.04276">
        <ele>140.3</ele>
        <time>2016-03-28T09:44:28Z</time>
      </trkpt>
      <trkpt lat="43.30182" lon="2.04255">
        <ele>140.4</ele>
        <time>2016-03-28T09:44:29Z</time>
      </trkpt>
      <trkpt lat="43.30186" lon="2.04234">
        <ele>140.6</ele>
        <time>2016-03-28T09:44:30Z</time>
      </trkpt>
      <trkpt lat="43.30192" lon="2.04211">
        <ele>140.5</ele>
        <time>2016-03-28T09:44:31Z</time>
      </trkpt>
      <trkpt lat="43.30196" lon="2.04191">
        <ele>140.4</ele>
        <time>2016-03-28T09:44:32Z</time>
      </trkpt>
      <trkpt lat="43.302" lon="2.04169">
        <ele>140.5</ele>
        <time>2016-03-28T09:44:33Z</time>
      </trkpt>
      <trkpt lat="43.30204" lon="2.04148">
        <ele>140.6</ele>
        <time>2016-03-28T09:44:34Z</time>
      </trkpt>
      <trkpt lat="43.30207" lon="2.04127">
        <ele>140.7</ele>
        <time>2016-03-28T09:44:35Z</time>
      </trkpt>
      <trkpt lat="43.30211" lon="2.04105">
        <ele>140.9</ele>
        <time>2016-03-28T09:44:36Z</time>
      </trkpt>
      <trkpt lat="43.30214" lon="2.04084">
        <ele>141.2</ele>
        <time>2016-03-28T09:44:37Z</time>
      </trkpt>
      <trkpt lat="43.30217" lon="2.04063">
        <ele>141.5</ele>
        <time>2016-03-28T09:44:38Z</time>
      </trkpt>
      <trkpt lat="43.3022" lon="2.04042">
        <ele>141.8</ele>
        <time>2016-03-28T09:44:39Z</time>
      </trkpt>
      <trkpt lat="43.30222" lon="2.04022">
        <ele>142</ele>
        <time>2016-03-28T09:44:40Z</time>
      </trkpt>
      <trkpt lat="43.30225" lon="2.04003">
        <ele>142.2</ele>
        <time>2016-03-28T09:44:41Z</time>
      </trkpt>
      <trkpt lat="43.30227" lon="2.03984">
        <ele>142.3</ele>
        <time>2016-03-28T09:44:42Z</time>
      </trkpt>
      <trkpt lat="43.30229" lon="2.03965">
        <ele>142.1</ele>
        <time>2016-03-28T09:44:43Z</time>
      </trkpt>
      <trkpt lat="43.30229" lon="2.03947">
        <ele>142.2</ele>
        <time>2016-03-28T09:44:44Z</time>
      </trkpt>
      <trkpt lat="43.30229" lon="2.0393">
        <ele>142.3</ele>
        <time>2016-03-28T09:44:45Z</time>
      </trkpt>
      <trkpt lat="43.30228" lon="2.03912">
        <ele>142.3</ele>
        <time>2016-03-28T09:44:46Z</time>
      </trkpt>
      <trkpt lat="43.30228" lon="2.03896">
        <ele>142.2</ele>
        <time>2016-03-28T09:44:47Z</time>
      </trkpt>
      <trkpt lat="43.30227" lon="2.0388">
        <ele>142.2</ele>
        <time>2016-03-28T09:44:48Z</time>
      </trkpt>
      <trkpt lat="43.30226" lon="2.03867">
        <ele>142.2</ele>
        <time>2016-03-28T09:44:49Z</time>
      </trkpt>
      <trkpt lat="43.30226" lon="2.03844">
        <ele>142.5</ele>
        <time>2016-03-28T09:44:51Z</time>
      </trkpt>
      <trkpt lat="43.30226" lon="2.03823">
        <ele>142.7</ele>
        <time>2016-03-28T09:44:53Z</time>
      </trkpt>
      <trkpt lat="43.30227" lon="2.03806">
        <ele>142.9</ele>
        <time>2016-03-28T09:44:55Z</time>
      </trkpt>
      <trkpt lat="43.30228" lon="2.03788">
        <ele>143.1</ele>
        <time>2016-03-28T09:44:57Z</time>
      </trkpt>
      <trkpt lat="43.30228" lon="2.03769">
        <ele>143.1</ele>
        <time>2016-03-28T09:44:59Z</time>
      </trkpt>
      <trkpt lat="43.30227" lon="2.03748">
        <ele>143.1</ele>
        <time>2016-03-28T09:45:01Z</time>
      </trkpt>
      <trkpt lat="43.30225" lon="2.03724">
        <ele>143.4</ele>
        <time>2016-03-28T09:45:03Z</time>
      </trkpt>
      <trkpt lat="43.30223" lon="2.037">
        <ele>143.6</ele>
        <time>2016-03-28T09:45:05Z</time>
      </trkpt>
      <trkpt lat="43.30222" lon="2.03687">
        <ele>143.6</ele>
        <time>2016-03-28T09:45:06Z</time>
      </trkpt>
      <trkpt lat="43.3022" lon="2.03674">
        <ele>143.8</ele>
        <time>2016-03-28T09:45:07Z</time>
      </trkpt>
      <trkpt lat="43.30219" lon="2.03662">
        <ele>144.1</ele>
        <time>2016-03-28T09:45:08Z</time>
      </trkpt>
      <trkpt lat="43.30217" lon="2.03639">
        <ele>144</ele>
        <time>2016-03-28T09:45:10Z</time>
      </trkpt>
      <trkpt lat="43.30215" lon="2.03618">
        <ele>144.1</ele>
        <time>2016-03-28T09:45:12Z</time>
      </trkpt>
      <trkpt lat="43.30213" lon="2.03596">
        <ele>144</ele>
        <time>2016-03-28T09:45:14Z</time>
      </trkpt>
      <trkpt lat="43.30213" lon="2.03575">
        <ele>144.3</ele>
        <time>2016-03-28T09:45:16Z</time>
      </trkpt>
      <trkpt lat="43.30212" lon="2.03554">
        <ele>144.5</ele>
        <time>2016-03-28T09:45:18Z</time>
      </trkpt>
      <trkpt lat="43.30211" lon="2.03534">
        <ele>144.7</ele>
        <time>2016-03-28T09:45:20Z</time>
      </trkpt>
      <trkpt lat="43.3021" lon="2.03515">
        <ele>145</ele>
        <time>2016-03-28T09:45:22Z</time>
      </trkpt>
      <trkpt lat="43.30209" lon="2.03494">
        <ele>145.2</ele>
        <time>2016-03-28T09:45:24Z</time>
      </trkpt>
      <trkpt lat="43.30207" lon="2.03472">
        <ele>144.9</ele>
        <time>2016-03-28T09:45:26Z</time>
      </trkpt>
      <trkpt lat="43.30206" lon="2.03449">
        <ele>144.8</ele>
        <time>2016-03-28T09:45:28Z</time>
      </trkpt>
      <trkpt lat="43.30206" lon="2.03429">
        <ele>144.8</ele>
        <time>2016-03-28T09:45:30Z</time>
      </trkpt>
      <trkpt lat="43.30205" lon="2.0341">
        <ele>144.8</ele>
        <time>2016-03-28T09:45:32Z</time>
      </trkpt>
      <trkpt lat="43.30204" lon="2.0339">
        <ele>144.7</ele>
        <time>2016-03-28T09:45:34Z</time>
      </trkpt>
      <trkpt lat="43.30203" lon="2.0337">
        <ele>144.5</ele>
        <time>2016-03-28T09:45:36Z</time>
      </trkpt>
      <trkpt lat="43.30202" lon="2.03348">
        <ele>144.8</ele>
        <time>2016-03-28T09:45:38Z</time>
      </trkpt>
      <trkpt lat="43.30201" lon="2.03328">
        <ele>145</ele>
        <time>2016-03-28T09:45:40Z</time>
      </trkpt>
      <trkpt lat="43.302" lon="2.03306">
        <ele>145.2</ele>
        <time>2016-03-28T09:45:42Z</time>
      </trkpt>
      <trkpt lat="43.30198" lon="2.03281">
        <ele>145.1</ele>
        <time>2016-03-28T09:45:44Z</time>
      </trkpt>
      <trkpt lat="43.30198" lon="2.03267">
        <ele>144.5</ele>
        <time>2016-03-28T09:45:45Z</time>
      </trkpt>
      <trkpt lat="43.30197" lon="2.03251">
        <ele>144</ele>
        <time>2016-03-28T09:45:46Z</time>
      </trkpt>
      <trkpt lat="43.30196" lon="2.03234">
        <ele>143.9</ele>
        <time>2016-03-28T09:45:47Z</time>
      </trkpt>
      <trkpt lat="43.30196" lon="2.03217">
        <ele>143.8</ele>
        <time>2016-03-28T09:45:48Z</time>
      </trkpt>
      <trkpt lat="43.30196" lon="2.03201">
        <ele>143.7</ele>
        <time>2016-03-28T09:45:49Z</time>
      </trkpt>
      <trkpt lat="43.30198" lon="2.03185">
        <ele>143.6</ele>
        <time>2016-03-28T09:45:50Z</time>
      </trkpt>
      <trkpt lat="43.302" lon="2.03169">
        <ele>143.6</ele>
        <time>2016-03-28T09:45:51Z</time>
      </trkpt>
      <trkpt lat="43.30203" lon="2.03153">
        <ele>143.3</ele>
        <time>2016-03-28T09:45:52Z</time>
      </trkpt>
      <trkpt lat="43.30207" lon="2.03136">
        <ele>143.2</ele>
        <time>2016-03-28T09:45:53Z</time>
      </trkpt>
      <trkpt lat="43.30211" lon="2.03119">
        <ele>143.1</ele>
        <time>2016-03-28T09:45:54Z</time>
      </trkpt>
      <trkpt lat="43.30216" lon="2.03102">
        <ele>143.1</ele>
        <time>2016-03-28T09:45:55Z</time>
      </trkpt>
      <trkpt lat="43.30222" lon="2.03085">
        <ele>143.1</ele>
        <time>2016-03-28T09:45:56Z</time>
      </trkpt>
      <trkpt lat="43.30228" lon="2.0307">
        <ele>143.3</ele>
        <time>2016-03-28T09:45:57Z</time>
      </trkpt>
      <trkpt lat="43.30234" lon="2.03055">
        <ele>143.5</ele>
        <time>2016-03-28T09:45:58Z</time>
      </trkpt>
      <trkpt lat="43.3024" lon="2.03041">
        <ele>143.5</ele>
        <time>2016-03-28T09:45:59Z</time>
      </trkpt>
      <trkpt lat="43.30247" lon="2.03025">
        <ele>143.5</ele>
        <time>2016-03-28T09:46:00Z</time>
      </trkpt>
      <trkpt lat="43.30254" lon="2.03009">
        <ele>143.3</ele>
        <time>2016-03-28T09:46:01Z</time>
      </trkpt>
      <trkpt lat="43.3026" lon="2.02991">
        <ele>143.4</ele>
        <time>2016-03-28T09:46:02Z</time>
      </trkpt>
      <trkpt lat="43.30267" lon="2.02974">
        <ele>143.4</ele>
        <time>2016-03-28T09:46:03Z</time>
      </trkpt>
      <trkpt lat="43.30274" lon="2.02957">
        <ele>143.5</ele>
        <time>2016-03-28T09:46:04Z</time>
      </trkpt>
      <trkpt lat="43.3028" lon="2.0294">
        <ele>143.6</ele>
        <time>2016-03-28T09:46:05Z</time>
      </trkpt>
      <trkpt lat="43.30285" lon="2.02923">
        <ele>143.5</ele>
        <time>2016-03-28T09:46:06Z</time>
      </trkpt>
      <trkpt lat="43.3029" lon="2.02907">
        <ele>143.4</ele>
        <time>2016-03-28T09:46:07Z</time>
      </trkpt>
      <trkpt lat="43.30294" lon="2.0289">
        <ele>143.3</ele>
        <time>2016-03-28T09:46:08Z</time>
      </trkpt>
      <trkpt lat="43.30297" lon="2.02874">
        <ele>143.5</ele>
        <time>2016-03-28T09:46:09Z</time>
      </trkpt>
      <trkpt lat="43.303" lon="2.02856">
        <ele>143.4</ele>
        <time>2016-03-28T09:46:10Z</time>
      </trkpt>
      <trkpt lat="43.30303" lon="2.02841">
        <ele>143.4</ele>
        <time>2016-03-28T09:46:11Z</time>
      </trkpt>
      <trkpt lat="43.30305" lon="2.02825">
        <ele>143.6</ele>
        <time>2016-03-28T09:46:12Z</time>
      </trkpt>
      <trkpt lat="43.30308" lon="2.02809">
        <ele>143.8</ele>
        <time>2016-03-28T09:46:13Z</time>
      </trkpt>
      <trkpt lat="43.3031" lon="2.02793">
        <ele>144.1</ele>
        <time>2016-03-28T09:46:14Z</time>
      </trkpt>
      <trkpt lat="43.30313" lon="2.02777">
        <ele>144.7</ele>
        <time>2016-03-28T09:46:15Z</time>
      </trkpt>
      <trkpt lat="43.30315" lon="2.02761">
        <ele>145</ele>
        <time>2016-03-28T09:46:16Z</time>
      </trkpt>
      <trkpt lat="43.30318" lon="2.02746">
        <ele>145.4</ele>
        <time>2016-03-28T09:46:17Z</time>
      </trkpt>
      <trkpt lat="43.3032" lon="2.02733">
        <ele>145.8</ele>
        <time>2016-03-28T09:46:18Z</time>
      </trkpt>
      <trkpt lat="43.30322" lon="2.02714">
        <ele>146.8</ele>
        <time>2016-03-28T09:46:20Z</time>
      </trkpt>
      <trkpt lat="43.30328" lon="2.02704">
        <ele>146.8</ele>
        <time>2016-03-28T09:46:23Z</time>
      </trkpt>
      <trkpt lat="43.30338" lon="2.02708">
        <ele>146.4</ele>
        <time>2016-03-28T09:46:26Z</time>
      </trkpt>
      <trkpt lat="43.30348" lon="2.02712">
        <ele>146.1</ele>
        <time>2016-03-28T09:46:28Z</time>
      </trkpt>
      <trkpt lat="43.30361" lon="2.02718">
        <ele>146</ele>
        <time>2016-03-28T09:46:30Z</time>
      </trkpt>
      <trkpt lat="43.30377" lon="2.02725">
        <ele>146.9</ele>
        <time>2016-03-28T09:46:32Z</time>
      </trkpt>
      <trkpt lat="43.30395" lon="2.02732">
        <ele>147.6</ele>
        <time>2016-03-28T09:46:34Z</time>
      </trkpt>
      <trkpt lat="43.30404" lon="2.02736">
        <ele>147.8</ele>
        <time>2016-03-28T09:46:35Z</time>
      </trkpt>
      <trkpt lat="43.3042" lon="2.02742">
        <ele>148.1</ele>
        <time>2016-03-28T09:46:37Z</time>
      </trkpt>
      <trkpt lat="43.30438" lon="2.02749">
        <ele>148.4</ele>
        <time>2016-03-28T09:46:39Z</time>
      </trkpt>
      <trkpt lat="43.30447" lon="2.02753">
        <ele>148.6</ele>
        <time>2016-03-28T09:46:40Z</time>
      </trkpt>
      <trkpt lat="43.30456" lon="2.02756">
        <ele>148.8</ele>
        <time>2016-03-28T09:46:41Z</time>
      </trkpt>
      <trkpt lat="43.30474" lon="2.02764">
        <ele>149.8</ele>
        <time>2016-03-28T09:46:43Z</time>
      </trkpt>
      <trkpt lat="43.30483" lon="2.02768">
        <ele>150.1</ele>
        <time>2016-03-28T09:46:44Z</time>
      </trkpt>
      <trkpt lat="43.30498" lon="2.02776">
        <ele>150.9</ele>
        <time>2016-03-28T09:46:46Z</time>
      </trkpt>
      <trkpt lat="43.30512" lon="2.02783">
        <ele>152.1</ele>
        <time>2016-03-28T09:46:48Z</time>
      </trkpt>
      <trkpt lat="43.30524" lon="2.0279">
        <ele>153.1</ele>
        <time>2016-03-28T09:46:50Z</time>
      </trkpt>
      <trkpt lat="43.30534" lon="2.02794">
        <ele>153.7</ele>
        <time>2016-03-28T09:46:53Z</time>
      </trkpt>
      <trkpt lat="43.30546" lon="2.02793">
        <ele>153.2</ele>
        <time>2016-03-28T09:47:04Z</time>
      </trkpt>
      <trkpt lat="43.30548" lon="2.02781">
        <ele>153.2</ele>
        <time>2016-03-28T09:47:08Z</time>
      </trkpt>
      <trkpt lat="43.30558" lon="2.02771">
        <ele>152.7</ele>
        <time>2016-03-28T09:47:12Z</time>
      </trkpt>
      <trkpt lat="43.30569" lon="2.02761">
        <ele>153.3</ele>
        <time>2016-03-28T09:47:15Z</time>
      </trkpt>
      <trkpt lat="43.30579" lon="2.02755">
        <ele>153.3</ele>
        <time>2016-03-28T09:47:59Z</time>
      </trkpt>
      <trkpt lat="43.30591" lon="2.02753">
        <ele>153.9</ele>
        <time>2016-03-28T09:48:02Z</time>
      </trkpt>
      <trkpt lat="43.306" lon="2.02754">
        <ele>154.6</ele>
        <time>2016-03-28T09:48:04Z</time>
      </trkpt>
      <trkpt lat="43.30612" lon="2.02762">
        <ele>154.2</ele>
        <time>2016-03-28T09:48:07Z</time>
      </trkpt>
      <trkpt lat="43.30622" lon="2.02769">
        <ele>154.1</ele>
        <time>2016-03-28T09:48:09Z</time>
      </trkpt>
      <trkpt lat="43.30633" lon="2.02776">
        <ele>153</ele>
        <time>2016-03-28T09:48:11Z</time>
      </trkpt>
      <trkpt lat="43.30644" lon="2.02783">
        <ele>152.6</ele>
        <time>2016-03-28T09:48:13Z</time>
      </trkpt>
      <trkpt lat="43.30658" lon="2.02788">
        <ele>152.5</ele>
        <time>2016-03-28T09:48:15Z</time>
      </trkpt>
      <trkpt lat="43.30673" lon="2.02792">
        <ele>151.5</ele>
        <time>2016-03-28T09:48:17Z</time>
      </trkpt>
      <trkpt lat="43.30689" lon="2.02794">
        <ele>150.3</ele>
        <time>2016-03-28T09:48:19Z</time>
      </trkpt>
      <trkpt lat="43.30707" lon="2.02796">
        <ele>149</ele>
        <time>2016-03-28T09:48:21Z</time>
      </trkpt>
      <trkpt lat="43.30724" lon="2.02798">
        <ele>148.3</ele>
        <time>2016-03-28T09:48:23Z</time>
      </trkpt>
      <trkpt lat="43.30735" lon="2.028">
        <ele>148.1</ele>
        <time>2016-03-28T09:48:24Z</time>
      </trkpt>
      <trkpt lat="43.30744" lon="2.02801">
        <ele>148.1</ele>
        <time>2016-03-28T09:48:25Z</time>
      </trkpt>
      <trkpt lat="43.30762" lon="2.02803">
        <ele>148.8</ele>
        <time>2016-03-28T09:48:27Z</time>
      </trkpt>
      <trkpt lat="43.30779" lon="2.02806">
        <ele>148.8</ele>
        <time>2016-03-28T09:48:29Z</time>
      </trkpt>
      <trkpt lat="43.30788" lon="2.02807">
        <ele>148.8</ele>
        <time>2016-03-28T09:48:30Z</time>
      </trkpt>
      <trkpt lat="43.30798" lon="2.02808">
        <ele>149</ele>
        <time>2016-03-28T09:48:31Z</time>
      </trkpt>
      <trkpt lat="43.30807" lon="2.0281">
        <ele>149.5</ele>
        <time>2016-03-28T09:48:32Z</time>
      </trkpt>
      <trkpt lat="43.30816" lon="2.02811">
        <ele>150</ele>
        <time>2016-03-28T09:48:33Z</time>
      </trkpt>
      <trkpt lat="43.30833" lon="2.02814">
        <ele>150.4</ele>
        <time>2016-03-28T09:48:35Z</time>
      </trkpt>
      <trkpt lat="43.30851" lon="2.02817">
        <ele>150</ele>
        <time>2016-03-28T09:48:37Z</time>
      </trkpt>
      <trkpt lat="43.3086" lon="2.02818">
        <ele>149.5</ele>
        <time>2016-03-28T09:48:38Z</time>
      </trkpt>
      <trkpt lat="43.30876" lon="2.0282">
        <ele>148.6</ele>
        <time>2016-03-28T09:48:40Z</time>
      </trkpt>
      <trkpt lat="43.30887" lon="2.02822">
        <ele>148.4</ele>
        <time>2016-03-28T09:48:42Z</time>
      </trkpt>
      <trkpt lat="43.30896" lon="2.02827">
        <ele>148.5</ele>
        <time>2016-03-28T09:48:45Z</time>
      </trkpt>
      <trkpt lat="43.30904" lon="2.0284">
        <ele>148.6</ele>
        <time>2016-03-28T09:48:48Z</time>
      </trkpt>
      <trkpt lat="43.3091" lon="2.0285">
        <ele>148.7</ele>
        <time>2016-03-28T09:48:50Z</time>
      </trkpt>
      <trkpt lat="43.30916" lon="2.02862">
        <ele>148.8</ele>
        <time>2016-03-28T09:48:53Z</time>
      </trkpt>
      <trkpt lat="43.3093" lon="2.02866">
        <ele>149.1</ele>
        <time>2016-03-28T09:48:56Z</time>
      </trkpt>
      <trkpt lat="43.30943" lon="2.02868">
        <ele>149.6</ele>
        <time>2016-03-28T09:48:59Z</time>
      </trkpt>
      <trkpt lat="43.30952" lon="2.02872">
        <ele>149.6</ele>
        <time>2016-03-28T09:49:01Z</time>
      </trkpt>
      <trkpt lat="43.30962" lon="2.02876">
        <ele>150.6</ele>
        <time>2016-03-28T09:49:03Z</time>
      </trkpt>
      <trkpt lat="43.30973" lon="2.0288">
        <ele>151.2</ele>
        <time>2016-03-28T09:49:05Z</time>
      </trkpt>
      <trkpt lat="43.30984" lon="2.02884">
        <ele>151.7</ele>
        <time>2016-03-28T09:49:07Z</time>
      </trkpt>
      <trkpt lat="43.30992" lon="2.02887">
        <ele>152.6</ele>
        <time>2016-03-28T09:49:09Z</time>
      </trkpt>
      <trkpt lat="43.31005" lon="2.02892">
        <ele>154.2</ele>
        <time>2016-03-28T09:49:12Z</time>
      </trkpt>
      <trkpt lat="43.31014" lon="2.02897">
        <ele>154.8</ele>
        <time>2016-03-28T09:49:14Z</time>
      </trkpt>
      <trkpt lat="43.31023" lon="2.02903">
        <ele>155.4</ele>
        <time>2016-03-28T09:49:16Z</time>
      </trkpt>
      <trkpt lat="43.31033" lon="2.02909">
        <ele>155.8</ele>
        <time>2016-03-28T09:49:18Z</time>
      </trkpt>
      <trkpt lat="43.31042" lon="2.02914">
        <ele>156.3</ele>
        <time>2016-03-28T09:49:20Z</time>
      </trkpt>
      <trkpt lat="43.31052" lon="2.0292">
        <ele>156.4</ele>
        <time>2016-03-28T09:49:22Z</time>
      </trkpt>
      <trkpt lat="43.31061" lon="2.02925">
        <ele>156.9</ele>
        <time>2016-03-28T09:49:24Z</time>
      </trkpt>
      <trkpt lat="43.31072" lon="2.02927">
        <ele>157.3</ele>
        <time>2016-03-28T09:49:26Z</time>
      </trkpt>
      <trkpt lat="43.31083" lon="2.02925">
        <ele>158</ele>
        <time>2016-03-28T09:49:28Z</time>
      </trkpt>
      <trkpt lat="43.31093" lon="2.02922">
        <ele>158.3</ele>
        <time>2016-03-28T09:49:30Z</time>
      </trkpt>
      <trkpt lat="43.31103" lon="2.02919">
        <ele>158.6</ele>
        <time>2016-03-28T09:49:32Z</time>
      </trkpt>
      <trkpt lat="43.31114" lon="2.02916">
        <ele>159.4</ele>
        <time>2016-03-28T09:49:34Z</time>
      </trkpt>
      <trkpt lat="43.31125" lon="2.02914">
        <ele>160.3</ele>
        <time>2016-03-28T09:49:36Z</time>
      </trkpt>
      <trkpt lat="43.31137" lon="2.02913">
        <ele>161.7</ele>
        <time>2016-03-28T09:49:38Z</time>
      </trkpt>
      <trkpt lat="43.31146" lon="2.02915">
        <ele>162.5</ele>
        <time>2016-03-28T09:49:40Z</time>
      </trkpt>
      <trkpt lat="43.31158" lon="2.02918">
        <ele>163.1</ele>
        <time>2016-03-28T09:49:43Z</time>
      </trkpt>
      <trkpt lat="43.31169" lon="2.02921">
        <ele>164.7</ele>
        <time>2016-03-28T09:49:45Z</time>
      </trkpt>
      <trkpt lat="43.3118" lon="2.02924">
        <ele>166.7</ele>
        <time>2016-03-28T09:49:47Z</time>
      </trkpt>
      <trkpt lat="43.3119" lon="2.02927">
        <ele>168.5</ele>
        <time>2016-03-28T09:49:49Z</time>
      </trkpt>
      <trkpt lat="43.312" lon="2.02929">
        <ele>170.1</ele>
        <time>2016-03-28T09:49:51Z</time>
      </trkpt>
      <trkpt lat="43.3121" lon="2.02932">
        <ele>171.3</ele>
        <time>2016-03-28T09:49:53Z</time>
      </trkpt>
      <trkpt lat="43.31223" lon="2.02938">
        <ele>173.9</ele>
        <time>2016-03-28T09:49:56Z</time>
      </trkpt>
      <trkpt lat="43.31235" lon="2.02944">
        <ele>175.1</ele>
        <time>2016-03-28T09:49:59Z</time>
      </trkpt>
      <trkpt lat="43.31244" lon="2.02949">
        <ele>175.7</ele>
        <time>2016-03-28T09:50:01Z</time>
      </trkpt>
      <trkpt lat="43.31256" lon="2.02949">
        <ele>175.3</ele>
        <time>2016-03-28T09:50:04Z</time>
      </trkpt>
      <trkpt lat="43.31265" lon="2.02944">
        <ele>174.6</ele>
        <time>2016-03-28T09:50:06Z</time>
      </trkpt>
      <trkpt lat="43.31275" lon="2.02937">
        <ele>174.6</ele>
        <time>2016-03-28T09:50:16Z</time>
      </trkpt>
      <trkpt lat="43.31285" lon="2.0293">
        <ele>174.6</ele>
        <time>2016-03-28T09:50:18Z</time>
      </trkpt>
      <trkpt lat="43.31297" lon="2.02924">
        <ele>174.2</ele>
        <time>2016-03-28T09:50:20Z</time>
      </trkpt>
      <trkpt lat="43.31305" lon="2.02918">
        <ele>174.1</ele>
        <time>2016-03-28T09:50:22Z</time>
      </trkpt>
      <trkpt lat="43.31297" lon="2.02925">
        <ele>175.3</ele>
        <time>2016-03-28T09:50:41Z</time>
      </trkpt>
      <trkpt lat="43.31287" lon="2.02932">
        <ele>175.5</ele>
        <time>2016-03-28T09:50:44Z</time>
      </trkpt>
      <trkpt lat="43.31279" lon="2.02937">
        <ele>175.3</ele>
        <time>2016-03-28T09:50:47Z</time>
      </trkpt>
      <trkpt lat="43.31268" lon="2.0294">
        <ele>175.1</ele>
        <time>2016-03-28T09:51:12Z</time>
      </trkpt>
      <trkpt lat="43.31275" lon="2.02932">
        <ele>174.9</ele>
        <time>2016-03-28T09:51:16Z</time>
      </trkpt>
      <trkpt lat="43.31268" lon="2.02944">
        <ele>174.8</ele>
        <time>2016-03-28T09:52:22Z</time>
      </trkpt>
      <trkpt lat="43.31259" lon="2.02948">
        <ele>174.7</ele>
        <time>2016-03-28T09:52:24Z</time>
      </trkpt>
      <trkpt lat="43.31245" lon="2.0295">
        <ele>174.6</ele>
        <time>2016-03-28T09:52:26Z</time>
      </trkpt>
      <trkpt lat="43.31233" lon="2.02944">
        <ele>173.7</ele>
        <time>2016-03-28T09:52:29Z</time>
      </trkpt>
      <trkpt lat="43.31221" lon="2.02938">
        <ele>173.4</ele>
        <time>2016-03-28T09:52:32Z</time>
      </trkpt>
      <trkpt lat="43.31211" lon="2.02933">
        <ele>173.2</ele>
        <time>2016-03-28T09:52:35Z</time>
      </trkpt>
      <trkpt lat="43.31199" lon="2.02929">
        <ele>173</ele>
        <time>2016-03-28T09:52:39Z</time>
      </trkpt>
      <trkpt lat="43.31189" lon="2.02926">
        <ele>172.3</ele>
        <time>2016-03-28T09:52:42Z</time>
      </trkpt>
      <trkpt lat="43.3118" lon="2.02924">
        <ele>172.2</ele>
        <time>2016-03-28T09:52:45Z</time>
      </trkpt>
      <trkpt lat="43.3117" lon="2.02921">
        <ele>171.8</ele>
        <time>2016-03-28T09:52:50Z</time>
      </trkpt>
      <trkpt lat="43.31159" lon="2.02918">
        <ele>171.3</ele>
        <time>2016-03-28T09:53:26Z</time>
      </trkpt>
      <trkpt lat="43.31149" lon="2.02915">
        <ele>171</ele>
        <time>2016-03-28T09:53:30Z</time>
      </trkpt>
      <trkpt lat="43.31138" lon="2.02914">
        <ele>169.9</ele>
        <time>2016-03-28T09:53:53Z</time>
      </trkpt>
      <trkpt lat="43.31127" lon="2.02914">
        <ele>169.4</ele>
        <time>2016-03-28T09:53:56Z</time>
      </trkpt>
      <trkpt lat="43.31116" lon="2.02916">
        <ele>167.6</ele>
        <time>2016-03-28T09:53:59Z</time>
      </trkpt>
      <trkpt lat="43.31107" lon="2.02918">
        <ele>165</ele>
        <time>2016-03-28T09:54:01Z</time>
      </trkpt>
      <trkpt lat="43.31095" lon="2.02922">
        <ele>162.7</ele>
        <time>2016-03-28T09:54:04Z</time>
      </trkpt>
      <trkpt lat="43.31083" lon="2.02927">
        <ele>160.4</ele>
        <time>2016-03-28T09:54:07Z</time>
      </trkpt>
      <trkpt lat="43.31072" lon="2.02927">
        <ele>159.7</ele>
        <time>2016-03-28T09:54:09Z</time>
      </trkpt>
      <trkpt lat="43.3106" lon="2.02924">
        <ele>159.7</ele>
        <time>2016-03-28T09:54:11Z</time>
      </trkpt>
      <trkpt lat="43.31047" lon="2.02918">
        <ele>159.6</ele>
        <time>2016-03-28T09:54:13Z</time>
      </trkpt>
      <trkpt lat="43.31035" lon="2.0291">
        <ele>159.2</ele>
        <time>2016-03-28T09:54:15Z</time>
      </trkpt>
      <trkpt lat="43.31023" lon="2.02902">
        <ele>158.7</ele>
        <time>2016-03-28T09:54:17Z</time>
      </trkpt>
      <trkpt lat="43.3101" lon="2.02894">
        <ele>157.9</ele>
        <time>2016-03-28T09:54:19Z</time>
      </trkpt>
      <trkpt lat="43.30999" lon="2.02889">
        <ele>156.6</ele>
        <time>2016-03-28T09:54:21Z</time>
      </trkpt>
      <trkpt lat="43.30988" lon="2.02885">
        <ele>154.8</ele>
        <time>2016-03-28T09:54:23Z</time>
      </trkpt>
      <trkpt lat="43.30977" lon="2.02881">
        <ele>153.8</ele>
        <time>2016-03-28T09:54:25Z</time>
      </trkpt>
      <trkpt lat="43.30966" lon="2.02878">
        <ele>152.5</ele>
        <time>2016-03-28T09:54:27Z</time>
      </trkpt>
      <trkpt lat="43.30955" lon="2.02874">
        <ele>152.5</ele>
        <time>2016-03-28T09:54:29Z</time>
      </trkpt>
      <trkpt lat="43.30945" lon="2.0287">
        <ele>151.9</ele>
        <time>2016-03-28T09:54:31Z</time>
      </trkpt>
      <trkpt lat="43.30935" lon="2.02868">
        <ele>150.3</ele>
        <time>2016-03-28T09:54:33Z</time>
      </trkpt>
      <trkpt lat="43.30926" lon="2.02866">
        <ele>149.7</ele>
        <time>2016-03-28T09:54:36Z</time>
      </trkpt>
      <trkpt lat="43.30918" lon="2.02858">
        <ele>147.6</ele>
        <time>2016-03-28T09:55:04Z</time>
      </trkpt>
      <trkpt lat="43.30912" lon="2.02848">
        <ele>147</ele>
        <time>2016-03-28T09:55:08Z</time>
      </trkpt>
      <trkpt lat="43.30904" lon="2.02839">
        <ele>146.6</ele>
        <time>2016-03-28T09:55:13Z</time>
      </trkpt>
      <trkpt lat="43.30895" lon="2.0283">
        <ele>146.7</ele>
        <time>2016-03-28T09:55:18Z</time>
      </trkpt>
      <trkpt lat="43.30886" lon="2.02828">
        <ele>146.7</ele>
        <time>2016-03-28T09:55:21Z</time>
      </trkpt>
      <trkpt lat="43.30876" lon="2.02826">
        <ele>146.9</ele>
        <time>2016-03-28T09:55:24Z</time>
      </trkpt>
      <trkpt lat="43.30867" lon="2.02823">
        <ele>147</ele>
        <time>2016-03-28T09:55:28Z</time>
      </trkpt>
      <trkpt lat="43.30856" lon="2.02823">
        <ele>148.3</ele>
        <time>2016-03-28T09:57:03Z</time>
      </trkpt>
      <trkpt lat="43.30846" lon="2.0282">
        <ele>148.7</ele>
        <time>2016-03-28T09:57:08Z</time>
      </trkpt>
      <trkpt lat="43.30835" lon="2.02818">
        <ele>148.9</ele>
        <time>2016-03-28T09:57:12Z</time>
      </trkpt>
      <trkpt lat="43.30824" lon="2.02815">
        <ele>149.2</ele>
        <time>2016-03-28T09:57:32Z</time>
      </trkpt>
      <trkpt lat="43.30813" lon="2.02812">
        <ele>149.4</ele>
        <time>2016-03-28T09:57:35Z</time>
      </trkpt>
      <trkpt lat="43.30804" lon="2.0281">
        <ele>151.5</ele>
        <time>2016-03-28T09:57:37Z</time>
      </trkpt>
      <trkpt lat="43.30794" lon="2.02808">
        <ele>152.9</ele>
        <time>2016-03-28T09:57:39Z</time>
      </trkpt>
      <trkpt lat="43.30783" lon="2.02807">
        <ele>153.3</ele>
        <time>2016-03-28T09:57:41Z</time>
      </trkpt>
      <trkpt lat="43.3077" lon="2.02805">
        <ele>153.9</ele>
        <time>2016-03-28T09:57:43Z</time>
      </trkpt>
      <trkpt lat="43.30758" lon="2.02803">
        <ele>154.3</ele>
        <time>2016-03-28T09:57:45Z</time>
      </trkpt>
      <trkpt lat="43.30746" lon="2.02802">
        <ele>154.4</ele>
        <time>2016-03-28T09:57:47Z</time>
      </trkpt>
      <trkpt lat="43.30734" lon="2.028">
        <ele>154.6</ele>
        <time>2016-03-28T09:57:49Z</time>
      </trkpt>
      <trkpt lat="43.30722" lon="2.02798">
        <ele>154.8</ele>
        <time>2016-03-28T09:57:51Z</time>
      </trkpt>
      <trkpt lat="43.3071" lon="2.02796">
        <ele>153.8</ele>
        <time>2016-03-28T09:57:53Z</time>
      </trkpt>
      <trkpt lat="43.30697" lon="2.02794">
        <ele>153.3</ele>
        <time>2016-03-28T09:57:55Z</time>
      </trkpt>
      <trkpt lat="43.30682" lon="2.02793">
        <ele>151.7</ele>
        <time>2016-03-28T09:57:57Z</time>
      </trkpt>
      <trkpt lat="43.30666" lon="2.02791">
        <ele>150.8</ele>
        <time>2016-03-28T09:57:59Z</time>
      </trkpt>
      <trkpt lat="43.3065" lon="2.02788">
        <ele>150.3</ele>
        <time>2016-03-28T09:58:01Z</time>
      </trkpt>
      <trkpt lat="43.30642" lon="2.02785">
        <ele>149.9</ele>
        <time>2016-03-28T09:58:02Z</time>
      </trkpt>
      <trkpt lat="43.30625" lon="2.02776">
        <ele>149.4</ele>
        <time>2016-03-28T09:58:04Z</time>
      </trkpt>
      <trkpt lat="43.30616" lon="2.02771">
        <ele>149.4</ele>
        <time>2016-03-28T09:58:05Z</time>
      </trkpt>
      <trkpt lat="43.30601" lon="2.02761">
        <ele>149.6</ele>
        <time>2016-03-28T09:58:07Z</time>
      </trkpt>
      <trkpt lat="43.30587" lon="2.02755">
        <ele>150.6</ele>
        <time>2016-03-28T09:58:09Z</time>
      </trkpt>
      <trkpt lat="43.30575" lon="2.02758">
        <ele>152.1</ele>
        <time>2016-03-28T09:58:11Z</time>
      </trkpt>
      <trkpt lat="43.30563" lon="2.02768">
        <ele>152.9</ele>
        <time>2016-03-28T09:58:13Z</time>
      </trkpt>
      <trkpt lat="43.30554" lon="2.02777">
        <ele>152.9</ele>
        <time>2016-03-28T09:58:15Z</time>
      </trkpt>
      <trkpt lat="43.30546" lon="2.02788">
        <ele>152.4</ele>
        <time>2016-03-28T09:58:17Z</time>
      </trkpt>
      <trkpt lat="43.30533" lon="2.02794">
        <ele>152.8</ele>
        <time>2016-03-28T09:58:20Z</time>
      </trkpt>
      <trkpt lat="43.30521" lon="2.02789">
        <ele>153.2</ele>
        <time>2016-03-28T09:58:22Z</time>
      </trkpt>
      <trkpt lat="43.30508" lon="2.02781">
        <ele>152.7</ele>
        <time>2016-03-28T09:58:24Z</time>
      </trkpt>
      <trkpt lat="43.30493" lon="2.02773">
        <ele>152.2</ele>
        <time>2016-03-28T09:58:26Z</time>
      </trkpt>
      <trkpt lat="43.30484" lon="2.02768">
        <ele>151.8</ele>
        <time>2016-03-28T09:58:27Z</time>
      </trkpt>
      <trkpt lat="43.30475" lon="2.02765">
        <ele>151.2</ele>
        <time>2016-03-28T09:58:28Z</time>
      </trkpt>
      <trkpt lat="43.30462" lon="2.02759">
        <ele>150.7</ele>
        <time>2016-03-28T09:58:29Z</time>
      </trkpt>
      <trkpt lat="43.3045" lon="2.02754">
        <ele>150.3</ele>
        <time>2016-03-28T09:58:30Z</time>
      </trkpt>
      <trkpt lat="43.30438" lon="2.02749">
        <ele>149.9</ele>
        <time>2016-03-28T09:58:31Z</time>
      </trkpt>
      <trkpt lat="43.30426" lon="2.02745">
        <ele>149.5</ele>
        <time>2016-03-28T09:58:32Z</time>
      </trkpt>
      <trkpt lat="43.30413" lon="2.0274">
        <ele>149</ele>
        <time>2016-03-28T09:58:33Z</time>
      </trkpt>
      <trkpt lat="43.30401" lon="2.02736">
        <ele>148.3</ele>
        <time>2016-03-28T09:58:34Z</time>
      </trkpt>
      <trkpt lat="43.30388" lon="2.0273">
        <ele>147.6</ele>
        <time>2016-03-28T09:58:35Z</time>
      </trkpt>
      <trkpt lat="43.30377" lon="2.02726">
        <ele>146.8</ele>
        <time>2016-03-28T09:58:36Z</time>
      </trkpt>
      <trkpt lat="43.30366" lon="2.02722">
        <ele>146.2</ele>
        <time>2016-03-28T09:58:37Z</time>
      </trkpt>
      <trkpt lat="43.30356" lon="2.02718">
        <ele>145.7</ele>
        <time>2016-03-28T09:58:38Z</time>
      </trkpt>
      <trkpt lat="43.30342" lon="2.02712">
        <ele>145.1</ele>
        <time>2016-03-28T09:58:40Z</time>
      </trkpt>
      <trkpt lat="43.30332" lon="2.02708">
        <ele>145.1</ele>
        <time>2016-03-28T09:58:42Z</time>
      </trkpt>
      <trkpt lat="43.30324" lon="2.02696">
        <ele>145.3</ele>
        <time>2016-03-28T09:58:48Z</time>
      </trkpt>
      <trkpt lat="43.30328" lon="2.02679">
        <ele>147.2</ele>
        <time>2016-03-28T09:58:51Z</time>
      </trkpt>
      <trkpt lat="43.30332" lon="2.02664">
        <ele>147.6</ele>
        <time>2016-03-28T09:58:53Z</time>
      </trkpt>
      <trkpt lat="43.30338" lon="2.02648">
        <ele>147.3</ele>
        <time>2016-03-28T09:58:55Z</time>
      </trkpt>
      <trkpt lat="43.30346" lon="2.0263">
        <ele>146.5</ele>
        <time>2016-03-28T09:58:57Z</time>
      </trkpt>
      <trkpt lat="43.30355" lon="2.02609">
        <ele>145.7</ele>
        <time>2016-03-28T09:58:59Z</time>
      </trkpt>
      <trkpt lat="43.30361" lon="2.02598">
        <ele>145.4</ele>
        <time>2016-03-28T09:59:00Z</time>
      </trkpt>
      <trkpt lat="43.30367" lon="2.02586">
        <ele>145.1</ele>
        <time>2016-03-28T09:59:01Z</time>
      </trkpt>
      <trkpt lat="43.30374" lon="2.02572">
        <ele>144.7</ele>
        <time>2016-03-28T09:59:02Z</time>
      </trkpt>
      <trkpt lat="43.3038" lon="2.02559">
        <ele>144.8</ele>
        <time>2016-03-28T09:59:03Z</time>
      </trkpt>
      <trkpt lat="43.30386" lon="2.02547">
        <ele>145</ele>
        <time>2016-03-28T09:59:04Z</time>
      </trkpt>
      <trkpt lat="43.30392" lon="2.02535">
        <ele>145.2</ele>
        <time>2016-03-28T09:59:05Z</time>
      </trkpt>
      <trkpt lat="43.30398" lon="2.02522">
        <ele>145.4</ele>
        <time>2016-03-28T09:59:06Z</time>
      </trkpt>
      <trkpt lat="43.30405" lon="2.02509">
        <ele>145.3</ele>
        <time>2016-03-28T09:59:07Z</time>
      </trkpt>
      <trkpt lat="43.3041" lon="2.02496">
        <ele>145.4</ele>
        <time>2016-03-28T09:59:08Z</time>
      </trkpt>
      <trkpt lat="43.30415" lon="2.02481">
        <ele>145.3</ele>
        <time>2016-03-28T09:59:09Z</time>
      </trkpt>
      <trkpt lat="43.30421" lon="2.02464">
        <ele>145.4</ele>
        <time>2016-03-28T09:59:10Z</time>
      </trkpt>
      <trkpt lat="43.30427" lon="2.02448">
        <ele>145.4</ele>
        <time>2016-03-28T09:59:11Z</time>
      </trkpt>
      <trkpt lat="43.30433" lon="2.02431">
        <ele>145.3</ele>
        <time>2016-03-28T09:59:12Z</time>
      </trkpt>
      <trkpt lat="43.30438" lon="2.02414">
        <ele>145.2</ele>
        <time>2016-03-28T09:59:13Z</time>
      </trkpt>
      <trkpt lat="43.30444" lon="2.02396">
        <ele>145</ele>
        <time>2016-03-28T09:59:14Z</time>
      </trkpt>
      <trkpt lat="43.3045" lon="2.02378">
        <ele>145</ele>
        <time>2016-03-28T09:59:15Z</time>
      </trkpt>
      <trkpt lat="43.30456" lon="2.02359">
        <ele>144.8</ele>
        <time>2016-03-28T09:59:16Z</time>
      </trkpt>
      <trkpt lat="43.30462" lon="2.02341">
        <ele>144.8</ele>
        <time>2016-03-28T09:59:17Z</time>
      </trkpt>
      <trkpt lat="43.30468" lon="2.02323">
        <ele>144.7</ele>
        <time>2016-03-28T09:59:18Z</time>
      </trkpt>
      <trkpt lat="43.30474" lon="2.02305">
        <ele>144.6</ele>
        <time>2016-03-28T09:59:19Z</time>
      </trkpt>
      <trkpt lat="43.30481" lon="2.02287">
        <ele>144.6</ele>
        <time>2016-03-28T09:59:20Z</time>
      </trkpt>
      <trkpt lat="43.30488" lon="2.0227">
        <ele>144.5</ele>
        <time>2016-03-28T09:59:21Z</time>
      </trkpt>
      <trkpt lat="43.30496" lon="2.02253">
        <ele>144.4</ele>
        <time>2016-03-28T09:59:22Z</time>
      </trkpt>
      <trkpt lat="43.30505" lon="2.02236">
        <ele>144.3</ele>
        <time>2016-03-28T09:59:23Z</time>
      </trkpt>
      <trkpt lat="43.30514" lon="2.02219">
        <ele>144.3</ele>
        <time>2016-03-28T09:59:24Z</time>
      </trkpt>
      <trkpt lat="43.30522" lon="2.02203">
        <ele>144.3</ele>
        <time>2016-03-28T09:59:25Z</time>
      </trkpt>
      <trkpt lat="43.30531" lon="2.02187">
        <ele>144.3</ele>
        <time>2016-03-28T09:59:26Z</time>
      </trkpt>
      <trkpt lat="43.30541" lon="2.02171">
        <ele>144.3</ele>
        <time>2016-03-28T09:59:27Z</time>
      </trkpt>
      <trkpt lat="43.3055" lon="2.02155">
        <ele>144.4</ele>
        <time>2016-03-28T09:59:28Z</time>
      </trkpt>
      <trkpt lat="43.30559" lon="2.02139">
        <ele>144.4</ele>
        <time>2016-03-28T09:59:29Z</time>
      </trkpt>
      <trkpt lat="43.30568" lon="2.02123">
        <ele>144.4</ele>
        <time>2016-03-28T09:59:30Z</time>
      </trkpt>
      <trkpt lat="43.30577" lon="2.02107">
        <ele>144.7</ele>
        <time>2016-03-28T09:59:31Z</time>
      </trkpt>
      <trkpt lat="43.30586" lon="2.02091">
        <ele>145.2</ele>
        <time>2016-03-28T09:59:32Z</time>
      </trkpt>
      <trkpt lat="43.30594" lon="2.02074">
        <ele>145.6</ele>
        <time>2016-03-28T09:59:33Z</time>
      </trkpt>
      <trkpt lat="43.30603" lon="2.02055">
        <ele>145.8</ele>
        <time>2016-03-28T09:59:34Z</time>
      </trkpt>
      <trkpt lat="43.30611" lon="2.02035">
        <ele>145.8</ele>
        <time>2016-03-28T09:59:35Z</time>
      </trkpt>
      <trkpt lat="43.30618" lon="2.02017">
        <ele>146</ele>
        <time>2016-03-28T09:59:36Z</time>
      </trkpt>
      <trkpt lat="43.30623" lon="2.01999">
        <ele>146.4</ele>
        <time>2016-03-28T09:59:37Z</time>
      </trkpt>
      <trkpt lat="43.30629" lon="2.0198">
        <ele>146.8</ele>
        <time>2016-03-28T09:59:38Z</time>
      </trkpt>
      <trkpt lat="43.30634" lon="2.01962">
        <ele>147.4</ele>
        <time>2016-03-28T09:59:39Z</time>
      </trkpt>
      <trkpt lat="43.30639" lon="2.01943">
        <ele>147.8</ele>
        <time>2016-03-28T09:59:40Z</time>
      </trkpt>
      <trkpt lat="43.30645" lon="2.01925">
        <ele>147.8</ele>
        <time>2016-03-28T09:59:41Z</time>
      </trkpt>
      <trkpt lat="43.3065" lon="2.01906">
        <ele>147.9</ele>
        <time>2016-03-28T09:59:42Z</time>
      </trkpt>
      <trkpt lat="43.30656" lon="2.01888">
        <ele>147.8</ele>
        <time>2016-03-28T09:59:43Z</time>
      </trkpt>
      <trkpt lat="43.30662" lon="2.0187">
        <ele>147.5</ele>
        <time>2016-03-28T09:59:44Z</time>
      </trkpt>
      <trkpt lat="43.30668" lon="2.01853">
        <ele>147.1</ele>
        <time>2016-03-28T09:59:45Z</time>
      </trkpt>
      <trkpt lat="43.30673" lon="2.01836">
        <ele>146.8</ele>
        <time>2016-03-28T09:59:46Z</time>
      </trkpt>
      <trkpt lat="43.30679" lon="2.01818">
        <ele>146.8</ele>
        <time>2016-03-28T09:59:47Z</time>
      </trkpt>
      <trkpt lat="43.30683" lon="2.01801">
        <ele>146.9</ele>
        <time>2016-03-28T09:59:48Z</time>
      </trkpt>
      <trkpt lat="43.30688" lon="2.01784">
        <ele>147</ele>
        <time>2016-03-28T09:59:49Z</time>
      </trkpt>
      <trkpt lat="43.30693" lon="2.01766">
        <ele>146.8</ele>
        <time>2016-03-28T09:59:50Z</time>
      </trkpt>
      <trkpt lat="43.30701" lon="2.01751">
        <ele>146.6</ele>
        <time>2016-03-28T09:59:51Z</time>
      </trkpt>
      <trkpt lat="43.3071" lon="2.01736">
        <ele>146.2</ele>
        <time>2016-03-28T09:59:52Z</time>
      </trkpt>
      <trkpt lat="43.30718" lon="2.01721">
        <ele>146</ele>
        <time>2016-03-28T09:59:53Z</time>
      </trkpt>
      <trkpt lat="43.30727" lon="2.01707">
        <ele>145.8</ele>
        <time>2016-03-28T09:59:54Z</time>
      </trkpt>
      <trkpt lat="43.30736" lon="2.01693">
        <ele>145.6</ele>
        <time>2016-03-28T09:59:55Z</time>
      </trkpt>
      <trkpt lat="43.30746" lon="2.01679">
        <ele>145.5</ele>
        <time>2016-03-28T09:59:56Z</time>
      </trkpt>
      <trkpt lat="43.30755" lon="2.01665">
        <ele>145.4</ele>
        <time>2016-03-28T09:59:57Z</time>
      </trkpt>
      <trkpt lat="43.30765" lon="2.01652">
        <ele>145.3</ele>
        <time>2016-03-28T09:59:58Z</time>
      </trkpt>
      <trkpt lat="43.30775" lon="2.01638">
        <ele>145.4</ele>
        <time>2016-03-28T09:59:59Z</time>
      </trkpt>
      <trkpt lat="43.30785" lon="2.01625">
        <ele>145.5</ele>
        <time>2016-03-28T10:00:00Z</time>
      </trkpt>
      <trkpt lat="43.30795" lon="2.01612">
        <ele>145.6</ele>
        <time>2016-03-28T10:00:01Z</time>
      </trkpt>
      <trkpt lat="43.30805" lon="2.01599">
        <ele>145.8</ele>
        <time>2016-03-28T10:00:02Z</time>
      </trkpt>
      <trkpt lat="43.30815" lon="2.01585">
        <ele>145.9</ele>
        <time>2016-03-28T10:00:03Z</time>
      </trkpt>
      <trkpt lat="43.30826" lon="2.01572">
        <ele>146</ele>
        <time>2016-03-28T10:00:04Z</time>
      </trkpt>
      <trkpt lat="43.30836" lon="2.01559">
        <ele>146.1</ele>
        <time>2016-03-28T10:00:05Z</time>
      </trkpt>
      <trkpt lat="43.30847" lon="2.01546">
        <ele>146.3</ele>
        <time>2016-03-28T10:00:06Z</time>
      </trkpt>
      <trkpt lat="43.30858" lon="2.01533">
        <ele>146.5</ele>
        <time>2016-03-28T10:00:07Z</time>
      </trkpt>
      <trkpt lat="43.30869" lon="2.0152">
        <ele>146.7</ele>
        <time>2016-03-28T10:00:08Z</time>
      </trkpt>
      <trkpt lat="43.30881" lon="2.01508">
        <ele>146.9</ele>
        <time>2016-03-28T10:00:09Z</time>
      </trkpt>
      <trkpt lat="43.30892" lon="2.01495">
        <ele>147.1</ele>
        <time>2016-03-28T10:00:10Z</time>
      </trkpt>
      <trkpt lat="43.30904" lon="2.01482">
        <ele>147.3</ele>
        <time>2016-03-28T10:00:11Z</time>
      </trkpt>
      <trkpt lat="43.30916" lon="2.01469">
        <ele>147.4</ele>
        <time>2016-03-28T10:00:12Z</time>
      </trkpt>
      <trkpt lat="43.30927" lon="2.01457">
        <ele>147.5</ele>
        <time>2016-03-28T10:00:13Z</time>
      </trkpt>
      <trkpt lat="43.30939" lon="2.01445">
        <ele>147.6</ele>
        <time>2016-03-28T10:00:14Z</time>
      </trkpt>
      <trkpt lat="43.30952" lon="2.01432">
        <ele>147.7</ele>
        <time>2016-03-28T10:00:15Z</time>
      </trkpt>
      <trkpt lat="43.30964" lon="2.0142">
        <ele>147.8</ele>
        <time>2016-03-28T10:00:16Z</time>
      </trkpt>
      <trkpt lat="43.30975" lon="2.01408">
        <ele>147.8</ele>
        <time>2016-03-28T10:00:17Z</time>
      </trkpt>
      <trkpt lat="43.30987" lon="2.01398">
        <ele>148</ele>
        <time>2016-03-28T10:00:18Z</time>
      </trkpt>
      <trkpt lat="43.30998" lon="2.01387">
        <ele>148.3</ele>
        <time>2016-03-28T10:00:19Z</time>
      </trkpt>
      <trkpt lat="43.3101" lon="2.01377">
        <ele>148.6</ele>
        <time>2016-03-28T10:00:20Z</time>
      </trkpt>
      <trkpt lat="43.31022" lon="2.01367">
        <ele>148.7</ele>
        <time>2016-03-28T10:00:21Z</time>
      </trkpt>
      <trkpt lat="43.31034" lon="2.01357">
        <ele>148.7</ele>
        <time>2016-03-28T10:00:22Z</time>
      </trkpt>
      <trkpt lat="43.31046" lon="2.01348">
        <ele>148.7</ele>
        <time>2016-03-28T10:00:23Z</time>
      </trkpt>
      <trkpt lat="43.31059" lon="2.01339">
        <ele>148.5</ele>
        <time>2016-03-28T10:00:24Z</time>
      </trkpt>
      <trkpt lat="43.3107" lon="2.0133">
        <ele>148.4</ele>
        <time>2016-03-28T10:00:25Z</time>
      </trkpt>
      <trkpt lat="43.31082" lon="2.01322">
        <ele>148.2</ele>
        <time>2016-03-28T10:00:26Z</time>
      </trkpt>
      <trkpt lat="43.31093" lon="2.01313">
        <ele>147.9</ele>
        <time>2016-03-28T10:00:27Z</time>
      </trkpt>
      <trkpt lat="43.31103" lon="2.01304">
        <ele>147.7</ele>
        <time>2016-03-28T10:00:28Z</time>
      </trkpt>
      <trkpt lat="43.31112" lon="2.01294">
        <ele>147.9</ele>
        <time>2016-03-28T10:00:29Z</time>
      </trkpt>
      <trkpt lat="43.31119" lon="2.01279">
        <ele>147.9</ele>
        <time>2016-03-28T10:00:30Z</time>
      </trkpt>
      <trkpt lat="43.31125" lon="2.01264">
        <ele>148</ele>
        <time>2016-03-28T10:00:31Z</time>
      </trkpt>
      <trkpt lat="43.31131" lon="2.01249">
        <ele>148.2</ele>
        <time>2016-03-28T10:00:32Z</time>
      </trkpt>
      <trkpt lat="43.31137" lon="2.01233">
        <ele>148.6</ele>
        <time>2016-03-28T10:00:33Z</time>
      </trkpt>
      <trkpt lat="43.31142" lon="2.01216">
        <ele>149.2</ele>
        <time>2016-03-28T10:00:34Z</time>
      </trkpt>
      <trkpt lat="43.31147" lon="2.012">
        <ele>149.4</ele>
        <time>2016-03-28T10:00:35Z</time>
      </trkpt>
      <trkpt lat="43.31152" lon="2.01184">
        <ele>149.4</ele>
        <time>2016-03-28T10:00:36Z</time>
      </trkpt>
      <trkpt lat="43.31159" lon="2.01168">
        <ele>149.6</ele>
        <time>2016-03-28T10:00:37Z</time>
      </trkpt>
      <trkpt lat="43.31166" lon="2.01151">
        <ele>149.5</ele>
        <time>2016-03-28T10:00:38Z</time>
      </trkpt>
      <trkpt lat="43.31174" lon="2.01136">
        <ele>149.7</ele>
        <time>2016-03-28T10:00:39Z</time>
      </trkpt>
      <trkpt lat="43.31182" lon="2.01122">
        <ele>149.8</ele>
        <time>2016-03-28T10:00:40Z</time>
      </trkpt>
      <trkpt lat="43.31191" lon="2.0111">
        <ele>149.8</ele>
        <time>2016-03-28T10:00:41Z</time>
      </trkpt>
      <trkpt lat="43.312" lon="2.01098">
        <ele>149.9</ele>
        <time>2016-03-28T10:00:42Z</time>
      </trkpt>
      <trkpt lat="43.3121" lon="2.01085">
        <ele>150</ele>
        <time>2016-03-28T10:00:43Z</time>
      </trkpt>
      <trkpt lat="43.31219" lon="2.01072">
        <ele>150</ele>
        <time>2016-03-28T10:00:44Z</time>
      </trkpt>
      <trkpt lat="43.31227" lon="2.01059">
        <ele>149.9</ele>
        <time>2016-03-28T10:00:45Z</time>
      </trkpt>
      <trkpt lat="43.31236" lon="2.01044">
        <ele>149.6</ele>
        <time>2016-03-28T10:00:46Z</time>
      </trkpt>
      <trkpt lat="43.31245" lon="2.01029">
        <ele>149.2</ele>
        <time>2016-03-28T10:00:47Z</time>
      </trkpt>
      <trkpt lat="43.31254" lon="2.01015">
        <ele>148.8</ele>
        <time>2016-03-28T10:00:48Z</time>
      </trkpt>
      <trkpt lat="43.31262" lon="2.01001">
        <ele>148.4</ele>
        <time>2016-03-28T10:00:49Z</time>
      </trkpt>
      <trkpt lat="43.31271" lon="2.00987">
        <ele>148.2</ele>
        <time>2016-03-28T10:00:50Z</time>
      </trkpt>
      <trkpt lat="43.31279" lon="2.00972">
        <ele>148</ele>
        <time>2016-03-28T10:00:51Z</time>
      </trkpt>
      <trkpt lat="43.31287" lon="2.00958">
        <ele>147.8</ele>
        <time>2016-03-28T10:00:52Z</time>
      </trkpt>
      <trkpt lat="43.31296" lon="2.00943">
        <ele>147.8</ele>
        <time>2016-03-28T10:00:53Z</time>
      </trkpt>
      <trkpt lat="43.31304" lon="2.00928">
        <ele>148.1</ele>
        <time>2016-03-28T10:00:54Z</time>
      </trkpt>
      <trkpt lat="43.31313" lon="2.00914">
        <ele>148</ele>
        <time>2016-03-28T10:00:55Z</time>
      </trkpt>
      <trkpt lat="43.31322" lon="2.00898">
        <ele>147.5</ele>
        <time>2016-03-28T10:00:56Z</time>
      </trkpt>
      <trkpt lat="43.31331" lon="2.00883">
        <ele>147</ele>
        <time>2016-03-28T10:00:57Z</time>
      </trkpt>
      <trkpt lat="43.3134" lon="2.00868">
        <ele>146.5</ele>
        <time>2016-03-28T10:00:58Z</time>
      </trkpt>
      <trkpt lat="43.31349" lon="2.00853">
        <ele>146.1</ele>
        <time>2016-03-28T10:00:59Z</time>
      </trkpt>
      <trkpt lat="43.31357" lon="2.00839">
        <ele>145.7</ele>
        <time>2016-03-28T10:01:00Z</time>
      </trkpt>
      <trkpt lat="43.31365" lon="2.00824">
        <ele>145.7</ele>
        <time>2016-03-28T10:01:01Z</time>
      </trkpt>
      <trkpt lat="43.31374" lon="2.00809">
        <ele>145.9</ele>
        <time>2016-03-28T10:01:02Z</time>
      </trkpt>
      <trkpt lat="43.31384" lon="2.00797">
        <ele>145.8</ele>
        <time>2016-03-28T10:01:03Z</time>
      </trkpt>
      <trkpt lat="43.31396" lon="2.00787">
        <ele>146.1</ele>
        <time>2016-03-28T10:01:04Z</time>
      </trkpt>
      <trkpt lat="43.31407" lon="2.00778">
        <ele>146.9</ele>
        <time>2016-03-28T10:01:05Z</time>
      </trkpt>
      <trkpt lat="43.31419" lon="2.00769">
        <ele>148.1</ele>
        <time>2016-03-28T10:01:06Z</time>
      </trkpt>
      <trkpt lat="43.31431" lon="2.00761">
        <ele>149.4</ele>
        <time>2016-03-28T10:01:07Z</time>
      </trkpt>
      <trkpt lat="43.31443" lon="2.00754">
        <ele>150.1</ele>
        <time>2016-03-28T10:01:08Z</time>
      </trkpt>
      <trkpt lat="43.31457" lon="2.00747">
        <ele>150.4</ele>
        <time>2016-03-28T10:01:09Z</time>
      </trkpt>
      <trkpt lat="43.31472" lon="2.00739">
        <ele>150.7</ele>
        <time>2016-03-28T10:01:10Z</time>
      </trkpt>
      <trkpt lat="43.31486" lon="2.00733">
        <ele>150.7</ele>
        <time>2016-03-28T10:01:11Z</time>
      </trkpt>
      <trkpt lat="43.315" lon="2.00726">
        <ele>150.7</ele>
        <time>2016-03-28T10:01:12Z</time>
      </trkpt>
      <trkpt lat="43.31513" lon="2.0072">
        <ele>150.8</ele>
        <time>2016-03-28T10:01:13Z</time>
      </trkpt>
      <trkpt lat="43.31528" lon="2.00713">
        <ele>150.7</ele>
        <time>2016-03-28T10:01:14Z</time>
      </trkpt>
      <trkpt lat="43.31542" lon="2.00707">
        <ele>150.6</ele>
        <time>2016-03-28T10:01:15Z</time>
      </trkpt>
      <trkpt lat="43.31555" lon="2.007">
        <ele>150.5</ele>
        <time>2016-03-28T10:01:16Z</time>
      </trkpt>
      <trkpt lat="43.31567" lon="2.00694">
        <ele>150.5</ele>
        <time>2016-03-28T10:01:17Z</time>
      </trkpt>
      <trkpt lat="43.3158" lon="2.00688">
        <ele>150.4</ele>
        <time>2016-03-28T10:01:18Z</time>
      </trkpt>
      <trkpt lat="43.31591" lon="2.00682">
        <ele>150.4</ele>
        <time>2016-03-28T10:01:19Z</time>
      </trkpt>
      <trkpt lat="43.31602" lon="2.00677">
        <ele>150.5</ele>
        <time>2016-03-28T10:01:20Z</time>
      </trkpt>
      <trkpt lat="43.31612" lon="2.00672">
        <ele>150.5</ele>
        <time>2016-03-28T10:01:21Z</time>
      </trkpt>
      <trkpt lat="43.31622" lon="2.00667">
        <ele>150.6</ele>
        <time>2016-03-28T10:01:22Z</time>
      </trkpt>
      <trkpt lat="43.31632" lon="2.00662">
        <ele>150.5</ele>
        <time>2016-03-28T10:01:23Z</time>
      </trkpt>
      <trkpt lat="43.31646" lon="2.00656">
        <ele>150.5</ele>
        <time>2016-03-28T10:01:25Z</time>
      </trkpt>
      <trkpt lat="43.31656" lon="2.00651">
        <ele>150.9</ele>
        <time>2016-03-28T10:01:28Z</time>
      </trkpt>
      <trkpt lat="43.31667" lon="2.00644">
        <ele>151.3</ele>
        <time>2016-03-28T10:01:32Z</time>
      </trkpt>
      <trkpt lat="43.31675" lon="2.00637">
        <ele>151.7</ele>
        <time>2016-03-28T10:01:34Z</time>
      </trkpt>
      <trkpt lat="43.31688" lon="2.00625">
        <ele>152.3</ele>
        <time>2016-03-28T10:01:36Z</time>
      </trkpt>
      <trkpt lat="43.31696" lon="2.00616">
        <ele>152.4</ele>
        <time>2016-03-28T10:01:37Z</time>
      </trkpt>
      <trkpt lat="43.31704" lon="2.00608">
        <ele>152.4</ele>
        <time>2016-03-28T10:01:38Z</time>
      </trkpt>
      <trkpt lat="43.31713" lon="2.00598">
        <ele>152.2</ele>
        <time>2016-03-28T10:01:39Z</time>
      </trkpt>
      <trkpt lat="43.31724" lon="2.00587">
        <ele>151.9</ele>
        <time>2016-03-28T10:01:40Z</time>
      </trkpt>
      <trkpt lat="43.31734" lon="2.00576">
        <ele>151.5</ele>
        <time>2016-03-28T10:01:41Z</time>
      </trkpt>
      <trkpt lat="43.31743" lon="2.00566">
        <ele>151.6</ele>
        <time>2016-03-28T10:01:42Z</time>
      </trkpt>
      <trkpt lat="43.31753" lon="2.00554">
        <ele>151.7</ele>
        <time>2016-03-28T10:01:43Z</time>
      </trkpt>
      <trkpt lat="43.31763" lon="2.00542">
        <ele>152</ele>
        <time>2016-03-28T10:01:44Z</time>
      </trkpt>
      <trkpt lat="43.31772" lon="2.00529">
        <ele>152.2</ele>
        <time>2016-03-28T10:01:45Z</time>
      </trkpt>
      <trkpt lat="43.31782" lon="2.00515">
        <ele>152.9</ele>
        <time>2016-03-28T10:01:46Z</time>
      </trkpt>
      <trkpt lat="43.31793" lon="2.00502">
        <ele>153.2</ele>
        <time>2016-03-28T10:01:47Z</time>
      </trkpt>
      <trkpt lat="43.31806" lon="2.00488">
        <ele>153.4</ele>
        <time>2016-03-28T10:01:48Z</time>
      </trkpt>
      <trkpt lat="43.31818" lon="2.00476">
        <ele>153.5</ele>
        <time>2016-03-28T10:01:49Z</time>
      </trkpt>
      <trkpt lat="43.3183" lon="2.00465">
        <ele>153.6</ele>
        <time>2016-03-28T10:01:50Z</time>
      </trkpt>
      <trkpt lat="43.31843" lon="2.00454">
        <ele>153.6</ele>
        <time>2016-03-28T10:01:51Z</time>
      </trkpt>
      <trkpt lat="43.31856" lon="2.00443">
        <ele>153.5</ele>
        <time>2016-03-28T10:01:52Z</time>
      </trkpt>
      <trkpt lat="43.31869" lon="2.00434">
        <ele>153.4</ele>
        <time>2016-03-28T10:01:53Z</time>
      </trkpt>
      <trkpt lat="43.31881" lon="2.00424">
        <ele>153.2</ele>
        <time>2016-03-28T10:01:54Z</time>
      </trkpt>
      <trkpt lat="43.31894" lon="2.00414">
        <ele>153</ele>
        <time>2016-03-28T10:01:55Z</time>
      </trkpt>
      <trkpt lat="43.31906" lon="2.00403">
        <ele>153</ele>
        <time>2016-03-28T10:01:56Z</time>
      </trkpt>
      <trkpt lat="43.31918" lon="2.00391">
        <ele>152.8</ele>
        <time>2016-03-28T10:01:57Z</time>
      </trkpt>
      <trkpt lat="43.3193" lon="2.00379">
        <ele>152.7</ele>
        <time>2016-03-28T10:01:58Z</time>
      </trkpt>
      <trkpt lat="43.31942" lon="2.00366">
        <ele>152.7</ele>
        <time>2016-03-28T10:01:59Z</time>
      </trkpt>
      <trkpt lat="43.31954" lon="2.00353">
        <ele>152.6</ele>
        <time>2016-03-28T10:02:00Z</time>
      </trkpt>
      <trkpt lat="43.31967" lon="2.00341">
        <ele>152.2</ele>
        <time>2016-03-28T10:02:01Z</time>
      </trkpt>
      <trkpt lat="43.31982" lon="2.00334">
        <ele>151.9</ele>
        <time>2016-03-28T10:02:02Z</time>
      </trkpt>
      <trkpt lat="43.31997" lon="2.00328">
        <ele>151.7</ele>
        <time>2016-03-28T10:02:03Z</time>
      </trkpt>
      <trkpt lat="43.32012" lon="2.00322">
        <ele>151.5</ele>
        <time>2016-03-28T10:02:04Z</time>
      </trkpt>
      <trkpt lat="43.32027" lon="2.00315">
        <ele>151.1</ele>
        <time>2016-03-28T10:02:05Z</time>
      </trkpt>
      <trkpt lat="43.32042" lon="2.00307">
        <ele>150.8</ele>
        <time>2016-03-28T10:02:06Z</time>
      </trkpt>
      <trkpt lat="43.32057" lon="2.00297">
        <ele>150.5</ele>
        <time>2016-03-28T10:02:07Z</time>
      </trkpt>
      <trkpt lat="43.32071" lon="2.00285">
        <ele>150.2</ele>
        <time>2016-03-28T10:02:08Z</time>
      </trkpt>
      <trkpt lat="43.32086" lon="2.00271">
        <ele>149.9</ele>
        <time>2016-03-28T10:02:09Z</time>
      </trkpt>
      <trkpt lat="43.321" lon="2.00258">
        <ele>149.3</ele>
        <time>2016-03-28T10:02:10Z</time>
      </trkpt>
      <trkpt lat="43.32114" lon="2.00243">
        <ele>148.8</ele>
        <time>2016-03-28T10:02:11Z</time>
      </trkpt>
      <trkpt lat="43.32128" lon="2.0023">
        <ele>148.4</ele>
        <time>2016-03-28T10:02:12Z</time>
      </trkpt>
      <trkpt lat="43.32142" lon="2.00218">
        <ele>148</ele>
        <time>2016-03-28T10:02:13Z</time>
      </trkpt>
      <trkpt lat="43.32156" lon="2.00206">
        <ele>147.8</ele>
        <time>2016-03-28T10:02:14Z</time>
      </trkpt>
      <trkpt lat="43.32171" lon="2.00196">
        <ele>147.5</ele>
        <time>2016-03-28T10:02:15Z</time>
      </trkpt>
      <trkpt lat="43.32186" lon="2.00185">
        <ele>147.4</ele>
        <time>2016-03-28T10:02:16Z</time>
      </trkpt>
      <trkpt lat="43.32201" lon="2.00175">
        <ele>147.1</ele>
        <time>2016-03-28T10:02:17Z</time>
      </trkpt>
      <trkpt lat="43.32215" lon="2.00165">
        <ele>147</ele>
        <time>2016-03-28T10:02:18Z</time>
      </trkpt>
      <trkpt lat="43.3223" lon="2.00155">
        <ele>147</ele>
        <time>2016-03-28T10:02:19Z</time>
      </trkpt>
      <trkpt lat="43.32244" lon="2.00146">
        <ele>147.1</ele>
        <time>2016-03-28T10:02:20Z</time>
      </trkpt>
      <trkpt lat="43.32259" lon="2.00137">
        <ele>147.3</ele>
        <time>2016-03-28T10:02:21Z</time>
      </trkpt>
      <trkpt lat="43.32275" lon="2.00128">
        <ele>147.4</ele>
        <time>2016-03-28T10:02:22Z</time>
      </trkpt>
      <trkpt lat="43.3229" lon="2.0012">
        <ele>147.7</ele>
        <time>2016-03-28T10:02:23Z</time>
      </trkpt>
      <trkpt lat="43.32306" lon="2.00112">
        <ele>147.9</ele>
        <time>2016-03-28T10:02:24Z</time>
      </trkpt>
      <trkpt lat="43.32322" lon="2.00104">
        <ele>148.1</ele>
        <time>2016-03-28T10:02:25Z</time>
      </trkpt>
      <trkpt lat="43.32338" lon="2.00098">
        <ele>148.2</ele>
        <time>2016-03-28T10:02:26Z</time>
      </trkpt>
      <trkpt lat="43.32354" lon="2.00092">
        <ele>148.2</ele>
        <time>2016-03-28T10:02:27Z</time>
      </trkpt>
      <trkpt lat="43.3237" lon="2.00088">
        <ele>148.6</ele>
        <time>2016-03-28T10:02:28Z</time>
      </trkpt>
      <trkpt lat="43.32387" lon="2.00082">
        <ele>148.5</ele>
        <time>2016-03-28T10:02:29Z</time>
      </trkpt>
      <trkpt lat="43.32403" lon="2.00078">
        <ele>149.1</ele>
        <time>2016-03-28T10:02:30Z</time>
      </trkpt>
      <trkpt lat="43.32419" lon="2.0007">
        <ele>149.6</ele>
        <time>2016-03-28T10:02:31Z</time>
      </trkpt>
      <trkpt lat="43.32436" lon="2.00061">
        <ele>150</ele>
        <time>2016-03-28T10:02:32Z</time>
      </trkpt>
      <trkpt lat="43.32451" lon="2.0005">
        <ele>149.7</ele>
        <time>2016-03-28T10:02:33Z</time>
      </trkpt>
      <trkpt lat="43.32466" lon="2.0004">
        <ele>149.5</ele>
        <time>2016-03-28T10:02:34Z</time>
      </trkpt>
      <trkpt lat="43.3248" lon="2.0003">
        <ele>149.5</ele>
        <time>2016-03-28T10:02:35Z</time>
      </trkpt>
      <trkpt lat="43.32496" lon="2.00021">
        <ele>149.7</ele>
        <time>2016-03-28T10:02:36Z</time>
      </trkpt>
      <trkpt lat="43.3251" lon="2.00013">
        <ele>150.2</ele>
        <time>2016-03-28T10:02:37Z</time>
      </trkpt>
      <trkpt lat="43.32525" lon="2.00006">
        <ele>150.6</ele>
        <time>2016-03-28T10:02:38Z</time>
      </trkpt>
      <trkpt lat="43.32541" lon="1.99999">
        <ele>150.9</ele>
        <time>2016-03-28T10:02:39Z</time>
      </trkpt>
      <trkpt lat="43.32557" lon="1.99992">
        <ele>150.9</ele>
        <time>2016-03-28T10:02:40Z</time>
      </trkpt>
      <trkpt lat="43.32573" lon="1.99985">
        <ele>150.6</ele>
        <time>2016-03-28T10:02:41Z</time>
      </trkpt>
      <trkpt lat="43.32588" lon="1.99977">
        <ele>150.4</ele>
        <time>2016-03-28T10:02:42Z</time>
      </trkpt>
      <trkpt lat="43.326" lon="1.99964">
        <ele>150.8</ele>
        <time>2016-03-28T10:02:43Z</time>
      </trkpt>
      <trkpt lat="43.32611" lon="1.99951">
        <ele>151.5</ele>
        <time>2016-03-28T10:02:44Z</time>
      </trkpt>
      <trkpt lat="43.32622" lon="1.99936">
        <ele>152.3</ele>
        <time>2016-03-28T10:02:45Z</time>
      </trkpt>
      <trkpt lat="43.32634" lon="1.9992">
        <ele>153</ele>
        <time>2016-03-28T10:02:46Z</time>
      </trkpt>
      <trkpt lat="43.32645" lon="1.99903">
        <ele>153.5</ele>
        <time>2016-03-28T10:02:47Z</time>
      </trkpt>
      <trkpt lat="43.32657" lon="1.99886">
        <ele>153.9</ele>
        <time>2016-03-28T10:02:48Z</time>
      </trkpt>
      <trkpt lat="43.32668" lon="1.99871">
        <ele>154.3</ele>
        <time>2016-03-28T10:02:49Z</time>
      </trkpt>
      <trkpt lat="43.3268" lon="1.99856">
        <ele>154.8</ele>
        <time>2016-03-28T10:02:50Z</time>
      </trkpt>
      <trkpt lat="43.32691" lon="1.99843">
        <ele>155.3</ele>
        <time>2016-03-28T10:02:51Z</time>
      </trkpt>
      <trkpt lat="43.32703" lon="1.99829">
        <ele>155.5</ele>
        <time>2016-03-28T10:02:52Z</time>
      </trkpt>
      <trkpt lat="43.32714" lon="1.99816">
        <ele>155.8</ele>
        <time>2016-03-28T10:02:53Z</time>
      </trkpt>
      <trkpt lat="43.32725" lon="1.99801">
        <ele>155.8</ele>
        <time>2016-03-28T10:02:54Z</time>
      </trkpt>
      <trkpt lat="43.32736" lon="1.99786">
        <ele>155.6</ele>
        <time>2016-03-28T10:02:55Z</time>
      </trkpt>
      <trkpt lat="43.32746" lon="1.99771">
        <ele>155.6</ele>
        <time>2016-03-28T10:02:56Z</time>
      </trkpt>
      <trkpt lat="43.32755" lon="1.99757">
        <ele>155.8</ele>
        <time>2016-03-28T10:02:57Z</time>
      </trkpt>
      <trkpt lat="43.32764" lon="1.99742">
        <ele>156</ele>
        <time>2016-03-28T10:02:58Z</time>
      </trkpt>
      <trkpt lat="43.32773" lon="1.99728">
        <ele>155.8</ele>
        <time>2016-03-28T10:02:59Z</time>
      </trkpt>
      <trkpt lat="43.3278" lon="1.99713">
        <ele>155.8</ele>
        <time>2016-03-28T10:03:00Z</time>
      </trkpt>
      <trkpt lat="43.32786" lon="1.99696">
        <ele>155.8</ele>
        <time>2016-03-28T10:03:01Z</time>
      </trkpt>
      <trkpt lat="43.32791" lon="1.99679">
        <ele>155.6</ele>
        <time>2016-03-28T10:03:02Z</time>
      </trkpt>
      <trkpt lat="43.32796" lon="1.99662">
        <ele>155.6</ele>
        <time>2016-03-28T10:03:03Z</time>
      </trkpt>
      <trkpt lat="43.32802" lon="1.99644">
        <ele>155.6</ele>
        <time>2016-03-28T10:03:04Z</time>
      </trkpt>
      <trkpt lat="43.32809" lon="1.99627">
        <ele>155.7</ele>
        <time>2016-03-28T10:03:05Z</time>
      </trkpt>
      <trkpt lat="43.32816" lon="1.9961">
        <ele>155.8</ele>
        <time>2016-03-28T10:03:06Z</time>
      </trkpt>
      <trkpt lat="43.32824" lon="1.99594">
        <ele>155.9</ele>
        <time>2016-03-28T10:03:07Z</time>
      </trkpt>
      <trkpt lat="43.32833" lon="1.99576">
        <ele>156.1</ele>
        <time>2016-03-28T10:03:08Z</time>
      </trkpt>
      <trkpt lat="43.32842" lon="1.99557">
        <ele>156.4</ele>
        <time>2016-03-28T10:03:09Z</time>
      </trkpt>
      <trkpt lat="43.32851" lon="1.99539">
        <ele>156.6</ele>
        <time>2016-03-28T10:03:10Z</time>
      </trkpt>
      <trkpt lat="43.32861" lon="1.9952">
        <ele>157</ele>
        <time>2016-03-28T10:03:11Z</time>
      </trkpt>
      <trkpt lat="43.3287" lon="1.99502">
        <ele>157.2</ele>
        <time>2016-03-28T10:03:12Z</time>
      </trkpt>
      <trkpt lat="43.32879" lon="1.99483">
        <ele>157.1</ele>
        <time>2016-03-28T10:03:13Z</time>
      </trkpt>
      <trkpt lat="43.32888" lon="1.99465">
        <ele>157.1</ele>
        <time>2016-03-28T10:03:14Z</time>
      </trkpt>
      <trkpt lat="43.32898" lon="1.99446">
        <ele>157.1</ele>
        <time>2016-03-28T10:03:15Z</time>
      </trkpt>
      <trkpt lat="43.32907" lon="1.99427">
        <ele>157.1</ele>
        <time>2016-03-28T10:03:16Z</time>
      </trkpt>
      <trkpt lat="43.32916" lon="1.99406">
        <ele>157</ele>
        <time>2016-03-28T10:03:17Z</time>
      </trkpt>
      <trkpt lat="43.32924" lon="1.99386">
        <ele>156.9</ele>
        <time>2016-03-28T10:03:18Z</time>
      </trkpt>
      <trkpt lat="43.32932" lon="1.99367">
        <ele>156.9</ele>
        <time>2016-03-28T10:03:19Z</time>
      </trkpt>
      <trkpt lat="43.32939" lon="1.99347">
        <ele>156.9</ele>
        <time>2016-03-28T10:03:20Z</time>
      </trkpt>
      <trkpt lat="43.32946" lon="1.99327">
        <ele>156.9</ele>
        <time>2016-03-28T10:03:21Z</time>
      </trkpt>
      <trkpt lat="43.32953" lon="1.99306">
        <ele>156.8</ele>
        <time>2016-03-28T10:03:22Z</time>
      </trkpt>
      <trkpt lat="43.3296" lon="1.99285">
        <ele>156.6</ele>
        <time>2016-03-28T10:03:23Z</time>
      </trkpt>
      <trkpt lat="43.32966" lon="1.99264">
        <ele>156.6</ele>
        <time>2016-03-28T10:03:24Z</time>
      </trkpt>
      <trkpt lat="43.32972" lon="1.99243">
        <ele>156.8</ele>
        <time>2016-03-28T10:03:25Z</time>
      </trkpt>
      <trkpt lat="43.32976" lon="1.99221">
        <ele>157.1</ele>
        <time>2016-03-28T10:03:26Z</time>
      </trkpt>
      <trkpt lat="43.32981" lon="1.992">
        <ele>157</ele>
        <time>2016-03-28T10:03:27Z</time>
      </trkpt>
      <trkpt lat="43.32985" lon="1.99178">
        <ele>156.7</ele>
        <time>2016-03-28T10:03:28Z</time>
      </trkpt>
      <trkpt lat="43.3299" lon="1.99158">
        <ele>156.3</ele>
        <time>2016-03-28T10:03:29Z</time>
      </trkpt>
      <trkpt lat="43.32996" lon="1.99137">
        <ele>156.2</ele>
        <time>2016-03-28T10:03:30Z</time>
      </trkpt>
      <trkpt lat="43.33002" lon="1.99117">
        <ele>156.2</ele>
        <time>2016-03-28T10:03:31Z</time>
      </trkpt>
      <trkpt lat="43.3301" lon="1.99098">
        <ele>155.9</ele>
        <time>2016-03-28T10:03:32Z</time>
      </trkpt>
      <trkpt lat="43.33018" lon="1.99078">
        <ele>155.8</ele>
        <time>2016-03-28T10:03:33Z</time>
      </trkpt>
      <trkpt lat="43.33026" lon="1.99059">
        <ele>155.7</ele>
        <time>2016-03-28T10:03:34Z</time>
      </trkpt>
      <trkpt lat="43.33034" lon="1.99039">
        <ele>155.6</ele>
        <time>2016-03-28T10:03:35Z</time>
      </trkpt>
      <trkpt lat="43.33043" lon="1.9902">
        <ele>155.7</ele>
        <time>2016-03-28T10:03:36Z</time>
      </trkpt>
      <trkpt lat="43.3305" lon="1.99003">
        <ele>156</ele>
        <time>2016-03-28T10:03:37Z</time>
      </trkpt>
      <trkpt lat="43.33057" lon="1.98985">
        <ele>156.1</ele>
        <time>2016-03-28T10:03:38Z</time>
      </trkpt>
      <trkpt lat="43.33064" lon="1.98966">
        <ele>156.3</ele>
        <time>2016-03-28T10:03:39Z</time>
      </trkpt>
      <trkpt lat="43.3307" lon="1.98947">
        <ele>156.4</ele>
        <time>2016-03-28T10:03:40Z</time>
      </trkpt>
      <trkpt lat="43.33076" lon="1.98928">
        <ele>156.5</ele>
        <time>2016-03-28T10:03:41Z</time>
      </trkpt>
      <trkpt lat="43.33082" lon="1.98908">
        <ele>156.4</ele>
        <time>2016-03-28T10:03:42Z</time>
      </trkpt>
      <trkpt lat="43.33087" lon="1.98888">
        <ele>156.5</ele>
        <time>2016-03-28T10:03:43Z</time>
      </trkpt>
      <trkpt lat="43.33092" lon="1.98868">
        <ele>156.7</ele>
        <time>2016-03-28T10:03:44Z</time>
      </trkpt>
      <trkpt lat="43.33098" lon="1.98848">
        <ele>157</ele>
        <time>2016-03-28T10:03:45Z</time>
      </trkpt>
      <trkpt lat="43.33103" lon="1.98829">
        <ele>157</ele>
        <time>2016-03-28T10:03:46Z</time>
      </trkpt>
      <trkpt lat="43.33108" lon="1.9881">
        <ele>156.5</ele>
        <time>2016-03-28T10:03:47Z</time>
      </trkpt>
      <trkpt lat="43.33114" lon="1.98791">
        <ele>156.2</ele>
        <time>2016-03-28T10:03:48Z</time>
      </trkpt>
      <trkpt lat="43.33121" lon="1.98771">
        <ele>155.9</ele>
        <time>2016-03-28T10:03:49Z</time>
      </trkpt>
      <trkpt lat="43.33129" lon="1.98752">
        <ele>155.6</ele>
        <time>2016-03-28T10:03:50Z</time>
      </trkpt>
      <trkpt lat="43.33137" lon="1.98734">
        <ele>155.7</ele>
        <time>2016-03-28T10:03:51Z</time>
      </trkpt>
      <trkpt lat="43.33145" lon="1.98717">
        <ele>155.8</ele>
        <time>2016-03-28T10:03:52Z</time>
      </trkpt>
      <trkpt lat="43.33154" lon="1.98699">
        <ele>155.9</ele>
        <time>2016-03-28T10:03:53Z</time>
      </trkpt>
      <trkpt lat="43.33164" lon="1.98682">
        <ele>156</ele>
        <time>2016-03-28T10:03:54Z</time>
      </trkpt>
      <trkpt lat="43.33174" lon="1.98666">
        <ele>156</ele>
        <time>2016-03-28T10:03:55Z</time>
      </trkpt>
      <trkpt lat="43.33183" lon="1.9865">
        <ele>156.1</ele>
        <time>2016-03-28T10:03:56Z</time>
      </trkpt>
      <trkpt lat="43.33193" lon="1.98636">
        <ele>156.2</ele>
        <time>2016-03-28T10:03:57Z</time>
      </trkpt>
      <trkpt lat="43.33203" lon="1.98621">
        <ele>156.4</ele>
        <time>2016-03-28T10:03:58Z</time>
      </trkpt>
      <trkpt lat="43.33212" lon="1.98607">
        <ele>156.5</ele>
        <time>2016-03-28T10:03:59Z</time>
      </trkpt>
      <trkpt lat="43.33221" lon="1.98595">
        <ele>156.5</ele>
        <time>2016-03-28T10:04:00Z</time>
      </trkpt>
      <trkpt lat="43.33228" lon="1.98586">
        <ele>156.4</ele>
        <time>2016-03-28T10:04:01Z</time>
      </trkpt>
      <trkpt lat="43.33235" lon="1.98577">
        <ele>156.3</ele>
        <time>2016-03-28T10:04:02Z</time>
      </trkpt>
      <trkpt lat="43.33244" lon="1.9857">
        <ele>156.5</ele>
        <time>2016-03-28T10:04:03Z</time>
      </trkpt>
      <trkpt lat="43.33261" lon="1.98563">
        <ele>157.1</ele>
        <time>2016-03-28T10:04:05Z</time>
      </trkpt>
      <trkpt lat="43.3327" lon="1.98562">
        <ele>157.2</ele>
        <time>2016-03-28T10:04:06Z</time>
      </trkpt>
      <trkpt lat="43.33281" lon="1.98562">
        <ele>156.9</ele>
        <time>2016-03-28T10:04:07Z</time>
      </trkpt>
      <trkpt lat="43.33292" lon="1.98562">
        <ele>156.5</ele>
        <time>2016-03-28T10:04:08Z</time>
      </trkpt>
      <trkpt lat="43.33304" lon="1.98562">
        <ele>156.2</ele>
        <time>2016-03-28T10:04:09Z</time>
      </trkpt>
      <trkpt lat="43.33315" lon="1.98563">
        <ele>156</ele>
        <time>2016-03-28T10:04:10Z</time>
      </trkpt>
      <trkpt lat="43.33326" lon="1.98564">
        <ele>156.1</ele>
        <time>2016-03-28T10:04:11Z</time>
      </trkpt>
      <trkpt lat="43.33335" lon="1.98566">
        <ele>156.3</ele>
        <time>2016-03-28T10:04:12Z</time>
      </trkpt>
      <trkpt lat="43.33344" lon="1.98566">
        <ele>156.6</ele>
        <time>2016-03-28T10:04:13Z</time>
      </trkpt>
      <trkpt lat="43.33354" lon="1.98566">
        <ele>157</ele>
        <time>2016-03-28T10:04:14Z</time>
      </trkpt>
      <trkpt lat="43.33364" lon="1.98563">
        <ele>157.3</ele>
        <time>2016-03-28T10:04:15Z</time>
      </trkpt>
      <trkpt lat="43.33373" lon="1.98559">
        <ele>157.7</ele>
        <time>2016-03-28T10:04:16Z</time>
      </trkpt>
      <trkpt lat="43.33383" lon="1.98554">
        <ele>157.9</ele>
        <time>2016-03-28T10:04:17Z</time>
      </trkpt>
      <trkpt lat="43.33392" lon="1.9855">
        <ele>158.3</ele>
        <time>2016-03-28T10:04:18Z</time>
      </trkpt>
      <trkpt lat="43.33401" lon="1.98545">
        <ele>158.7</ele>
        <time>2016-03-28T10:04:19Z</time>
      </trkpt>
      <trkpt lat="43.3341" lon="1.98539">
        <ele>159.2</ele>
        <time>2016-03-28T10:04:20Z</time>
      </trkpt>
      <trkpt lat="43.33419" lon="1.98534">
        <ele>159.7</ele>
        <time>2016-03-28T10:04:21Z</time>
      </trkpt>
      <trkpt lat="43.33429" lon="1.98528">
        <ele>159.6</ele>
        <time>2016-03-28T10:04:22Z</time>
      </trkpt>
      <trkpt lat="43.3344" lon="1.98521">
        <ele>159.7</ele>
        <time>2016-03-28T10:04:23Z</time>
      </trkpt>
      <trkpt lat="43.33451" lon="1.98516">
        <ele>159.8</ele>
        <time>2016-03-28T10:04:24Z</time>
      </trkpt>
      <trkpt lat="43.33461" lon="1.98511">
        <ele>160.2</ele>
        <time>2016-03-28T10:04:25Z</time>
      </trkpt>
      <trkpt lat="43.33471" lon="1.98505">
        <ele>160.7</ele>
        <time>2016-03-28T10:04:26Z</time>
      </trkpt>
      <trkpt lat="43.33482" lon="1.98498">
        <ele>161.1</ele>
        <time>2016-03-28T10:04:27Z</time>
      </trkpt>
      <trkpt lat="43.33493" lon="1.98492">
        <ele>161.4</ele>
        <time>2016-03-28T10:04:28Z</time>
      </trkpt>
      <trkpt lat="43.33503" lon="1.98486">
        <ele>161.6</ele>
        <time>2016-03-28T10:04:29Z</time>
      </trkpt>
      <trkpt lat="43.33515" lon="1.98481">
        <ele>161.8</ele>
        <time>2016-03-28T10:04:30Z</time>
      </trkpt>
      <trkpt lat="43.33529" lon="1.98476">
        <ele>162</ele>
        <time>2016-03-28T10:04:31Z</time>
      </trkpt>
      <trkpt lat="43.33543" lon="1.98472">
        <ele>162</ele>
        <time>2016-03-28T10:04:32Z</time>
      </trkpt>
      <trkpt lat="43.33557" lon="1.9847">
        <ele>161.8</ele>
        <time>2016-03-28T10:04:33Z</time>
      </trkpt>
      <trkpt lat="43.3357" lon="1.98468">
        <ele>161.3</ele>
        <time>2016-03-28T10:04:34Z</time>
      </trkpt>
      <trkpt lat="43.33584" lon="1.98467">
        <ele>160.9</ele>
        <time>2016-03-28T10:04:35Z</time>
      </trkpt>
      <trkpt lat="43.33597" lon="1.98465">
        <ele>160.5</ele>
        <time>2016-03-28T10:04:36Z</time>
      </trkpt>
      <trkpt lat="43.33608" lon="1.98466">
        <ele>160.4</ele>
        <time>2016-03-28T10:04:37Z</time>
      </trkpt>
      <trkpt lat="43.3362" lon="1.98464">
        <ele>160.4</ele>
        <time>2016-03-28T10:04:38Z</time>
      </trkpt>
      <trkpt lat="43.33631" lon="1.98461">
        <ele>160.3</ele>
        <time>2016-03-28T10:04:39Z</time>
      </trkpt>
      <trkpt lat="43.33642" lon="1.98457">
        <ele>160.3</ele>
        <time>2016-03-28T10:04:40Z</time>
      </trkpt>
      <trkpt lat="43.33653" lon="1.98451">
        <ele>160.4</ele>
        <time>2016-03-28T10:04:41Z</time>
      </trkpt>
      <trkpt lat="43.33664" lon="1.98443">
        <ele>160.6</ele>
        <time>2016-03-28T10:04:42Z</time>
      </trkpt>
      <trkpt lat="43.33675" lon="1.98435">
        <ele>161</ele>
        <time>2016-03-28T10:04:43Z</time>
      </trkpt>
      <trkpt lat="43.33685" lon="1.98426">
        <ele>161.4</ele>
        <time>2016-03-28T10:04:44Z</time>
      </trkpt>
      <trkpt lat="43.33692" lon="1.98417">
        <ele>161.5</ele>
        <time>2016-03-28T10:04:45Z</time>
      </trkpt>
      <trkpt lat="43.33703" lon="1.984">
        <ele>162.4</ele>
        <time>2016-03-28T10:04:47Z</time>
      </trkpt>
      <trkpt lat="43.33711" lon="1.98391">
        <ele>163</ele>
        <time>2016-03-28T10:04:49Z</time>
      </trkpt>
      <trkpt lat="43.33721" lon="1.98397">
        <ele>163.1</ele>
        <time>2016-03-28T10:04:53Z</time>
      </trkpt>
      <trkpt lat="43.33732" lon="1.98405">
        <ele>163.1</ele>
        <time>2016-03-28T10:04:56Z</time>
      </trkpt>
      <trkpt lat="43.3374" lon="1.98413">
        <ele>163.1</ele>
        <time>2016-03-28T10:04:58Z</time>
      </trkpt>
      <trkpt lat="43.33749" lon="1.98424">
        <ele>162.8</ele>
        <time>2016-03-28T10:05:00Z</time>
      </trkpt>
      <trkpt lat="43.33761" lon="1.98437">
        <ele>162.6</ele>
        <time>2016-03-28T10:05:02Z</time>
      </trkpt>
      <trkpt lat="43.33774" lon="1.9845">
        <ele>162.5</ele>
        <time>2016-03-28T10:05:04Z</time>
      </trkpt>
      <trkpt lat="43.33788" lon="1.98465">
        <ele>162.6</ele>
        <time>2016-03-28T10:05:06Z</time>
      </trkpt>
      <trkpt lat="43.33796" lon="1.98473">
        <ele>162.7</ele>
        <time>2016-03-28T10:05:07Z</time>
      </trkpt>
      <trkpt lat="43.33803" lon="1.98482">
        <ele>162.8</ele>
        <time>2016-03-28T10:05:08Z</time>
      </trkpt>
      <trkpt lat="43.33811" lon="1.98491">
        <ele>162.8</ele>
        <time>2016-03-28T10:05:09Z</time>
      </trkpt>
      <trkpt lat="43.33818" lon="1.985">
        <ele>162.8</ele>
        <time>2016-03-28T10:05:10Z</time>
      </trkpt>
      <trkpt lat="43.33825" lon="1.9851">
        <ele>162.9</ele>
        <time>2016-03-28T10:05:11Z</time>
      </trkpt>
      <trkpt lat="43.33833" lon="1.98519">
        <ele>163.1</ele>
        <time>2016-03-28T10:05:12Z</time>
      </trkpt>
      <trkpt lat="43.3384" lon="1.98529">
        <ele>163.6</ele>
        <time>2016-03-28T10:05:13Z</time>
      </trkpt>
      <trkpt lat="43.33848" lon="1.9854">
        <ele>164</ele>
        <time>2016-03-28T10:05:14Z</time>
      </trkpt>
      <trkpt lat="43.33856" lon="1.98551">
        <ele>164.4</ele>
        <time>2016-03-28T10:05:15Z</time>
      </trkpt>
      <trkpt lat="43.33863" lon="1.9856">
        <ele>164.8</ele>
        <time>2016-03-28T10:05:16Z</time>
      </trkpt>
      <trkpt lat="43.3387" lon="1.9857">
        <ele>165.2</ele>
        <time>2016-03-28T10:05:17Z</time>
      </trkpt>
      <trkpt lat="43.33877" lon="1.9858">
        <ele>165.5</ele>
        <time>2016-03-28T10:05:18Z</time>
      </trkpt>
      <trkpt lat="43.33885" lon="1.98589">
        <ele>165.6</ele>
        <time>2016-03-28T10:05:19Z</time>
      </trkpt>
      <trkpt lat="43.33893" lon="1.98598">
        <ele>165.7</ele>
        <time>2016-03-28T10:05:20Z</time>
      </trkpt>
      <trkpt lat="43.33901" lon="1.98607">
        <ele>165.9</ele>
        <time>2016-03-28T10:05:21Z</time>
      </trkpt>
      <trkpt lat="43.33909" lon="1.98616">
        <ele>165.8</ele>
        <time>2016-03-28T10:05:22Z</time>
      </trkpt>
      <trkpt lat="43.33918" lon="1.98624">
        <ele>165.8</ele>
        <time>2016-03-28T10:05:23Z</time>
      </trkpt>
      <trkpt lat="43.33928" lon="1.98633">
        <ele>165.8</ele>
        <time>2016-03-28T10:05:24Z</time>
      </trkpt>
      <trkpt lat="43.33939" lon="1.98641">
        <ele>165.8</ele>
        <time>2016-03-28T10:05:25Z</time>
      </trkpt>
      <trkpt lat="43.33951" lon="1.9865">
        <ele>165.6</ele>
        <time>2016-03-28T10:05:26Z</time>
      </trkpt>
      <trkpt lat="43.33962" lon="1.98656">
        <ele>165.4</ele>
        <time>2016-03-28T10:05:27Z</time>
      </trkpt>
      <trkpt lat="43.33975" lon="1.98663">
        <ele>165.4</ele>
        <time>2016-03-28T10:05:28Z</time>
      </trkpt>
      <trkpt lat="43.33988" lon="1.98669">
        <ele>165.2</ele>
        <time>2016-03-28T10:05:29Z</time>
      </trkpt>
      <trkpt lat="43.34" lon="1.98674">
        <ele>165.2</ele>
        <time>2016-03-28T10:05:30Z</time>
      </trkpt>
      <trkpt lat="43.34012" lon="1.98679">
        <ele>165.3</ele>
        <time>2016-03-28T10:05:31Z</time>
      </trkpt>
      <trkpt lat="43.34024" lon="1.98684">
        <ele>165.3</ele>
        <time>2016-03-28T10:05:32Z</time>
      </trkpt>
      <trkpt lat="43.34037" lon="1.98689">
        <ele>165.4</ele>
        <time>2016-03-28T10:05:33Z</time>
      </trkpt>
      <trkpt lat="43.34049" lon="1.98695">
        <ele>165.5</ele>
        <time>2016-03-28T10:05:34Z</time>
      </trkpt>
      <trkpt lat="43.34061" lon="1.98701">
        <ele>165.6</ele>
        <time>2016-03-28T10:05:35Z</time>
      </trkpt>
      <trkpt lat="43.34073" lon="1.98707">
        <ele>165.7</ele>
        <time>2016-03-28T10:05:36Z</time>
      </trkpt>
      <trkpt lat="43.34085" lon="1.98713">
        <ele>165.7</ele>
        <time>2016-03-28T10:05:37Z</time>
      </trkpt>
      <trkpt lat="43.34097" lon="1.98719">
        <ele>165.8</ele>
        <time>2016-03-28T10:05:38Z</time>
      </trkpt>
      <trkpt lat="43.34109" lon="1.98724">
        <ele>165.7</ele>
        <time>2016-03-28T10:05:39Z</time>
      </trkpt>
      <trkpt lat="43.34122" lon="1.9873">
        <ele>165.6</ele>
        <time>2016-03-28T10:05:40Z</time>
      </trkpt>
      <trkpt lat="43.34135" lon="1.98734">
        <ele>165.6</ele>
        <time>2016-03-28T10:05:41Z</time>
      </trkpt>
      <trkpt lat="43.34149" lon="1.98737">
        <ele>165.6</ele>
        <time>2016-03-28T10:05:42Z</time>
      </trkpt>
      <trkpt lat="43.34163" lon="1.98739">
        <ele>165.5</ele>
        <time>2016-03-28T10:05:43Z</time>
      </trkpt>
      <trkpt lat="43.34177" lon="1.9874">
        <ele>165.5</ele>
        <time>2016-03-28T10:05:44Z</time>
      </trkpt>
      <trkpt lat="43.34191" lon="1.9874">
        <ele>165.5</ele>
        <time>2016-03-28T10:05:45Z</time>
      </trkpt>
      <trkpt lat="43.34205" lon="1.98739">
        <ele>165.6</ele>
        <time>2016-03-28T10:05:46Z</time>
      </trkpt>
      <trkpt lat="43.3422" lon="1.98736">
        <ele>165.9</ele>
        <time>2016-03-28T10:05:47Z</time>
      </trkpt>
      <trkpt lat="43.34234" lon="1.98733">
        <ele>166.1</ele>
        <time>2016-03-28T10:05:48Z</time>
      </trkpt>
      <trkpt lat="43.34248" lon="1.98727">
        <ele>166.7</ele>
        <time>2016-03-28T10:05:49Z</time>
      </trkpt>
      <trkpt lat="43.34263" lon="1.98721">
        <ele>166.9</ele>
        <time>2016-03-28T10:05:50Z</time>
      </trkpt>
      <trkpt lat="43.34277" lon="1.98715">
        <ele>167.3</ele>
        <time>2016-03-28T10:05:51Z</time>
      </trkpt>
      <trkpt lat="43.34291" lon="1.98709">
        <ele>167.4</ele>
        <time>2016-03-28T10:05:52Z</time>
      </trkpt>
      <trkpt lat="43.34304" lon="1.98702">
        <ele>167.7</ele>
        <time>2016-03-28T10:05:53Z</time>
      </trkpt>
      <trkpt lat="43.34316" lon="1.98697">
        <ele>167.8</ele>
        <time>2016-03-28T10:05:54Z</time>
      </trkpt>
      <trkpt lat="43.34328" lon="1.98692">
        <ele>167.9</ele>
        <time>2016-03-28T10:05:55Z</time>
      </trkpt>
      <trkpt lat="43.34338" lon="1.98691">
        <ele>168.3</ele>
        <time>2016-03-28T10:05:56Z</time>
      </trkpt>
      <trkpt lat="43.34348" lon="1.98692">
        <ele>168.8</ele>
        <time>2016-03-28T10:05:57Z</time>
      </trkpt>
      <trkpt lat="43.34361" lon="1.987">
        <ele>167.6</ele>
        <time>2016-03-28T10:05:59Z</time>
      </trkpt>
      <trkpt lat="43.3437" lon="1.98712">
        <ele>166</ele>
        <time>2016-03-28T10:06:01Z</time>
      </trkpt>
      <trkpt lat="43.34377" lon="1.98724">
        <ele>165.7</ele>
        <time>2016-03-28T10:06:04Z</time>
      </trkpt>
      <trkpt lat="43.34375" lon="1.98741">
        <ele>165.4</ele>
        <time>2016-03-28T10:06:07Z</time>
      </trkpt>
      <trkpt lat="43.34366" lon="1.98747">
        <ele>165</ele>
        <time>2016-03-28T10:06:10Z</time>
      </trkpt>
      <trkpt lat="43.34357" lon="1.98755">
        <ele>164.7</ele>
        <time>2016-03-28T10:06:13Z</time>
      </trkpt>
      <trkpt lat="43.34365" lon="1.98763">
        <ele>165.7</ele>
        <time>2016-03-28T10:17:32Z</time>
      </trkpt>
      <trkpt lat="43.34356" lon="1.98762">
        <ele>166</ele>
        <time>2016-03-28T10:22:05Z</time>
      </trkpt>
      <trkpt lat="43.34365" lon="1.98763">
        <ele>164.1</ele>
        <time>2016-03-28T10:24:55Z</time>
      </trkpt>
      <trkpt lat="43.34356" lon="1.98759">
        <ele>161.7</ele>
        <time>2016-03-28T10:29:46Z</time>
      </trkpt>
      <trkpt lat="43.34359" lon="1.98774">
        <ele>162</ele>
        <time>2016-03-28T10:36:25Z</time>
      </trkpt>
      <trkpt lat="43.34359" lon="1.9879">
        <ele>159</ele>
        <time>2016-03-28T10:36:27Z</time>
      </trkpt>
      <trkpt lat="43.34361" lon="1.98806">
        <ele>155.6</ele>
        <time>2016-03-28T10:36:29Z</time>
      </trkpt>
      <trkpt lat="43.34364" lon="1.98826">
        <ele>153.8</ele>
        <time>2016-03-28T10:36:31Z</time>
      </trkpt>
      <trkpt lat="43.34368" lon="1.98845">
        <ele>152.9</ele>
        <time>2016-03-28T10:36:33Z</time>
      </trkpt>
      <trkpt lat="43.34373" lon="1.98867">
        <ele>152.7</ele>
        <time>2016-03-28T10:36:35Z</time>
      </trkpt>
      <trkpt lat="43.34376" lon="1.98888">
        <ele>153</ele>
        <time>2016-03-28T10:36:37Z</time>
      </trkpt>
      <trkpt lat="43.3438" lon="1.98908">
        <ele>153.8</ele>
        <time>2016-03-28T10:36:39Z</time>
      </trkpt>
      <trkpt lat="43.34384" lon="1.98927">
        <ele>153.7</ele>
        <time>2016-03-28T10:36:41Z</time>
      </trkpt>
      <trkpt lat="43.34389" lon="1.98947">
        <ele>153.4</ele>
        <time>2016-03-28T10:36:43Z</time>
      </trkpt>
      <trkpt lat="43.34394" lon="1.98965">
        <ele>154</ele>
        <time>2016-03-28T10:36:45Z</time>
      </trkpt>
      <trkpt lat="43.34399" lon="1.98984">
        <ele>155.1</ele>
        <time>2016-03-28T10:36:47Z</time>
      </trkpt>
      <trkpt lat="43.34404" lon="1.99007">
        <ele>156.6</ele>
        <time>2016-03-28T10:36:49Z</time>
      </trkpt>
      <trkpt lat="43.34407" lon="1.9902">
        <ele>157.1</ele>
        <time>2016-03-28T10:36:50Z</time>
      </trkpt>
      <trkpt lat="43.34408" lon="1.99032">
        <ele>157</ele>
        <time>2016-03-28T10:36:51Z</time>
      </trkpt>
      <trkpt lat="43.34407" lon="1.99045">
        <ele>157</ele>
        <time>2016-03-28T10:36:52Z</time>
      </trkpt>
      <trkpt lat="43.34406" lon="1.99059">
        <ele>157.1</ele>
        <time>2016-03-28T10:36:53Z</time>
      </trkpt>
      <trkpt lat="43.34405" lon="1.99072">
        <ele>157.1</ele>
        <time>2016-03-28T10:36:54Z</time>
      </trkpt>
      <trkpt lat="43.34403" lon="1.99085">
        <ele>157.1</ele>
        <time>2016-03-28T10:36:55Z</time>
      </trkpt>
      <trkpt lat="43.34401" lon="1.99099">
        <ele>157.4</ele>
        <time>2016-03-28T10:36:56Z</time>
      </trkpt>
      <trkpt lat="43.34399" lon="1.99112">
        <ele>157.7</ele>
        <time>2016-03-28T10:36:57Z</time>
      </trkpt>
      <trkpt lat="43.34396" lon="1.99125">
        <ele>158.2</ele>
        <time>2016-03-28T10:36:58Z</time>
      </trkpt>
      <trkpt lat="43.34392" lon="1.99138">
        <ele>158.7</ele>
        <time>2016-03-28T10:36:59Z</time>
      </trkpt>
      <trkpt lat="43.34388" lon="1.99152">
        <ele>159</ele>
        <time>2016-03-28T10:37:00Z</time>
      </trkpt>
      <trkpt lat="43.34384" lon="1.99165">
        <ele>159.5</ele>
        <time>2016-03-28T10:37:01Z</time>
      </trkpt>
      <trkpt lat="43.34379" lon="1.99176">
        <ele>159.6</ele>
        <time>2016-03-28T10:37:02Z</time>
      </trkpt>
      <trkpt lat="43.34369" lon="1.99196">
        <ele>160.9</ele>
        <time>2016-03-28T10:37:04Z</time>
      </trkpt>
      <trkpt lat="43.34359" lon="1.99214">
        <ele>161.9</ele>
        <time>2016-03-28T10:37:06Z</time>
      </trkpt>
      <trkpt lat="43.34349" lon="1.99233">
        <ele>163.7</ele>
        <time>2016-03-28T10:37:08Z</time>
      </trkpt>
      <trkpt lat="43.34341" lon="1.99251">
        <ele>165.4</ele>
        <time>2016-03-28T10:37:10Z</time>
      </trkpt>
      <trkpt lat="43.34333" lon="1.99268">
        <ele>166.1</ele>
        <time>2016-03-28T10:37:12Z</time>
      </trkpt>
      <trkpt lat="43.34326" lon="1.99286">
        <ele>166.5</ele>
        <time>2016-03-28T10:37:14Z</time>
      </trkpt>
      <trkpt lat="43.34319" lon="1.99306">
        <ele>166</ele>
        <time>2016-03-28T10:37:16Z</time>
      </trkpt>
      <trkpt lat="43.34312" lon="1.99325">
        <ele>164.9</ele>
        <time>2016-03-28T10:37:18Z</time>
      </trkpt>
      <trkpt lat="43.34305" lon="1.99344">
        <ele>163.9</ele>
        <time>2016-03-28T10:37:20Z</time>
      </trkpt>
      <trkpt lat="43.34299" lon="1.99363">
        <ele>164.3</ele>
        <time>2016-03-28T10:37:22Z</time>
      </trkpt>
      <trkpt lat="43.34293" lon="1.9938">
        <ele>166.1</ele>
        <time>2016-03-28T10:37:24Z</time>
      </trkpt>
      <trkpt lat="43.3429" lon="1.99391">
        <ele>167</ele>
        <time>2016-03-28T10:37:26Z</time>
      </trkpt>
      <trkpt lat="43.34285" lon="1.99407">
        <ele>168.1</ele>
        <time>2016-03-28T10:37:29Z</time>
      </trkpt>
      <trkpt lat="43.34281" lon="1.99421">
        <ele>171.6</ele>
        <time>2016-03-28T10:37:32Z</time>
      </trkpt>
      <trkpt lat="43.34277" lon="1.99438">
        <ele>173.1</ele>
        <time>2016-03-28T10:37:36Z</time>
      </trkpt>
      <trkpt lat="43.34275" lon="1.99452">
        <ele>173.3</ele>
        <time>2016-03-28T10:37:39Z</time>
      </trkpt>
      <trkpt lat="43.34274" lon="1.99465">
        <ele>173.9</ele>
        <time>2016-03-28T10:37:42Z</time>
      </trkpt>
      <trkpt lat="43.34273" lon="1.99479">
        <ele>173.7</ele>
        <time>2016-03-28T10:37:45Z</time>
      </trkpt>
      <trkpt lat="43.34272" lon="1.99495">
        <ele>173.4</ele>
        <time>2016-03-28T10:37:49Z</time>
      </trkpt>
      <trkpt lat="43.34271" lon="1.9951">
        <ele>173.4</ele>
        <time>2016-03-28T10:37:53Z</time>
      </trkpt>
      <trkpt lat="43.34274" lon="1.99498">
        <ele>177</ele>
        <time>2016-03-28T10:39:44Z</time>
      </trkpt>
    </trkseg>
  </trk>
</gpx>